<?xml version='1.0' encoding='UTF-8'?><gpx version="1.1" creator="JPX - https://github.com/jenetics/jpx" xmlns="http://www.topografix.com/GPX/1/1"><trk><trkseg><trkpt lat="46.21258322886261" lon="13.078353158019805"><ele>164.0</ele><time>2026-05-03T08:16:56.001Z</time></trkpt><trkpt lat="46.212647931109466" lon="13.078394109071322"><ele>164.0</ele><time>2026-05-03T08:16:58.001Z</time></trkpt><trkpt lat="46.21271932447953" lon="13.078384490135635"><ele>164.0</ele><time>2026-05-03T08:17:00.001Z</time></trkpt><trkpt lat="46.21279184760396" lon="13.078400348829225"><ele>164.0</ele><time>2026-05-03T08:17:02.001Z</time></trkpt><trkpt lat="46.21288636273742" lon="13.078401438428587"><ele>164.0</ele><time>2026-05-03T08:17:04.001Z</time></trkpt><trkpt lat="46.2129752817331" lon="13.078409283343364"><ele>164.0</ele><time>2026-05-03T08:17:05.001Z</time></trkpt><trkpt lat="46.21305005155834" lon="13.078406422452733"><ele>164.0</ele><time>2026-05-03T08:17:06.001Z</time></trkpt><trkpt lat="46.21312275254594" lon="13.078411013817817"><ele>164.0</ele><time>2026-05-03T08:17:07.001Z</time></trkpt><trkpt lat="46.2131925223842" lon="13.078428210114215"><ele>164.0</ele><time>2026-05-03T08:17:08.001Z</time></trkpt><trkpt lat="46.213264931174386" lon="13.078456033731811"><ele>164.0</ele><time>2026-05-03T08:17:09.001Z</time></trkpt><trkpt lat="46.21334520471763" lon="13.078503200774183"><ele>164.0</ele><time>2026-05-03T08:17:10.001Z</time></trkpt><trkpt lat="46.21340162916082" lon="13.078543968097119"><ele>164.0</ele><time>2026-05-03T08:17:11.001Z</time></trkpt><trkpt lat="46.21349335997567" lon="13.078606444586226"><ele>163.5</ele><time>2026-05-03T08:17:13Z</time></trkpt><trkpt lat="46.21360383736039" lon="13.078705620464413"><ele>163.0</ele><time>2026-05-03T08:17:15Z</time></trkpt><trkpt lat="46.21365931337038" lon="13.07876494125467"><ele>162.5</ele><time>2026-05-03T08:17:16Z</time></trkpt><trkpt lat="46.21371704225975" lon="13.078821997657437"><ele>162.0</ele><time>2026-05-03T08:17:17Z</time></trkpt><trkpt lat="46.21377423606841" lon="13.078882385157499"><ele>161.5</ele><time>2026-05-03T08:17:18Z</time></trkpt><trkpt lat="46.21383945850056" lon="13.078951155752438"><ele>161.0</ele><time>2026-05-03T08:17:19Z</time></trkpt><trkpt lat="46.2139143105717" lon="13.079025286573728"><ele>161.0</ele><time>2026-05-03T08:17:20Z</time></trkpt><trkpt lat="46.21398352775068" lon="13.07909211841849"><ele>161.0</ele><time>2026-05-03T08:17:21Z</time></trkpt><trkpt lat="46.21405418544237" lon="13.079158701454404"><ele>161.0</ele><time>2026-05-03T08:17:22Z</time></trkpt><trkpt lat="46.21412155147193" lon="13.079223220747588"><ele>161.0</ele><time>2026-05-03T08:17:23.001Z</time></trkpt><trkpt lat="46.21419774050833" lon="13.079298005283823"><ele>161.0</ele><time>2026-05-03T08:17:24.001Z</time></trkpt><trkpt lat="46.21428452820309" lon="13.079379216289885"><ele>161.0</ele><time>2026-05-03T08:17:25.001Z</time></trkpt><trkpt lat="46.21437322326731" lon="13.07946390357024"><ele>161.16666666666666</ele><time>2026-05-03T08:17:26.001Z</time></trkpt><trkpt lat="46.21444561411212" lon="13.079533330930834"><ele>161.33333333333331</ele><time>2026-05-03T08:17:27.001Z</time></trkpt><trkpt lat="46.21450811129402" lon="13.079590706598609"><ele>161.5</ele><time>2026-05-03T08:17:28.001Z</time></trkpt><trkpt lat="46.21456742232108" lon="13.07964997898764"><ele>161.66666666666666</ele><time>2026-05-03T08:17:29.001Z</time></trkpt><trkpt lat="46.21463519071181" lon="13.07972075616275"><ele>161.83333333333334</ele><time>2026-05-03T08:17:30.001Z</time></trkpt><trkpt lat="46.214710077700246" lon="13.079798051571748"><ele>162.0</ele><time>2026-05-03T08:17:31.001Z</time></trkpt><trkpt lat="46.214775583222" lon="13.079868659355036"><ele>162.2</ele><time>2026-05-03T08:17:32.001Z</time></trkpt><trkpt lat="46.21487364403162" lon="13.079965655030819"><ele>162.39999999999998</ele><time>2026-05-03T08:17:34.001Z</time></trkpt><trkpt lat="46.21496858626495" lon="13.080068815591098"><ele>162.60000000000002</ele><time>2026-05-03T08:17:36.001Z</time></trkpt><trkpt lat="46.21502850230486" lon="13.080124918334688"><ele>162.8</ele><time>2026-05-03T08:17:37.001Z</time></trkpt><trkpt lat="46.215104220833915" lon="13.08017647812417"><ele>163.0</ele><time>2026-05-03T08:17:38.001Z</time></trkpt><trkpt lat="46.215191778076516" lon="13.080216434798418"><ele>163.0</ele><time>2026-05-03T08:17:39.001Z</time></trkpt><trkpt lat="46.2152863591779" lon="13.080252694046006"><ele>163.0</ele><time>2026-05-03T08:17:40.001Z</time></trkpt><trkpt lat="46.21537529656311" lon="13.080288021973095"><ele>163.0</ele><time>2026-05-03T08:17:41.001Z</time></trkpt><trkpt lat="46.21546075712823" lon="13.080317354809699"><ele>163.0</ele><time>2026-05-03T08:17:42.001Z</time></trkpt><trkpt lat="46.215545037616515" lon="13.080342825005156"><ele>163.0</ele><time>2026-05-03T08:17:43.001Z</time></trkpt><trkpt lat="46.21561648877376" lon="13.080359269678594"><ele>163.0</ele><time>2026-05-03T08:17:44.001Z</time></trkpt><trkpt lat="46.21568590324143" lon="13.080369793762722"><ele>163.0</ele><time>2026-05-03T08:17:45.001Z</time></trkpt><trkpt lat="46.21576255313061" lon="13.080382952938047"><ele>163.0</ele><time>2026-05-03T08:17:46.001Z</time></trkpt><trkpt lat="46.215851288642924" lon="13.080393805882059"><ele>163.0</ele><time>2026-05-03T08:17:47.001Z</time></trkpt><trkpt lat="46.215945494001254" lon="13.080409345859968"><ele>163.0</ele><time>2026-05-03T08:17:48.001Z</time></trkpt><trkpt lat="46.216033802004276" lon="13.080457505078636"><ele>163.0</ele><time>2026-05-03T08:17:49.001Z</time></trkpt><trkpt lat="46.21610893881469" lon="13.080502579309881"><ele>163.0</ele><time>2026-05-03T08:17:50.001Z</time></trkpt><trkpt lat="46.21617296324478" lon="13.080545895924358"><ele>163.0</ele><time>2026-05-03T08:17:51.001Z</time></trkpt><trkpt lat="46.21623583952897" lon="13.080588523864419"><ele>163.0</ele><time>2026-05-03T08:17:52.001Z</time></trkpt><trkpt lat="46.21630459512589" lon="13.080636338095518"><ele>163.0</ele><time>2026-05-03T08:17:53.001Z</time></trkpt><trkpt lat="46.21636662775166" lon="13.080716504088187"><ele>163.0</ele><time>2026-05-03T08:17:54.001Z</time></trkpt><trkpt lat="46.216412426584334" lon="13.080828121672905"><ele>163.0</ele><time>2026-05-03T08:17:55.001Z</time></trkpt><trkpt lat="46.21643134316765" lon="13.080939759051882"><ele>163.0</ele><time>2026-05-03T08:17:56Z</time></trkpt><trkpt lat="46.21643747337092" lon="13.081058834009221"><ele>163.16666666666669</ele><time>2026-05-03T08:17:57Z</time></trkpt><trkpt lat="46.216432969703924" lon="13.081165522672856"><ele>163.33333333333334</ele><time>2026-05-03T08:17:58Z</time></trkpt><trkpt lat="46.216434725315416" lon="13.081260265665529"><ele>163.5</ele><time>2026-05-03T08:17:59Z</time></trkpt><trkpt lat="46.21643731092595" lon="13.081442376294433"><ele>163.66666666666666</ele><time>2026-05-03T08:18:01Z</time></trkpt><trkpt lat="46.21646860764335" lon="13.08155331691306"><ele>163.83333333333331</ele><time>2026-05-03T08:18:02Z</time></trkpt><trkpt lat="46.21652488258923" lon="13.081666328001711"><ele>164.0</ele><time>2026-05-03T08:18:03Z</time></trkpt><trkpt lat="46.2166279230445" lon="13.081743772146897"><ele>164.0</ele><time>2026-05-03T08:18:04Z</time></trkpt><trkpt lat="46.21673984734714" lon="13.08183218025958"><ele>164.0</ele><time>2026-05-03T08:18:05Z</time></trkpt><trkpt lat="46.2168784689911" lon="13.081917473865406"><ele>164.0</ele><time>2026-05-03T08:18:06Z</time></trkpt><trkpt lat="46.217010168305286" lon="13.08200842682801"><ele>164.0</ele><time>2026-05-03T08:18:07Z</time></trkpt><trkpt lat="46.21721311947263" lon="13.082133359626775"><ele>164.0</ele><time>2026-05-03T08:18:08Z</time></trkpt><trkpt lat="46.21739533992121" lon="13.082245621940116"><ele>164.0</ele><time>2026-05-03T08:18:09Z</time></trkpt><trkpt lat="46.21754724845546" lon="13.082330168423841"><ele>164.0</ele><time>2026-05-03T08:18:10Z</time></trkpt><trkpt lat="46.217678625499076" lon="13.082407038898571"><ele>164.0</ele><time>2026-05-03T08:18:11Z</time></trkpt><trkpt lat="46.21779539626402" lon="13.082473465541373"><ele>164.0</ele><time>2026-05-03T08:18:12Z</time></trkpt><trkpt lat="46.21789944465882" lon="13.082535672650677"><ele>164.0</ele><time>2026-05-03T08:18:13Z</time></trkpt><trkpt lat="46.21799012465213" lon="13.08259216961388"><ele>164.0</ele><time>2026-05-03T08:18:14Z</time></trkpt><trkpt lat="46.21806934092647" lon="13.082641519845593"><ele>164.0</ele><time>2026-05-03T08:18:15Z</time></trkpt><trkpt lat="46.21814510098611" lon="13.082689913531812"><ele>164.0</ele><time>2026-05-03T08:18:16Z</time></trkpt><trkpt lat="46.218236914828545" lon="13.082763736948236"><ele>164.0</ele><time>2026-05-03T08:18:17Z</time></trkpt><trkpt lat="46.2183066271035" lon="13.082861846684295"><ele>164.0</ele><time>2026-05-03T08:18:18Z</time></trkpt><trkpt lat="46.21836803658226" lon="13.082922127792314"><ele>164.0</ele><time>2026-05-03T08:18:19Z</time></trkpt><trkpt lat="46.21841981490455" lon="13.082978675122238"><ele>164.0</ele><time>2026-05-03T08:18:20Z</time></trkpt><trkpt lat="46.218479651893716" lon="13.083043286033808"><ele>164.0</ele><time>2026-05-03T08:18:21Z</time></trkpt><trkpt lat="46.218422899565915" lon="13.083297396125596"><ele>164.0</ele><time>2026-05-03T08:18:22Z</time></trkpt><trkpt lat="46.218404973245384" lon="13.083449528428735"><ele>164.0</ele><time>2026-05-03T08:18:23Z</time></trkpt><trkpt lat="46.21836407303646" lon="13.083631530293177"><ele>164.0</ele><time>2026-05-03T08:18:24Z</time></trkpt><trkpt lat="46.21826694130338" lon="13.083798586107164"><ele>164.0</ele><time>2026-05-03T08:18:25Z</time></trkpt><trkpt lat="46.21818196738858" lon="13.084029371170429"><ele>164.0</ele><time>2026-05-03T08:18:26Z</time></trkpt><trkpt lat="46.218058140121734" lon="13.084291014876285"><ele>164.0</ele><time>2026-05-03T08:18:27Z</time></trkpt><trkpt lat="46.21792237910133" lon="13.084596086267567"><ele>164.0</ele><time>2026-05-03T08:18:28Z</time></trkpt><trkpt lat="46.21780310509548" lon="13.084866857311145"><ele>164.0</ele><time>2026-05-03T08:18:29Z</time></trkpt><trkpt lat="46.21770017803323" lon="13.085084822914478"><ele>164.0</ele><time>2026-05-03T08:18:30Z</time></trkpt><trkpt lat="46.21761090163427" lon="13.085276664542697"><ele>164.25</ele><time>2026-05-03T08:18:31Z</time></trkpt><trkpt lat="46.21752870124735" lon="13.085454216420358"><ele>164.5</ele><time>2026-05-03T08:18:32Z</time></trkpt><trkpt lat="46.217459328506656" lon="13.085617387209421"><ele>164.75</ele><time>2026-05-03T08:18:33Z</time></trkpt><trkpt lat="46.217391312568736" lon="13.085765034778005"><ele>165.0</ele><time>2026-05-03T08:18:34Z</time></trkpt><trkpt lat="46.2173161303722" lon="13.085931548892889"><ele>165.0</ele><time>2026-05-03T08:18:35Z</time></trkpt><trkpt lat="46.21725505230068" lon="13.08608295594283"><ele>165.0</ele><time>2026-05-03T08:18:36Z</time></trkpt><trkpt lat="46.21719818498692" lon="13.086210764234304"><ele>165.0</ele><time>2026-05-03T08:18:37Z</time></trkpt><trkpt lat="46.217150851974694" lon="13.086330259477426"><ele>165.0</ele><time>2026-05-03T08:18:38Z</time></trkpt><trkpt lat="46.21711490444217" lon="13.086448829492301"><ele>165.0</ele><time>2026-05-03T08:18:39Z</time></trkpt><trkpt lat="46.217096673400206" lon="13.086542065063362"><ele>165.0</ele><time>2026-05-03T08:18:40Z</time></trkpt><trkpt lat="46.217063294053325" lon="13.086653060849727"><ele>165.0</ele><time>2026-05-03T08:18:41Z</time></trkpt><trkpt lat="46.21700676372383" lon="13.086751023840419"><ele>165.0</ele><time>2026-05-03T08:18:42Z</time></trkpt><trkpt lat="46.216960227386494" lon="13.086833098398593"><ele>165.0</ele><time>2026-05-03T08:18:43Z</time></trkpt><trkpt lat="46.216957763129145" lon="13.08693537688023"><ele>165.0</ele><time>2026-05-03T08:18:44Z</time></trkpt><trkpt lat="46.21708519406775" lon="13.087087825319305"><ele>165.0</ele><time>2026-05-03T08:18:46Z</time></trkpt><trkpt lat="46.217195342811046" lon="13.087107192457085"><ele>165.0</ele><time>2026-05-03T08:18:47Z</time></trkpt><trkpt lat="46.21734290900179" lon="13.087097496528457"><ele>165.0</ele><time>2026-05-03T08:18:48Z</time></trkpt><trkpt lat="46.21752598159212" lon="13.08720713005319"><ele>164.5</ele><time>2026-05-03T08:18:49Z</time></trkpt><trkpt lat="46.217745673500225" lon="13.087313220162994"><ele>164.0</ele><time>2026-05-03T08:18:50Z</time></trkpt><trkpt lat="46.21797645176556" lon="13.087414179919548"><ele>164.5</ele><time>2026-05-03T08:18:51Z</time></trkpt><trkpt lat="46.218229659586505" lon="13.08751585422813"><ele>165.0</ele><time>2026-05-03T08:18:52Z</time></trkpt><trkpt lat="46.21851625350139" lon="13.087632532087586"><ele>165.0</ele><time>2026-05-03T08:18:53Z</time></trkpt><trkpt lat="46.218819026904995" lon="13.087768025957917"><ele>165.0</ele><time>2026-05-03T08:18:54Z</time></trkpt><trkpt lat="46.219086743731644" lon="13.087888376177881"><ele>163.5</ele><time>2026-05-03T08:18:55Z</time></trkpt><trkpt lat="46.21932546742137" lon="13.087987467803574"><ele>162.0</ele><time>2026-05-03T08:18:56Z</time></trkpt><trkpt lat="46.2195464534804" lon="13.088081531436826"><ele>162.0</ele><time>2026-05-03T08:18:57Z</time></trkpt><trkpt lat="46.21975033872391" lon="13.088176361722422"><ele>162.0</ele><time>2026-05-03T08:18:58Z</time></trkpt><trkpt lat="46.21994933330008" lon="13.08826801812057"><ele>162.0</ele><time>2026-05-03T08:18:59Z</time></trkpt><trkpt lat="46.22016967709169" lon="13.08836247318021"><ele>162.66666666666666</ele><time>2026-05-03T08:19:00Z</time></trkpt><trkpt lat="46.22038305853384" lon="13.088444893179508"><ele>163.33333333333331</ele><time>2026-05-03T08:19:01Z</time></trkpt><trkpt lat="46.22060241608636" lon="13.088524474882373"><ele>164.0</ele><time>2026-05-03T08:19:02Z</time></trkpt><trkpt lat="46.22083109156988" lon="13.088604764003675"><ele>164.33333333333331</ele><time>2026-05-03T08:19:03Z</time></trkpt><trkpt lat="46.22104980179762" lon="13.088686348646474"><ele>164.66666666666666</ele><time>2026-05-03T08:19:04Z</time></trkpt><trkpt lat="46.221261568402014" lon="13.088763809409432"><ele>165.0</ele><time>2026-05-03T08:19:05Z</time></trkpt><trkpt lat="46.22148592158431" lon="13.088832805848876"><ele>163.5</ele><time>2026-05-03T08:19:06Z</time></trkpt><trkpt lat="46.2217303030476" lon="13.088889708495023"><ele>162.0</ele><time>2026-05-03T08:19:07Z</time></trkpt><trkpt lat="46.222012310157474" lon="13.088967821194979"><ele>162.5</ele><time>2026-05-03T08:19:08Z</time></trkpt><trkpt lat="46.22232901834022" lon="13.089048138510181"><ele>163.0</ele><time>2026-05-03T08:19:09Z</time></trkpt><trkpt lat="46.2226760993847" lon="13.089106143011453"><ele>163.5</ele><time>2026-05-03T08:19:10Z</time></trkpt><trkpt lat="46.22303770490638" lon="13.089201766632367"><ele>164.0</ele><time>2026-05-03T08:19:11Z</time></trkpt><trkpt lat="46.22340409162903" lon="13.089276067112149"><ele>164.0</ele><time>2026-05-03T08:19:12Z</time></trkpt><trkpt lat="46.223725988975715" lon="13.08932992971041"><ele>164.0</ele><time>2026-05-03T08:19:13Z</time></trkpt><trkpt lat="46.22401734945036" lon="13.089381610951735"><ele>164.5</ele><time>2026-05-03T08:19:14Z</time></trkpt><trkpt lat="46.22429364136202" lon="13.089439370421845"><ele>165.0</ele><time>2026-05-03T08:19:15Z</time></trkpt><trkpt lat="46.22456856686508" lon="13.089495528134268"><ele>165.5</ele><time>2026-05-03T08:19:16Z</time></trkpt><trkpt lat="46.22484840697691" lon="13.089545275313656"><ele>166.0</ele><time>2026-05-03T08:19:17Z</time></trkpt><trkpt lat="46.22511506974916" lon="13.089592040421786"><ele>166.0</ele><time>2026-05-03T08:19:18Z</time></trkpt><trkpt lat="46.22536402796026" lon="13.08963847874524"><ele>166.0</ele><time>2026-05-03T08:19:19Z</time></trkpt><trkpt lat="46.225591056549625" lon="13.089679767967194"><ele>165.0</ele><time>2026-05-03T08:19:20Z</time></trkpt><trkpt lat="46.22581730386423" lon="13.089721199253749"><ele>164.0</ele><time>2026-05-03T08:19:21Z</time></trkpt><trkpt lat="46.226051431937734" lon="13.089769432964792"><ele>164.0</ele><time>2026-05-03T08:19:22Z</time></trkpt><trkpt lat="46.22626583998472" lon="13.089814995403533"><ele>164.0</ele><time>2026-05-03T08:19:23Z</time></trkpt><trkpt lat="46.22646968137806" lon="13.089865945278483"><ele>164.0</ele><time>2026-05-03T08:19:24Z</time></trkpt><trkpt lat="46.22669770090768" lon="13.08993621198375"><ele>164.5</ele><time>2026-05-03T08:19:25Z</time></trkpt><trkpt lat="46.22695068188412" lon="13.090026197418222"><ele>165.0</ele><time>2026-05-03T08:19:26Z</time></trkpt><trkpt lat="46.22722150660209" lon="13.090135528409938"><ele>165.5</ele><time>2026-05-03T08:19:27Z</time></trkpt><trkpt lat="46.22750629285498" lon="13.090250090544052"><ele>166.0</ele><time>2026-05-03T08:19:28Z</time></trkpt><trkpt lat="46.22779408472503" lon="13.090357912394039"><ele>166.0</ele><time>2026-05-03T08:19:29.001Z</time></trkpt><trkpt lat="46.22807015373437" lon="13.090459372520321"><ele>166.0</ele><time>2026-05-03T08:19:30.001Z</time></trkpt><trkpt lat="46.22831669892541" lon="13.090551825184049"><ele>167.5</ele><time>2026-05-03T08:19:31.001Z</time></trkpt><trkpt lat="46.228541614172514" lon="13.090642373956952"><ele>169.0</ele><time>2026-05-03T08:19:32Z</time></trkpt><trkpt lat="46.228749704870424" lon="13.090728853422135"><ele>169.0</ele><time>2026-05-03T08:19:33Z</time></trkpt><trkpt lat="46.228950331560895" lon="13.090806527698629"><ele>169.0</ele><time>2026-05-03T08:19:34Z</time></trkpt><trkpt lat="46.229144680566826" lon="13.090875614922483"><ele>169.0</ele><time>2026-05-03T08:19:35Z</time></trkpt><trkpt lat="46.229343108010816" lon="13.09095081922649"><ele>168.66666666666669</ele><time>2026-05-03T08:19:36Z</time></trkpt><trkpt lat="46.22954827288101" lon="13.091022074339246"><ele>168.33333333333334</ele><time>2026-05-03T08:19:37Z</time></trkpt><trkpt lat="46.22976848468663" lon="13.091087161175468"><ele>168.0</ele><time>2026-05-03T08:19:38Z</time></trkpt><trkpt lat="46.23000333657303" lon="13.091152584959028"><ele>168.0</ele><time>2026-05-03T08:19:39Z</time></trkpt><trkpt lat="46.23025598621045" lon="13.09121919529967"><ele>168.0</ele><time>2026-05-03T08:19:40Z</time></trkpt><trkpt lat="46.2305203530069" lon="13.091287170057953"><ele>167.5</ele><time>2026-05-03T08:19:41Z</time></trkpt><trkpt lat="46.23077984870532" lon="13.09135511380766"><ele>167.0</ele><time>2026-05-03T08:19:42Z</time></trkpt><trkpt lat="46.23101507365223" lon="13.091417280151315"><ele>167.0</ele><time>2026-05-03T08:19:43Z</time></trkpt><trkpt lat="46.231243237641465" lon="13.091473665805907"><ele>167.0</ele><time>2026-05-03T08:19:44Z</time></trkpt><trkpt lat="46.23147547408333" lon="13.091531715580663"><ele>167.5</ele><time>2026-05-03T08:19:45Z</time></trkpt><trkpt lat="46.23171254896274" lon="13.091597074339251"><ele>168.0</ele><time>2026-05-03T08:19:46Z</time></trkpt><trkpt lat="46.23195876946312" lon="13.09166452879225"><ele>168.0</ele><time>2026-05-03T08:19:47Z</time></trkpt><trkpt lat="46.23220882040882" lon="13.09173016556744"><ele>168.0</ele><time>2026-05-03T08:19:48Z</time></trkpt><trkpt lat="46.23247057978466" lon="13.091793132899738"><ele>170.0</ele><time>2026-05-03T08:19:49Z</time></trkpt><trkpt lat="46.23274140690096" lon="13.091855043051233"><ele>172.0</ele><time>2026-05-03T08:19:50Z</time></trkpt><trkpt lat="46.23300739675901" lon="13.091921410737115"><ele>173.0</ele><time>2026-05-03T08:19:51Z</time></trkpt><trkpt lat="46.23324992383817" lon="13.091983323700934"><ele>174.0</ele><time>2026-05-03T08:19:52Z</time></trkpt><trkpt lat="46.233491598639056" lon="13.092048429292314"><ele>174.0</ele><time>2026-05-03T08:19:53Z</time></trkpt><trkpt lat="46.23374453430067" lon="13.092113251053746"><ele>174.0</ele><time>2026-05-03T08:19:54Z</time></trkpt><trkpt lat="46.23400618328747" lon="13.092178704987026"><ele>171.5</ele><time>2026-05-03T08:19:55Z</time></trkpt><trkpt lat="46.23426610526195" lon="13.092243195012756"><ele>169.0</ele><time>2026-05-03T08:19:56Z</time></trkpt><trkpt lat="46.23451718267559" lon="13.09230699710173"><ele>169.0</ele><time>2026-05-03T08:19:57Z</time></trkpt><trkpt lat="46.23475729466219" lon="13.092369683456722"><ele>169.0</ele><time>2026-05-03T08:19:58Z</time></trkpt><trkpt lat="46.23499367054215" lon="13.092429213185133"><ele>169.0</ele><time>2026-05-03T08:19:59Z</time></trkpt><trkpt lat="46.23523997733331" lon="13.092490053790305"><ele>169.0</ele><time>2026-05-03T08:20:00Z</time></trkpt><trkpt lat="46.23549442333983" lon="13.092555986731732"><ele>169.0</ele><time>2026-05-03T08:20:01Z</time></trkpt><trkpt lat="46.23575832748839" lon="13.092625269949155"><ele>169.0</ele><time>2026-05-03T08:20:02Z</time></trkpt><trkpt lat="46.23603188438715" lon="13.09269509538442"><ele>169.0</ele><time>2026-05-03T08:20:03Z</time></trkpt><trkpt lat="46.236311500764906" lon="13.092768956853178"><ele>169.0</ele><time>2026-05-03T08:20:04Z</time></trkpt><trkpt lat="46.236605406872464" lon="13.092845646255872"><ele>170.0</ele><time>2026-05-03T08:20:05Z</time></trkpt><trkpt lat="46.23692436209233" lon="13.092926170877847"><ele>171.0</ele><time>2026-05-03T08:20:06Z</time></trkpt><trkpt lat="46.2372752422051" lon="13.093018636677225"><ele>171.5</ele><time>2026-05-03T08:20:07Z</time></trkpt><trkpt lat="46.237603031305795" lon="13.093102614686611"><ele>172.0</ele><time>2026-05-03T08:20:08Z</time></trkpt><trkpt lat="46.237904101863656" lon="13.093178383518739"><ele>172.0</ele><time>2026-05-03T08:20:09Z</time></trkpt><trkpt lat="46.238187376118674" lon="13.093247167087242"><ele>172.0</ele><time>2026-05-03T08:20:10Z</time></trkpt><trkpt lat="46.238452890551045" lon="13.093315740776049"><ele>172.0</ele><time>2026-05-03T08:20:11Z</time></trkpt><trkpt lat="46.238706691730016" lon="13.093383557332794"><ele>172.0</ele><time>2026-05-03T08:20:12Z</time></trkpt><trkpt lat="46.23895540462948" lon="13.093449384537365"><ele>173.5</ele><time>2026-05-03T08:20:13Z</time></trkpt><trkpt lat="46.23919857203095" lon="13.093510974760378"><ele>175.0</ele><time>2026-05-03T08:20:14Z</time></trkpt><trkpt lat="46.23942438383688" lon="13.093568604153194"><ele>175.0</ele><time>2026-05-03T08:20:15Z</time></trkpt><trkpt lat="46.23965392866545" lon="13.093633970139903"><ele>175.0</ele><time>2026-05-03T08:20:16Z</time></trkpt><trkpt lat="46.23989430569102" lon="13.09369648804779"><ele>173.0</ele><time>2026-05-03T08:20:17Z</time></trkpt><trkpt lat="46.240137292661444" lon="13.093758553659193"><ele>171.0</ele><time>2026-05-03T08:20:18Z</time></trkpt><trkpt lat="46.24038359953383" lon="13.093815789507909"><ele>171.0</ele><time>2026-05-03T08:20:19Z</time></trkpt><trkpt lat="46.24062998386164" lon="13.093869930629152"><ele>171.0</ele><time>2026-05-03T08:20:20Z</time></trkpt><trkpt lat="46.24087616946957" lon="13.093922207438956"><ele>172.5</ele><time>2026-05-03T08:20:21Z</time></trkpt><trkpt lat="46.24111119200775" lon="13.093971639570412"><ele>174.0</ele><time>2026-05-03T08:20:22Z</time></trkpt><trkpt lat="46.24133413756451" lon="13.09401264903292"><ele>174.66666666666666</ele><time>2026-05-03T08:20:23Z</time></trkpt><trkpt lat="46.24154497303278" lon="13.094053523355226"><ele>175.33333333333331</ele><time>2026-05-03T08:20:24Z</time></trkpt><trkpt lat="46.2417458812008" lon="13.094096753624452"><ele>176.0</ele><time>2026-05-03T08:20:25Z</time></trkpt><trkpt lat="46.24193794928569" lon="13.094135365218857"><ele>176.0</ele><time>2026-05-03T08:20:26Z</time></trkpt><trkpt lat="46.24212900024568" lon="13.094174759125305"><ele>176.0</ele><time>2026-05-03T08:20:27Z</time></trkpt><trkpt lat="46.24232722036778" lon="13.094217486501726"><ele>176.0</ele><time>2026-05-03T08:20:28Z</time></trkpt><trkpt lat="46.24253031232668" lon="13.094264128840333"><ele>175.66666666666666</ele><time>2026-05-03T08:20:29Z</time></trkpt><trkpt lat="46.24273894860788" lon="13.094310203628948"><ele>175.33333333333334</ele><time>2026-05-03T08:20:30Z</time></trkpt><trkpt lat="46.242948771657694" lon="13.09435541721725"><ele>175.0</ele><time>2026-05-03T08:20:31Z</time></trkpt><trkpt lat="46.24314818612006" lon="13.094407641741938"><ele>176.33333333333334</ele><time>2026-05-03T08:20:32Z</time></trkpt><trkpt lat="46.243332090200546" lon="13.09445772532515"><ele>177.66666666666666</ele><time>2026-05-03T08:20:33Z</time></trkpt><trkpt lat="46.24350481927733" lon="13.094508933081011"><ele>179.0</ele><time>2026-05-03T08:20:34Z</time></trkpt><trkpt lat="46.24366933396131" lon="13.094566578081338"><ele>179.0</ele><time>2026-05-03T08:20:35Z</time></trkpt><trkpt lat="46.24383173059978" lon="13.094621853524226"><ele>179.0</ele><time>2026-05-03T08:20:36Z</time></trkpt><trkpt lat="46.24400205034851" lon="13.094679249855869"><ele>179.0</ele><time>2026-05-03T08:20:37Z</time></trkpt><trkpt lat="46.24418070050553" lon="13.094737440813557"><ele>178.33333333333331</ele><time>2026-05-03T08:20:38Z</time></trkpt><trkpt lat="46.24436158039943" lon="13.094791956934472"><ele>177.66666666666666</ele><time>2026-05-03T08:20:39Z</time></trkpt><trkpt lat="46.24454288845841" lon="13.094838954255284"><ele>177.0</ele><time>2026-05-03T08:20:40Z</time></trkpt><trkpt lat="46.24471754253297" lon="13.094874306510583"><ele>177.33333333333334</ele><time>2026-05-03T08:20:41Z</time></trkpt><trkpt lat="46.24488566372133" lon="13.094901447076646"><ele>177.66666666666669</ele><time>2026-05-03T08:20:42Z</time></trkpt><trkpt lat="46.24505094599332" lon="13.09491971078632"><ele>178.0</ele><time>2026-05-03T08:20:43Z</time></trkpt><trkpt lat="46.24521894801521" lon="13.094923085383845"><ele>178.0</ele><time>2026-05-03T08:20:44Z</time></trkpt><trkpt lat="46.24538918771983" lon="13.094916631801219"><ele>178.0</ele><time>2026-05-03T08:20:45Z</time></trkpt><trkpt lat="46.24556589735197" lon="13.094911301424851"><ele>178.0</ele><time>2026-05-03T08:20:46Z</time></trkpt><trkpt lat="46.24574023282022" lon="13.094899393387582"><ele>178.33333333333334</ele><time>2026-05-03T08:20:47Z</time></trkpt><trkpt lat="46.245919206077836" lon="13.094879423432943"><ele>178.66666666666666</ele><time>2026-05-03T08:20:48Z</time></trkpt><trkpt lat="46.246100885991304" lon="13.094854350867827"><ele>179.0</ele><time>2026-05-03T08:20:49Z</time></trkpt><trkpt lat="46.24626791965963" lon="13.094830287607762"><ele>179.0</ele><time>2026-05-03T08:20:50Z</time></trkpt><trkpt lat="46.246424612823" lon="13.094811635885637"><ele>179.0</ele><time>2026-05-03T08:20:51Z</time></trkpt><trkpt lat="46.246578863928185" lon="13.094793661342187"><ele>179.0</ele><time>2026-05-03T08:20:52Z</time></trkpt><trkpt lat="46.2467263061771" lon="13.094772945950304"><ele>179.0</ele><time>2026-05-03T08:20:53Z</time></trkpt><trkpt lat="46.2468791963359" lon="13.094754711931438"><ele>179.0</ele><time>2026-05-03T08:20:54Z</time></trkpt><trkpt lat="46.24703031834715" lon="13.0947369276544"><ele>179.0</ele><time>2026-05-03T08:20:55Z</time></trkpt><trkpt lat="46.247172707492666" lon="13.09472227543285"><ele>179.0</ele><time>2026-05-03T08:20:56Z</time></trkpt><trkpt lat="46.247306937611846" lon="13.094708240135342"><ele>177.75</ele><time>2026-05-03T08:20:57Z</time></trkpt><trkpt lat="46.24743394449689" lon="13.09469435711659"><ele>176.5</ele><time>2026-05-03T08:20:58Z</time></trkpt><trkpt lat="46.2475570101674" lon="13.094683796481165"><ele>175.25</ele><time>2026-05-03T08:20:59Z</time></trkpt><trkpt lat="46.24768540465582" lon="13.094671834180465"><ele>174.0</ele><time>2026-05-03T08:21:00Z</time></trkpt><trkpt lat="46.247822798923956" lon="13.094664514664075"><ele>174.0</ele><time>2026-05-03T08:21:01Z</time></trkpt><trkpt lat="46.247963789429114" lon="13.094657071021835"><ele>174.0</ele><time>2026-05-03T08:21:02Z</time></trkpt><trkpt lat="46.2481187161858" lon="13.094655117431229"><ele>174.0</ele><time>2026-05-03T08:21:03Z</time></trkpt><trkpt lat="46.2482905179032" lon="13.094656259842411"><ele>174.33333333333334</ele><time>2026-05-03T08:21:04Z</time></trkpt><trkpt lat="46.24847091789537" lon="13.09466179644632"><ele>174.66666666666669</ele><time>2026-05-03T08:21:05Z</time></trkpt><trkpt lat="46.24865345724139" lon="13.094667700986854"><ele>175.0</ele><time>2026-05-03T08:21:06Z</time></trkpt><trkpt lat="46.24882650107451" lon="13.094676363999492"><ele>176.66666666666669</ele><time>2026-05-03T08:21:07Z</time></trkpt><trkpt lat="46.24900319248412" lon="13.094689209004645"><ele>178.33333333333334</ele><time>2026-05-03T08:21:08Z</time></trkpt><trkpt lat="46.24918595465749" lon="13.094706661920952"><ele>180.0</ele><time>2026-05-03T08:21:09Z</time></trkpt><trkpt lat="46.24936295657806" lon="13.094728786638353"><ele>180.0</ele><time>2026-05-03T08:21:10Z</time></trkpt><trkpt lat="46.249532200193535" lon="13.094755878320921"><ele>180.0</ele><time>2026-05-03T08:21:11Z</time></trkpt><trkpt lat="46.24969043125109" lon="13.094785908483242"><ele>180.0</ele><time>2026-05-03T08:21:12Z</time></trkpt><trkpt lat="46.24984775187132" lon="13.09481679144773"><ele>180.0</ele><time>2026-05-03T08:21:13Z</time></trkpt><trkpt lat="46.25002088792183" lon="13.094854149107876"><ele>180.0</ele><time>2026-05-03T08:21:14Z</time></trkpt><trkpt lat="46.2502108484695" lon="13.09490257488985"><ele>180.0</ele><time>2026-05-03T08:21:15Z</time></trkpt><trkpt lat="46.2504220417565" lon="13.09495908695806"><ele>181.5</ele><time>2026-05-03T08:21:16Z</time></trkpt><trkpt lat="46.25065839120235" lon="13.095029379637062"><ele>183.0</ele><time>2026-05-03T08:21:17Z</time></trkpt><trkpt lat="46.25090218021171" lon="13.095112679289327"><ele>183.0</ele><time>2026-05-03T08:21:18Z</time></trkpt><trkpt lat="46.25114833689354" lon="13.095201286222993"><ele>183.0</ele><time>2026-05-03T08:21:19Z</time></trkpt><trkpt lat="46.251393481508714" lon="13.095287413810446"><ele>181.5</ele><time>2026-05-03T08:21:20Z</time></trkpt><trkpt lat="46.25162366777619" lon="13.095375212430099"><ele>180.0</ele><time>2026-05-03T08:21:21Z</time></trkpt><trkpt lat="46.25186830045069" lon="13.095486045808999"><ele>180.0</ele><time>2026-05-03T08:21:22Z</time></trkpt><trkpt lat="46.252131531923915" lon="13.095613610992793"><ele>180.0</ele><time>2026-05-03T08:21:23Z</time></trkpt><trkpt lat="46.25241124694275" lon="13.095749099306175"><ele>180.0</ele><time>2026-05-03T08:21:24Z</time></trkpt><trkpt lat="46.25267993370087" lon="13.095875599839461"><ele>180.0</ele><time>2026-05-03T08:21:25Z</time></trkpt><trkpt lat="46.25292226369495" lon="13.095987679689582"><ele>181.0</ele><time>2026-05-03T08:21:26Z</time></trkpt><trkpt lat="46.25314739089405" lon="13.096092368969314"><ele>182.0</ele><time>2026-05-03T08:21:27Z</time></trkpt><trkpt lat="46.25336433672751" lon="13.09619585823178"><ele>182.0</ele><time>2026-05-03T08:21:28Z</time></trkpt><trkpt lat="46.253570205834365" lon="13.096300014189362"><ele>182.0</ele><time>2026-05-03T08:21:29Z</time></trkpt><trkpt lat="46.25378630062217" lon="13.096412825854227"><ele>182.0</ele><time>2026-05-03T08:21:30Z</time></trkpt><trkpt lat="46.25399967805352" lon="13.096519086400697"><ele>182.33333333333331</ele><time>2026-05-03T08:21:31Z</time></trkpt><trkpt lat="46.25419358072379" lon="13.0966101513457"><ele>182.66666666666666</ele><time>2026-05-03T08:21:32Z</time></trkpt><trkpt lat="46.254372173171234" lon="13.09669259081698"><ele>183.0</ele><time>2026-05-03T08:21:33Z</time></trkpt><trkpt lat="46.25454277978518" lon="13.096778667448564"><ele>183.0</ele><time>2026-05-03T08:21:34Z</time></trkpt><trkpt lat="46.2547216764799" lon="13.09686838880587"><ele>183.0</ele><time>2026-05-03T08:21:35Z</time></trkpt><trkpt lat="46.25491296686844" lon="13.096976305348099"><ele>183.0</ele><time>2026-05-03T08:21:36Z</time></trkpt><trkpt lat="46.25509941332131" lon="13.097100796953365"><ele>182.66666666666666</ele><time>2026-05-03T08:21:37Z</time></trkpt><trkpt lat="46.25527622621732" lon="13.097247884955111"><ele>182.33333333333331</ele><time>2026-05-03T08:21:38Z</time></trkpt><trkpt lat="46.25544250766202" lon="13.097407265237704"><ele>182.0</ele><time>2026-05-03T08:21:39Z</time></trkpt><trkpt lat="46.25559964983022" lon="13.097585216922791"><ele>182.33333333333331</ele><time>2026-05-03T08:21:40Z</time></trkpt><trkpt lat="46.25574904259509" lon="13.09778015521409"><ele>182.66666666666666</ele><time>2026-05-03T08:21:41Z</time></trkpt><trkpt lat="46.255889829682374" lon="13.098000540407591"><ele>183.0</ele><time>2026-05-03T08:21:42Z</time></trkpt><trkpt lat="46.25601877065304" lon="13.09824886979932"><ele>184.0</ele><time>2026-05-03T08:21:43Z</time></trkpt><trkpt lat="46.25614079428643" lon="13.09852262430893"><ele>185.0</ele><time>2026-05-03T08:21:44Z</time></trkpt><trkpt lat="46.256258868514195" lon="13.098821463454408"><ele>184.66666666666666</ele><time>2026-05-03T08:21:45Z</time></trkpt><trkpt lat="46.2563616125407" lon="13.099106433379324"><ele>184.33333333333334</ele><time>2026-05-03T08:21:46Z</time></trkpt><trkpt lat="46.25645230774266" lon="13.099371335077427"><ele>184.0</ele><time>2026-05-03T08:21:47Z</time></trkpt><trkpt lat="46.25654082146716" lon="13.099625261459847"><ele>184.0</ele><time>2026-05-03T08:21:48Z</time></trkpt><trkpt lat="46.25663854978184" lon="13.09989736699213"><ele>184.0</ele><time>2026-05-03T08:21:49Z</time></trkpt><trkpt lat="46.25673758401506" lon="13.100175741792771"><ele>184.0</ele><time>2026-05-03T08:21:50Z</time></trkpt><trkpt lat="46.25683278628023" lon="13.100442638995608"><ele>184.0</ele><time>2026-05-03T08:21:51Z</time></trkpt><trkpt lat="46.25693487920385" lon="13.10071484347874"><ele>184.0</ele><time>2026-05-03T08:21:52Z</time></trkpt><trkpt lat="46.25704017622814" lon="13.101005731640399"><ele>184.0</ele><time>2026-05-03T08:21:53Z</time></trkpt><trkpt lat="46.257139884823665" lon="13.101297375467292"><ele>183.33333333333334</ele><time>2026-05-03T08:21:54Z</time></trkpt><trkpt lat="46.25723172272456" lon="13.10156594283029"><ele>182.66666666666666</ele><time>2026-05-03T08:21:55Z</time></trkpt><trkpt lat="46.257314287672074" lon="13.101817227599097"><ele>182.0</ele><time>2026-05-03T08:21:56Z</time></trkpt><trkpt lat="46.2573912807479" lon="13.102089711248846"><ele>183.33333333333331</ele><time>2026-05-03T08:21:57Z</time></trkpt><trkpt lat="46.25747345370578" lon="13.102367090058307"><ele>184.66666666666666</ele><time>2026-05-03T08:21:58Z</time></trkpt><trkpt lat="46.25755945971363" lon="13.102644325393388"><ele>186.0</ele><time>2026-05-03T08:21:59Z</time></trkpt><trkpt lat="46.25764262796821" lon="13.102910012483253"><ele>186.0</ele><time>2026-05-03T08:22:00Z</time></trkpt><trkpt lat="46.257721071052565" lon="13.103151743859245"><ele>186.0</ele><time>2026-05-03T08:22:01Z</time></trkpt><trkpt lat="46.25779618952035" lon="13.103386846694285"><ele>186.0</ele><time>2026-05-03T08:22:02Z</time></trkpt><trkpt lat="46.2578706536562" lon="13.103636157643718"><ele>185.66666666666666</ele><time>2026-05-03T08:22:03Z</time></trkpt><trkpt lat="46.25794970532005" lon="13.103898803252429"><ele>185.33333333333331</ele><time>2026-05-03T08:22:04Z</time></trkpt><trkpt lat="46.25802906039509" lon="13.104174440445414"><ele>185.0</ele><time>2026-05-03T08:22:05Z</time></trkpt><trkpt lat="46.25811135658354" lon="13.10445914239143"><ele>185.0</ele><time>2026-05-03T08:22:06Z</time></trkpt><trkpt lat="46.25819851551581" lon="13.104746442932255"><ele>185.0</ele><time>2026-05-03T08:22:07Z</time></trkpt><trkpt lat="46.258274477817295" lon="13.10501327111857"><ele>185.0</ele><time>2026-05-03T08:22:08Z</time></trkpt><trkpt lat="46.258345962032394" lon="13.105277640604198"><ele>184.33333333333331</ele><time>2026-05-03T08:22:09Z</time></trkpt><trkpt lat="46.25841216278227" lon="13.105544856178843"><ele>183.66666666666666</ele><time>2026-05-03T08:22:10Z</time></trkpt><trkpt lat="46.258471485846904" lon="13.105828308493928"><ele>183.0</ele><time>2026-05-03T08:22:11Z</time></trkpt><trkpt lat="46.258526413260164" lon="13.106132347264008"><ele>183.0</ele><time>2026-05-03T08:22:12Z</time></trkpt><trkpt lat="46.25857189573677" lon="13.106449738894826"><ele>183.0</ele><time>2026-05-03T08:22:13Z</time></trkpt><trkpt lat="46.258602390203166" lon="13.10676815621941"><ele>183.0</ele><time>2026-05-03T08:22:14Z</time></trkpt><trkpt lat="46.25862587762315" lon="13.107069425861841"><ele>183.33333333333334</ele><time>2026-05-03T08:22:15Z</time></trkpt><trkpt lat="46.25864441693209" lon="13.10734622017045"><ele>183.66666666666669</ele><time>2026-05-03T08:22:16Z</time></trkpt><trkpt lat="46.25866324190733" lon="13.107615372764315"><ele>184.0</ele><time>2026-05-03T08:22:17Z</time></trkpt><trkpt lat="46.25868261281036" lon="13.107905420593763"><ele>184.0</ele><time>2026-05-03T08:22:18Z</time></trkpt><trkpt lat="46.2586974964247" lon="13.108173301761534"><ele>184.0</ele><time>2026-05-03T08:22:19Z</time></trkpt><trkpt lat="46.25871272512343" lon="13.108421454809045"><ele>184.0</ele><time>2026-05-03T08:22:20Z</time></trkpt><trkpt lat="46.25872794597766" lon="13.108655161565768"><ele>184.0</ele><time>2026-05-03T08:22:21Z</time></trkpt><trkpt lat="46.25874344717415" lon="13.10889025501405"><ele>184.0</ele><time>2026-05-03T08:22:22Z</time></trkpt><trkpt lat="46.25875834329365" lon="13.109141868955152"><ele>184.0</ele><time>2026-05-03T08:22:23Z</time></trkpt><trkpt lat="46.25877921180426" lon="13.109400291860327"><ele>184.0</ele><time>2026-05-03T08:22:24Z</time></trkpt><trkpt lat="46.25879617527864" lon="13.10963355212959"><ele>184.0</ele><time>2026-05-03T08:22:25Z</time></trkpt><trkpt lat="46.25881229795111" lon="13.109844382838563"><ele>184.0</ele><time>2026-05-03T08:22:26Z</time></trkpt><trkpt lat="46.258827607810304" lon="13.110026255346854"><ele>184.0</ele><time>2026-05-03T08:22:27Z</time></trkpt><trkpt lat="46.25883612825016" lon="13.110188394460668"><ele>184.0</ele><time>2026-05-03T08:22:28Z</time></trkpt><trkpt lat="46.258824434542355" lon="13.110341110400393"><ele>184.0</ele><time>2026-05-03T08:22:29Z</time></trkpt><trkpt lat="46.25879724526158" lon="13.110505430888614"><ele>184.0</ele><time>2026-05-03T08:22:30Z</time></trkpt><trkpt lat="46.25873981554407" lon="13.11065236413186"><ele>184.0</ele><time>2026-05-03T08:22:31Z</time></trkpt><trkpt lat="46.25865955747738" lon="13.110773152250086"><ele>184.0</ele><time>2026-05-03T08:22:32Z</time></trkpt><trkpt lat="46.258562903559714" lon="13.110848540202271"><ele>184.0</ele><time>2026-05-03T08:22:33Z</time></trkpt><trkpt lat="46.258456378923874" lon="13.110882528953535"><ele>184.0</ele><time>2026-05-03T08:22:34Z</time></trkpt><trkpt lat="46.258348385884865" lon="13.110869646260113"><ele>184.0</ele><time>2026-05-03T08:22:35Z</time></trkpt><trkpt lat="46.25824223204384" lon="13.110809167490071"><ele>184.0</ele><time>2026-05-03T08:22:36Z</time></trkpt><trkpt lat="46.25815376840127" lon="13.110709906236142"><ele>184.0</ele><time>2026-05-03T08:22:37Z</time></trkpt><trkpt lat="46.25808576471797" lon="13.11057069264216"><ele>184.0</ele><time>2026-05-03T08:22:38Z</time></trkpt><trkpt lat="46.25805124409789" lon="13.110416656566132"><ele>184.0</ele><time>2026-05-03T08:22:39Z</time></trkpt><trkpt lat="46.25803759270009" lon="13.110267569919884"><ele>184.0</ele><time>2026-05-03T08:22:40Z</time></trkpt><trkpt lat="46.258066205041715" lon="13.110115087493572"><ele>184.0</ele><time>2026-05-03T08:22:41Z</time></trkpt><trkpt lat="46.25812397430839" lon="13.109975436563468"><ele>183.75</ele><time>2026-05-03T08:22:42Z</time></trkpt><trkpt lat="46.2582027545657" lon="13.10985370713166"><ele>183.5</ele><time>2026-05-03T08:22:43Z</time></trkpt><trkpt lat="46.25830539518273" lon="13.109725035654721"><ele>183.25</ele><time>2026-05-03T08:22:44Z</time></trkpt><trkpt lat="46.25843712612499" lon="13.109603568357018"><ele>183.0</ele><time>2026-05-03T08:22:45Z</time></trkpt><trkpt lat="46.25858868700653" lon="13.109466414759272"><ele>183.0</ele><time>2026-05-03T08:22:46Z</time></trkpt><trkpt lat="46.25873186326495" lon="13.109332772243283"><ele>183.0</ele><time>2026-05-03T08:22:47Z</time></trkpt><trkpt lat="46.25885819951284" lon="13.1092253668715"><ele>183.0</ele><time>2026-05-03T08:22:48Z</time></trkpt><trkpt lat="46.258978899562386" lon="13.10913633718798"><ele>184.0</ele><time>2026-05-03T08:22:49Z</time></trkpt><trkpt lat="46.25911434357687" lon="13.109039177133662"><ele>185.0</ele><time>2026-05-03T08:22:50Z</time></trkpt><trkpt lat="46.25925691289248" lon="13.108942564450805"><ele>186.0</ele><time>2026-05-03T08:22:51Z</time></trkpt><trkpt lat="46.259401524604904" lon="13.10886214476836"><ele>186.0</ele><time>2026-05-03T08:22:52Z</time></trkpt><trkpt lat="46.25954383630716" lon="13.108789357802412"><ele>186.0</ele><time>2026-05-03T08:22:53Z</time></trkpt><trkpt lat="46.25967996670722" lon="13.108724647598994"><ele>186.0</ele><time>2026-05-03T08:22:54Z</time></trkpt><trkpt lat="46.259812126365354" lon="13.10866763217878"><ele>186.0</ele><time>2026-05-03T08:22:55Z</time></trkpt><trkpt lat="46.259959696054615" lon="13.108612049670715"><ele>186.5</ele><time>2026-05-03T08:22:56Z</time></trkpt><trkpt lat="46.260109511741945" lon="13.10856034222411"><ele>187.0</ele><time>2026-05-03T08:22:57Z</time></trkpt><trkpt lat="46.26025668842474" lon="13.108515128787351"><ele>187.5</ele><time>2026-05-03T08:22:58Z</time></trkpt><trkpt lat="46.260397476472974" lon="13.108482002826285"><ele>188.0</ele><time>2026-05-03T08:22:59Z</time></trkpt><trkpt lat="46.2605358074974" lon="13.108458695771155"><ele>188.0</ele><time>2026-05-03T08:23:00Z</time></trkpt><trkpt lat="46.26067286655808" lon="13.108438695684152"><ele>188.0</ele><time>2026-05-03T08:23:01Z</time></trkpt><trkpt lat="46.260810088967844" lon="13.1084213970912"><ele>188.0</ele><time>2026-05-03T08:23:02Z</time></trkpt><trkpt lat="46.260942860984336" lon="13.108405956914009"><ele>188.0</ele><time>2026-05-03T08:23:03Z</time></trkpt><trkpt lat="46.26107043283009" lon="13.108390742277704"><ele>188.0</ele><time>2026-05-03T08:23:04Z</time></trkpt><trkpt lat="46.261191259720924" lon="13.108376600549667"><ele>188.0</ele><time>2026-05-03T08:23:05Z</time></trkpt><trkpt lat="46.26131013963811" lon="13.108359660316989"><ele>188.0</ele><time>2026-05-03T08:23:06Z</time></trkpt><trkpt lat="46.26143595954981" lon="13.10834090100137"><ele>188.0</ele><time>2026-05-03T08:23:07Z</time></trkpt><trkpt lat="46.26156546406044" lon="13.108327215736287"><ele>187.5</ele><time>2026-05-03T08:23:08Z</time></trkpt><trkpt lat="46.261694083431586" lon="13.10830835578246"><ele>187.0</ele><time>2026-05-03T08:23:09Z</time></trkpt><trkpt lat="46.26182308770404" lon="13.108284700219455"><ele>186.5</ele><time>2026-05-03T08:23:10Z</time></trkpt><trkpt lat="46.26196774115744" lon="13.108273034501531"><ele>186.0</ele><time>2026-05-03T08:23:11Z</time></trkpt><trkpt lat="46.262125436615555" lon="13.108256064330446"><ele>186.0</ele><time>2026-05-03T08:23:12Z</time></trkpt><trkpt lat="46.262288084532344" lon="13.108231097395404"><ele>186.0</ele><time>2026-05-03T08:23:13Z</time></trkpt><trkpt lat="46.26244189325358" lon="13.108207540307333"><ele>186.0</ele><time>2026-05-03T08:23:14Z</time></trkpt><trkpt lat="46.26258539484532" lon="13.108191579550283"><ele>186.0</ele><time>2026-05-03T08:23:15Z</time></trkpt><trkpt lat="46.26272384128127" lon="13.108178114396553"><ele>186.0</ele><time>2026-05-03T08:23:16Z</time></trkpt><trkpt lat="46.26286590064618" lon="13.108160271637145"><ele>186.0</ele><time>2026-05-03T08:23:17Z</time></trkpt><trkpt lat="46.26301304149356" lon="13.108140864867458"><ele>186.0</ele><time>2026-05-03T08:23:18Z</time></trkpt><trkpt lat="46.26316715689988" lon="13.108121024107549"><ele>185.5</ele><time>2026-05-03T08:23:19Z</time></trkpt><trkpt lat="46.26330900130477" lon="13.108105948128483"><ele>185.0</ele><time>2026-05-03T08:23:20Z</time></trkpt><trkpt lat="46.263445364061184" lon="13.108094190421857"><ele>184.5</ele><time>2026-05-03T08:23:21Z</time></trkpt><trkpt lat="46.26359314879702" lon="13.108077314144797"><ele>184.0</ele><time>2026-05-03T08:23:22Z</time></trkpt><trkpt lat="46.263733622367155" lon="13.108057446428102"><ele>184.0</ele><time>2026-05-03T08:23:23Z</time></trkpt><trkpt lat="46.26386635271813" lon="13.108041161439344"><ele>184.0</ele><time>2026-05-03T08:23:24Z</time></trkpt><trkpt lat="46.26399003441368" lon="13.108019565361058"><ele>184.0</ele><time>2026-05-03T08:23:25Z</time></trkpt><trkpt lat="46.26410540269315" lon="13.108002267737307"><ele>184.0</ele><time>2026-05-03T08:23:26Z</time></trkpt><trkpt lat="46.264226814635556" lon="13.107989810918852"><ele>184.39999999999998</ele><time>2026-05-03T08:23:27Z</time></trkpt><trkpt lat="46.26435799778247" lon="13.107972705300774"><ele>184.8</ele><time>2026-05-03T08:23:28Z</time></trkpt><trkpt lat="46.264451092046876" lon="13.107964767221052"><ele>185.2</ele><time>2026-05-03T08:23:29Z</time></trkpt><trkpt lat="46.26455209717412" lon="13.107949323044576"><ele>185.60000000000002</ele><time>2026-05-03T08:23:30Z</time></trkpt><trkpt lat="46.26466926402901" lon="13.107933636896517"><ele>186.0</ele><time>2026-05-03T08:23:31Z</time></trkpt><trkpt lat="46.26480228442357" lon="13.107919985138127"><ele>186.0</ele><time>2026-05-03T08:23:32Z</time></trkpt><trkpt lat="46.26494427381114" lon="13.107904213332564"><ele>186.0</ele><time>2026-05-03T08:23:33Z</time></trkpt><trkpt lat="46.26509800204815" lon="13.107885528909604"><ele>186.0</ele><time>2026-05-03T08:23:34Z</time></trkpt><trkpt lat="46.265258903722405" lon="13.107867879729058"><ele>186.0</ele><time>2026-05-03T08:23:35Z</time></trkpt><trkpt lat="46.265415794138576" lon="13.107848575586484"><ele>186.0</ele><time>2026-05-03T08:23:36Z</time></trkpt><trkpt lat="46.265564366593566" lon="13.1078311440507"><ele>186.0</ele><time>2026-05-03T08:23:37Z</time></trkpt><trkpt lat="46.26571055145552" lon="13.107815497429053"><ele>186.33333333333334</ele><time>2026-05-03T08:23:38Z</time></trkpt><trkpt lat="46.26586089229672" lon="13.107799977125477"><ele>186.66666666666669</ele><time>2026-05-03T08:23:39Z</time></trkpt><trkpt lat="46.26602102107826" lon="13.107779664725"><ele>187.0</ele><time>2026-05-03T08:23:40Z</time></trkpt><trkpt lat="46.26618567071279" lon="13.10775883569465"><ele>187.0</ele><time>2026-05-03T08:23:41Z</time></trkpt><trkpt lat="46.26633298980891" lon="13.10773734681877"><ele>187.0</ele><time>2026-05-03T08:23:42Z</time></trkpt><trkpt lat="46.26647246971588" lon="13.107716349771831"><ele>187.0</ele><time>2026-05-03T08:23:43Z</time></trkpt><trkpt lat="46.26660690936898" lon="13.107694955697477"><ele>187.0</ele><time>2026-05-03T08:23:44Z</time></trkpt><trkpt lat="46.26674426211972" lon="13.107671703070942"><ele>186.75</ele><time>2026-05-03T08:23:45Z</time></trkpt><trkpt lat="46.26688926836548" lon="13.107654922194389"><ele>186.5</ele><time>2026-05-03T08:23:46Z</time></trkpt><trkpt lat="46.26703394512899" lon="13.107635355745419"><ele>186.25</ele><time>2026-05-03T08:23:47Z</time></trkpt><trkpt lat="46.267174387348874" lon="13.107618162581597"><ele>186.0</ele><time>2026-05-03T08:23:48Z</time></trkpt><trkpt lat="46.26730325618655" lon="13.107600117602404"><ele>186.5</ele><time>2026-05-03T08:23:49Z</time></trkpt><trkpt lat="46.267418792882886" lon="13.107582998958836"><ele>187.0</ele><time>2026-05-03T08:23:50Z</time></trkpt><trkpt lat="46.267530635937156" lon="13.10756776170822"><ele>187.5</ele><time>2026-05-03T08:23:51Z</time></trkpt><trkpt lat="46.26765833447564" lon="13.107553878558726"><ele>188.0</ele><time>2026-05-03T08:23:52Z</time></trkpt><trkpt lat="46.26780769593561" lon="13.107541941787504"><ele>188.0</ele><time>2026-05-03T08:23:53Z</time></trkpt><trkpt lat="46.267973090099474" lon="13.107521117617779"><ele>188.0</ele><time>2026-05-03T08:23:54Z</time></trkpt><trkpt lat="46.26814045449819" lon="13.107499947609666"><ele>188.0</ele><time>2026-05-03T08:23:55Z</time></trkpt><trkpt lat="46.268308075944404" lon="13.10748103203695"><ele>188.0</ele><time>2026-05-03T08:23:56Z</time></trkpt><trkpt lat="46.26848220973386" lon="13.10745304097975"><ele>188.0</ele><time>2026-05-03T08:23:58Z</time></trkpt><trkpt lat="46.26861546998445" lon="13.1074382032795"><ele>188.0</ele><time>2026-05-03T08:23:59Z</time></trkpt><trkpt lat="46.26874287819615" lon="13.107424286292977"><ele>188.0</ele><time>2026-05-03T08:24:00Z</time></trkpt><trkpt lat="46.26886292975747" lon="13.107424271294075"><ele>188.5</ele><time>2026-05-03T08:24:01Z</time></trkpt><trkpt lat="46.26898862751728" lon="13.107434509299786"><ele>189.0</ele><time>2026-05-03T08:24:02Z</time></trkpt><trkpt lat="46.26912909746225" lon="13.107432056068944"><ele>189.5</ele><time>2026-05-03T08:24:03Z</time></trkpt><trkpt lat="46.26926908056012" lon="13.107439121627435"><ele>190.0</ele><time>2026-05-03T08:24:04Z</time></trkpt><trkpt lat="46.269411688837636" lon="13.10744956455181"><ele>190.0</ele><time>2026-05-03T08:24:05Z</time></trkpt><trkpt lat="46.26955702027756" lon="13.107473107088703"><ele>190.0</ele><time>2026-05-03T08:24:06Z</time></trkpt><trkpt lat="46.26970225996316" lon="13.10750019590154"><ele>190.0</ele><time>2026-05-03T08:24:07Z</time></trkpt><trkpt lat="46.26984653990131" lon="13.107526401357003"><ele>190.0</ele><time>2026-05-03T08:24:08Z</time></trkpt><trkpt lat="46.26998482043469" lon="13.107554617204409"><ele>190.75</ele><time>2026-05-03T08:24:09Z</time></trkpt><trkpt lat="46.27012096811224" lon="13.107583496361462"><ele>191.5</ele><time>2026-05-03T08:24:10Z</time></trkpt><trkpt lat="46.270252837407234" lon="13.107603692886778"><ele>192.25</ele><time>2026-05-03T08:24:11Z</time></trkpt><trkpt lat="46.27037818865412" lon="13.107629408908478"><ele>193.0</ele><time>2026-05-03T08:24:12Z</time></trkpt><trkpt lat="46.27049525401985" lon="13.107648625977667"><ele>192.5</ele><time>2026-05-03T08:24:13Z</time></trkpt><trkpt lat="46.270610920503735" lon="13.107667162182743"><ele>192.0</ele><time>2026-05-03T08:24:14Z</time></trkpt><trkpt lat="46.27074110637614" lon="13.107687806318124"><ele>191.5</ele><time>2026-05-03T08:24:15Z</time></trkpt><trkpt lat="46.270879598017" lon="13.107716289632828"><ele>191.0</ele><time>2026-05-03T08:24:16Z</time></trkpt><trkpt lat="46.27102691229876" lon="13.107754810499102"><ele>191.0</ele><time>2026-05-03T08:24:17Z</time></trkpt><trkpt lat="46.27116692622611" lon="13.107775867525183"><ele>191.0</ele><time>2026-05-03T08:24:18Z</time></trkpt><trkpt lat="46.2712862234721" lon="13.107795675646718"><ele>191.0</ele><time>2026-05-03T08:24:19Z</time></trkpt><trkpt lat="46.27139999257085" lon="13.107822477397832"><ele>191.0</ele><time>2026-05-03T08:24:20Z</time></trkpt><trkpt lat="46.27151491243075" lon="13.107843313269072"><ele>190.5</ele><time>2026-05-03T08:24:21Z</time></trkpt><trkpt lat="46.27163849978986" lon="13.10786551275617"><ele>190.0</ele><time>2026-05-03T08:24:22Z</time></trkpt><trkpt lat="46.27177271089156" lon="13.10788855743428"><ele>189.5</ele><time>2026-05-03T08:24:23Z</time></trkpt><trkpt lat="46.27190686992156" lon="13.107907818603765"><ele>189.0</ele><time>2026-05-03T08:24:24Z</time></trkpt><trkpt lat="46.272031966760345" lon="13.107933655342727"><ele>189.0</ele><time>2026-05-03T08:24:25Z</time></trkpt><trkpt lat="46.27214810708199" lon="13.10795765372847"><ele>189.0</ele><time>2026-05-03T08:24:26Z</time></trkpt><trkpt lat="46.27226151869024" lon="13.107984138096274"><ele>189.0</ele><time>2026-05-03T08:24:27Z</time></trkpt><trkpt lat="46.272365308061104" lon="13.108002157491919"><ele>189.0</ele><time>2026-05-03T08:24:28Z</time></trkpt><trkpt lat="46.27246510752792" lon="13.108020686520677"><ele>189.0</ele><time>2026-05-03T08:24:29Z</time></trkpt><trkpt lat="46.272554585105645" lon="13.108038880601082"><ele>189.0</ele><time>2026-05-03T08:24:30Z</time></trkpt><trkpt lat="46.272634714389184" lon="13.108052206117513"><ele>189.0</ele><time>2026-05-03T08:24:31Z</time></trkpt><trkpt lat="46.272705098069515" lon="13.108061092161993"><ele>189.0</ele><time>2026-05-03T08:24:32Z</time></trkpt><trkpt lat="46.272802868840884" lon="13.10807400230673"><ele>189.0</ele><time>2026-05-03T08:24:34Z</time></trkpt><trkpt lat="46.2728721571842" lon="13.10808070040188"><ele>189.0</ele><time>2026-05-03T08:24:36Z</time></trkpt><trkpt lat="46.27296292428548" lon="13.108087558882184"><ele>189.0</ele><time>2026-05-03T08:24:39Z</time></trkpt><trkpt lat="46.273060968267444" lon="13.108091776881654"><ele>189.66666666666666</ele><time>2026-05-03T08:24:41Z</time></trkpt><trkpt lat="46.27312358189643" lon="13.108121249950845"><ele>190.33333333333331</ele><time>2026-05-03T08:24:42Z</time></trkpt><trkpt lat="46.2732112031615" lon="13.10818135369589"><ele>191.0</ele><time>2026-05-03T08:24:43Z</time></trkpt><trkpt lat="46.2732947563369" lon="13.108209585002086"><ele>191.66666666666666</ele><time>2026-05-03T08:24:44Z</time></trkpt><trkpt lat="46.27336854358648" lon="13.108191671273891"><ele>192.33333333333331</ele><time>2026-05-03T08:24:45Z</time></trkpt><trkpt lat="46.27345752203535" lon="13.108172555078442"><ele>193.0</ele><time>2026-05-03T08:24:46Z</time></trkpt><trkpt lat="46.273565670000146" lon="13.108180816412922"><ele>193.0</ele><time>2026-05-03T08:24:47Z</time></trkpt><trkpt lat="46.27366627859489" lon="13.108207713593812"><ele>193.0</ele><time>2026-05-03T08:24:48Z</time></trkpt><trkpt lat="46.27375323641859" lon="13.108232123463988"><ele>193.0</ele><time>2026-05-03T08:24:49Z</time></trkpt><trkpt lat="46.2738473969436" lon="13.1082585123169"><ele>193.0</ele><time>2026-05-03T08:24:50Z</time></trkpt><trkpt lat="46.27395697552795" lon="13.108284694492461"><ele>193.0</ele><time>2026-05-03T08:24:51Z</time></trkpt><trkpt lat="46.274074913053944" lon="13.108306262512995"><ele>193.0</ele><time>2026-05-03T08:24:52Z</time></trkpt><trkpt lat="46.274193939932054" lon="13.108330798780521"><ele>193.0</ele><time>2026-05-03T08:24:53Z</time></trkpt><trkpt lat="46.27432205501279" lon="13.108354302082235"><ele>193.0</ele><time>2026-05-03T08:24:54Z</time></trkpt><trkpt lat="46.27445441711591" lon="13.108371097096375"><ele>193.0</ele><time>2026-05-03T08:24:55Z</time></trkpt><trkpt lat="46.274593170019884" lon="13.10839322829878"><ele>193.0</ele><time>2026-05-03T08:24:56Z</time></trkpt><trkpt lat="46.27473213902242" lon="13.108418842470014"><ele>193.0</ele><time>2026-05-03T08:24:57Z</time></trkpt><trkpt lat="46.27487979245188" lon="13.108446998721831"><ele>193.0</ele><time>2026-05-03T08:24:58Z</time></trkpt><trkpt lat="46.2750374305307" lon="13.108477607641454"><ele>193.0</ele><time>2026-05-03T08:24:59Z</time></trkpt><trkpt lat="46.27520509761377" lon="13.108508068747586"><ele>193.33333333333331</ele><time>2026-05-03T08:25:00Z</time></trkpt><trkpt lat="46.275378022368955" lon="13.108539917853296"><ele>193.66666666666669</ele><time>2026-05-03T08:25:01Z</time></trkpt><trkpt lat="46.27553772392283" lon="13.108571144628685"><ele>194.0</ele><time>2026-05-03T08:25:02Z</time></trkpt><trkpt lat="46.27568004216812" lon="13.108595481753886"><ele>194.5</ele><time>2026-05-03T08:25:03Z</time></trkpt><trkpt lat="46.275814483942966" lon="13.108617255909248"><ele>195.0</ele><time>2026-05-03T08:25:04Z</time></trkpt><trkpt lat="46.27594186780962" lon="13.108641432762349"><ele>195.5</ele><time>2026-05-03T08:25:05Z</time></trkpt><trkpt lat="46.27606135749516" lon="13.108664762672747"><ele>196.0</ele><time>2026-05-03T08:25:06Z</time></trkpt><trkpt lat="46.27618064669501" lon="13.108687177734723"><ele>196.0</ele><time>2026-05-03T08:25:07Z</time></trkpt><trkpt lat="46.27631260490912" lon="13.108709963642074"><ele>196.0</ele><time>2026-05-03T08:25:08Z</time></trkpt><trkpt lat="46.27646032048889" lon="13.108738177576113"><ele>196.0</ele><time>2026-05-03T08:25:09Z</time></trkpt><trkpt lat="46.27661318050747" lon="13.108765330873245"><ele>196.0</ele><time>2026-05-03T08:25:10Z</time></trkpt><trkpt lat="46.276758126677684" lon="13.108788870069878"><ele>195.5</ele><time>2026-05-03T08:25:11Z</time></trkpt><trkpt lat="46.27689180376514" lon="13.10881266249663"><ele>195.0</ele><time>2026-05-03T08:25:12Z</time></trkpt><trkpt lat="46.277014574813734" lon="13.10883828543287"><ele>194.5</ele><time>2026-05-03T08:25:13Z</time></trkpt><trkpt lat="46.27713197657774" lon="13.10886407652763"><ele>194.0</ele><time>2026-05-03T08:25:14Z</time></trkpt><trkpt lat="46.27725021845855" lon="13.108884413330872"><ele>194.0</ele><time>2026-05-03T08:25:15Z</time></trkpt><trkpt lat="46.27737704553939" lon="13.108903396098595"><ele>194.0</ele><time>2026-05-03T08:25:16Z</time></trkpt><trkpt lat="46.277503023623645" lon="13.108927474021987"><ele>194.0</ele><time>2026-05-03T08:25:17Z</time></trkpt><trkpt lat="46.2776306459499" lon="13.108955534712793"><ele>194.0</ele><time>2026-05-03T08:25:18Z</time></trkpt><trkpt lat="46.277763066950335" lon="13.108980173858411"><ele>194.0</ele><time>2026-05-03T08:25:19Z</time></trkpt><trkpt lat="46.27789998687067" lon="13.108998920111292"><ele>194.0</ele><time>2026-05-03T08:25:20Z</time></trkpt><trkpt lat="46.27803398702604" lon="13.10902001812138"><ele>194.0</ele><time>2026-05-03T08:25:21Z</time></trkpt><trkpt lat="46.27816700599338" lon="13.109046224936147"><ele>194.0</ele><time>2026-05-03T08:25:22Z</time></trkpt><trkpt lat="46.27829474569703" lon="13.109065886496774"><ele>194.25</ele><time>2026-05-03T08:25:23Z</time></trkpt><trkpt lat="46.278412102488936" lon="13.109079523162627"><ele>194.5</ele><time>2026-05-03T08:25:24Z</time></trkpt><trkpt lat="46.278524517440324" lon="13.109094260418221"><ele>194.75</ele><time>2026-05-03T08:25:25Z</time></trkpt><trkpt lat="46.27863342136064" lon="13.109110364123794"><ele>195.0</ele><time>2026-05-03T08:25:26Z</time></trkpt><trkpt lat="46.27875228154675" lon="13.109123660299993"><ele>195.0</ele><time>2026-05-03T08:25:27Z</time></trkpt><trkpt lat="46.27887899289537" lon="13.109141753055518"><ele>195.0</ele><time>2026-05-03T08:25:28Z</time></trkpt><trkpt lat="46.27901791248776" lon="13.109162997419848"><ele>195.0</ele><time>2026-05-03T08:25:29Z</time></trkpt><trkpt lat="46.27916175121844" lon="13.109187669173549"><ele>195.0</ele><time>2026-05-03T08:25:30Z</time></trkpt><trkpt lat="46.27931400015398" lon="13.109213649137534"><ele>195.25</ele><time>2026-05-03T08:25:31Z</time></trkpt><trkpt lat="46.27945807845714" lon="13.109238399016942"><ele>195.5</ele><time>2026-05-03T08:25:32Z</time></trkpt><trkpt lat="46.279588705567825" lon="13.109263159722895"><ele>195.75</ele><time>2026-05-03T08:25:33Z</time></trkpt><trkpt lat="46.27970966983635" lon="13.109288457216499"><ele>196.0</ele><time>2026-05-03T08:25:34Z</time></trkpt><trkpt lat="46.27982114125527" lon="13.109310618756949"><ele>196.0</ele><time>2026-05-03T08:25:35Z</time></trkpt><trkpt lat="46.279923779427804" lon="13.109329149022175"><ele>196.0</ele><time>2026-05-03T08:25:36Z</time></trkpt><trkpt lat="46.280031157927425" lon="13.109346635320522"><ele>196.0</ele><time>2026-05-03T08:25:37Z</time></trkpt><trkpt lat="46.28015356702326" lon="13.109367518441532"><ele>196.0</ele><time>2026-05-03T08:25:38Z</time></trkpt><trkpt lat="46.28026974890728" lon="13.109386626388703"><ele>196.0</ele><time>2026-05-03T08:25:39Z</time></trkpt><trkpt lat="46.28037716311293" lon="13.109403184226517"><ele>196.0</ele><time>2026-05-03T08:25:40Z</time></trkpt><trkpt lat="46.28049230778901" lon="13.109420497545859"><ele>196.0</ele><time>2026-05-03T08:25:41Z</time></trkpt><trkpt lat="46.280620419971314" lon="13.109446354805096"><ele>196.0</ele><time>2026-05-03T08:25:42Z</time></trkpt><trkpt lat="46.2807734184383" lon="13.10947803129958"><ele>196.33333333333331</ele><time>2026-05-03T08:25:43Z</time></trkpt><trkpt lat="46.28095719264326" lon="13.109512210036234"><ele>196.66666666666669</ele><time>2026-05-03T08:25:44Z</time></trkpt><trkpt lat="46.281157973897365" lon="13.109547184682123"><ele>197.0</ele><time>2026-05-03T08:25:45Z</time></trkpt><trkpt lat="46.28134517430281" lon="13.1095859271018"><ele>197.0</ele><time>2026-05-03T08:25:46Z</time></trkpt><trkpt lat="46.28151124901803" lon="13.109615290110694"><ele>197.0</ele><time>2026-05-03T08:25:47Z</time></trkpt><trkpt lat="46.28166227690981" lon="13.109639002630125"><ele>197.0</ele><time>2026-05-03T08:25:48Z</time></trkpt><trkpt lat="46.28181280150157" lon="13.109667145097214"><ele>197.0</ele><time>2026-05-03T08:25:49Z</time></trkpt><trkpt lat="46.28197806659943" lon="13.109697677831736"><ele>197.0</ele><time>2026-05-03T08:25:50Z</time></trkpt><trkpt lat="46.282159588013755" lon="13.109730418795154"><ele>197.0</ele><time>2026-05-03T08:25:51Z</time></trkpt><trkpt lat="46.28235048346809" lon="13.109764396440276"><ele>197.0</ele><time>2026-05-03T08:25:52Z</time></trkpt><trkpt lat="46.28254797380004" lon="13.109794458688004"><ele>197.0</ele><time>2026-05-03T08:25:53Z</time></trkpt><trkpt lat="46.28274062563778" lon="13.109822280483488"><ele>197.0</ele><time>2026-05-03T08:25:54Z</time></trkpt><trkpt lat="46.282914073133" lon="13.109850878979165"><ele>197.0</ele><time>2026-05-03T08:25:55Z</time></trkpt><trkpt lat="46.283076398781" lon="13.109882913936644"><ele>197.0</ele><time>2026-05-03T08:25:56Z</time></trkpt><trkpt lat="46.283237895062186" lon="13.1099155660785"><ele>197.0</ele><time>2026-05-03T08:25:57Z</time></trkpt><trkpt lat="46.283408411934126" lon="13.109945029372495"><ele>197.0</ele><time>2026-05-03T08:25:58Z</time></trkpt><trkpt lat="46.28358853332289" lon="13.109977838286902"><ele>197.0</ele><time>2026-05-03T08:25:59Z</time></trkpt><trkpt lat="46.28377252304613" lon="13.11001547626341"><ele>197.0</ele><time>2026-05-03T08:26:00Z</time></trkpt><trkpt lat="46.28394640086" lon="13.110065806040673"><ele>197.66666666666669</ele><time>2026-05-03T08:26:01Z</time></trkpt><trkpt lat="46.284107392438884" lon="13.110135581233434"><ele>198.33333333333331</ele><time>2026-05-03T08:26:02Z</time></trkpt><trkpt lat="46.28425726060957" lon="13.110225322835948"><ele>199.0</ele><time>2026-05-03T08:26:03Z</time></trkpt><trkpt lat="46.284409389411515" lon="13.110330652597586"><ele>199.0</ele><time>2026-05-03T08:26:04Z</time></trkpt><trkpt lat="46.28456590246019" lon="13.110445924720237"><ele>199.0</ele><time>2026-05-03T08:26:05Z</time></trkpt><trkpt lat="46.284705121520616" lon="13.1105502092549"><ele>199.0</ele><time>2026-05-03T08:26:06Z</time></trkpt><trkpt lat="46.28483904648055" lon="13.110643089595671"><ele>198.5</ele><time>2026-05-03T08:26:07Z</time></trkpt><trkpt lat="46.28496184570974" lon="13.11073235589237"><ele>198.0</ele><time>2026-05-03T08:26:08Z</time></trkpt><trkpt lat="46.285080534975094" lon="13.110814492568714"><ele>197.5</ele><time>2026-05-03T08:26:09Z</time></trkpt><trkpt lat="46.285191461916696" lon="13.110897416403743"><ele>197.0</ele><time>2026-05-03T08:26:10Z</time></trkpt><trkpt lat="46.28531171766294" lon="13.110991276769257"><ele>197.0</ele><time>2026-05-03T08:26:11Z</time></trkpt><trkpt lat="46.28543447074739" lon="13.11108606441871"><ele>197.0</ele><time>2026-05-03T08:26:12Z</time></trkpt><trkpt lat="46.28555872022582" lon="13.111179736556574"><ele>197.0</ele><time>2026-05-03T08:26:13Z</time></trkpt><trkpt lat="46.28568391296394" lon="13.111275175101742"><ele>197.0</ele><time>2026-05-03T08:26:14Z</time></trkpt><trkpt lat="46.28579926481443" lon="13.111361590476974"><ele>197.6</ele><time>2026-05-03T08:26:15Z</time></trkpt><trkpt lat="46.285889649311756" lon="13.111431380957345"><ele>198.2</ele><time>2026-05-03T08:26:16Z</time></trkpt><trkpt lat="46.28597259254823" lon="13.111495256409858"><ele>198.8</ele><time>2026-05-03T08:26:17Z</time></trkpt><trkpt lat="46.2860419105336" lon="13.111545491179577"><ele>199.4</ele><time>2026-05-03T08:26:18Z</time></trkpt><trkpt lat="46.2861386183664" lon="13.111625991910275"><ele>200.0</ele><time>2026-05-03T08:26:20Z</time></trkpt><trkpt lat="46.28616622602634" lon="13.111744889290938"><ele>200.0</ele><time>2026-05-03T08:26:23Z</time></trkpt><trkpt lat="46.28619672981008" lon="13.111855770174357"><ele>200.0</ele><time>2026-05-03T08:26:27Z</time></trkpt></trkseg><trkseg><trkpt lat="46.286308489863366" lon="13.11188678273518"><ele>200.0</ele><time>2026-05-03T08:39:26Z</time></trkpt><trkpt lat="46.286417007926055" lon="13.111988187604842"><ele>200.0</ele><time>2026-05-03T08:39:28Z</time></trkpt><trkpt lat="46.28648308387729" lon="13.112041858178033"><ele>200.0</ele><time>2026-05-03T08:39:29Z</time></trkpt><trkpt lat="46.28657128049397" lon="13.112003747038083"><ele>200.0</ele><time>2026-05-03T08:39:31Z</time></trkpt><trkpt lat="46.286652801782694" lon="13.111989176394395"><ele>200.0</ele><time>2026-05-03T08:39:33Z</time></trkpt><trkpt lat="46.28674382838362" lon="13.112036226231762"><ele>200.0</ele><time>2026-05-03T08:39:34Z</time></trkpt><trkpt lat="46.28685896952539" lon="13.112122072158265"><ele>200.0</ele><time>2026-05-03T08:39:35Z</time></trkpt><trkpt lat="46.287014058474185" lon="13.112242314801197"><ele>200.0</ele><time>2026-05-03T08:39:36Z</time></trkpt><trkpt lat="46.28722342285479" lon="13.112390305268896"><ele>200.5</ele><time>2026-05-03T08:39:37Z</time></trkpt><trkpt lat="46.287484776901074" lon="13.112572124639698"><ele>201.0</ele><time>2026-05-03T08:39:38Z</time></trkpt><trkpt lat="46.287763525441925" lon="13.112773578245795"><ele>201.0</ele><time>2026-05-03T08:39:39Z</time></trkpt><trkpt lat="46.288038120510166" lon="13.112982475308042"><ele>201.0</ele><time>2026-05-03T08:39:40Z</time></trkpt><trkpt lat="46.28828368017075" lon="13.113160764372823"><ele>201.5</ele><time>2026-05-03T08:39:41Z</time></trkpt><trkpt lat="46.28851589409557" lon="13.113330644034761"><ele>202.0</ele><time>2026-05-03T08:39:42Z</time></trkpt><trkpt lat="46.28873746232449" lon="13.11348832874561"><ele>201.0</ele><time>2026-05-03T08:39:43Z</time></trkpt><trkpt lat="46.28895480120175" lon="13.113648587969694"><ele>200.0</ele><time>2026-05-03T08:39:44Z</time></trkpt><trkpt lat="46.289165517100294" lon="13.113805663922987"><ele>200.0</ele><time>2026-05-03T08:39:45Z</time></trkpt><trkpt lat="46.28936580784695" lon="13.113955879582011"><ele>200.0</ele><time>2026-05-03T08:39:46Z</time></trkpt><trkpt lat="46.289564295979694" lon="13.114098576566226"><ele>200.0</ele><time>2026-05-03T08:39:47Z</time></trkpt><trkpt lat="46.28976902206579" lon="13.11424894815691"><ele>201.0</ele><time>2026-05-03T08:39:48Z</time></trkpt><trkpt lat="46.2899719176796" lon="13.114385217457292"><ele>202.0</ele><time>2026-05-03T08:39:49Z</time></trkpt><trkpt lat="46.290170254294495" lon="13.11449640922052"><ele>203.0</ele><time>2026-05-03T08:39:50Z</time></trkpt><trkpt lat="46.290378864200115" lon="13.114592093053279"><ele>202.0</ele><time>2026-05-03T08:39:51Z</time></trkpt><trkpt lat="46.290614656359075" lon="13.114674075628617"><ele>201.0</ele><time>2026-05-03T08:39:52Z</time></trkpt><trkpt lat="46.290868411555024" lon="13.114733464012627"><ele>201.0</ele><time>2026-05-03T08:39:53Z</time></trkpt><trkpt lat="46.29109757755794" lon="13.114788879488183"><ele>201.0</ele><time>2026-05-03T08:39:54Z</time></trkpt><trkpt lat="46.29131158811076" lon="13.114841097995585"><ele>201.0</ele><time>2026-05-03T08:39:55Z</time></trkpt><trkpt lat="46.29150969970637" lon="13.114891334135146"><ele>201.66666666666669</ele><time>2026-05-03T08:39:56Z</time></trkpt><trkpt lat="46.291699250199876" lon="13.114939659689226"><ele>202.33333333333334</ele><time>2026-05-03T08:39:57Z</time></trkpt><trkpt lat="46.29189907689556" lon="13.114990545083725"><ele>203.0</ele><time>2026-05-03T08:39:58Z</time></trkpt><trkpt lat="46.292096426843365" lon="13.11504303883406"><ele>203.33333333333334</ele><time>2026-05-03T08:39:59Z</time></trkpt><trkpt lat="46.292292622932585" lon="13.11509282518492"><ele>203.66666666666669</ele><time>2026-05-03T08:40:00Z</time></trkpt><trkpt lat="46.292491491144595" lon="13.115139699430356"><ele>204.0</ele><time>2026-05-03T08:40:01Z</time></trkpt><trkpt lat="46.292700468453326" lon="13.11518958482865"><ele>204.0</ele><time>2026-05-03T08:40:02Z</time></trkpt><trkpt lat="46.2929147929479" lon="13.115242511519654"><ele>204.0</ele><time>2026-05-03T08:40:03Z</time></trkpt><trkpt lat="46.293131448243834" lon="13.115293167147742"><ele>204.0</ele><time>2026-05-03T08:40:04Z</time></trkpt><trkpt lat="46.293331119208865" lon="13.11532838131043"><ele>204.0</ele><time>2026-05-03T08:40:05Z</time></trkpt><trkpt lat="46.29353959110012" lon="13.115347862296753"><ele>204.0</ele><time>2026-05-03T08:40:06Z</time></trkpt><trkpt lat="46.2937562771911" lon="13.11536205417483"><ele>204.0</ele><time>2026-05-03T08:40:07Z</time></trkpt><trkpt lat="46.293978510599416" lon="13.115365399820401"><ele>203.66666666666669</ele><time>2026-05-03T08:40:08Z</time></trkpt><trkpt lat="46.294188238320274" lon="13.115360788531738"><ele>203.33333333333334</ele><time>2026-05-03T08:40:09Z</time></trkpt><trkpt lat="46.29438934008184" lon="13.11535745355337"><ele>203.0</ele><time>2026-05-03T08:40:10Z</time></trkpt><trkpt lat="46.2945789945589" lon="13.115357411599659"><ele>203.66666666666669</ele><time>2026-05-03T08:40:11Z</time></trkpt><trkpt lat="46.2947617985595" lon="13.115357077282756"><ele>204.33333333333331</ele><time>2026-05-03T08:40:12Z</time></trkpt><trkpt lat="46.29494807512157" lon="13.11535072656522"><ele>205.0</ele><time>2026-05-03T08:40:13Z</time></trkpt><trkpt lat="46.29511488546731" lon="13.115348589342679"><ele>205.0</ele><time>2026-05-03T08:40:14Z</time></trkpt><trkpt lat="46.29527153682503" lon="13.115346675183883"><ele>205.0</ele><time>2026-05-03T08:40:15Z</time></trkpt><trkpt lat="46.295415856461496" lon="13.11534508060108"><ele>205.0</ele><time>2026-05-03T08:40:16Z</time></trkpt><trkpt lat="46.29555746779276" lon="13.115341925841147"><ele>205.0</ele><time>2026-05-03T08:40:17Z</time></trkpt><trkpt lat="46.2957086005242" lon="13.11534260399902"><ele>204.66666666666666</ele><time>2026-05-03T08:40:18Z</time></trkpt><trkpt lat="46.295878036542454" lon="13.115357893540354"><ele>204.33333333333331</ele><time>2026-05-03T08:40:19Z</time></trkpt><trkpt lat="46.29605751712847" lon="13.115388038973407"><ele>204.0</ele><time>2026-05-03T08:40:20Z</time></trkpt><trkpt lat="46.296245535998054" lon="13.11543330162553"><ele>204.66666666666669</ele><time>2026-05-03T08:40:21Z</time></trkpt><trkpt lat="46.29643800101572" lon="13.115499637601483"><ele>205.33333333333334</ele><time>2026-05-03T08:40:22Z</time></trkpt><trkpt lat="46.296632946651656" lon="13.11560045662584"><ele>206.0</ele><time>2026-05-03T08:40:23Z</time></trkpt><trkpt lat="46.29682885407345" lon="13.115723424703274"><ele>206.0</ele><time>2026-05-03T08:40:24Z</time></trkpt><trkpt lat="46.29702222266647" lon="13.115860363517099"><ele>206.0</ele><time>2026-05-03T08:40:25Z</time></trkpt><trkpt lat="46.29719565391142" lon="13.115997081148507"><ele>206.0</ele><time>2026-05-03T08:40:26Z</time></trkpt><trkpt lat="46.297363831951834" lon="13.11612480836128"><ele>207.33333333333334</ele><time>2026-05-03T08:40:27Z</time></trkpt><trkpt lat="46.297541998567915" lon="13.116266035030353"><ele>208.66666666666669</ele><time>2026-05-03T08:40:28Z</time></trkpt><trkpt lat="46.29772383451015" lon="13.11641242282502"><ele>210.0</ele><time>2026-05-03T08:40:29Z</time></trkpt><trkpt lat="46.29790768432785" lon="13.11655394555158"><ele>208.5</ele><time>2026-05-03T08:40:30Z</time></trkpt><trkpt lat="46.29810148904588" lon="13.11669990813751"><ele>207.0</ele><time>2026-05-03T08:40:31Z</time></trkpt><trkpt lat="46.2983209129039" lon="13.116870770582443"><ele>207.0</ele><time>2026-05-03T08:40:32Z</time></trkpt><trkpt lat="46.298567471132294" lon="13.117063709345832"><ele>207.0</ele><time>2026-05-03T08:40:33Z</time></trkpt><trkpt lat="46.29884084475541" lon="13.117277248338723"><ele>208.0</ele><time>2026-05-03T08:40:34Z</time></trkpt><trkpt lat="46.2991229413865" lon="13.117493010828577"><ele>209.0</ele><time>2026-05-03T08:40:35Z</time></trkpt><trkpt lat="46.299397490962704" lon="13.117704656978606"><ele>209.0</ele><time>2026-05-03T08:40:36Z</time></trkpt><trkpt lat="46.29963973900899" lon="13.117895832738377"><ele>209.0</ele><time>2026-05-03T08:40:37Z</time></trkpt><trkpt lat="46.29985846492697" lon="13.118072800403741"><ele>209.0</ele><time>2026-05-03T08:40:38Z</time></trkpt><trkpt lat="46.30007019199999" lon="13.118241724249836"><ele>209.0</ele><time>2026-05-03T08:40:39Z</time></trkpt><trkpt lat="46.30024967988922" lon="13.118384818247053"><ele>209.0</ele><time>2026-05-03T08:40:40Z</time></trkpt><trkpt lat="46.30042303913951" lon="13.118523750230011"><ele>209.66666666666669</ele><time>2026-05-03T08:40:41Z</time></trkpt><trkpt lat="46.30058347659263" lon="13.118653163243971"><ele>210.33333333333331</ele><time>2026-05-03T08:40:42Z</time></trkpt><trkpt lat="46.30073672771403" lon="13.118776129111996"><ele>211.0</ele><time>2026-05-03T08:40:43Z</time></trkpt><trkpt lat="46.300897483952454" lon="13.118904684176757"><ele>211.0</ele><time>2026-05-03T08:40:44Z</time></trkpt><trkpt lat="46.30105712744414" lon="13.119032414572475"><ele>211.0</ele><time>2026-05-03T08:40:45Z</time></trkpt><trkpt lat="46.30121151140593" lon="13.119158081448818"><ele>211.0</ele><time>2026-05-03T08:40:46Z</time></trkpt><trkpt lat="46.30137412044271" lon="13.11928466912713"><ele>210.66666666666666</ele><time>2026-05-03T08:40:47Z</time></trkpt><trkpt lat="46.30154016171557" lon="13.119420303993284"><ele>210.33333333333331</ele><time>2026-05-03T08:40:48Z</time></trkpt><trkpt lat="46.30170942341084" lon="13.119559585874425"><ele>210.0</ele><time>2026-05-03T08:40:49Z</time></trkpt><trkpt lat="46.30188355133994" lon="13.119697017422482"><ele>210.0</ele><time>2026-05-03T08:40:50Z</time></trkpt><trkpt lat="46.30206848198369" lon="13.119831876766167"><ele>210.0</ele><time>2026-05-03T08:40:51Z</time></trkpt><trkpt lat="46.30225618084897" lon="13.119975970833945"><ele>210.0</ele><time>2026-05-03T08:40:52Z</time></trkpt><trkpt lat="46.302428469571616" lon="13.120128451933377"><ele>211.33333333333331</ele><time>2026-05-03T08:40:53Z</time></trkpt><trkpt lat="46.30258940546045" lon="13.120270420924921"><ele>212.66666666666666</ele><time>2026-05-03T08:40:54Z</time></trkpt><trkpt lat="46.302756394526504" lon="13.120418191226547"><ele>214.0</ele><time>2026-05-03T08:40:55Z</time></trkpt><trkpt lat="46.30292279191528" lon="13.120574961010197"><ele>214.0</ele><time>2026-05-03T08:40:56Z</time></trkpt><trkpt lat="46.30308711603456" lon="13.120734255670515"><ele>214.0</ele><time>2026-05-03T08:40:57Z</time></trkpt><trkpt lat="46.30325528527347" lon="13.12090230785445"><ele>214.0</ele><time>2026-05-03T08:40:58Z</time></trkpt><trkpt lat="46.303440946355344" lon="13.1210868886113"><ele>214.0</ele><time>2026-05-03T08:40:59Z</time></trkpt><trkpt lat="46.30363747806181" lon="13.121313663570952"><ele>214.0</ele><time>2026-05-03T08:41:00Z</time></trkpt><trkpt lat="46.303842304834845" lon="13.12149758851939"><ele>214.5</ele><time>2026-05-03T08:41:01Z</time></trkpt><trkpt lat="46.304025860015976" lon="13.12169241556722"><ele>215.0</ele><time>2026-05-03T08:41:02Z</time></trkpt><trkpt lat="46.30420725643292" lon="13.12188469553418"><ele>215.0</ele><time>2026-05-03T08:41:03Z</time></trkpt><trkpt lat="46.304397877972534" lon="13.122079325291637"><ele>215.0</ele><time>2026-05-03T08:41:04Z</time></trkpt><trkpt lat="46.304590319269956" lon="13.122281724087347"><ele>217.5</ele><time>2026-05-03T08:41:05Z</time></trkpt><trkpt lat="46.30478063327322" lon="13.122495075152745"><ele>220.0</ele><time>2026-05-03T08:41:06Z</time></trkpt><trkpt lat="46.30496895033892" lon="13.122725495155654"><ele>220.0</ele><time>2026-05-03T08:41:07Z</time></trkpt><trkpt lat="46.3051436557354" lon="13.122967037881752"><ele>220.0</ele><time>2026-05-03T08:41:08Z</time></trkpt><trkpt lat="46.30529858457314" lon="13.12321815240545"><ele>219.33333333333331</ele><time>2026-05-03T08:41:09Z</time></trkpt><trkpt lat="46.30544508071913" lon="13.123469997570465"><ele>218.66666666666669</ele><time>2026-05-03T08:41:10Z</time></trkpt><trkpt lat="46.3055774013421" lon="13.12372468388239"><ele>218.0</ele><time>2026-05-03T08:41:11Z</time></trkpt><trkpt lat="46.30570626716095" lon="13.123980586362569"><ele>221.66666666666669</ele><time>2026-05-03T08:41:12Z</time></trkpt><trkpt lat="46.30582343815914" lon="13.124216814975204"><ele>225.33333333333331</ele><time>2026-05-03T08:41:13Z</time></trkpt><trkpt lat="46.30593336548567" lon="13.124433340465226"><ele>229.0</ele><time>2026-05-03T08:41:14Z</time></trkpt><trkpt lat="46.30604362313729" lon="13.124648528174118"><ele>229.0</ele><time>2026-05-03T08:41:15Z</time></trkpt><trkpt lat="46.306159054719956" lon="13.124872099107463"><ele>229.0</ele><time>2026-05-03T08:41:16Z</time></trkpt><trkpt lat="46.3062699907082" lon="13.125091430286108"><ele>229.0</ele><time>2026-05-03T08:41:17Z</time></trkpt><trkpt lat="46.30638566353834" lon="13.125318963465759"><ele>231.33333333333331</ele><time>2026-05-03T08:41:18Z</time></trkpt><trkpt lat="46.30650606554332" lon="13.125550849063645"><ele>233.66666666666669</ele><time>2026-05-03T08:41:19Z</time></trkpt><trkpt lat="46.3066253456013" lon="13.125781311687684"><ele>236.0</ele><time>2026-05-03T08:41:20Z</time></trkpt><trkpt lat="46.306742190519955" lon="13.126006119989388"><ele>236.0</ele><time>2026-05-03T08:41:21Z</time></trkpt><trkpt lat="46.306855161321856" lon="13.12621817014227"><ele>236.0</ele><time>2026-05-03T08:41:22Z</time></trkpt><trkpt lat="46.306966869611266" lon="13.126424083278888"><ele>236.0</ele><time>2026-05-03T08:41:23Z</time></trkpt><trkpt lat="46.3070753552735" lon="13.126628904348221"><ele>232.66666666666669</ele><time>2026-05-03T08:41:24Z</time></trkpt><trkpt lat="46.30717963145827" lon="13.126822768836918"><ele>229.33333333333331</ele><time>2026-05-03T08:41:25Z</time></trkpt><trkpt lat="46.30728264203709" lon="13.127010747379359"><ele>226.0</ele><time>2026-05-03T08:41:26Z</time></trkpt><trkpt lat="46.307373900078545" lon="13.127216597064717"><ele>226.0</ele><time>2026-05-03T08:41:27Z</time></trkpt><trkpt lat="46.307503517638395" lon="13.127363488809753"><ele>226.0</ele><time>2026-05-03T08:41:28Z</time></trkpt><trkpt lat="46.30762465411398" lon="13.12752693328601"><ele>226.0</ele><time>2026-05-03T08:41:29Z</time></trkpt><trkpt lat="46.307757330896436" lon="13.12768695924847"><ele>225.0</ele><time>2026-05-03T08:41:30Z</time></trkpt><trkpt lat="46.307899429885055" lon="13.127824657356223"><ele>224.0</ele><time>2026-05-03T08:41:31Z</time></trkpt><trkpt lat="46.30804217214006" lon="13.127950974446952"><ele>223.0</ele><time>2026-05-03T08:41:32Z</time></trkpt><trkpt lat="46.30819663485342" lon="13.128075980002523"><ele>223.0</ele><time>2026-05-03T08:41:33Z</time></trkpt><trkpt lat="46.30835961268987" lon="13.128189888473482"><ele>223.0</ele><time>2026-05-03T08:41:34Z</time></trkpt><trkpt lat="46.3085210448223" lon="13.128287199293798"><ele>223.0</ele><time>2026-05-03T08:41:35Z</time></trkpt><trkpt lat="46.308686050206774" lon="13.128366855707952"><ele>224.0</ele><time>2026-05-03T08:41:36Z</time></trkpt><trkpt lat="46.30885957738517" lon="13.128431117254632"><ele>225.0</ele><time>2026-05-03T08:41:37Z</time></trkpt><trkpt lat="46.309050894693506" lon="13.128475470924883"><ele>226.0</ele><time>2026-05-03T08:41:38Z</time></trkpt><trkpt lat="46.309246398236915" lon="13.128504222734916"><ele>226.0</ele><time>2026-05-03T08:41:39Z</time></trkpt><trkpt lat="46.30945617030736" lon="13.128517563400052"><ele>226.0</ele><time>2026-05-03T08:41:40Z</time></trkpt><trkpt lat="46.30968225819387" lon="13.12851657980468"><ele>226.0</ele><time>2026-05-03T08:41:41Z</time></trkpt><trkpt lat="46.30992771122452" lon="13.128511697434462"><ele>223.0</ele><time>2026-05-03T08:41:42Z</time></trkpt><trkpt lat="46.31019204043236" lon="13.128517948053519"><ele>220.0</ele><time>2026-05-03T08:41:43Z</time></trkpt><trkpt lat="46.31044338136639" lon="13.128527660531429"><ele>220.66666666666666</ele><time>2026-05-03T08:41:44Z</time></trkpt><trkpt lat="46.31067235687813" lon="13.128539796033186"><ele>221.33333333333331</ele><time>2026-05-03T08:41:45Z</time></trkpt><trkpt lat="46.310886863002295" lon="13.128546852430242"><ele>222.0</ele><time>2026-05-03T08:41:46Z</time></trkpt><trkpt lat="46.311120672853555" lon="13.12855286141572"><ele>222.0</ele><time>2026-05-03T08:41:47Z</time></trkpt><trkpt lat="46.311371995209434" lon="13.12856414142445"><ele>222.0</ele><time>2026-05-03T08:41:48Z</time></trkpt><trkpt lat="46.311627144277544" lon="13.128575636948016"><ele>223.0</ele><time>2026-05-03T08:41:49Z</time></trkpt><trkpt lat="46.31186725975042" lon="13.128585124746158"><ele>224.0</ele><time>2026-05-03T08:41:50Z</time></trkpt><trkpt lat="46.312087842382596" lon="13.128590316183233"><ele>224.0</ele><time>2026-05-03T08:41:51Z</time></trkpt><trkpt lat="46.31230385334327" lon="13.128602680463638"><ele>224.0</ele><time>2026-05-03T08:41:52Z</time></trkpt><trkpt lat="46.312527711743414" lon="13.128610401288185"><ele>224.0</ele><time>2026-05-03T08:41:53Z</time></trkpt><trkpt lat="46.312736346373185" lon="13.128614169192206"><ele>224.0</ele><time>2026-05-03T08:41:54Z</time></trkpt><trkpt lat="46.31293488889713" lon="13.128618449364215"><ele>224.0</ele><time>2026-05-03T08:41:55Z</time></trkpt><trkpt lat="46.31313029512209" lon="13.128626891828826"><ele>224.0</ele><time>2026-05-03T08:41:56Z</time></trkpt><trkpt lat="46.3133319721122" lon="13.128630795247267"><ele>224.0</ele><time>2026-05-03T08:41:57Z</time></trkpt><trkpt lat="46.313522786518575" lon="13.12863572596044"><ele>224.0</ele><time>2026-05-03T08:41:58Z</time></trkpt><trkpt lat="46.31371398413232" lon="13.12864256949894"><ele>224.0</ele><time>2026-05-03T08:41:59Z</time></trkpt><trkpt lat="46.31390365526759" lon="13.128652091161452"><ele>225.33333333333334</ele><time>2026-05-03T08:42:00Z</time></trkpt><trkpt lat="46.31409687359456" lon="13.128661955227384"><ele>226.66666666666669</ele><time>2026-05-03T08:42:01Z</time></trkpt><trkpt lat="46.314291335820535" lon="13.128675380493352"><ele>228.0</ele><time>2026-05-03T08:42:02Z</time></trkpt><trkpt lat="46.314484095845266" lon="13.128691261083603"><ele>228.0</ele><time>2026-05-03T08:42:03Z</time></trkpt><trkpt lat="46.31466856346614" lon="13.1287096546524"><ele>228.0</ele><time>2026-05-03T08:42:04Z</time></trkpt><trkpt lat="46.3148447538098" lon="13.12873454762737"><ele>228.0</ele><time>2026-05-03T08:42:05Z</time></trkpt><trkpt lat="46.31502890443157" lon="13.128770944499722"><ele>227.33333333333331</ele><time>2026-05-03T08:42:06Z</time></trkpt><trkpt lat="46.31521189133936" lon="13.128812862873872"><ele>226.66666666666666</ele><time>2026-05-03T08:42:07Z</time></trkpt><trkpt lat="46.31538760943375" lon="13.12886401779389"><ele>226.0</ele><time>2026-05-03T08:42:08Z</time></trkpt><trkpt lat="46.315556932154585" lon="13.128917761882764"><ele>225.33333333333331</ele><time>2026-05-03T08:42:09Z</time></trkpt><trkpt lat="46.31572638895933" lon="13.128976433755202"><ele>224.66666666666669</ele><time>2026-05-03T08:42:10Z</time></trkpt><trkpt lat="46.31590698717286" lon="13.129050405497962"><ele>224.0</ele><time>2026-05-03T08:42:11Z</time></trkpt><trkpt lat="46.31609391798375" lon="13.129140822913616"><ele>224.66666666666669</ele><time>2026-05-03T08:42:12Z</time></trkpt><trkpt lat="46.31627316036883" lon="13.129229561249467"><ele>225.33333333333331</ele><time>2026-05-03T08:42:13Z</time></trkpt><trkpt lat="46.316434052152275" lon="13.129315493828528"><ele>226.0</ele><time>2026-05-03T08:42:14Z</time></trkpt><trkpt lat="46.31658863972322" lon="13.129400709343242"><ele>226.0</ele><time>2026-05-03T08:42:15Z</time></trkpt><trkpt lat="46.31673291322465" lon="13.129490965634849"><ele>226.0</ele><time>2026-05-03T08:42:16Z</time></trkpt><trkpt lat="46.31688054275311" lon="13.129585778933091"><ele>226.0</ele><time>2026-05-03T08:42:17Z</time></trkpt><trkpt lat="46.31703018477152" lon="13.12968474857508"><ele>226.0</ele><time>2026-05-03T08:42:18Z</time></trkpt><trkpt lat="46.317185766803014" lon="13.12978864831575"><ele>226.0</ele><time>2026-05-03T08:42:19Z</time></trkpt><trkpt lat="46.31733934586707" lon="13.129890257893582"><ele>226.0</ele><time>2026-05-03T08:42:20Z</time></trkpt><trkpt lat="46.3174894174479" lon="13.12998840429726"><ele>226.33333333333331</ele><time>2026-05-03T08:42:21Z</time></trkpt><trkpt lat="46.317633864129604" lon="13.130083925973988"><ele>226.66666666666669</ele><time>2026-05-03T08:42:22Z</time></trkpt><trkpt lat="46.31777644612185" lon="13.130170985169078"><ele>227.0</ele><time>2026-05-03T08:42:23Z</time></trkpt><trkpt lat="46.317927244207596" lon="13.130254655226837"><ele>225.33333333333334</ele><time>2026-05-03T08:42:24Z</time></trkpt><trkpt lat="46.318090342714825" lon="13.13032438210773"><ele>223.66666666666669</ele><time>2026-05-03T08:42:25Z</time></trkpt><trkpt lat="46.318256338892304" lon="13.130376144353047"><ele>222.0</ele><time>2026-05-03T08:42:26Z</time></trkpt><trkpt lat="46.318421812175885" lon="13.130420288893099"><ele>222.0</ele><time>2026-05-03T08:42:27Z</time></trkpt><trkpt lat="46.31859004225956" lon="13.130453747514602"><ele>222.0</ele><time>2026-05-03T08:42:28Z</time></trkpt><trkpt lat="46.31875812402825" lon="13.130477419562917"><ele>222.0</ele><time>2026-05-03T08:42:29Z</time></trkpt><trkpt lat="46.31892901670452" lon="13.130492412815714"><ele>222.0</ele><time>2026-05-03T08:42:30Z</time></trkpt><trkpt lat="46.3190991047915" lon="13.130498545261984"><ele>222.0</ele><time>2026-05-03T08:42:31Z</time></trkpt><trkpt lat="46.31928137884178" lon="13.130501196742841"><ele>222.0</ele><time>2026-05-03T08:42:32Z</time></trkpt><trkpt lat="46.31945789998274" lon="13.130501061050092"><ele>222.0</ele><time>2026-05-03T08:42:33Z</time></trkpt><trkpt lat="46.31962271169237" lon="13.130499421718698"><ele>222.0</ele><time>2026-05-03T08:42:34Z</time></trkpt><trkpt lat="46.31978799690506" lon="13.13049640740673"><ele>222.0</ele><time>2026-05-03T08:42:35Z</time></trkpt><trkpt lat="46.319955862929675" lon="13.130497956254755"><ele>221.33333333333331</ele><time>2026-05-03T08:42:36Z</time></trkpt><trkpt lat="46.32012591227779" lon="13.130505027954495"><ele>220.66666666666666</ele><time>2026-05-03T08:42:37Z</time></trkpt><trkpt lat="46.320296112782955" lon="13.130516153530513"><ele>220.0</ele><time>2026-05-03T08:42:38Z</time></trkpt><trkpt lat="46.3204651467675" lon="13.130531098917235"><ele>220.0</ele><time>2026-05-03T08:42:39Z</time></trkpt><trkpt lat="46.320631775612874" lon="13.130553996247137"><ele>220.0</ele><time>2026-05-03T08:42:40Z</time></trkpt><trkpt lat="46.32079627820574" lon="13.130580342225903"><ele>220.0</ele><time>2026-05-03T08:42:41Z</time></trkpt><trkpt lat="46.32096568920609" lon="13.130609144447995"><ele>220.0</ele><time>2026-05-03T08:42:42Z</time></trkpt><trkpt lat="46.32114095383214" lon="13.130647962036191"><ele>220.0</ele><time>2026-05-03T08:42:43Z</time></trkpt><trkpt lat="46.321317473485394" lon="13.130692728406231"><ele>220.0</ele><time>2026-05-03T08:42:44Z</time></trkpt><trkpt lat="46.32148401879515" lon="13.130736456118607"><ele>220.66666666666666</ele><time>2026-05-03T08:42:45Z</time></trkpt><trkpt lat="46.32164566501015" lon="13.130780354634643"><ele>221.33333333333331</ele><time>2026-05-03T08:42:46Z</time></trkpt><trkpt lat="46.321803672960705" lon="13.130824253463445"><ele>222.0</ele><time>2026-05-03T08:42:47Z</time></trkpt><trkpt lat="46.32195792499987" lon="13.130869391456137"><ele>222.0</ele><time>2026-05-03T08:42:48Z</time></trkpt><trkpt lat="46.322114166992634" lon="13.130916168715471"><ele>222.0</ele><time>2026-05-03T08:42:49Z</time></trkpt><trkpt lat="46.32227420125982" lon="13.130962547615342"><ele>222.0</ele><time>2026-05-03T08:42:50Z</time></trkpt><trkpt lat="46.32243556310772" lon="13.131010480450724"><ele>221.66666666666669</ele><time>2026-05-03T08:42:51Z</time></trkpt><trkpt lat="46.322596358363" lon="13.131060858797742"><ele>221.33333333333334</ele><time>2026-05-03T08:42:52Z</time></trkpt><trkpt lat="46.32276070935044" lon="13.131107562596453"><ele>221.0</ele><time>2026-05-03T08:42:53Z</time></trkpt><trkpt lat="46.322931115033334" lon="13.131153949178524"><ele>221.33333333333334</ele><time>2026-05-03T08:42:54Z</time></trkpt><trkpt lat="46.32309125617521" lon="13.131200563212797"><ele>221.66666666666669</ele><time>2026-05-03T08:42:55Z</time></trkpt><trkpt lat="46.323243555349656" lon="13.131243140304102"><ele>222.0</ele><time>2026-05-03T08:42:56Z</time></trkpt><trkpt lat="46.323391864683664" lon="13.131288021616925"><ele>222.0</ele><time>2026-05-03T08:42:57Z</time></trkpt><trkpt lat="46.3235388499028" lon="13.131332211082421"><ele>222.0</ele><time>2026-05-03T08:42:58Z</time></trkpt><trkpt lat="46.32369217463841" lon="13.131382226671889"><ele>222.0</ele><time>2026-05-03T08:42:59Z</time></trkpt><trkpt lat="46.32385149281961" lon="13.131443376455541"><ele>222.0</ele><time>2026-05-03T08:43:00Z</time></trkpt><trkpt lat="46.324020295577576" lon="13.131519737961417"><ele>222.0</ele><time>2026-05-03T08:43:01Z</time></trkpt><trkpt lat="46.324188835081884" lon="13.131604267983777"><ele>222.0</ele><time>2026-05-03T08:43:02Z</time></trkpt><trkpt lat="46.324350518971954" lon="13.131706034897482"><ele>222.33333333333331</ele><time>2026-05-03T08:43:03Z</time></trkpt><trkpt lat="46.32451247791197" lon="13.131831245875635"><ele>222.66666666666666</ele><time>2026-05-03T08:43:04Z</time></trkpt><trkpt lat="46.32466253904329" lon="13.131958874793654"><ele>223.0</ele><time>2026-05-03T08:43:05Z</time></trkpt><trkpt lat="46.32480076960055" lon="13.13208063817233"><ele>223.0</ele><time>2026-05-03T08:43:06Z</time></trkpt><trkpt lat="46.324931314887884" lon="13.132195954957137"><ele>223.0</ele><time>2026-05-03T08:43:07Z</time></trkpt><trkpt lat="46.3250547630212" lon="13.132303662803075"><ele>223.0</ele><time>2026-05-03T08:43:08Z</time></trkpt><trkpt lat="46.325174594196014" lon="13.132416799724568"><ele>223.0</ele><time>2026-05-03T08:43:09Z</time></trkpt><trkpt lat="46.32530167277335" lon="13.132542246112546"><ele>222.66666666666666</ele><time>2026-05-03T08:43:10Z</time></trkpt><trkpt lat="46.32542979898504" lon="13.132661208284134"><ele>222.33333333333331</ele><time>2026-05-03T08:43:11Z</time></trkpt><trkpt lat="46.32555615112339" lon="13.132774528118876"><ele>222.0</ele><time>2026-05-03T08:43:12Z</time></trkpt><trkpt lat="46.325682300966704" lon="13.132890153092957"><ele>222.75</ele><time>2026-05-03T08:43:13Z</time></trkpt><trkpt lat="46.325809379967296" lon="13.13300866916579"><ele>223.5</ele><time>2026-05-03T08:43:14Z</time></trkpt><trkpt lat="46.32592757801584" lon="13.133115378570782"><ele>224.25</ele><time>2026-05-03T08:43:15Z</time></trkpt><trkpt lat="46.3260442971233" lon="13.133223545908491"><ele>225.0</ele><time>2026-05-03T08:43:16Z</time></trkpt><trkpt lat="46.32616569015068" lon="13.133337670753413"><ele>225.0</ele><time>2026-05-03T08:43:17Z</time></trkpt><trkpt lat="46.32628988748735" lon="13.13345469305946"><ele>225.0</ele><time>2026-05-03T08:43:18Z</time></trkpt><trkpt lat="46.326411549278944" lon="13.13356997380388"><ele>225.0</ele><time>2026-05-03T08:43:19Z</time></trkpt><trkpt lat="46.32653139034985" lon="13.133683661451505"><ele>225.0</ele><time>2026-05-03T08:43:20Z</time></trkpt><trkpt lat="46.32665183974157" lon="13.133797203232525"><ele>225.0</ele><time>2026-05-03T08:43:21Z</time></trkpt><trkpt lat="46.326772129462796" lon="13.13391233584734"><ele>225.0</ele><time>2026-05-03T08:43:22Z</time></trkpt><trkpt lat="46.32689035449423" lon="13.134020219713069"><ele>225.0</ele><time>2026-05-03T08:43:23Z</time></trkpt><trkpt lat="46.327017335083546" lon="13.134135428904735"><ele>225.0</ele><time>2026-05-03T08:43:24Z</time></trkpt><trkpt lat="46.327167125851375" lon="13.13427224462064"><ele>224.66666666666669</ele><time>2026-05-03T08:43:25Z</time></trkpt><trkpt lat="46.32733009104054" lon="13.134420031597436"><ele>224.33333333333334</ele><time>2026-05-03T08:43:26Z</time></trkpt><trkpt lat="46.32747872147831" lon="13.134562294868205"><ele>224.0</ele><time>2026-05-03T08:43:27Z</time></trkpt><trkpt lat="46.32761851967183" lon="13.134695228052422"><ele>224.0</ele><time>2026-05-03T08:43:28Z</time></trkpt><trkpt lat="46.32775718353913" lon="13.134827104718207"><ele>224.0</ele><time>2026-05-03T08:43:29Z</time></trkpt><trkpt lat="46.32788773840572" lon="13.134953193598573"><ele>224.0</ele><time>2026-05-03T08:43:30Z</time></trkpt><trkpt lat="46.328020726936145" lon="13.135078756640409"><ele>224.33333333333334</ele><time>2026-05-03T08:43:31Z</time></trkpt><trkpt lat="46.32815127867807" lon="13.135200743285147"><ele>224.66666666666669</ele><time>2026-05-03T08:43:32Z</time></trkpt><trkpt lat="46.328281964884944" lon="13.135323405773363"><ele>225.0</ele><time>2026-05-03T08:43:33Z</time></trkpt><trkpt lat="46.328413130390004" lon="13.13544630813415"><ele>225.0</ele><time>2026-05-03T08:43:34Z</time></trkpt><trkpt lat="46.32854405294773" lon="13.135569408628903"><ele>225.0</ele><time>2026-05-03T08:43:35Z</time></trkpt><trkpt lat="46.328673600860064" lon="13.135694052745114"><ele>225.0</ele><time>2026-05-03T08:43:36Z</time></trkpt><trkpt lat="46.328802537399106" lon="13.135814288644978"><ele>225.25</ele><time>2026-05-03T08:43:37Z</time></trkpt><trkpt lat="46.32892840601091" lon="13.135933859760621"><ele>225.5</ele><time>2026-05-03T08:43:38Z</time></trkpt><trkpt lat="46.32904331923132" lon="13.136043116030145"><ele>225.75</ele><time>2026-05-03T08:43:39Z</time></trkpt><trkpt lat="46.3291602980684" lon="13.136148698805195"><ele>226.0</ele><time>2026-05-03T08:43:40Z</time></trkpt><trkpt lat="46.32928954973191" lon="13.136260276578106"><ele>226.0</ele><time>2026-05-03T08:43:41Z</time></trkpt><trkpt lat="46.32942370236146" lon="13.136374131264375"><ele>226.0</ele><time>2026-05-03T08:43:42Z</time></trkpt><trkpt lat="46.32955315599536" lon="13.136478244714947"><ele>226.0</ele><time>2026-05-03T08:43:43Z</time></trkpt><trkpt lat="46.32967282224901" lon="13.136573962488004"><ele>226.0</ele><time>2026-05-03T08:43:44Z</time></trkpt><trkpt lat="46.329793835714064" lon="13.136668023206369"><ele>226.0</ele><time>2026-05-03T08:43:45Z</time></trkpt><trkpt lat="46.32992496849847" lon="13.136765258517986"><ele>226.0</ele><time>2026-05-03T08:43:46Z</time></trkpt><trkpt lat="46.330059494576005" lon="13.136864038636393"><ele>226.0</ele><time>2026-05-03T08:43:47Z</time></trkpt><trkpt lat="46.33018313498264" lon="13.136957111145083"><ele>226.0</ele><time>2026-05-03T08:43:48Z</time></trkpt><trkpt lat="46.33030087910233" lon="13.137041738640008"><ele>226.0</ele><time>2026-05-03T08:43:49Z</time></trkpt><trkpt lat="46.33041776935507" lon="13.137131033872508"><ele>226.0</ele><time>2026-05-03T08:43:50Z</time></trkpt><trkpt lat="46.33053113765968" lon="13.137221898504515"><ele>226.0</ele><time>2026-05-03T08:43:51Z</time></trkpt><trkpt lat="46.33065115830909" lon="13.137310646148826"><ele>226.0</ele><time>2026-05-03T08:43:52Z</time></trkpt><trkpt lat="46.33077907664048" lon="13.13740065466158"><ele>226.5</ele><time>2026-05-03T08:43:53Z</time></trkpt><trkpt lat="46.33089219322198" lon="13.13748222438954"><ele>227.0</ele><time>2026-05-03T08:43:54Z</time></trkpt><trkpt lat="46.33099968567805" lon="13.137560754334176"><ele>227.5</ele><time>2026-05-03T08:43:55Z</time></trkpt><trkpt lat="46.331107503220075" lon="13.137639691157329"><ele>228.0</ele><time>2026-05-03T08:43:56Z</time></trkpt><trkpt lat="46.33120978408884" lon="13.137715809307345"><ele>228.0</ele><time>2026-05-03T08:43:57Z</time></trkpt><trkpt lat="46.33129531320983" lon="13.137782230961538"><ele>228.0</ele><time>2026-05-03T08:43:58Z</time></trkpt><trkpt lat="46.33136518335427" lon="13.137840003271632"><ele>228.0</ele><time>2026-05-03T08:43:59Z</time></trkpt><trkpt lat="46.3314231116423" lon="13.137895283272268"><ele>228.0</ele><time>2026-05-03T08:44:00Z</time></trkpt><trkpt lat="46.331747469253784" lon="13.13810274097799"><ele>228.0</ele><time>2026-05-03T08:44:02Z</time></trkpt><trkpt lat="46.33186020130124" lon="13.138168386216119"><ele>228.0</ele><time>2026-05-03T08:44:03Z</time></trkpt><trkpt lat="46.331979165246274" lon="13.138203903764332"><ele>228.0</ele><time>2026-05-03T08:44:04Z</time></trkpt><trkpt lat="46.3321036411245" lon="13.138226075035229"><ele>228.0</ele><time>2026-05-03T08:44:05Z</time></trkpt><trkpt lat="46.33223191293578" lon="13.13821534724381"><ele>228.5</ele><time>2026-05-03T08:44:06Z</time></trkpt><trkpt lat="46.3323524297656" lon="13.138192197116961"><ele>229.0</ele><time>2026-05-03T08:44:07Z</time></trkpt><trkpt lat="46.33246751727078" lon="13.13816785055093"><ele>229.5</ele><time>2026-05-03T08:44:08Z</time></trkpt><trkpt lat="46.33258709669538" lon="13.138112049156616"><ele>230.0</ele><time>2026-05-03T08:44:09Z</time></trkpt><trkpt lat="46.332710478573404" lon="13.138042202794686"><ele>230.0</ele><time>2026-05-03T08:44:10Z</time></trkpt><trkpt lat="46.332818359447245" lon="13.137967165999143"><ele>230.0</ele><time>2026-05-03T08:44:11Z</time></trkpt><trkpt lat="46.33291524192926" lon="13.137899212853176"><ele>230.0</ele><time>2026-05-03T08:44:12Z</time></trkpt><trkpt lat="46.33301655837963" lon="13.137835626990011"><ele>230.0</ele><time>2026-05-03T08:44:13Z</time></trkpt><trkpt lat="46.333128544357" lon="13.137766780770358"><ele>229.8</ele><time>2026-05-03T08:44:14Z</time></trkpt><trkpt lat="46.3332320087494" lon="13.137688145227862"><ele>229.6</ele><time>2026-05-03T08:44:15Z</time></trkpt><trkpt lat="46.33332021178456" lon="13.137622392390131"><ele>229.39999999999998</ele><time>2026-05-03T08:44:16Z</time></trkpt><trkpt lat="46.333406846909774" lon="13.137572654101039"><ele>229.2</ele><time>2026-05-03T08:44:17Z</time></trkpt><trkpt lat="46.333486162599065" lon="13.137517531950122"><ele>229.0</ele><time>2026-05-03T08:44:18Z</time></trkpt><trkpt lat="46.333560978536646" lon="13.137457613287044"><ele>229.0</ele><time>2026-05-03T08:44:19Z</time></trkpt><trkpt lat="46.33363605408703" lon="13.137411341022919"><ele>228.99999999999997</ele><time>2026-05-03T08:44:20Z</time></trkpt><trkpt lat="46.333707534902935" lon="13.137370694022806"><ele>228.99999999999997</ele><time>2026-05-03T08:44:21Z</time></trkpt><trkpt lat="46.333806795035336" lon="13.137331190003362"><ele>229.0</ele><time>2026-05-03T08:44:22Z</time></trkpt><trkpt lat="46.33392921068795" lon="13.137301900925882"><ele>229.0</ele><time>2026-05-03T08:44:23Z</time></trkpt><trkpt lat="46.334046734916136" lon="13.137283849167002"><ele>230.0</ele><time>2026-05-03T08:44:24Z</time></trkpt><trkpt lat="46.33416038946657" lon="13.137305506799617"><ele>231.0</ele><time>2026-05-03T08:44:25Z</time></trkpt><trkpt lat="46.33427110366311" lon="13.137361677708144"><ele>232.0</ele><time>2026-05-03T08:44:26Z</time></trkpt><trkpt lat="46.33439067703203" lon="13.137429296552302"><ele>233.0</ele><time>2026-05-03T08:44:27Z</time></trkpt><trkpt lat="46.33455065875821" lon="13.137512361433268"><ele>233.0</ele><time>2026-05-03T08:44:28Z</time></trkpt><trkpt lat="46.33473607898154" lon="13.13762735235226"><ele>233.0</ele><time>2026-05-03T08:44:29Z</time></trkpt><trkpt lat="46.33492816776154" lon="13.137738845850567"><ele>233.0</ele><time>2026-05-03T08:44:30Z</time></trkpt><trkpt lat="46.33509565595325" lon="13.137837612077542"><ele>233.0</ele><time>2026-05-03T08:44:31Z</time></trkpt><trkpt lat="46.335273852765596" lon="13.137938066548474"><ele>233.0</ele><time>2026-05-03T08:44:32Z</time></trkpt><trkpt lat="46.33549488175997" lon="13.138059463728414"><ele>233.0</ele><time>2026-05-03T08:44:33Z</time></trkpt><trkpt lat="46.335723158591385" lon="13.138199110258718"><ele>232.33333333333334</ele><time>2026-05-03T08:44:34Z</time></trkpt><trkpt lat="46.33591990522335" lon="13.138325810775257"><ele>231.66666666666669</ele><time>2026-05-03T08:44:35Z</time></trkpt><trkpt lat="46.33609624226477" lon="13.13843165464191"><ele>231.0</ele><time>2026-05-03T08:44:36Z</time></trkpt><trkpt lat="46.33626418755535" lon="13.138530384467577"><ele>231.33333333333331</ele><time>2026-05-03T08:44:37Z</time></trkpt><trkpt lat="46.33642646884708" lon="13.138626258363669"><ele>231.66666666666666</ele><time>2026-05-03T08:44:38Z</time></trkpt><trkpt lat="46.33659125794057" lon="13.138724711975787"><ele>232.0</ele><time>2026-05-03T08:44:39Z</time></trkpt><trkpt lat="46.33677115532203" lon="13.138838896263202"><ele>232.0</ele><time>2026-05-03T08:44:40Z</time></trkpt><trkpt lat="46.33693654337624" lon="13.13894361980581"><ele>232.0</ele><time>2026-05-03T08:44:41Z</time></trkpt><trkpt lat="46.33708812092248" lon="13.139034291483316"><ele>232.0</ele><time>2026-05-03T08:44:42Z</time></trkpt><trkpt lat="46.33723091116622" lon="13.139119099138194"><ele>231.66666666666666</ele><time>2026-05-03T08:44:43Z</time></trkpt><trkpt lat="46.33737047920469" lon="13.139204759253646"><ele>231.33333333333331</ele><time>2026-05-03T08:44:44Z</time></trkpt><trkpt lat="46.3375128356888" lon="13.139288951752249"><ele>231.0</ele><time>2026-05-03T08:44:45Z</time></trkpt><trkpt lat="46.33766736663078" lon="13.139371765222922"><ele>231.0</ele><time>2026-05-03T08:44:46Z</time></trkpt><trkpt lat="46.337844672200596" lon="13.139466589432802"><ele>231.0</ele><time>2026-05-03T08:44:47Z</time></trkpt><trkpt lat="46.3380375179091" lon="13.139581825733776"><ele>231.0</ele><time>2026-05-03T08:44:48Z</time></trkpt><trkpt lat="46.33823390843998" lon="13.1396801588313"><ele>231.66666666666669</ele><time>2026-05-03T08:44:49Z</time></trkpt><trkpt lat="46.33843794412352" lon="13.139746319477055"><ele>232.33333333333334</ele><time>2026-05-03T08:44:50Z</time></trkpt><trkpt lat="46.3386468867186" lon="13.139791323736539"><ele>233.0</ele><time>2026-05-03T08:44:51Z</time></trkpt><trkpt lat="46.33884396886291" lon="13.139826855518434"><ele>233.0</ele><time>2026-05-03T08:44:52Z</time></trkpt><trkpt lat="46.339030154945455" lon="13.13984600698307"><ele>233.0</ele><time>2026-05-03T08:44:53Z</time></trkpt><trkpt lat="46.33922897227939" lon="13.139855709509547"><ele>233.0</ele><time>2026-05-03T08:44:54Z</time></trkpt><trkpt lat="46.339441213160036" lon="13.139854033784703"><ele>233.0</ele><time>2026-05-03T08:44:55Z</time></trkpt><trkpt lat="46.33965896614708" lon="13.139843785589619"><ele>233.0</ele><time>2026-05-03T08:44:56Z</time></trkpt><trkpt lat="46.339891802495586" lon="13.139841590239758"><ele>232.5</ele><time>2026-05-03T08:44:57Z</time></trkpt><trkpt lat="46.34013527625021" lon="13.139833662149552"><ele>232.0</ele><time>2026-05-03T08:44:58Z</time></trkpt><trkpt lat="46.34039760285817" lon="13.139822585165104"><ele>232.5</ele><time>2026-05-03T08:44:59Z</time></trkpt><trkpt lat="46.340668873649165" lon="13.139820664286855"><ele>233.0</ele><time>2026-05-03T08:45:00Z</time></trkpt><trkpt lat="46.34093845825096" lon="13.139802945227263"><ele>233.0</ele><time>2026-05-03T08:45:01Z</time></trkpt><trkpt lat="46.34117641078506" lon="13.13979178066651"><ele>233.0</ele><time>2026-05-03T08:45:02Z</time></trkpt><trkpt lat="46.341396156597476" lon="13.139784110312332"><ele>233.0</ele><time>2026-05-03T08:45:03Z</time></trkpt><trkpt lat="46.341602237178606" lon="13.139782362059508"><ele>233.0</ele><time>2026-05-03T08:45:04Z</time></trkpt><trkpt lat="46.341818101428395" lon="13.139771060113699"><ele>233.0</ele><time>2026-05-03T08:45:05Z</time></trkpt><trkpt lat="46.342055502553045" lon="13.139753173853679"><ele>233.0</ele><time>2026-05-03T08:45:06Z</time></trkpt><trkpt lat="46.342304928889945" lon="13.13974091775984"><ele>233.0</ele><time>2026-05-03T08:45:07Z</time></trkpt><trkpt lat="46.34255602827106" lon="13.139728059299765"><ele>233.0</ele><time>2026-05-03T08:45:08Z</time></trkpt><trkpt lat="46.34278262599739" lon="13.139718954812476"><ele>233.0</ele><time>2026-05-03T08:45:09Z</time></trkpt><trkpt lat="46.34299199311334" lon="13.139711883483272"><ele>233.0</ele><time>2026-05-03T08:45:10Z</time></trkpt><trkpt lat="46.34319850843117" lon="13.139707077581956"><ele>234.0</ele><time>2026-05-03T08:45:11Z</time></trkpt><trkpt lat="46.34341876116745" lon="13.139699765118326"><ele>235.0</ele><time>2026-05-03T08:45:12Z</time></trkpt><trkpt lat="46.34363982602266" lon="13.139706321517805"><ele>236.0</ele><time>2026-05-03T08:45:13Z</time></trkpt><trkpt lat="46.34384105775194" lon="13.139744791157016"><ele>235.66666666666669</ele><time>2026-05-03T08:45:14Z</time></trkpt><trkpt lat="46.34404733015346" lon="13.139813160063234"><ele>235.33333333333331</ele><time>2026-05-03T08:45:15Z</time></trkpt><trkpt lat="46.34426635827701" lon="13.139914031804985"><ele>235.0</ele><time>2026-05-03T08:45:16Z</time></trkpt><trkpt lat="46.344489828060176" lon="13.140031384095616"><ele>235.0</ele><time>2026-05-03T08:45:17Z</time></trkpt><trkpt lat="46.34472105165016" lon="13.140171236123276"><ele>235.0</ele><time>2026-05-03T08:45:18Z</time></trkpt><trkpt lat="46.34496852054302" lon="13.140317764734208"><ele>235.0</ele><time>2026-05-03T08:45:19Z</time></trkpt><trkpt lat="46.34523877211124" lon="13.140466299490884"><ele>235.0</ele><time>2026-05-03T08:45:20Z</time></trkpt><trkpt lat="46.34552980205919" lon="13.140625449305254"><ele>236.0</ele><time>2026-05-03T08:45:21Z</time></trkpt><trkpt lat="46.34582555101458" lon="13.140798716750131"><ele>237.0</ele><time>2026-05-03T08:45:22Z</time></trkpt><trkpt lat="46.3460867367365" lon="13.140947441404268"><ele>237.0</ele><time>2026-05-03T08:45:23Z</time></trkpt><trkpt lat="46.3463242089845" lon="13.141086903834927"><ele>237.0</ele><time>2026-05-03T08:45:24Z</time></trkpt><trkpt lat="46.34656528546452" lon="13.141230075987266"><ele>236.0</ele><time>2026-05-03T08:45:25Z</time></trkpt><trkpt lat="46.34679584669812" lon="13.14135958393048"><ele>235.0</ele><time>2026-05-03T08:45:26Z</time></trkpt><trkpt lat="46.347000214988604" lon="13.141476104260995"><ele>235.5</ele><time>2026-05-03T08:45:27Z</time></trkpt><trkpt lat="46.347211175695286" lon="13.141598469325274"><ele>236.0</ele><time>2026-05-03T08:45:28Z</time></trkpt><trkpt lat="46.34742621817754" lon="13.141716938978707"><ele>236.0</ele><time>2026-05-03T08:45:29Z</time></trkpt><trkpt lat="46.347642079922444" lon="13.141838563423374"><ele>236.0</ele><time>2026-05-03T08:45:30Z</time></trkpt><trkpt lat="46.34785053100817" lon="13.14195776846854"><ele>236.33333333333334</ele><time>2026-05-03T08:45:31Z</time></trkpt><trkpt lat="46.34804730096386" lon="13.142072290402531"><ele>236.66666666666669</ele><time>2026-05-03T08:45:32Z</time></trkpt><trkpt lat="46.34823276629667" lon="13.142178714916723"><ele>237.0</ele><time>2026-05-03T08:45:33Z</time></trkpt><trkpt lat="46.34839946880656" lon="13.142269827776715"><ele>237.0</ele><time>2026-05-03T08:45:34Z</time></trkpt><trkpt lat="46.34855431578153" lon="13.142345795359914"><ele>237.0</ele><time>2026-05-03T08:45:35Z</time></trkpt><trkpt lat="46.34870874619231" lon="13.142402982135026"><ele>237.0</ele><time>2026-05-03T08:45:36Z</time></trkpt><trkpt lat="46.34887191748341" lon="13.142428947942227"><ele>239.66666666666669</ele><time>2026-05-03T08:45:37Z</time></trkpt><trkpt lat="46.34905023606096" lon="13.14243319922811"><ele>242.33333333333334</ele><time>2026-05-03T08:45:38Z</time></trkpt><trkpt lat="46.3492315979748" lon="13.142415877466185"><ele>245.0</ele><time>2026-05-03T08:45:39Z</time></trkpt><trkpt lat="46.34941538731898" lon="13.142375148169595"><ele>245.0</ele><time>2026-05-03T08:45:40Z</time></trkpt><trkpt lat="46.34960672595491" lon="13.14231374443551"><ele>245.0</ele><time>2026-05-03T08:45:41Z</time></trkpt><trkpt lat="46.34981659595518" lon="13.14221382711193"><ele>245.0</ele><time>2026-05-03T08:45:42Z</time></trkpt><trkpt lat="46.35003206291063" lon="13.14210575582548"><ele>245.5</ele><time>2026-05-03T08:45:43Z</time></trkpt><trkpt lat="46.35026130164311" lon="13.141999368120022"><ele>246.0</ele><time>2026-05-03T08:45:44Z</time></trkpt><trkpt lat="46.3504974803407" lon="13.141890146531171"><ele>248.5</ele><time>2026-05-03T08:45:45Z</time></trkpt><trkpt lat="46.35074987613037" lon="13.141766171092103"><ele>251.0</ele><time>2026-05-03T08:45:46Z</time></trkpt><trkpt lat="46.35100842063836" lon="13.141630648876284"><ele>250.0</ele><time>2026-05-03T08:45:47Z</time></trkpt><trkpt lat="46.351266290992676" lon="13.141469580872062"><ele>249.0</ele><time>2026-05-03T08:45:48Z</time></trkpt><trkpt lat="46.35150087914798" lon="13.141315589457713"><ele>249.0</ele><time>2026-05-03T08:45:49Z</time></trkpt><trkpt lat="46.35171348468247" lon="13.141178006369165"><ele>249.0</ele><time>2026-05-03T08:45:50Z</time></trkpt><trkpt lat="46.35191281983737" lon="13.141047918805445"><ele>249.0</ele><time>2026-05-03T08:45:51Z</time></trkpt><trkpt lat="46.352099400487276" lon="13.14092122884123"><ele>249.0</ele><time>2026-05-03T08:45:52Z</time></trkpt><trkpt lat="46.352291125159894" lon="13.140796590087843"><ele>249.0</ele><time>2026-05-03T08:45:53Z</time></trkpt><trkpt lat="46.35249452667229" lon="13.140665312066925"><ele>248.0</ele><time>2026-05-03T08:45:54Z</time></trkpt><trkpt lat="46.35270905909971" lon="13.140525514671195"><ele>247.0</ele><time>2026-05-03T08:45:55Z</time></trkpt><trkpt lat="46.35292231960672" lon="13.140385511585983"><ele>248.0</ele><time>2026-05-03T08:45:56Z</time></trkpt><trkpt lat="46.353120140089565" lon="13.140256550150633"><ele>249.0</ele><time>2026-05-03T08:45:57Z</time></trkpt><trkpt lat="46.353329482912564" lon="13.140127574553944"><ele>250.0</ele><time>2026-05-03T08:45:58Z</time></trkpt><trkpt lat="46.35355172938653" lon="13.13998514218648"><ele>247.0</ele><time>2026-05-03T08:45:59Z</time></trkpt><trkpt lat="46.35377504389759" lon="13.13983494655162"><ele>244.0</ele><time>2026-05-03T08:46:00Z</time></trkpt><trkpt lat="46.3539876553839" lon="13.139694878606736"><ele>244.0</ele><time>2026-05-03T08:46:01Z</time></trkpt><trkpt lat="46.35418202155891" lon="13.139569928959768"><ele>244.0</ele><time>2026-05-03T08:46:02Z</time></trkpt><trkpt lat="46.35436355811681" lon="13.13945271781618"><ele>244.0</ele><time>2026-05-03T08:46:03Z</time></trkpt><trkpt lat="46.354540352965174" lon="13.13933682751931"><ele>244.33333333333331</ele><time>2026-05-03T08:46:04Z</time></trkpt><trkpt lat="46.35472540501977" lon="13.139217549951665"><ele>244.66666666666669</ele><time>2026-05-03T08:46:05Z</time></trkpt><trkpt lat="46.35491529776505" lon="13.139102442271225"><ele>245.0</ele><time>2026-05-03T08:46:06Z</time></trkpt><trkpt lat="46.35510596393512" lon="13.138992345436035"><ele>244.33333333333334</ele><time>2026-05-03T08:46:07Z</time></trkpt><trkpt lat="46.35529815416641" lon="13.138907370975874"><ele>243.66666666666669</ele><time>2026-05-03T08:46:08Z</time></trkpt><trkpt lat="46.35547437038406" lon="13.138827411896283"><ele>243.0</ele><time>2026-05-03T08:46:09Z</time></trkpt><trkpt lat="46.355639140086176" lon="13.138745309132542"><ele>242.66666666666669</ele><time>2026-05-03T08:46:10Z</time></trkpt><trkpt lat="46.35579642654977" lon="13.138663460234815"><ele>242.33333333333334</ele><time>2026-05-03T08:46:11Z</time></trkpt><trkpt lat="46.355951526325335" lon="13.138588017024881"><ele>242.0</ele><time>2026-05-03T08:46:12Z</time></trkpt><trkpt lat="46.35612746313094" lon="13.138507104860471"><ele>242.0</ele><time>2026-05-03T08:46:13Z</time></trkpt><trkpt lat="46.35631886491101" lon="13.138417823916914"><ele>242.0</ele><time>2026-05-03T08:46:14Z</time></trkpt><trkpt lat="46.35652824387785" lon="13.138323879201872"><ele>242.0</ele><time>2026-05-03T08:46:15Z</time></trkpt><trkpt lat="46.356759047548834" lon="13.13822020471037"><ele>240.5</ele><time>2026-05-03T08:46:16Z</time></trkpt><trkpt lat="46.35701085283769" lon="13.138102607626523"><ele>239.0</ele><time>2026-05-03T08:46:17Z</time></trkpt><trkpt lat="46.35728723029452" lon="13.137975735348883"><ele>239.0</ele><time>2026-05-03T08:46:18Z</time></trkpt><trkpt lat="46.357568404870655" lon="13.137847028424972"><ele>239.0</ele><time>2026-05-03T08:46:19Z</time></trkpt><trkpt lat="46.357830039106275" lon="13.137721713727453"><ele>239.0</ele><time>2026-05-03T08:46:20Z</time></trkpt><trkpt lat="46.358065187411086" lon="13.137603760499724"><ele>239.0</ele><time>2026-05-03T08:46:21Z</time></trkpt><trkpt lat="46.35828492826498" lon="13.13749617475859"><ele>239.0</ele><time>2026-05-03T08:46:22Z</time></trkpt><trkpt lat="46.35849047577409" lon="13.137397967233406"><ele>239.0</ele><time>2026-05-03T08:46:23Z</time></trkpt><trkpt lat="46.3586908830506" lon="13.137304419327478"><ele>239.0</ele><time>2026-05-03T08:46:24Z</time></trkpt><trkpt lat="46.3589079261761" lon="13.137203375680743"><ele>240.5</ele><time>2026-05-03T08:46:25Z</time></trkpt><trkpt lat="46.359132322518505" lon="13.137099795334484"><ele>242.0</ele><time>2026-05-03T08:46:26Z</time></trkpt><trkpt lat="46.359343116006016" lon="13.137006430546084"><ele>242.0</ele><time>2026-05-03T08:46:27Z</time></trkpt><trkpt lat="46.35954213606969" lon="13.136927361979401"><ele>242.0</ele><time>2026-05-03T08:46:28Z</time></trkpt><trkpt lat="46.35974689359687" lon="13.136849179024246"><ele>242.0</ele><time>2026-05-03T08:46:29Z</time></trkpt><trkpt lat="46.35997012398309" lon="13.136765694750421"><ele>242.5</ele><time>2026-05-03T08:46:30Z</time></trkpt><trkpt lat="46.360207326138266" lon="13.136679234915862"><ele>243.0</ele><time>2026-05-03T08:46:31Z</time></trkpt><trkpt lat="46.36045166764007" lon="13.13659062656494"><ele>242.5</ele><time>2026-05-03T08:46:32Z</time></trkpt><trkpt lat="46.3606890348882" lon="13.13650655703348"><ele>242.0</ele><time>2026-05-03T08:46:33Z</time></trkpt><trkpt lat="46.3609216421102" lon="13.13642574066098"><ele>242.0</ele><time>2026-05-03T08:46:34Z</time></trkpt><trkpt lat="46.361160128742775" lon="13.136340428165946"><ele>242.0</ele><time>2026-05-03T08:46:35Z</time></trkpt><trkpt lat="46.361401717215216" lon="13.136253904697053"><ele>242.5</ele><time>2026-05-03T08:46:36Z</time></trkpt><trkpt lat="46.36164762182132" lon="13.136160742068654"><ele>243.0</ele><time>2026-05-03T08:46:37Z</time></trkpt><trkpt lat="46.361891857702446" lon="13.136074170876155"><ele>243.0</ele><time>2026-05-03T08:46:38Z</time></trkpt><trkpt lat="46.362146748103484" lon="13.135982666101189"><ele>243.0</ele><time>2026-05-03T08:46:39Z</time></trkpt><trkpt lat="46.362396394528375" lon="13.135895329719425"><ele>244.5</ele><time>2026-05-03T08:46:40Z</time></trkpt><trkpt lat="46.36263765328317" lon="13.135812817190159"><ele>246.0</ele><time>2026-05-03T08:46:41Z</time></trkpt><trkpt lat="46.36288736424425" lon="13.13573146777159"><ele>245.0</ele><time>2026-05-03T08:46:42Z</time></trkpt><trkpt lat="46.36314739477383" lon="13.135636216579199"><ele>244.0</ele><time>2026-05-03T08:46:43Z</time></trkpt><trkpt lat="46.3634319387297" lon="13.135530335070152"><ele>244.0</ele><time>2026-05-03T08:46:44Z</time></trkpt><trkpt lat="46.3637254390731" lon="13.1354208149297"><ele>244.0</ele><time>2026-05-03T08:46:45Z</time></trkpt><trkpt lat="46.3639851305367" lon="13.135326297697958"><ele>246.5</ele><time>2026-05-03T08:46:46Z</time></trkpt><trkpt lat="46.36422276774311" lon="13.135237657148947"><ele>249.0</ele><time>2026-05-03T08:46:47Z</time></trkpt><trkpt lat="46.364444386718176" lon="13.135155327006332"><ele>249.0</ele><time>2026-05-03T08:46:48Z</time></trkpt><trkpt lat="46.36465335163565" lon="13.135083091257693"><ele>249.0</ele><time>2026-05-03T08:46:49Z</time></trkpt><trkpt lat="46.364851679544834" lon="13.135017993888246"><ele>249.0</ele><time>2026-05-03T08:46:50Z</time></trkpt><trkpt lat="46.36504904887231" lon="13.134948982593025"><ele>249.0</ele><time>2026-05-03T08:46:51Z</time></trkpt><trkpt lat="46.36524284721344" lon="13.134882458137339"><ele>249.0</ele><time>2026-05-03T08:46:52Z</time></trkpt><trkpt lat="46.365434708291765" lon="13.134816923709183"><ele>249.0</ele><time>2026-05-03T08:46:53Z</time></trkpt><trkpt lat="46.36562118330764" lon="13.134758560671468"><ele>249.0</ele><time>2026-05-03T08:46:54Z</time></trkpt><trkpt lat="46.365808951611506" lon="13.134712642277664"><ele>249.0</ele><time>2026-05-03T08:46:55Z</time></trkpt><trkpt lat="46.36598616909257" lon="13.134696987632163"><ele>249.0</ele><time>2026-05-03T08:46:56Z</time></trkpt><trkpt lat="46.36617020154288" lon="13.134700621899688"><ele>249.0</ele><time>2026-05-03T08:46:57Z</time></trkpt><trkpt lat="46.36636051753817" lon="13.134724726323638"><ele>249.0</ele><time>2026-05-03T08:46:58Z</time></trkpt><trkpt lat="46.36654882691242" lon="13.134768392933122"><ele>249.0</ele><time>2026-05-03T08:46:59Z</time></trkpt><trkpt lat="46.36674779202657" lon="13.134832319028604"><ele>251.33333333333331</ele><time>2026-05-03T08:47:00Z</time></trkpt><trkpt lat="46.36695113998252" lon="13.134907238038775"><ele>253.66666666666666</ele><time>2026-05-03T08:47:01Z</time></trkpt><trkpt lat="46.367152082847305" lon="13.134976138181392"><ele>256.0</ele><time>2026-05-03T08:47:02Z</time></trkpt><trkpt lat="46.36733192467225" lon="13.135040883445205"><ele>256.66666666666663</ele><time>2026-05-03T08:47:03Z</time></trkpt><trkpt lat="46.36749705704399" lon="13.135096829071308"><ele>257.3333333333333</ele><time>2026-05-03T08:47:04Z</time></trkpt><trkpt lat="46.36766559387329" lon="13.135155902843987"><ele>258.0</ele><time>2026-05-03T08:47:05Z</time></trkpt><trkpt lat="46.36783170204329" lon="13.135218062946269"><ele>258.0</ele><time>2026-05-03T08:47:06Z</time></trkpt><trkpt lat="46.36799242919821" lon="13.13527470093865"><ele>258.0</ele><time>2026-05-03T08:47:07Z</time></trkpt><trkpt lat="46.368162491577564" lon="13.135332508780861"><ele>258.0</ele><time>2026-05-03T08:47:08Z</time></trkpt><trkpt lat="46.368337364356705" lon="13.13539231088362"><ele>256.3333333333333</ele><time>2026-05-03T08:47:09Z</time></trkpt><trkpt lat="46.36851552751296" lon="13.135448723073635"><ele>254.66666666666666</ele><time>2026-05-03T08:47:10Z</time></trkpt><trkpt lat="46.368685691749434" lon="13.135492014896101"><ele>253.0</ele><time>2026-05-03T08:47:11Z</time></trkpt><trkpt lat="46.36883746866914" lon="13.135529644066661"><ele>253.33333333333331</ele><time>2026-05-03T08:47:12Z</time></trkpt><trkpt lat="46.3690122562566" lon="13.135550578183206"><ele>253.66666666666669</ele><time>2026-05-03T08:47:13Z</time></trkpt><trkpt lat="46.369186489035975" lon="13.135562823334576"><ele>254.0</ele><time>2026-05-03T08:47:14Z</time></trkpt><trkpt lat="46.36936611505401" lon="13.135577771109364"><ele>254.0</ele><time>2026-05-03T08:47:15Z</time></trkpt><trkpt lat="46.36956789949413" lon="13.135585658499494"><ele>254.0</ele><time>2026-05-03T08:47:16Z</time></trkpt><trkpt lat="46.36975846946827" lon="13.135590476955512"><ele>254.0</ele><time>2026-05-03T08:47:17Z</time></trkpt><trkpt lat="46.36993857636986" lon="13.135595030857578"><ele>256.5</ele><time>2026-05-03T08:47:18Z</time></trkpt><trkpt lat="46.37017706052192" lon="13.135601060786446"><ele>259.0</ele><time>2026-05-03T08:47:19Z</time></trkpt><trkpt lat="46.37046581297936" lon="13.135571849217522"><ele>259.3333333333333</ele><time>2026-05-03T08:47:20Z</time></trkpt><trkpt lat="46.37069701087665" lon="13.13559267062195"><ele>259.6666666666667</ele><time>2026-05-03T08:47:21Z</time></trkpt><trkpt lat="46.37089944848539" lon="13.135603287279675"><ele>260.0</ele><time>2026-05-03T08:47:22Z</time></trkpt><trkpt lat="46.371097759185425" lon="13.135615219811513"><ele>260.0</ele><time>2026-05-03T08:47:23Z</time></trkpt><trkpt lat="46.37129574706426" lon="13.135628158728684"><ele>260.0</ele><time>2026-05-03T08:47:24Z</time></trkpt><trkpt lat="46.37150349501586" lon="13.135648064278092"><ele>260.0</ele><time>2026-05-03T08:47:25Z</time></trkpt><trkpt lat="46.371713682664186" lon="13.135666552701553"><ele>260.0</ele><time>2026-05-03T08:47:26Z</time></trkpt><trkpt lat="46.37191781617307" lon="13.135695093226893"><ele>260.0</ele><time>2026-05-03T08:47:27Z</time></trkpt><trkpt lat="46.372113203920044" lon="13.13572702754959"><ele>260.0</ele><time>2026-05-03T08:47:28Z</time></trkpt><trkpt lat="46.372298093635074" lon="13.135749121219686"><ele>263.0</ele><time>2026-05-03T08:47:29Z</time></trkpt><trkpt lat="46.372477419026396" lon="13.135766585275656"><ele>266.0</ele><time>2026-05-03T08:47:30Z</time></trkpt><trkpt lat="46.37264348633904" lon="13.135787392547106"><ele>269.0</ele><time>2026-05-03T08:47:31Z</time></trkpt><trkpt lat="46.372810980531554" lon="13.13582537156765"><ele>269.0</ele><time>2026-05-03T08:47:32Z</time></trkpt><trkpt lat="46.37299273890681" lon="13.135870633130672"><ele>269.0</ele><time>2026-05-03T08:47:33Z</time></trkpt><trkpt lat="46.373186661537545" lon="13.135921731615475"><ele>269.0</ele><time>2026-05-03T08:47:34Z</time></trkpt><trkpt lat="46.373381753595964" lon="13.135973217729529"><ele>266.0</ele><time>2026-05-03T08:47:35Z</time></trkpt><trkpt lat="46.373586617035805" lon="13.136030518033486"><ele>263.0</ele><time>2026-05-03T08:47:36Z</time></trkpt><trkpt lat="46.37379496799497" lon="13.13609573826458"><ele>260.0</ele><time>2026-05-03T08:47:37Z</time></trkpt><trkpt lat="46.37399522538069" lon="13.13616745674806"><ele>259.33333333333337</ele><time>2026-05-03T08:47:38Z</time></trkpt><trkpt lat="46.37417860691771" lon="13.136237001649205"><ele>258.6666666666667</ele><time>2026-05-03T08:47:39Z</time></trkpt><trkpt lat="46.374361431632416" lon="13.13630327223482"><ele>258.0</ele><time>2026-05-03T08:47:40Z</time></trkpt><trkpt lat="46.3745493996537" lon="13.136379242272795"><ele>258.6666666666667</ele><time>2026-05-03T08:47:41Z</time></trkpt><trkpt lat="46.374743750500016" lon="13.136464245811462"><ele>259.33333333333337</ele><time>2026-05-03T08:47:42Z</time></trkpt><trkpt lat="46.37493316718391" lon="13.13655188070724"><ele>260.0</ele><time>2026-05-03T08:47:43Z</time></trkpt><trkpt lat="46.37510563907932" lon="13.136628459484884"><ele>260.6666666666667</ele><time>2026-05-03T08:47:44Z</time></trkpt><trkpt lat="46.37527044391312" lon="13.136700359738171"><ele>261.3333333333333</ele><time>2026-05-03T08:47:45Z</time></trkpt><trkpt lat="46.375441066101004" lon="13.136778743370538"><ele>262.0</ele><time>2026-05-03T08:47:46Z</time></trkpt><trkpt lat="46.37560426112706" lon="13.136854235871363"><ele>262.0</ele><time>2026-05-03T08:47:47Z</time></trkpt><trkpt lat="46.37576306870729" lon="13.136924955636294"><ele>262.0</ele><time>2026-05-03T08:47:48Z</time></trkpt><trkpt lat="46.3759266844455" lon="13.136986803356509"><ele>262.0</ele><time>2026-05-03T08:47:49Z</time></trkpt><trkpt lat="46.376094757417015" lon="13.137026858415998"><ele>262.0</ele><time>2026-05-03T08:47:50Z</time></trkpt><trkpt lat="46.3762613836051" lon="13.137040034267041"><ele>262.0</ele><time>2026-05-03T08:47:51Z</time></trkpt><trkpt lat="46.37642703759736" lon="13.137030996942661"><ele>262.0</ele><time>2026-05-03T08:47:52Z</time></trkpt><trkpt lat="46.37658721346411" lon="13.137008483753602"><ele>263.0</ele><time>2026-05-03T08:47:53Z</time></trkpt><trkpt lat="46.37673291094912" lon="13.136965458959224"><ele>264.0</ele><time>2026-05-03T08:47:54Z</time></trkpt><trkpt lat="46.37687881334029" lon="13.13689749128746"><ele>265.0</ele><time>2026-05-03T08:47:55Z</time></trkpt><trkpt lat="46.37702315386766" lon="13.136798540020246"><ele>265.0</ele><time>2026-05-03T08:47:56Z</time></trkpt><trkpt lat="46.37717031304581" lon="13.1366820108054"><ele>265.0</ele><time>2026-05-03T08:47:57Z</time></trkpt><trkpt lat="46.37730679104826" lon="13.136570772901676"><ele>265.0</ele><time>2026-05-03T08:47:58Z</time></trkpt><trkpt lat="46.37743543728086" lon="13.136449821676864"><ele>265.0</ele><time>2026-05-03T08:47:59Z</time></trkpt><trkpt lat="46.37756300141918" lon="13.136305719522545"><ele>265.0</ele><time>2026-05-03T08:48:00Z</time></trkpt><trkpt lat="46.37767101503197" lon="13.136160691823363"><ele>265.0</ele><time>2026-05-03T08:48:01Z</time></trkpt><trkpt lat="46.377763152950244" lon="13.136022134986725"><ele>265.0</ele><time>2026-05-03T08:48:02Z</time></trkpt><trkpt lat="46.37784507338391" lon="13.13588845203388"><ele>265.0</ele><time>2026-05-03T08:48:03Z</time></trkpt><trkpt lat="46.37792120945275" lon="13.135742801905922"><ele>265.0</ele><time>2026-05-03T08:48:04Z</time></trkpt><trkpt lat="46.37799597925433" lon="13.135576756785374"><ele>265.0</ele><time>2026-05-03T08:48:05Z</time></trkpt><trkpt lat="46.37807081079848" lon="13.13540440762666"><ele>265.0</ele><time>2026-05-03T08:48:06Z</time></trkpt><trkpt lat="46.37814995236876" lon="13.135214413908061"><ele>265.3333333333333</ele><time>2026-05-03T08:48:07Z</time></trkpt><trkpt lat="46.37822824959788" lon="13.135013515854899"><ele>265.6666666666667</ele><time>2026-05-03T08:48:08Z</time></trkpt><trkpt lat="46.37830509682527" lon="13.134819858763953"><ele>266.0</ele><time>2026-05-03T08:48:09Z</time></trkpt><trkpt lat="46.378392733910935" lon="13.134622460892011"><ele>264.6666666666667</ele><time>2026-05-03T08:48:10Z</time></trkpt><trkpt lat="46.37848785838839" lon="13.134432104982514"><ele>263.3333333333333</ele><time>2026-05-03T08:48:11Z</time></trkpt><trkpt lat="46.37858223594543" lon="13.134262468047087"><ele>262.0</ele><time>2026-05-03T08:48:12Z</time></trkpt><trkpt lat="46.37867457091441" lon="13.134110888248482"><ele>262.0</ele><time>2026-05-03T08:48:13Z</time></trkpt><trkpt lat="46.37877575188883" lon="13.133975648358943"><ele>262.0</ele><time>2026-05-03T08:48:14Z</time></trkpt><trkpt lat="46.378889720341625" lon="13.133839746974635"><ele>262.0</ele><time>2026-05-03T08:48:15Z</time></trkpt><trkpt lat="46.37901416666737" lon="13.13370980001939"><ele>262.0</ele><time>2026-05-03T08:48:16Z</time></trkpt><trkpt lat="46.37914974479912" lon="13.13358836822181"><ele>262.0</ele><time>2026-05-03T08:48:17Z</time></trkpt><trkpt lat="46.37928030935039" lon="13.133483026089005"><ele>262.0</ele><time>2026-05-03T08:48:18Z</time></trkpt><trkpt lat="46.37940488200117" lon="13.13338717082233"><ele>262.0</ele><time>2026-05-03T08:48:19Z</time></trkpt><trkpt lat="46.37952713816573" lon="13.133298072904863"><ele>262.0</ele><time>2026-05-03T08:48:20Z</time></trkpt><trkpt lat="46.37964884831558" lon="13.133215139795688"><ele>262.5</ele><time>2026-05-03T08:48:21Z</time></trkpt><trkpt lat="46.37977103578699" lon="13.133131277567335"><ele>263.0</ele><time>2026-05-03T08:48:22Z</time></trkpt><trkpt lat="46.37988957822927" lon="13.13305037149482"><ele>263.5</ele><time>2026-05-03T08:48:23Z</time></trkpt><trkpt lat="46.380006024564686" lon="13.132981499228181"><ele>264.0</ele><time>2026-05-03T08:48:24Z</time></trkpt><trkpt lat="46.380127792467384" lon="13.132927106264589"><ele>264.0</ele><time>2026-05-03T08:48:25Z</time></trkpt><trkpt lat="46.38025273466339" lon="13.132900005080733"><ele>264.0</ele><time>2026-05-03T08:48:26Z</time></trkpt><trkpt lat="46.380377790930275" lon="13.132885757078313"><ele>264.0</ele><time>2026-05-03T08:48:27Z</time></trkpt><trkpt lat="46.38051297391113" lon="13.132882432546051"><ele>264.0</ele><time>2026-05-03T08:48:28Z</time></trkpt><trkpt lat="46.38064896543314" lon="13.132902598821088"><ele>264.25</ele><time>2026-05-03T08:48:29Z</time></trkpt><trkpt lat="46.38078306498036" lon="13.132941914724364"><ele>264.5</ele><time>2026-05-03T08:48:30Z</time></trkpt><trkpt lat="46.380916192516295" lon="13.132991240477477"><ele>264.75</ele><time>2026-05-03T08:48:31Z</time></trkpt><trkpt lat="46.38103907799056" lon="13.133056176832909"><ele>265.0</ele><time>2026-05-03T08:48:32Z</time></trkpt><trkpt lat="46.38116015591315" lon="13.133140296574336"><ele>264.75</ele><time>2026-05-03T08:48:33Z</time></trkpt><trkpt lat="46.381289528066446" lon="13.13324534918753"><ele>264.5</ele><time>2026-05-03T08:48:34Z</time></trkpt><trkpt lat="46.38141487517513" lon="13.13337385002003"><ele>264.25</ele><time>2026-05-03T08:48:35Z</time></trkpt><trkpt lat="46.3815276453008" lon="13.133510308096936"><ele>264.0</ele><time>2026-05-03T08:48:36Z</time></trkpt><trkpt lat="46.38163013139889" lon="13.133643184670607"><ele>264.0</ele><time>2026-05-03T08:48:37Z</time></trkpt><trkpt lat="46.38174124072891" lon="13.133785499564903"><ele>264.0</ele><time>2026-05-03T08:48:38Z</time></trkpt><trkpt lat="46.38185929180138" lon="13.133941980550189"><ele>264.0</ele><time>2026-05-03T08:48:39Z</time></trkpt><trkpt lat="46.38198077010794" lon="13.134103159994314"><ele>264.0</ele><time>2026-05-03T08:48:40Z</time></trkpt><trkpt lat="46.38210483570448" lon="13.134268826579184"><ele>264.0</ele><time>2026-05-03T08:48:41Z</time></trkpt><trkpt lat="46.38223431334973" lon="13.134441162076753"><ele>264.0</ele><time>2026-05-03T08:48:42Z</time></trkpt><trkpt lat="46.38236975897904" lon="13.13461604138411"><ele>264.0</ele><time>2026-05-03T08:48:43Z</time></trkpt><trkpt lat="46.382510943039534" lon="13.134799019656326"><ele>264.0</ele><time>2026-05-03T08:48:44Z</time></trkpt><trkpt lat="46.38264499199406" lon="13.134975746991236"><ele>264.0</ele><time>2026-05-03T08:48:45Z</time></trkpt><trkpt lat="46.38276976043239" lon="13.135139208268912"><ele>264.0</ele><time>2026-05-03T08:48:46Z</time></trkpt><trkpt lat="46.382896720601444" lon="13.135300650897426"><ele>264.0</ele><time>2026-05-03T08:48:47Z</time></trkpt><trkpt lat="46.383030887963805" lon="13.135466653368736"><ele>264.0</ele><time>2026-05-03T08:48:48Z</time></trkpt><trkpt lat="46.383164837237445" lon="13.135637474839557"><ele>265.3333333333333</ele><time>2026-05-03T08:48:49Z</time></trkpt><trkpt lat="46.383293374057736" lon="13.135798926666409"><ele>266.66666666666663</ele><time>2026-05-03T08:48:50Z</time></trkpt><trkpt lat="46.38341726356318" lon="13.135947784842086"><ele>268.0</ele><time>2026-05-03T08:48:51Z</time></trkpt><trkpt lat="46.38354571946649" lon="13.1360960692419"><ele>268.0</ele><time>2026-05-03T08:48:52Z</time></trkpt><trkpt lat="46.38368038017412" lon="13.136253872182518"><ele>268.0</ele><time>2026-05-03T08:48:53Z</time></trkpt><trkpt lat="46.38382094555776" lon="13.136416127663496"><ele>268.0</ele><time>2026-05-03T08:48:54Z</time></trkpt><trkpt lat="46.38397350972842" lon="13.136589740415076"><ele>267.66666666666663</ele><time>2026-05-03T08:48:55Z</time></trkpt><trkpt lat="46.384138743728485" lon="13.1367781087952"><ele>267.3333333333333</ele><time>2026-05-03T08:48:56Z</time></trkpt><trkpt lat="46.38430510007243" lon="13.136963141399015"><ele>267.0</ele><time>2026-05-03T08:48:57Z</time></trkpt><trkpt lat="46.38447621859593" lon="13.137149828515735"><ele>267.0</ele><time>2026-05-03T08:48:58Z</time></trkpt><trkpt lat="46.38464858780063" lon="13.137341657718164"><ele>267.0</ele><time>2026-05-03T08:48:59Z</time></trkpt><trkpt lat="46.384824487887315" lon="13.13753341725477"><ele>267.0</ele><time>2026-05-03T08:49:00Z</time></trkpt><trkpt lat="46.3850056444066" lon="13.13772934388575"><ele>267.0</ele><time>2026-05-03T08:49:01Z</time></trkpt><trkpt lat="46.38517235621214" lon="13.137911281460012"><ele>267.0</ele><time>2026-05-03T08:49:02Z</time></trkpt><trkpt lat="46.385329939524915" lon="13.13808498675647"><ele>267.0</ele><time>2026-05-03T08:49:03Z</time></trkpt><trkpt lat="46.38547573016145" lon="13.13824660065603"><ele>267.0</ele><time>2026-05-03T08:49:04Z</time></trkpt><trkpt lat="46.38562172463211" lon="13.13840876597192"><ele>267.0</ele><time>2026-05-03T08:49:05Z</time></trkpt><trkpt lat="46.38577860251" lon="13.138580447066023"><ele>267.0</ele><time>2026-05-03T08:49:06Z</time></trkpt><trkpt lat="46.38593781461361" lon="13.138754510187743"><ele>267.0</ele><time>2026-05-03T08:49:07Z</time></trkpt><trkpt lat="46.38608926665248" lon="13.138922629610619"><ele>267.0</ele><time>2026-05-03T08:49:08Z</time></trkpt><trkpt lat="46.38623131331886" lon="13.139082216964475"><ele>267.0</ele><time>2026-05-03T08:49:09Z</time></trkpt><trkpt lat="46.386374248712116" lon="13.139243161061184"><ele>267.6666666666667</ele><time>2026-05-03T08:49:10Z</time></trkpt><trkpt lat="46.386524700253894" lon="13.139415043315351"><ele>268.33333333333337</ele><time>2026-05-03T08:49:11Z</time></trkpt><trkpt lat="46.38667533910885" lon="13.139594462464597"><ele>269.0</ele><time>2026-05-03T08:49:12Z</time></trkpt><trkpt lat="46.38681947334403" lon="13.139786402183626"><ele>269.33333333333337</ele><time>2026-05-03T08:49:13Z</time></trkpt><trkpt lat="46.38693541107175" lon="13.139988581622196"><ele>269.6666666666667</ele><time>2026-05-03T08:49:14Z</time></trkpt><trkpt lat="46.38703813530052" lon="13.14019760588946"><ele>270.0</ele><time>2026-05-03T08:49:15Z</time></trkpt><trkpt lat="46.38713150530092" lon="13.140413159343366"><ele>269.0</ele><time>2026-05-03T08:49:16Z</time></trkpt><trkpt lat="46.38720940298922" lon="13.14064219072181"><ele>268.0</ele><time>2026-05-03T08:49:17Z</time></trkpt><trkpt lat="46.387278797572975" lon="13.140890578872474"><ele>267.0</ele><time>2026-05-03T08:49:18Z</time></trkpt><trkpt lat="46.38733958899635" lon="13.141153881940077"><ele>266.6666666666667</ele><time>2026-05-03T08:49:19Z</time></trkpt><trkpt lat="46.38738553346745" lon="13.141417486728772"><ele>266.33333333333337</ele><time>2026-05-03T08:49:20Z</time></trkpt><trkpt lat="46.38741361601055" lon="13.141676431755128"><ele>266.0</ele><time>2026-05-03T08:49:21Z</time></trkpt><trkpt lat="46.387427870200035" lon="13.14193611710909"><ele>267.0</ele><time>2026-05-03T08:49:22Z</time></trkpt><trkpt lat="46.38743596706718" lon="13.142222857631502"><ele>268.0</ele><time>2026-05-03T08:49:23Z</time></trkpt><trkpt lat="46.38744605210587" lon="13.142517799501208"><ele>269.0</ele><time>2026-05-03T08:49:24Z</time></trkpt><trkpt lat="46.38745696407407" lon="13.142799615014507"><ele>269.0</ele><time>2026-05-03T08:49:25Z</time></trkpt><trkpt lat="46.387469113455204" lon="13.14309659467332"><ele>269.0</ele><time>2026-05-03T08:49:26Z</time></trkpt><trkpt lat="46.3874792850483" lon="13.14339685838726"><ele>269.0</ele><time>2026-05-03T08:49:27Z</time></trkpt><trkpt lat="46.38748901633" lon="13.143667343001404"><ele>270.33333333333337</ele><time>2026-05-03T08:49:28Z</time></trkpt><trkpt lat="46.38749742559022" lon="13.1439321199019"><ele>271.6666666666667</ele><time>2026-05-03T08:49:29Z</time></trkpt><trkpt lat="46.38750489851717" lon="13.144210069688654"><ele>273.0</ele><time>2026-05-03T08:49:30Z</time></trkpt><trkpt lat="46.38751193199437" lon="13.144500440354413"><ele>277.0</ele><time>2026-05-03T08:49:31Z</time></trkpt><trkpt lat="46.38751356971502" lon="13.144799681032866"><ele>281.0</ele><time>2026-05-03T08:49:32Z</time></trkpt><trkpt lat="46.38750495004296" lon="13.1450892502589"><ele>285.0</ele><time>2026-05-03T08:49:33Z</time></trkpt><trkpt lat="46.387482010179724" lon="13.145372337172978"><ele>285.0</ele><time>2026-05-03T08:49:34Z</time></trkpt><trkpt lat="46.38745557015242" lon="13.1456628827976"><ele>285.0</ele><time>2026-05-03T08:49:35Z</time></trkpt><trkpt lat="46.387435706633475" lon="13.145927655394924"><ele>285.0</ele><time>2026-05-03T08:49:36Z</time></trkpt><trkpt lat="46.3874162486891" lon="13.146198976663198"><ele>282.3333333333333</ele><time>2026-05-03T08:49:37Z</time></trkpt><trkpt lat="46.38739522628101" lon="13.146460961652725"><ele>279.66666666666663</ele><time>2026-05-03T08:49:38Z</time></trkpt><trkpt lat="46.38737462836804" lon="13.14671991844108"><ele>277.0</ele><time>2026-05-03T08:49:39Z</time></trkpt><trkpt lat="46.38735548224164" lon="13.146986812157339"><ele>276.0</ele><time>2026-05-03T08:49:40Z</time></trkpt><trkpt lat="46.387332756037225" lon="13.147245468081403"><ele>275.0</ele><time>2026-05-03T08:49:41Z</time></trkpt><trkpt lat="46.38731404119948" lon="13.147493174478683"><ele>274.0</ele><time>2026-05-03T08:49:42Z</time></trkpt><trkpt lat="46.38729703052562" lon="13.14773054760216"><ele>273.0</ele><time>2026-05-03T08:49:43Z</time></trkpt><trkpt lat="46.38727618587203" lon="13.147952750646958"><ele>272.0</ele><time>2026-05-03T08:49:44Z</time></trkpt><trkpt lat="46.3872505999952" lon="13.148177442226508"><ele>271.0</ele><time>2026-05-03T08:49:45Z</time></trkpt><trkpt lat="46.387220777126444" lon="13.148395478771583"><ele>270.66666666666663</ele><time>2026-05-03T08:49:46Z</time></trkpt><trkpt lat="46.387187934382915" lon="13.14860913262735"><ele>270.3333333333333</ele><time>2026-05-03T08:49:47Z</time></trkpt><trkpt lat="46.38715469393623" lon="13.14882340606634"><ele>270.0</ele><time>2026-05-03T08:49:48Z</time></trkpt><trkpt lat="46.38712408442271" lon="13.149040520460206"><ele>283.3333333333333</ele><time>2026-05-03T08:49:49Z</time></trkpt><trkpt lat="46.38709604458906" lon="13.14927977606023"><ele>296.66666666666663</ele><time>2026-05-03T08:49:50Z</time></trkpt><trkpt lat="46.387068400020055" lon="13.149529878600976"><ele>310.0</ele><time>2026-05-03T08:49:51Z</time></trkpt><trkpt lat="46.387041007223345" lon="13.149774010657637"><ele>308.0</ele><time>2026-05-03T08:49:52Z</time></trkpt><trkpt lat="46.387017161799726" lon="13.150006108368087"><ele>306.0</ele><time>2026-05-03T08:49:53Z</time></trkpt><trkpt lat="46.38700006748204" lon="13.15024293190731"><ele>304.0</ele><time>2026-05-03T08:49:54Z</time></trkpt><trkpt lat="46.38699248336667" lon="13.150476207404012"><ele>304.0</ele><time>2026-05-03T08:49:55Z</time></trkpt><trkpt lat="46.387003399964804" lon="13.150689741712009"><ele>304.0</ele><time>2026-05-03T08:49:56Z</time></trkpt><trkpt lat="46.38702172330707" lon="13.15089808207811"><ele>304.0</ele><time>2026-05-03T08:49:57Z</time></trkpt><trkpt lat="46.38704787405339" lon="13.151118096482087"><ele>304.0</ele><time>2026-05-03T08:49:58Z</time></trkpt><trkpt lat="46.38708173011876" lon="13.151342436130903"><ele>304.0</ele><time>2026-05-03T08:49:59Z</time></trkpt><trkpt lat="46.38709927611615" lon="13.15156548370746"><ele>304.0</ele><time>2026-05-03T08:50:00Z</time></trkpt><trkpt lat="46.387108934835815" lon="13.151776323733323"><ele>304.0</ele><time>2026-05-03T08:50:01Z</time></trkpt><trkpt lat="46.38711803779184" lon="13.151986332350953"><ele>304.0</ele><time>2026-05-03T08:50:02Z</time></trkpt><trkpt lat="46.38712742134135" lon="13.152202473261278"><ele>313.66666666666663</ele><time>2026-05-03T08:50:03Z</time></trkpt><trkpt lat="46.38713812064351" lon="13.152419947073508"><ele>323.3333333333333</ele><time>2026-05-03T08:50:04Z</time></trkpt><trkpt lat="46.38714944019886" lon="13.152639500217656"><ele>333.0</ele><time>2026-05-03T08:50:05Z</time></trkpt><trkpt lat="46.38715293631136" lon="13.152873936418883"><ele>333.0</ele><time>2026-05-03T08:50:06Z</time></trkpt><trkpt lat="46.387143002888635" lon="13.153118719302682"><ele>333.0</ele><time>2026-05-03T08:50:07Z</time></trkpt><trkpt lat="46.387120531192565" lon="13.153372133616344"><ele>333.0</ele><time>2026-05-03T08:50:08Z</time></trkpt><trkpt lat="46.387102293745095" lon="13.15360110611912"><ele>330.0</ele><time>2026-05-03T08:50:09Z</time></trkpt><trkpt lat="46.387085649971446" lon="13.153818662393023"><ele>327.0</ele><time>2026-05-03T08:50:10Z</time></trkpt><trkpt lat="46.387065145310125" lon="13.154048137252941"><ele>324.0</ele><time>2026-05-03T08:50:11Z</time></trkpt><trkpt lat="46.38703960195726" lon="13.15429782400763"><ele>324.0</ele><time>2026-05-03T08:50:12Z</time></trkpt><trkpt lat="46.38701563681282" lon="13.154550196098764"><ele>324.0</ele><time>2026-05-03T08:50:13Z</time></trkpt><trkpt lat="46.38699527533177" lon="13.154785112907698"><ele>324.0</ele><time>2026-05-03T08:50:14Z</time></trkpt><trkpt lat="46.38697719868497" lon="13.155004630321443"><ele>319.0</ele><time>2026-05-03T08:50:15Z</time></trkpt><trkpt lat="46.38696077080961" lon="13.155228588969262"><ele>314.0</ele><time>2026-05-03T08:50:16Z</time></trkpt><trkpt lat="46.386943118717916" lon="13.155467081090489"><ele>309.0</ele><time>2026-05-03T08:50:17Z</time></trkpt><trkpt lat="46.38693008129889" lon="13.155710478892297"><ele>309.0</ele><time>2026-05-03T08:50:18Z</time></trkpt><trkpt lat="46.38692758974807" lon="13.15594352222937"><ele>309.0</ele><time>2026-05-03T08:50:19Z</time></trkpt><trkpt lat="46.38692879402067" lon="13.15615938355599"><ele>309.0</ele><time>2026-05-03T08:50:20Z</time></trkpt><trkpt lat="46.38692893738876" lon="13.156363906503842"><ele>309.5</ele><time>2026-05-03T08:50:21Z</time></trkpt><trkpt lat="46.386932179665244" lon="13.156564107461119"><ele>310.0</ele><time>2026-05-03T08:50:22Z</time></trkpt><trkpt lat="46.386935470803806" lon="13.156784122820563"><ele>310.5</ele><time>2026-05-03T08:50:23Z</time></trkpt><trkpt lat="46.386942555407025" lon="13.157009898440968"><ele>311.0</ele><time>2026-05-03T08:50:24Z</time></trkpt><trkpt lat="46.38696039852224" lon="13.157246044081802"><ele>312.0</ele><time>2026-05-03T08:50:25Z</time></trkpt><trkpt lat="46.38698396504137" lon="13.157471106639841"><ele>313.0</ele><time>2026-05-03T08:50:26Z</time></trkpt><trkpt lat="46.38701010458471" lon="13.157681331936429"><ele>314.0</ele><time>2026-05-03T08:50:27Z</time></trkpt><trkpt lat="46.387039856169984" lon="13.157884675419673"><ele>315.0</ele><time>2026-05-03T08:50:28Z</time></trkpt><trkpt lat="46.3870799670275" lon="13.15810214808467"><ele>309.6666666666667</ele><time>2026-05-03T08:50:29Z</time></trkpt><trkpt lat="46.38711821454823" lon="13.158322653664545"><ele>304.33333333333337</ele><time>2026-05-03T08:50:30Z</time></trkpt><trkpt lat="46.387164543214006" lon="13.158544980307935"><ele>299.0</ele><time>2026-05-03T08:50:31Z</time></trkpt><trkpt lat="46.387225497991125" lon="13.158775013153592"><ele>292.33333333333337</ele><time>2026-05-03T08:50:32Z</time></trkpt><trkpt lat="46.387298161630575" lon="13.159014939195249"><ele>285.6666666666667</ele><time>2026-05-03T08:50:33Z</time></trkpt><trkpt lat="46.38737645637874" lon="13.159258612447358"><ele>279.0</ele><time>2026-05-03T08:50:34Z</time></trkpt><trkpt lat="46.38745482289495" lon="13.159483451748327"><ele>279.0</ele><time>2026-05-03T08:50:35Z</time></trkpt><trkpt lat="46.38753774327567" lon="13.159695732486295"><ele>279.0</ele><time>2026-05-03T08:50:36Z</time></trkpt><trkpt lat="46.38762863481293" lon="13.159910927144605"><ele>279.0</ele><time>2026-05-03T08:50:37Z</time></trkpt><trkpt lat="46.387729614205455" lon="13.16013195269735"><ele>279.6666666666667</ele><time>2026-05-03T08:50:38Z</time></trkpt><trkpt lat="46.38783675376904" lon="13.160341909571128"><ele>280.33333333333337</ele><time>2026-05-03T08:50:39Z</time></trkpt><trkpt lat="46.3879570139793" lon="13.160553229470958"><ele>281.0</ele><time>2026-05-03T08:50:40Z</time></trkpt><trkpt lat="46.38808163333587" lon="13.16076170269653"><ele>281.0</ele><time>2026-05-03T08:50:41Z</time></trkpt><trkpt lat="46.38821381530794" lon="13.160958996310857"><ele>281.0</ele><time>2026-05-03T08:50:42Z</time></trkpt><trkpt lat="46.38836021038013" lon="13.16116097540738"><ele>281.0</ele><time>2026-05-03T08:50:43Z</time></trkpt><trkpt lat="46.38850826626887" lon="13.161352127144784"><ele>281.0</ele><time>2026-05-03T08:50:44Z</time></trkpt><trkpt lat="46.38865580247764" lon="13.161523620293286"><ele>281.0</ele><time>2026-05-03T08:50:45Z</time></trkpt><trkpt lat="46.388800026679384" lon="13.16167428257805"><ele>281.0</ele><time>2026-05-03T08:50:46Z</time></trkpt><trkpt lat="46.388943405349714" lon="13.161809725083998"><ele>281.33333333333337</ele><time>2026-05-03T08:50:47Z</time></trkpt><trkpt lat="46.38910690904519" lon="13.161953832528736"><ele>281.6666666666667</ele><time>2026-05-03T08:50:48Z</time></trkpt><trkpt lat="46.38929305176329" lon="13.162111058828168"><ele>282.0</ele><time>2026-05-03T08:50:49Z</time></trkpt><trkpt lat="46.38950080383618" lon="13.16228713176991"><ele>283.5</ele><time>2026-05-03T08:50:50Z</time></trkpt><trkpt lat="46.38973393571896" lon="13.1624793626963"><ele>285.0</ele><time>2026-05-03T08:50:51Z</time></trkpt><trkpt lat="46.389972362776284" lon="13.162704910552675"><ele>285.0</ele><time>2026-05-03T08:50:52Z</time></trkpt><trkpt lat="46.390248262060894" lon="13.162913516939755"><ele>285.0</ele><time>2026-05-03T08:50:53Z</time></trkpt><trkpt lat="46.39053762596188" lon="13.16316520881683"><ele>285.0</ele><time>2026-05-03T08:50:54Z</time></trkpt><trkpt lat="46.3908034088216" lon="13.163393427843271"><ele>285.0</ele><time>2026-05-03T08:50:55Z</time></trkpt><trkpt lat="46.391050269192064" lon="13.163609745057375"><ele>285.0</ele><time>2026-05-03T08:50:56Z</time></trkpt><trkpt lat="46.39128423893265" lon="13.163810191846538"><ele>285.0</ele><time>2026-05-03T08:50:57Z</time></trkpt><trkpt lat="46.39150759741447" lon="13.163999686885193"><ele>285.0</ele><time>2026-05-03T08:50:58Z</time></trkpt><trkpt lat="46.391726114492094" lon="13.164188321183977"><ele>285.0</ele><time>2026-05-03T08:50:59Z</time></trkpt><trkpt lat="46.39192786551991" lon="13.164367180243856"><ele>285.0</ele><time>2026-05-03T08:51:00Z</time></trkpt><trkpt lat="46.392111739704" lon="13.164541513840337"><ele>285.0</ele><time>2026-05-03T08:51:01Z</time></trkpt><trkpt lat="46.39229217011211" lon="13.164730675890455"><ele>285.0</ele><time>2026-05-03T08:51:02Z</time></trkpt><trkpt lat="46.39248091666465" lon="13.164957778279271"><ele>287.0</ele><time>2026-05-03T08:51:03Z</time></trkpt><trkpt lat="46.3926736993129" lon="13.165202150163354"><ele>289.0</ele><time>2026-05-03T08:51:04Z</time></trkpt><trkpt lat="46.39286196289714" lon="13.165433581345"><ele>287.66666666666663</ele><time>2026-05-03T08:51:05Z</time></trkpt><trkpt lat="46.39303955645461" lon="13.165646788888921"><ele>286.3333333333333</ele><time>2026-05-03T08:51:06Z</time></trkpt><trkpt lat="46.39320046435247" lon="13.165846990200432"><ele>285.0</ele><time>2026-05-03T08:51:07Z</time></trkpt><trkpt lat="46.39336215657667" lon="13.166059455281873"><ele>285.0</ele><time>2026-05-03T08:51:08Z</time></trkpt><trkpt lat="46.39353090322747" lon="13.166291950889761"><ele>285.0</ele><time>2026-05-03T08:51:09Z</time></trkpt><trkpt lat="46.39369988586504" lon="13.166549081440756"><ele>283.5</ele><time>2026-05-03T08:51:10Z</time></trkpt><trkpt lat="46.393855401114905" lon="13.166822076780592"><ele>282.0</ele><time>2026-05-03T08:51:11Z</time></trkpt><trkpt lat="46.39400107847209" lon="13.167079525545285"><ele>282.0</ele><time>2026-05-03T08:51:12Z</time></trkpt><trkpt lat="46.394154043135266" lon="13.167345975736005"><ele>282.0</ele><time>2026-05-03T08:51:13Z</time></trkpt><trkpt lat="46.39432018613588" lon="13.16763875647634"><ele>287.0</ele><time>2026-05-03T08:51:14Z</time></trkpt><trkpt lat="46.394486676150606" lon="13.167959638200943"><ele>292.0</ele><time>2026-05-03T08:51:15Z</time></trkpt><trkpt lat="46.394632486237114" lon="13.168262228061694"><ele>292.0</ele><time>2026-05-03T08:51:16Z</time></trkpt><trkpt lat="46.3947595363212" lon="13.16853392376008"><ele>292.0</ele><time>2026-05-03T08:51:17Z</time></trkpt><trkpt lat="46.394876988673175" lon="13.168791354974301"><ele>292.0</ele><time>2026-05-03T08:51:18Z</time></trkpt><trkpt lat="46.39499493998514" lon="13.169047225500925"><ele>292.0</ele><time>2026-05-03T08:51:19Z</time></trkpt><trkpt lat="46.39511461746198" lon="13.169299800083243"><ele>292.0</ele><time>2026-05-03T08:51:20Z</time></trkpt><trkpt lat="46.39524068320313" lon="13.169565200927284"><ele>292.0</ele><time>2026-05-03T08:51:21Z</time></trkpt><trkpt lat="46.395370637011354" lon="13.169835727843497"><ele>289.3333333333333</ele><time>2026-05-03T08:51:22Z</time></trkpt><trkpt lat="46.39549554034077" lon="13.170098645146059"><ele>286.6666666666667</ele><time>2026-05-03T08:51:23Z</time></trkpt><trkpt lat="46.39561519302553" lon="13.170351375962783"><ele>284.0</ele><time>2026-05-03T08:51:24Z</time></trkpt><trkpt lat="46.39572182764323" lon="13.170592247640792"><ele>286.0</ele><time>2026-05-03T08:51:25Z</time></trkpt><trkpt lat="46.395822014758835" lon="13.170818964180254"><ele>288.0</ele><time>2026-05-03T08:51:26Z</time></trkpt><trkpt lat="46.395907013938974" lon="13.171031478741146"><ele>290.0</ele><time>2026-05-03T08:51:27Z</time></trkpt><trkpt lat="46.39598786945402" lon="13.171258694520713"><ele>302.5</ele><time>2026-05-03T08:51:28Z</time></trkpt><trkpt lat="46.3960749575342" lon="13.171536355525305"><ele>315.0</ele><time>2026-05-03T08:51:29Z</time></trkpt><trkpt lat="46.396165179517745" lon="13.171861312273862"><ele>315.0</ele><time>2026-05-03T08:51:30Z</time></trkpt><trkpt lat="46.3962611415044" lon="13.172217681687904"><ele>315.0</ele><time>2026-05-03T08:51:31Z</time></trkpt><trkpt lat="46.39636493772167" lon="13.17260517319363"><ele>301.0</ele><time>2026-05-03T08:51:32Z</time></trkpt><trkpt lat="46.39647104713815" lon="13.173013517523259"><ele>287.0</ele><time>2026-05-03T08:51:33Z</time></trkpt><trkpt lat="46.39658592814841" lon="13.173439775339753"><ele>287.0</ele><time>2026-05-03T08:51:34Z</time></trkpt><trkpt lat="46.396701346297554" lon="13.173860171520744"><ele>287.0</ele><time>2026-05-03T08:51:35Z</time></trkpt><trkpt lat="46.39680438632405" lon="13.174251194792765"><ele>290.0</ele><time>2026-05-03T08:51:36Z</time></trkpt><trkpt lat="46.39689841465514" lon="13.174617261849383"><ele>293.0</ele><time>2026-05-03T08:51:37Z</time></trkpt><trkpt lat="46.39698555982201" lon="13.174963687817659"><ele>295.5</ele><time>2026-05-03T08:51:38Z</time></trkpt><trkpt lat="46.39707805059789" lon="13.175320819978392"><ele>298.0</ele><time>2026-05-03T08:51:39Z</time></trkpt><trkpt lat="46.39717914941598" lon="13.175710384979975"><ele>292.0</ele><time>2026-05-03T08:51:40Z</time></trkpt><trkpt lat="46.39727967378087" lon="13.17608948279084"><ele>286.0</ele><time>2026-05-03T08:51:41Z</time></trkpt><trkpt lat="46.39737278064095" lon="13.176431664003061"><ele>289.0</ele><time>2026-05-03T08:51:42Z</time></trkpt><trkpt lat="46.39745827637119" lon="13.17674995813532"><ele>292.0</ele><time>2026-05-03T08:51:43Z</time></trkpt><trkpt lat="46.39753894070614" lon="13.177053952830681"><ele>294.66666666666663</ele><time>2026-05-03T08:51:44Z</time></trkpt><trkpt lat="46.397616018494425" lon="13.177353429502249"><ele>297.3333333333333</ele><time>2026-05-03T08:51:45Z</time></trkpt><trkpt lat="46.3976860674461" lon="13.17762716411997"><ele>300.0</ele><time>2026-05-03T08:51:46Z</time></trkpt><trkpt lat="46.39775060783557" lon="13.177892119322797"><ele>300.0</ele><time>2026-05-03T08:51:47Z</time></trkpt><trkpt lat="46.397818850774044" lon="13.178129563216203"><ele>300.0</ele><time>2026-05-03T08:51:48Z</time></trkpt><trkpt lat="46.397886126872585" lon="13.178390538986939"><ele>300.0</ele><time>2026-05-03T08:51:49Z</time></trkpt><trkpt lat="46.397959433600704" lon="13.178670214655877"><ele>297.3333333333333</ele><time>2026-05-03T08:51:50Z</time></trkpt><trkpt lat="46.39804123146801" lon="13.178958909647568"><ele>294.66666666666663</ele><time>2026-05-03T08:51:51Z</time></trkpt><trkpt lat="46.39811395736519" lon="13.179219469848272"><ele>292.0</ele><time>2026-05-03T08:51:52Z</time></trkpt><trkpt lat="46.39817955830705" lon="13.179461617328414"><ele>292.0</ele><time>2026-05-03T08:51:53Z</time></trkpt><trkpt lat="46.39824688467015" lon="13.179701277751892"><ele>292.0</ele><time>2026-05-03T08:51:54Z</time></trkpt><trkpt lat="46.39832153895997" lon="13.179938698314745"><ele>292.0</ele><time>2026-05-03T08:51:55Z</time></trkpt><trkpt lat="46.398392097735886" lon="13.180151903848452"><ele>292.3333333333333</ele><time>2026-05-03T08:51:56Z</time></trkpt><trkpt lat="46.398455254011004" lon="13.180353489649098"><ele>292.6666666666667</ele><time>2026-05-03T08:51:57Z</time></trkpt><trkpt lat="46.398522455658956" lon="13.180564666224049"><ele>293.0</ele><time>2026-05-03T08:51:58Z</time></trkpt><trkpt lat="46.39859090872309" lon="13.180774275666444"><ele>293.0</ele><time>2026-05-03T08:51:59Z</time></trkpt><trkpt lat="46.3986548587983" lon="13.180964080585918"><ele>293.0</ele><time>2026-05-03T08:52:00Z</time></trkpt><trkpt lat="46.39870960431817" lon="13.181137531461484"><ele>293.0</ele><time>2026-05-03T08:52:01Z</time></trkpt><trkpt lat="46.39875631536209" lon="13.181274857513051"><ele>293.0</ele><time>2026-05-03T08:52:02Z</time></trkpt><trkpt lat="46.3987905896217" lon="13.181380195927693"><ele>293.0</ele><time>2026-05-03T08:52:03Z</time></trkpt><trkpt lat="46.39882201042959" lon="13.18147607579061"><ele>293.0</ele><time>2026-05-03T08:52:04Z</time></trkpt><trkpt lat="46.39886131601992" lon="13.181584937129482"><ele>293.0</ele><time>2026-05-03T08:52:05Z</time></trkpt><trkpt lat="46.39890834454623" lon="13.181670395288517"><ele>293.0</ele><time>2026-05-03T08:52:06Z</time></trkpt><trkpt lat="46.398967805952026" lon="13.18173267104867"><ele>293.0</ele><time>2026-05-03T08:52:07Z</time></trkpt><trkpt lat="46.39904813975769" lon="13.181767874444201"><ele>293.0</ele><time>2026-05-03T08:52:08Z</time></trkpt><trkpt lat="46.399150839785925" lon="13.18176851037939"><ele>293.6</ele><time>2026-05-03T08:52:09Z</time></trkpt><trkpt lat="46.39924673098513" lon="13.181779109876352"><ele>294.20000000000005</ele><time>2026-05-03T08:52:10Z</time></trkpt><trkpt lat="46.399354828837865" lon="13.181826703264024"><ele>294.8</ele><time>2026-05-03T08:52:11Z</time></trkpt><trkpt lat="46.39945068815222" lon="13.181910334720571"><ele>295.40000000000003</ele><time>2026-05-03T08:52:12Z</time></trkpt><trkpt lat="46.39952999648223" lon="13.18203016897337"><ele>296.0</ele><time>2026-05-03T08:52:13Z</time></trkpt><trkpt lat="46.3996091231783" lon="13.182183420449666"><ele>296.75</ele><time>2026-05-03T08:52:14Z</time></trkpt><trkpt lat="46.39967493679083" lon="13.182371253743149"><ele>297.5</ele><time>2026-05-03T08:52:15Z</time></trkpt><trkpt lat="46.39973542297709" lon="13.182558150092294"><ele>298.25</ele><time>2026-05-03T08:52:16Z</time></trkpt><trkpt lat="46.399800701169575" lon="13.182759324758157"><ele>299.0</ele><time>2026-05-03T08:52:17Z</time></trkpt><trkpt lat="46.39986289753866" lon="13.182966224097472"><ele>299.0</ele><time>2026-05-03T08:52:18Z</time></trkpt><trkpt lat="46.39991128961399" lon="13.183152019101648"><ele>299.0</ele><time>2026-05-03T08:52:19Z</time></trkpt><trkpt lat="46.399942271326466" lon="13.18332804143856"><ele>299.0</ele><time>2026-05-03T08:52:20Z</time></trkpt><trkpt lat="46.39996188044558" lon="13.183523366789267"><ele>299.0</ele><time>2026-05-03T08:52:21Z</time></trkpt><trkpt lat="46.39996296232579" lon="13.183744472064301"><ele>299.25</ele><time>2026-05-03T08:52:22Z</time></trkpt><trkpt lat="46.399950105684404" lon="13.183960007725242"><ele>299.5</ele><time>2026-05-03T08:52:23Z</time></trkpt><trkpt lat="46.3999383631688" lon="13.184147364228435"><ele>299.75</ele><time>2026-05-03T08:52:24Z</time></trkpt><trkpt lat="46.399926038209834" lon="13.184321073891391"><ele>300.0</ele><time>2026-05-03T08:52:25Z</time></trkpt><trkpt lat="46.399910439585156" lon="13.184505996010001"><ele>300.5</ele><time>2026-05-03T08:52:26Z</time></trkpt><trkpt lat="46.39989277004221" lon="13.184698016891373"><ele>301.0</ele><time>2026-05-03T08:52:27Z</time></trkpt><trkpt lat="46.399881893506134" lon="13.18486805620518"><ele>301.5</ele><time>2026-05-03T08:52:28Z</time></trkpt><trkpt lat="46.39987605266769" lon="13.185032623569613"><ele>302.0</ele><time>2026-05-03T08:52:29Z</time></trkpt><trkpt lat="46.39987489096849" lon="13.185179901891338"><ele>302.4</ele><time>2026-05-03T08:52:30Z</time></trkpt><trkpt lat="46.399883923909755" lon="13.185317929456541"><ele>302.79999999999995</ele><time>2026-05-03T08:52:31Z</time></trkpt><trkpt lat="46.39989959630152" lon="13.185451950114736"><ele>303.2</ele><time>2026-05-03T08:52:32Z</time></trkpt><trkpt lat="46.39991512914011" lon="13.185597203590726"><ele>303.59999999999997</ele><time>2026-05-03T08:52:33Z</time></trkpt><trkpt lat="46.39994005559032" lon="13.185752909777023"><ele>304.0</ele><time>2026-05-03T08:52:34Z</time></trkpt><trkpt lat="46.39996892942384" lon="13.185908268908362"><ele>303.2</ele><time>2026-05-03T08:52:35Z</time></trkpt><trkpt lat="46.400007742540346" lon="13.186055026191912"><ele>302.4</ele><time>2026-05-03T08:52:36Z</time></trkpt><trkpt lat="46.400059878859146" lon="13.186190357585092"><ele>301.6</ele><time>2026-05-03T08:52:37Z</time></trkpt><trkpt lat="46.40012909905662" lon="13.18632430727069"><ele>300.8</ele><time>2026-05-03T08:52:38Z</time></trkpt><trkpt lat="46.40018705932456" lon="13.186453473628143"><ele>300.0</ele><time>2026-05-03T08:52:39Z</time></trkpt><trkpt lat="46.400255998641036" lon="13.18659719576056"><ele>299.0</ele><time>2026-05-03T08:52:40Z</time></trkpt><trkpt lat="46.400331958910066" lon="13.18674724622345"><ele>298.0</ele><time>2026-05-03T08:52:41Z</time></trkpt><trkpt lat="46.40040106026508" lon="13.186894316504105"><ele>297.0</ele><time>2026-05-03T08:52:42Z</time></trkpt><trkpt lat="46.40047522113653" lon="13.18704769557791"><ele>296.0</ele><time>2026-05-03T08:52:43Z</time></trkpt><trkpt lat="46.40055342416725" lon="13.1872048417262"><ele>297.75</ele><time>2026-05-03T08:52:44Z</time></trkpt><trkpt lat="46.40063082700135" lon="13.187364571168336"><ele>299.5</ele><time>2026-05-03T08:52:45Z</time></trkpt><trkpt lat="46.40070101992047" lon="13.187500994479764"><ele>301.25</ele><time>2026-05-03T08:52:46Z</time></trkpt><trkpt lat="46.40078314671289" lon="13.187663618885734"><ele>303.0</ele><time>2026-05-03T08:52:47Z</time></trkpt><trkpt lat="46.40086106470651" lon="13.187817661280658"><ele>303.0</ele><time>2026-05-03T08:52:48Z</time></trkpt><trkpt lat="46.40093344959375" lon="13.187963942736408"><ele>303.0</ele><time>2026-05-03T08:52:49Z</time></trkpt><trkpt lat="46.40100530991328" lon="13.18810686976457"><ele>303.0</ele><time>2026-05-03T08:52:50Z</time></trkpt><trkpt lat="46.40107494967784" lon="13.188251183100919"><ele>303.0</ele><time>2026-05-03T08:52:51Z</time></trkpt><trkpt lat="46.40113995554107" lon="13.188394085613272"><ele>303.0</ele><time>2026-05-03T08:52:52Z</time></trkpt><trkpt lat="46.40120333729215" lon="13.188534264950865"><ele>303.0</ele><time>2026-05-03T08:52:53Z</time></trkpt><trkpt lat="46.401269155022185" lon="13.188679515576048"><ele>303.0</ele><time>2026-05-03T08:52:54Z</time></trkpt><trkpt lat="46.40133614641447" lon="13.188833811360485"><ele>303.0</ele><time>2026-05-03T08:52:55Z</time></trkpt><trkpt lat="46.40141202272853" lon="13.188996181150117"><ele>302.5</ele><time>2026-05-03T08:52:56Z</time></trkpt><trkpt lat="46.40146804126419" lon="13.189162524780329"><ele>302.0</ele><time>2026-05-03T08:52:57Z</time></trkpt><trkpt lat="46.40154557668949" lon="13.189293920834409"><ele>301.5</ele><time>2026-05-03T08:52:58Z</time></trkpt><trkpt lat="46.401592807453255" lon="13.189444806911515"><ele>301.0</ele><time>2026-05-03T08:52:59Z</time></trkpt><trkpt lat="46.401659877258865" lon="13.189591069043678"><ele>301.0</ele><time>2026-05-03T08:53:00Z</time></trkpt><trkpt lat="46.40172987034398" lon="13.189707184968356"><ele>301.0</ele><time>2026-05-03T08:53:01Z</time></trkpt><trkpt lat="46.401776246670735" lon="13.189818867778282"><ele>301.0</ele><time>2026-05-03T08:53:02Z</time></trkpt><trkpt lat="46.401802993144535" lon="13.189959964576005"><ele>301.0</ele><time>2026-05-03T08:53:04Z</time></trkpt><trkpt lat="46.40193977942869" lon="13.190193728695128"><ele>301.0</ele><time>2026-05-03T08:53:05Z</time></trkpt><trkpt lat="46.401981896456604" lon="13.190284551610166"><ele>301.0</ele><time>2026-05-03T08:53:06Z</time></trkpt><trkpt lat="46.40202992284507" lon="13.190396935854961"><ele>301.0</ele><time>2026-05-03T08:53:07Z</time></trkpt><trkpt lat="46.40207750818642" lon="13.190493726475676"><ele>301.0</ele><time>2026-05-03T08:53:08Z</time></trkpt><trkpt lat="46.402123904129" lon="13.190580823842806"><ele>301.0</ele><time>2026-05-03T08:53:09Z</time></trkpt><trkpt lat="46.40216472700801" lon="13.190686187897656"><ele>301.0</ele><time>2026-05-03T08:53:10Z</time></trkpt><trkpt lat="46.40219633504963" lon="13.190827587700863"><ele>302.5</ele><time>2026-05-03T08:53:11Z</time></trkpt><trkpt lat="46.40224287298715" lon="13.190946254846537"><ele>304.0</ele><time>2026-05-03T08:53:12Z</time></trkpt><trkpt lat="46.402322562708285" lon="13.191052755825275"><ele>305.5</ele><time>2026-05-03T08:53:13Z</time></trkpt><trkpt lat="46.40238975336705" lon="13.191212141030912"><ele>307.0</ele><time>2026-05-03T08:53:14Z</time></trkpt><trkpt lat="46.40246462503693" lon="13.191375483175602"><ele>306.75</ele><time>2026-05-03T08:53:15Z</time></trkpt><trkpt lat="46.402550223548026" lon="13.191536857809101"><ele>306.5</ele><time>2026-05-03T08:53:16Z</time></trkpt><trkpt lat="46.40262648347682" lon="13.191694742448867"><ele>306.25</ele><time>2026-05-03T08:53:17Z</time></trkpt><trkpt lat="46.40272001834791" lon="13.191855505443648"><ele>306.0</ele><time>2026-05-03T08:53:18Z</time></trkpt><trkpt lat="46.40280583257602" lon="13.192016038689427"><ele>306.0</ele><time>2026-05-03T08:53:19Z</time></trkpt><trkpt lat="46.402881244841105" lon="13.192150381677111"><ele>306.0</ele><time>2026-05-03T08:53:20Z</time></trkpt><trkpt lat="46.40296762426593" lon="13.19230628751397"><ele>306.0</ele><time>2026-05-03T08:53:21Z</time></trkpt><trkpt lat="46.403066093649336" lon="13.192483170220816"><ele>306.0</ele><time>2026-05-03T08:53:22Z</time></trkpt><trkpt lat="46.40315065557046" lon="13.192626884024373"><ele>305.5</ele><time>2026-05-03T08:53:23Z</time></trkpt><trkpt lat="46.40322781949663" lon="13.192759434758708"><ele>305.0</ele><time>2026-05-03T08:53:24Z</time></trkpt><trkpt lat="46.40330462349698" lon="13.192888772720211"><ele>304.5</ele><time>2026-05-03T08:53:25Z</time></trkpt><trkpt lat="46.40339211346279" lon="13.19304185244877"><ele>304.0</ele><time>2026-05-03T08:53:26Z</time></trkpt><trkpt lat="46.40348617114152" lon="13.193203020453302"><ele>304.0</ele><time>2026-05-03T08:53:27Z</time></trkpt><trkpt lat="46.403596068443036" lon="13.193366566766128"><ele>304.0</ele><time>2026-05-03T08:53:28Z</time></trkpt><trkpt lat="46.403703336823725" lon="13.193506820189908"><ele>304.0</ele><time>2026-05-03T08:53:29Z</time></trkpt><trkpt lat="46.403798580480306" lon="13.193631938834745"><ele>304.0</ele><time>2026-05-03T08:53:30Z</time></trkpt><trkpt lat="46.403883705054234" lon="13.193749854169878"><ele>304.75</ele><time>2026-05-03T08:53:31Z</time></trkpt><trkpt lat="46.403979209515384" lon="13.193890740565754"><ele>305.5</ele><time>2026-05-03T08:53:32Z</time></trkpt><trkpt lat="46.40408303957964" lon="13.194039616643986"><ele>306.25</ele><time>2026-05-03T08:53:33Z</time></trkpt><trkpt lat="46.40418423605478" lon="13.194190232623507"><ele>307.0</ele><time>2026-05-03T08:53:34Z</time></trkpt><trkpt lat="46.404280390738926" lon="13.19432906100394"><ele>307.25</ele><time>2026-05-03T08:53:35Z</time></trkpt><trkpt lat="46.404371553120285" lon="13.19447052262517"><ele>307.5</ele><time>2026-05-03T08:53:36Z</time></trkpt><trkpt lat="46.404461707585604" lon="13.194600373409823"><ele>307.75</ele><time>2026-05-03T08:53:37Z</time></trkpt><trkpt lat="46.40455564999412" lon="13.194735550027037"><ele>308.0</ele><time>2026-05-03T08:53:38Z</time></trkpt><trkpt lat="46.404650182020966" lon="13.19489053703108"><ele>308.75</ele><time>2026-05-03T08:53:39Z</time></trkpt><trkpt lat="46.40475828985288" lon="13.195047159942781"><ele>309.5</ele><time>2026-05-03T08:53:40Z</time></trkpt><trkpt lat="46.40487037283817" lon="13.19521147922769"><ele>310.25</ele><time>2026-05-03T08:53:41Z</time></trkpt><trkpt lat="46.40496586376571" lon="13.195354126827212"><ele>311.0</ele><time>2026-05-03T08:53:42Z</time></trkpt><trkpt lat="46.40504911225389" lon="13.195485289981638"><ele>311.0</ele><time>2026-05-03T08:53:43Z</time></trkpt><trkpt lat="46.40513225939857" lon="13.195604978944885"><ele>311.0</ele><time>2026-05-03T08:53:44Z</time></trkpt><trkpt lat="46.405216323152004" lon="13.195728958088312"><ele>311.0</ele><time>2026-05-03T08:53:45Z</time></trkpt><trkpt lat="46.405309600091435" lon="13.195865435620272"><ele>311.0</ele><time>2026-05-03T08:53:46Z</time></trkpt><trkpt lat="46.40540686034865" lon="13.196015320176423"><ele>311.75</ele><time>2026-05-03T08:53:47Z</time></trkpt><trkpt lat="46.405500430054374" lon="13.196162740669498"><ele>312.5</ele><time>2026-05-03T08:53:48Z</time></trkpt><trkpt lat="46.40558796743979" lon="13.196292155487455"><ele>313.25</ele><time>2026-05-03T08:53:49Z</time></trkpt><trkpt lat="46.40567930648647" lon="13.196421413221662"><ele>314.0</ele><time>2026-05-03T08:53:50Z</time></trkpt><trkpt lat="46.40577534188691" lon="13.196561607092141"><ele>314.0</ele><time>2026-05-03T08:53:51Z</time></trkpt><trkpt lat="46.405873803342004" lon="13.196701987474786"><ele>314.0</ele><time>2026-05-03T08:53:52Z</time></trkpt><trkpt lat="46.405976685699414" lon="13.196827456963838"><ele>314.0</ele><time>2026-05-03T08:53:53Z</time></trkpt><trkpt lat="46.406087766160425" lon="13.196936298816876"><ele>314.0</ele><time>2026-05-03T08:53:54Z</time></trkpt><trkpt lat="46.40621200055463" lon="13.197042220904889"><ele>315.25</ele><time>2026-05-03T08:53:55Z</time></trkpt><trkpt lat="46.406332601680944" lon="13.197143767416499"><ele>316.5</ele><time>2026-05-03T08:53:56Z</time></trkpt><trkpt lat="46.40644972034475" lon="13.197238790582208"><ele>317.75</ele><time>2026-05-03T08:53:57Z</time></trkpt><trkpt lat="46.40655399480468" lon="13.197324245634867"><ele>319.0</ele><time>2026-05-03T08:53:58Z</time></trkpt><trkpt lat="46.40664989132603" lon="13.197405938606947"><ele>319.2</ele><time>2026-05-03T08:53:59Z</time></trkpt><trkpt lat="46.40673699525516" lon="13.19747283548032"><ele>319.4</ele><time>2026-05-03T08:54:00Z</time></trkpt><trkpt lat="46.40681646117615" lon="13.197532093454798"><ele>319.6</ele><time>2026-05-03T08:54:01Z</time></trkpt><trkpt lat="46.40689861839489" lon="13.197590686447079"><ele>319.8</ele><time>2026-05-03T08:54:02Z</time></trkpt><trkpt lat="46.406992460300295" lon="13.197633086847283"><ele>320.0</ele><time>2026-05-03T08:54:03Z</time></trkpt><trkpt lat="46.40709377188492" lon="13.197644969163557"><ele>320.6</ele><time>2026-05-03T08:54:04Z</time></trkpt><trkpt lat="46.407203952496886" lon="13.197640362971214"><ele>321.2</ele><time>2026-05-03T08:54:05Z</time></trkpt><trkpt lat="46.407319490200706" lon="13.197637512523974"><ele>321.79999999999995</ele><time>2026-05-03T08:54:06Z</time></trkpt><trkpt lat="46.40742729979408" lon="13.197635462949153"><ele>322.4</ele><time>2026-05-03T08:54:07Z</time></trkpt><trkpt lat="46.40751825288829" lon="13.197628026616336"><ele>323.0</ele><time>2026-05-03T08:54:08Z</time></trkpt><trkpt lat="46.407596841054016" lon="13.197618676794992"><ele>323.0</ele><time>2026-05-03T08:54:09Z</time></trkpt><trkpt lat="46.407689977695014" lon="13.197618680429468"><ele>323.0</ele><time>2026-05-03T08:54:10Z</time></trkpt><trkpt lat="46.40778758295817" lon="13.197622529503114"><ele>323.0</ele><time>2026-05-03T08:54:11Z</time></trkpt><trkpt lat="46.40788666209284" lon="13.19767566520847"><ele>323.0</ele><time>2026-05-03T08:54:12Z</time></trkpt><trkpt lat="46.40797731375301" lon="13.197774252831554"><ele>323.0</ele><time>2026-05-03T08:54:13Z</time></trkpt><trkpt lat="46.408068859819785" lon="13.197885639304753"><ele>323.25</ele><time>2026-05-03T08:54:14Z</time></trkpt><trkpt lat="46.40816912580459" lon="13.197994178758531"><ele>323.5</ele><time>2026-05-03T08:54:15Z</time></trkpt><trkpt lat="46.408260450798075" lon="13.198106390973432"><ele>323.75</ele><time>2026-05-03T08:54:16Z</time></trkpt><trkpt lat="46.408352187670125" lon="13.198209422040643"><ele>324.0</ele><time>2026-05-03T08:54:17Z</time></trkpt><trkpt lat="46.408439457722544" lon="13.198283303112758"><ele>324.0</ele><time>2026-05-03T08:54:18Z</time></trkpt><trkpt lat="46.408527706237585" lon="13.19833102748686"><ele>324.0</ele><time>2026-05-03T08:54:19Z</time></trkpt><trkpt lat="46.40862511468062" lon="13.19834771348845"><ele>324.0</ele><time>2026-05-03T08:54:20Z</time></trkpt><trkpt lat="46.40873256582056" lon="13.198335918062984"><ele>324.0</ele><time>2026-05-03T08:54:21Z</time></trkpt><trkpt lat="46.40883961041512" lon="13.198296100519606"><ele>324.0</ele><time>2026-05-03T08:54:22Z</time></trkpt><trkpt lat="46.408939488365974" lon="13.1982223217334"><ele>326.25</ele><time>2026-05-03T08:54:23Z</time></trkpt><trkpt lat="46.409028690976506" lon="13.19812603128596"><ele>328.5</ele><time>2026-05-03T08:54:24Z</time></trkpt><trkpt lat="46.409107192041276" lon="13.197996755041615"><ele>330.75</ele><time>2026-05-03T08:54:25Z</time></trkpt><trkpt lat="46.409181437665396" lon="13.197847307808317"><ele>333.0</ele><time>2026-05-03T08:54:26Z</time></trkpt><trkpt lat="46.409248636135516" lon="13.19770010490911"><ele>333.0</ele><time>2026-05-03T08:54:27Z</time></trkpt><trkpt lat="46.4093027689365" lon="13.197582597319036"><ele>333.0</ele><time>2026-05-03T08:54:28Z</time></trkpt><trkpt lat="46.409354332862556" lon="13.197477988505334"><ele>333.0</ele><time>2026-05-03T08:54:29Z</time></trkpt><trkpt lat="46.409407742895226" lon="13.197371593402531"><ele>333.0</ele><time>2026-05-03T08:54:30Z</time></trkpt><trkpt lat="46.40945780809704" lon="13.19728580802756"><ele>333.0</ele><time>2026-05-03T08:54:31Z</time></trkpt><trkpt lat="46.409510779333615" lon="13.197208144865325"><ele>333.0</ele><time>2026-05-03T08:54:32Z</time></trkpt><trkpt lat="46.4095490211219" lon="13.19712970151798"><ele>333.6666666666667</ele><time>2026-05-03T08:54:33Z</time></trkpt><trkpt lat="46.40961774762666" lon="13.196980942211335"><ele>334.33333333333337</ele><time>2026-05-03T08:54:34Z</time></trkpt><trkpt lat="46.40982614064646" lon="13.197225192979708"><ele>335.0</ele><time>2026-05-03T08:54:35Z</time></trkpt><trkpt lat="46.40995216069971" lon="13.197280952312783"><ele>335.0</ele><time>2026-05-03T08:54:36Z</time></trkpt><trkpt lat="46.41009048302565" lon="13.197340345203049"><ele>335.0</ele><time>2026-05-03T08:54:37Z</time></trkpt><trkpt lat="46.410241005501206" lon="13.19739207856907"><ele>335.0</ele><time>2026-05-03T08:54:38Z</time></trkpt><trkpt lat="46.410376325654255" lon="13.197442097469054"><ele>335.0</ele><time>2026-05-03T08:54:39Z</time></trkpt><trkpt lat="46.41049444684237" lon="13.197484466018366"><ele>335.0</ele><time>2026-05-03T08:54:40Z</time></trkpt><trkpt lat="46.41061512863297" lon="13.197524017347734"><ele>335.0</ele><time>2026-05-03T08:54:41Z</time></trkpt><trkpt lat="46.41074522071752" lon="13.197568687610698"><ele>335.0</ele><time>2026-05-03T08:54:42Z</time></trkpt><trkpt lat="46.41086771367309" lon="13.197618477898258"><ele>335.0</ele><time>2026-05-03T08:54:43Z</time></trkpt><trkpt lat="46.410975793291065" lon="13.197661767336285"><ele>335.0</ele><time>2026-05-03T08:54:44Z</time></trkpt><trkpt lat="46.411082049878246" lon="13.197709480566974"><ele>335.0</ele><time>2026-05-03T08:54:45Z</time></trkpt><trkpt lat="46.41119779852303" lon="13.19775690166036"><ele>335.0</ele><time>2026-05-03T08:54:46Z</time></trkpt><trkpt lat="46.41130841832105" lon="13.19779937857068"><ele>335.0</ele><time>2026-05-03T08:54:47Z</time></trkpt><trkpt lat="46.411415592843355" lon="13.19783872858721"><ele>336.25</ele><time>2026-05-03T08:54:48Z</time></trkpt><trkpt lat="46.411542156192375" lon="13.19789025714571"><ele>337.5</ele><time>2026-05-03T08:54:49Z</time></trkpt><trkpt lat="46.41167116158091" lon="13.197946668878593"><ele>338.75</ele><time>2026-05-03T08:54:50Z</time></trkpt><trkpt lat="46.41179073018559" lon="13.19800405801034"><ele>340.0</ele><time>2026-05-03T08:54:51Z</time></trkpt><trkpt lat="46.41190646129887" lon="13.198073859266042"><ele>340.0</ele><time>2026-05-03T08:54:52Z</time></trkpt><trkpt lat="46.41201764447665" lon="13.198150943648812"><ele>340.0</ele><time>2026-05-03T08:54:53Z</time></trkpt><trkpt lat="46.4121310465094" lon="13.198235779256725"><ele>340.0</ele><time>2026-05-03T08:54:54Z</time></trkpt><trkpt lat="46.41224494676509" lon="13.19833670491477"><ele>340.0</ele><time>2026-05-03T08:54:55Z</time></trkpt><trkpt lat="46.41234883962611" lon="13.1984406355267"><ele>340.75</ele><time>2026-05-03T08:54:56Z</time></trkpt><trkpt lat="46.41246163380157" lon="13.198555245043487"><ele>341.5</ele><time>2026-05-03T08:54:57Z</time></trkpt><trkpt lat="46.412578980167844" lon="13.198666929831372"><ele>342.25</ele><time>2026-05-03T08:54:58Z</time></trkpt><trkpt lat="46.4126925916511" lon="13.198788762394607"><ele>343.0</ele><time>2026-05-03T08:54:59Z</time></trkpt><trkpt lat="46.4127990107078" lon="13.19889323803509"><ele>343.0</ele><time>2026-05-03T08:55:00Z</time></trkpt><trkpt lat="46.41289559061289" lon="13.198987865280387"><ele>343.0</ele><time>2026-05-03T08:55:01Z</time></trkpt><trkpt lat="46.4129849558449" lon="13.199076802840532"><ele>343.0</ele><time>2026-05-03T08:55:02Z</time></trkpt><trkpt lat="46.41308261064095" lon="13.199171165874752"><ele>343.0</ele><time>2026-05-03T08:55:03Z</time></trkpt><trkpt lat="46.41318200550983" lon="13.199267380565383"><ele>343.25</ele><time>2026-05-03T08:55:04Z</time></trkpt><trkpt lat="46.41327436724842" lon="13.19936763706751"><ele>343.5</ele><time>2026-05-03T08:55:05Z</time></trkpt><trkpt lat="46.41336221243848" lon="13.199474514264805"><ele>343.75</ele><time>2026-05-03T08:55:06Z</time></trkpt><trkpt lat="46.41345269972052" lon="13.199588591392398"><ele>344.0</ele><time>2026-05-03T08:55:07Z</time></trkpt><trkpt lat="46.41354308708451" lon="13.199715564109674"><ele>344.25</ele><time>2026-05-03T08:55:08Z</time></trkpt><trkpt lat="46.413635305827974" lon="13.199852125681584"><ele>344.5</ele><time>2026-05-03T08:55:09Z</time></trkpt><trkpt lat="46.41372270592317" lon="13.199993683621106"><ele>344.75</ele><time>2026-05-03T08:55:10Z</time></trkpt><trkpt lat="46.41379986880991" lon="13.200133047999808"><ele>345.0</ele><time>2026-05-03T08:55:11Z</time></trkpt><trkpt lat="46.41386354225001" lon="13.200263034572513"><ele>345.0</ele><time>2026-05-03T08:55:12Z</time></trkpt><trkpt lat="46.413925950356735" lon="13.200389845175287"><ele>345.0</ele><time>2026-05-03T08:55:13Z</time></trkpt><trkpt lat="46.41398827357982" lon="13.200524912227506"><ele>345.0</ele><time>2026-05-03T08:55:14Z</time></trkpt><trkpt lat="46.414058276477896" lon="13.200659853506693"><ele>345.0</ele><time>2026-05-03T08:55:15Z</time></trkpt><trkpt lat="46.41413586414505" lon="13.200757264224755"><ele>345.0</ele><time>2026-05-03T08:55:16Z</time></trkpt><trkpt lat="46.414227555175074" lon="13.200809446085499"><ele>344.8</ele><time>2026-05-03T08:55:17Z</time></trkpt><trkpt lat="46.41433013858329" lon="13.200841602950211"><ele>344.6</ele><time>2026-05-03T08:55:18Z</time></trkpt><trkpt lat="46.414439932883084" lon="13.200844940394857"><ele>344.4</ele><time>2026-05-03T08:55:19Z</time></trkpt><trkpt lat="46.41454315633973" lon="13.200811237051385"><ele>344.2</ele><time>2026-05-03T08:55:20Z</time></trkpt><trkpt lat="46.41463679090177" lon="13.200752743151634"><ele>344.0</ele><time>2026-05-03T08:55:21Z</time></trkpt><trkpt lat="46.41474147490586" lon="13.200672039308799"><ele>345.0</ele><time>2026-05-03T08:55:22Z</time></trkpt><trkpt lat="46.414856835478524" lon="13.200586871537228"><ele>346.0</ele><time>2026-05-03T08:55:23Z</time></trkpt><trkpt lat="46.4149762249768" lon="13.20049383050079"><ele>347.0</ele><time>2026-05-03T08:55:24Z</time></trkpt><trkpt lat="46.41508400307589" lon="13.20040189726532"><ele>348.0</ele><time>2026-05-03T08:55:25Z</time></trkpt><trkpt lat="46.41518465326495" lon="13.200320425630274"><ele>348.0</ele><time>2026-05-03T08:55:26Z</time></trkpt><trkpt lat="46.415287174479786" lon="13.200238556801011"><ele>348.0</ele><time>2026-05-03T08:55:27Z</time></trkpt><trkpt lat="46.41540140841668" lon="13.200135958357576"><ele>348.0</ele><time>2026-05-03T08:55:28Z</time></trkpt><trkpt lat="46.41552341743822" lon="13.200015131835382"><ele>348.0</ele><time>2026-05-03T08:55:29Z</time></trkpt><trkpt lat="46.415640670684624" lon="13.199874657852773"><ele>351.6666666666667</ele><time>2026-05-03T08:55:30Z</time></trkpt><trkpt lat="46.41576130171685" lon="13.19968304575531"><ele>355.33333333333337</ele><time>2026-05-03T08:55:31Z</time></trkpt><trkpt lat="46.41589130795428" lon="13.199437688620524"><ele>359.0</ele><time>2026-05-03T08:55:32Z</time></trkpt><trkpt lat="46.41601471672984" lon="13.199226553071933"><ele>359.0</ele><time>2026-05-03T08:55:33Z</time></trkpt><trkpt lat="46.416124541553096" lon="13.199041075068498"><ele>359.0</ele><time>2026-05-03T08:55:34Z</time></trkpt><trkpt lat="46.41622356247703" lon="13.198864538194837"><ele>359.0</ele><time>2026-05-03T08:55:35Z</time></trkpt><trkpt lat="46.41632872820202" lon="13.19867978770732"><ele>359.6666666666667</ele><time>2026-05-03T08:55:36Z</time></trkpt><trkpt lat="46.41644519228148" lon="13.19849647472839"><ele>360.3333333333333</ele><time>2026-05-03T08:55:37Z</time></trkpt><trkpt lat="46.41657415532456" lon="13.198326856621167"><ele>361.0</ele><time>2026-05-03T08:55:38Z</time></trkpt><trkpt lat="46.416716571415414" lon="13.198181812025636"><ele>361.66666666666663</ele><time>2026-05-03T08:55:39Z</time></trkpt><trkpt lat="46.416868334779785" lon="13.198047983059693"><ele>362.3333333333333</ele><time>2026-05-03T08:55:40Z</time></trkpt><trkpt lat="46.417031990331886" lon="13.197941451765683"><ele>363.0</ele><time>2026-05-03T08:55:41Z</time></trkpt><trkpt lat="46.417226294579834" lon="13.197850515132005"><ele>363.0</ele><time>2026-05-03T08:55:42Z</time></trkpt><trkpt lat="46.41742085185439" lon="13.197781822806645"><ele>363.0</ele><time>2026-05-03T08:55:43Z</time></trkpt><trkpt lat="46.41759236098982" lon="13.197718834245759"><ele>363.0</ele><time>2026-05-03T08:55:44Z</time></trkpt><trkpt lat="46.417753035428674" lon="13.197665725982068"><ele>363.0</ele><time>2026-05-03T08:55:45Z</time></trkpt><trkpt lat="46.41790371624341" lon="13.197633536349663"><ele>363.0</ele><time>2026-05-03T08:55:46Z</time></trkpt><trkpt lat="46.418055559817404" lon="13.197625958047219"><ele>363.0</ele><time>2026-05-03T08:55:47Z</time></trkpt><trkpt lat="46.41823743281834" lon="13.197619313020713"><ele>362.6666666666667</ele><time>2026-05-03T08:55:48Z</time></trkpt><trkpt lat="46.41845605348673" lon="13.197607424662056"><ele>362.33333333333337</ele><time>2026-05-03T08:55:49Z</time></trkpt><trkpt lat="46.41867731797047" lon="13.197605078046896"><ele>362.0</ele><time>2026-05-03T08:55:50Z</time></trkpt><trkpt lat="46.41887201725324" lon="13.197618959376703"><ele>362.0</ele><time>2026-05-03T08:55:51Z</time></trkpt><trkpt lat="46.419058088834966" lon="13.197645309861613"><ele>362.0</ele><time>2026-05-03T08:55:52Z</time></trkpt><trkpt lat="46.41926269240452" lon="13.197691011332259"><ele>362.0</ele><time>2026-05-03T08:55:53Z</time></trkpt><trkpt lat="46.419464570621514" lon="13.197749274623465"><ele>362.0</ele><time>2026-05-03T08:55:54Z</time></trkpt><trkpt lat="46.41963727485656" lon="13.197817321093472"><ele>362.0</ele><time>2026-05-03T08:55:55Z</time></trkpt><trkpt lat="46.41979469419587" lon="13.197880613593812"><ele>362.0</ele><time>2026-05-03T08:55:56Z</time></trkpt><trkpt lat="46.41994655277575" lon="13.19794329393172"><ele>360.0</ele><time>2026-05-03T08:55:57Z</time></trkpt><trkpt lat="46.420104545116864" lon="13.198011615766276"><ele>358.0</ele><time>2026-05-03T08:55:58Z</time></trkpt><trkpt lat="46.42026412981809" lon="13.198108106451915"><ele>356.0</ele><time>2026-05-03T08:55:59Z</time></trkpt><trkpt lat="46.42042664944041" lon="13.19824141292638"><ele>359.0</ele><time>2026-05-03T08:56:00Z</time></trkpt><trkpt lat="46.420575547416824" lon="13.19838105321694"><ele>362.0</ele><time>2026-05-03T08:56:01Z</time></trkpt><trkpt lat="46.420708659484866" lon="13.198505796612961"><ele>365.0</ele><time>2026-05-03T08:56:02Z</time></trkpt><trkpt lat="46.42084271970729" lon="13.198627107687493"><ele>365.0</ele><time>2026-05-03T08:56:03Z</time></trkpt><trkpt lat="46.42098167425469" lon="13.198754254269522"><ele>365.0</ele><time>2026-05-03T08:56:04Z</time></trkpt><trkpt lat="46.42112359164098" lon="13.19890713205859"><ele>365.0</ele><time>2026-05-03T08:56:05Z</time></trkpt><trkpt lat="46.421266843473504" lon="13.19910619218153"><ele>372.6666666666667</ele><time>2026-05-03T08:56:06Z</time></trkpt><trkpt lat="46.42140677245733" lon="13.199317203435552"><ele>380.33333333333337</ele><time>2026-05-03T08:56:07Z</time></trkpt><trkpt lat="46.42153296578582" lon="13.199504914107157"><ele>388.0</ele><time>2026-05-03T08:56:08Z</time></trkpt><trkpt lat="46.42164541887872" lon="13.199676509141266"><ele>381.0</ele><time>2026-05-03T08:56:09Z</time></trkpt><trkpt lat="46.421764558124735" lon="13.199848282487537"><ele>374.0</ele><time>2026-05-03T08:56:10Z</time></trkpt><trkpt lat="46.42188225715037" lon="13.200023515032441"><ele>367.0</ele><time>2026-05-03T08:56:11Z</time></trkpt><trkpt lat="46.42198934443088" lon="13.200175658570998"><ele>367.0</ele><time>2026-05-03T08:56:12Z</time></trkpt><trkpt lat="46.42209972425781" lon="13.200325973574094"><ele>367.0</ele><time>2026-05-03T08:56:13Z</time></trkpt><trkpt lat="46.42221127568029" lon="13.200471132773876"><ele>367.0</ele><time>2026-05-03T08:56:14Z</time></trkpt><trkpt lat="46.4223186891411" lon="13.200594835563779"><ele>367.0</ele><time>2026-05-03T08:56:15Z</time></trkpt><trkpt lat="46.42242978782606" lon="13.200696005893843"><ele>369.25</ele><time>2026-05-03T08:56:16Z</time></trkpt><trkpt lat="46.42254289281565" lon="13.200764194686252"><ele>371.5</ele><time>2026-05-03T08:56:17Z</time></trkpt><trkpt lat="46.42266073708503" lon="13.20081587135255"><ele>373.75</ele><time>2026-05-03T08:56:18Z</time></trkpt><trkpt lat="46.42276543753726" lon="13.200861110391298"><ele>376.0</ele><time>2026-05-03T08:56:19Z</time></trkpt><trkpt lat="46.422856205943866" lon="13.200919991786748"><ele>376.0</ele><time>2026-05-03T08:56:20Z</time></trkpt><trkpt lat="46.42293835524546" lon="13.201024014074656"><ele>376.0</ele><time>2026-05-03T08:56:21Z</time></trkpt><trkpt lat="46.42301824026568" lon="13.201188556359641"><ele>376.0</ele><time>2026-05-03T08:56:22Z</time></trkpt><trkpt lat="46.42309826672375" lon="13.201367300510242"><ele>376.0</ele><time>2026-05-03T08:56:23Z</time></trkpt><trkpt lat="46.423166092206635" lon="13.201513503269016"><ele>373.25</ele><time>2026-05-03T08:56:24Z</time></trkpt><trkpt lat="46.423234374977326" lon="13.201649896378312"><ele>370.5</ele><time>2026-05-03T08:56:25Z</time></trkpt><trkpt lat="46.42331335379958" lon="13.201764753761404"><ele>367.75</ele><time>2026-05-03T08:56:26Z</time></trkpt><trkpt lat="46.42341044337779" lon="13.201866175979603"><ele>365.0</ele><time>2026-05-03T08:56:27Z</time></trkpt><trkpt lat="46.423529997258036" lon="13.201933710712"><ele>365.0</ele><time>2026-05-03T08:56:28Z</time></trkpt><trkpt lat="46.42368338599553" lon="13.201963665379301"><ele>365.0</ele><time>2026-05-03T08:56:29Z</time></trkpt><trkpt lat="46.42386577665563" lon="13.201967192829992"><ele>365.0</ele><time>2026-05-03T08:56:30Z</time></trkpt><trkpt lat="46.42406105732853" lon="13.201968538035736"><ele>366.0</ele><time>2026-05-03T08:56:31Z</time></trkpt><trkpt lat="46.42425591760083" lon="13.201982722732673"><ele>367.0</ele><time>2026-05-03T08:56:32Z</time></trkpt><trkpt lat="46.424468323436564" lon="13.20200324477584"><ele>368.0</ele><time>2026-05-03T08:56:33Z</time></trkpt><trkpt lat="46.42465789363116" lon="13.202021688284342"><ele>369.33333333333337</ele><time>2026-05-03T08:56:34Z</time></trkpt><trkpt lat="46.42482780136009" lon="13.202041224642787"><ele>370.6666666666667</ele><time>2026-05-03T08:56:35Z</time></trkpt><trkpt lat="46.42498750126662" lon="13.202058279598596"><ele>372.0</ele><time>2026-05-03T08:56:36Z</time></trkpt><trkpt lat="46.42515216575026" lon="13.202078605419185"><ele>372.0</ele><time>2026-05-03T08:56:37Z</time></trkpt><trkpt lat="46.42532414625937" lon="13.20210468514193"><ele>372.0</ele><time>2026-05-03T08:56:38Z</time></trkpt><trkpt lat="46.425485361615586" lon="13.202132081862178"><ele>372.0</ele><time>2026-05-03T08:56:39Z</time></trkpt><trkpt lat="46.42562506470598" lon="13.202166551657436"><ele>372.0</ele><time>2026-05-03T08:56:40Z</time></trkpt><trkpt lat="46.425775709532715" lon="13.20221690844944"><ele>372.0</ele><time>2026-05-03T08:56:41Z</time></trkpt><trkpt lat="46.42591785659918" lon="13.202281881653544"><ele>372.0</ele><time>2026-05-03T08:56:42Z</time></trkpt><trkpt lat="46.42604465656806" lon="13.20234005260326"><ele>372.0</ele><time>2026-05-03T08:56:43Z</time></trkpt><trkpt lat="46.42616674419007" lon="13.202388653319938"><ele>372.75</ele><time>2026-05-03T08:56:44Z</time></trkpt><trkpt lat="46.42629348501044" lon="13.202419861708863"><ele>373.5</ele><time>2026-05-03T08:56:45Z</time></trkpt><trkpt lat="46.4264331146713" lon="13.202424179605817"><ele>374.25</ele><time>2026-05-03T08:56:46Z</time></trkpt><trkpt lat="46.426586988394" lon="13.202382536856572"><ele>375.0</ele><time>2026-05-03T08:56:47Z</time></trkpt><trkpt lat="46.42676715856508" lon="13.202291077302736"><ele>375.0</ele><time>2026-05-03T08:56:48Z</time></trkpt><trkpt lat="46.42695163606769" lon="13.202179061617228"><ele>375.0</ele><time>2026-05-03T08:56:49Z</time></trkpt><trkpt lat="46.427117086368014" lon="13.202104625648087"><ele>375.0</ele><time>2026-05-03T08:56:50Z</time></trkpt><trkpt lat="46.42729582951025" lon="13.202069853203659"><ele>376.6666666666667</ele><time>2026-05-03T08:56:51Z</time></trkpt><trkpt lat="46.42749754257833" lon="13.202061067993071"><ele>378.33333333333337</ele><time>2026-05-03T08:56:52Z</time></trkpt><trkpt lat="46.427717171293224" lon="13.202043017257818"><ele>380.0</ele><time>2026-05-03T08:56:53Z</time></trkpt><trkpt lat="46.42792848557481" lon="13.202011043389753"><ele>382.0</ele><time>2026-05-03T08:56:54Z</time></trkpt><trkpt lat="46.428115543092595" lon="13.201966881798558"><ele>384.0</ele><time>2026-05-03T08:56:55Z</time></trkpt><trkpt lat="46.42829232112246" lon="13.201903351866239"><ele>386.0</ele><time>2026-05-03T08:56:56Z</time></trkpt><trkpt lat="46.42848125377966" lon="13.20179805708146"><ele>386.0</ele><time>2026-05-03T08:56:57Z</time></trkpt><trkpt lat="46.428682489379995" lon="13.201690061953645"><ele>386.0</ele><time>2026-05-03T08:56:58Z</time></trkpt><trkpt lat="46.4288735872779" lon="13.201595021846998"><ele>386.0</ele><time>2026-05-03T08:56:59Z</time></trkpt><trkpt lat="46.42904373624077" lon="13.2015049521667"><ele>384.66666666666663</ele><time>2026-05-03T08:57:00Z</time></trkpt><trkpt lat="46.429200569133926" lon="13.201424181471742"><ele>383.3333333333333</ele><time>2026-05-03T08:57:01Z</time></trkpt><trkpt lat="46.42934694921855" lon="13.201346500125794"><ele>382.0</ele><time>2026-05-03T08:57:02Z</time></trkpt><trkpt lat="46.429480342772784" lon="13.20127456103859"><ele>382.0</ele><time>2026-05-03T08:57:03Z</time></trkpt><trkpt lat="46.42960589609517" lon="13.20120880551106"><ele>382.0</ele><time>2026-05-03T08:57:04Z</time></trkpt><trkpt lat="46.4297419777458" lon="13.201142978563112"><ele>382.0</ele><time>2026-05-03T08:57:05Z</time></trkpt><trkpt lat="46.429900130572356" lon="13.201074885168518"><ele>382.0</ele><time>2026-05-03T08:57:06Z</time></trkpt><trkpt lat="46.430071895342046" lon="13.201010907573863"><ele>383.3333333333333</ele><time>2026-05-03T08:57:07Z</time></trkpt><trkpt lat="46.43024848135987" lon="13.200949468557736"><ele>384.66666666666663</ele><time>2026-05-03T08:57:08Z</time></trkpt><trkpt lat="46.430411423084614" lon="13.20089108310395"><ele>386.0</ele><time>2026-05-03T08:57:09Z</time></trkpt><trkpt lat="46.430559930705996" lon="13.200837120183364"><ele>387.3333333333333</ele><time>2026-05-03T08:57:10Z</time></trkpt><trkpt lat="46.430702641509946" lon="13.200787016439142"><ele>388.66666666666663</ele><time>2026-05-03T08:57:11Z</time></trkpt><trkpt lat="46.430853964536006" lon="13.20073420677176"><ele>390.0</ele><time>2026-05-03T08:57:12Z</time></trkpt><trkpt lat="46.43100166537737" lon="13.200677651452052"><ele>390.25</ele><time>2026-05-03T08:57:13Z</time></trkpt><trkpt lat="46.43112812875951" lon="13.2006064727003"><ele>390.5</ele><time>2026-05-03T08:57:14Z</time></trkpt><trkpt lat="46.431253524804234" lon="13.200528751558982"><ele>390.75</ele><time>2026-05-03T08:57:15Z</time></trkpt><trkpt lat="46.431384541225036" lon="13.200389978327081"><ele>391.0</ele><time>2026-05-03T08:57:16Z</time></trkpt><trkpt lat="46.4314997982005" lon="13.20022968992192"><ele>391.0</ele><time>2026-05-03T08:57:17Z</time></trkpt><trkpt lat="46.43162141178852" lon="13.200081472259198"><ele>391.0</ele><time>2026-05-03T08:57:18Z</time></trkpt><trkpt lat="46.43173992141584" lon="13.199966703007997"><ele>391.0</ele><time>2026-05-03T08:57:19Z</time></trkpt><trkpt lat="46.43184084106888" lon="13.199842598711612"><ele>391.0</ele><time>2026-05-03T08:57:20Z</time></trkpt><trkpt lat="46.43192848733526" lon="13.199716269662845"><ele>391.25</ele><time>2026-05-03T08:57:21Z</time></trkpt><trkpt lat="46.432036010148266" lon="13.199614671081354"><ele>391.5</ele><time>2026-05-03T08:57:22Z</time></trkpt><trkpt lat="46.43216481121997" lon="13.199522796170038"><ele>391.75</ele><time>2026-05-03T08:57:23Z</time></trkpt><trkpt lat="46.43231562247527" lon="13.199440022748803"><ele>392.0</ele><time>2026-05-03T08:57:24Z</time></trkpt><trkpt lat="46.43247777606549" lon="13.199362432262435"><ele>394.3333333333333</ele><time>2026-05-03T08:57:25Z</time></trkpt><trkpt lat="46.432636465757724" lon="13.199288990619912"><ele>396.66666666666663</ele><time>2026-05-03T08:57:26Z</time></trkpt><trkpt lat="46.43278575508827" lon="13.19922679056267"><ele>399.0</ele><time>2026-05-03T08:57:27Z</time></trkpt><trkpt lat="46.432940937867194" lon="13.19917127579424"><ele>400.0</ele><time>2026-05-03T08:57:28Z</time></trkpt><trkpt lat="46.43310143224193" lon="13.199117745735226"><ele>401.0</ele><time>2026-05-03T08:57:29Z</time></trkpt><trkpt lat="46.433265443888835" lon="13.199064829820847"><ele>402.0</ele><time>2026-05-03T08:57:30Z</time></trkpt><trkpt lat="46.43343066706226" lon="13.19901311155172"><ele>401.33333333333337</ele><time>2026-05-03T08:57:31Z</time></trkpt><trkpt lat="46.43359616485451" lon="13.198963226843038"><ele>400.6666666666667</ele><time>2026-05-03T08:57:32Z</time></trkpt><trkpt lat="46.43377113012453" lon="13.198917312761806"><ele>400.0</ele><time>2026-05-03T08:57:33Z</time></trkpt><trkpt lat="46.43394415411227" lon="13.198867790200618"><ele>400.0</ele><time>2026-05-03T08:57:34Z</time></trkpt><trkpt lat="46.43411796273817" lon="13.198822249631528"><ele>400.0</ele><time>2026-05-03T08:57:35Z</time></trkpt><trkpt lat="46.43429713600321" lon="13.198788381586107"><ele>400.0</ele><time>2026-05-03T08:57:36Z</time></trkpt><trkpt lat="46.43448985108686" lon="13.19876397544632"><ele>401.6666666666667</ele><time>2026-05-03T08:57:37Z</time></trkpt><trkpt lat="46.434672022728996" lon="13.198738030503304"><ele>403.33333333333337</ele><time>2026-05-03T08:57:38Z</time></trkpt><trkpt lat="46.4348432937554" lon="13.198699105052002"><ele>405.0</ele><time>2026-05-03T08:57:39Z</time></trkpt><trkpt lat="46.43502498508537" lon="13.198640012221615"><ele>405.0</ele><time>2026-05-03T08:57:40Z</time></trkpt><trkpt lat="46.435202462779436" lon="13.198575647858455"><ele>405.0</ele><time>2026-05-03T08:57:41Z</time></trkpt><trkpt lat="46.435362486011826" lon="13.19851742796314"><ele>405.0</ele><time>2026-05-03T08:57:42Z</time></trkpt><trkpt lat="46.43552497034264" lon="13.198463080423458"><ele>405.66666666666663</ele><time>2026-05-03T08:57:43Z</time></trkpt><trkpt lat="46.4357102112377" lon="13.19841721051647"><ele>406.3333333333333</ele><time>2026-05-03T08:57:44Z</time></trkpt><trkpt lat="46.43592833934474" lon="13.198385165293514"><ele>407.0</ele><time>2026-05-03T08:57:45Z</time></trkpt><trkpt lat="46.43613767800672" lon="13.198366581819675"><ele>409.66666666666663</ele><time>2026-05-03T08:57:46Z</time></trkpt><trkpt lat="46.43632889766199" lon="13.198349760733375"><ele>412.33333333333337</ele><time>2026-05-03T08:57:47Z</time></trkpt><trkpt lat="46.43652241280829" lon="13.19830900965651"><ele>415.0</ele><time>2026-05-03T08:57:48Z</time></trkpt><trkpt lat="46.43669103794592" lon="13.198253517718747"><ele>415.0</ele><time>2026-05-03T08:57:49Z</time></trkpt><trkpt lat="46.436845240679126" lon="13.198201518483556"><ele>415.0</ele><time>2026-05-03T08:57:50Z</time></trkpt><trkpt lat="46.436991707366694" lon="13.198149667042705"><ele>415.0</ele><time>2026-05-03T08:57:51Z</time></trkpt><trkpt lat="46.437142194832006" lon="13.1980928278087"><ele>416.33333333333337</ele><time>2026-05-03T08:57:52Z</time></trkpt><trkpt lat="46.43729896730381" lon="13.198029606109396"><ele>417.66666666666663</ele><time>2026-05-03T08:57:53Z</time></trkpt><trkpt lat="46.4374381741956" lon="13.197966454973"><ele>419.0</ele><time>2026-05-03T08:57:54Z</time></trkpt><trkpt lat="46.437572874183225" lon="13.197871601802792"><ele>419.0</ele><time>2026-05-03T08:57:55Z</time></trkpt><trkpt lat="46.43771329650434" lon="13.19773262058514"><ele>419.0</ele><time>2026-05-03T08:57:56Z</time></trkpt><trkpt lat="46.43785120177765" lon="13.197579849806093"><ele>419.0</ele><time>2026-05-03T08:57:57Z</time></trkpt><trkpt lat="46.437995095337634" lon="13.197448905459222"><ele>421.66666666666663</ele><time>2026-05-03T08:57:58Z</time></trkpt><trkpt lat="46.43810658007388" lon="13.197279277008708"><ele>424.33333333333337</ele><time>2026-05-03T08:57:59Z</time></trkpt><trkpt lat="46.43822603168758" lon="13.197154006141583"><ele>427.0</ele><time>2026-05-03T08:58:00Z</time></trkpt><trkpt lat="46.43834658392031" lon="13.197007518167567"><ele>427.0</ele><time>2026-05-03T08:58:01Z</time></trkpt><trkpt lat="46.438473482573535" lon="13.19685006927697"><ele>427.0</ele><time>2026-05-03T08:58:02Z</time></trkpt><trkpt lat="46.43859422508863" lon="13.19670570577382"><ele>427.0</ele><time>2026-05-03T08:58:03Z</time></trkpt><trkpt lat="46.43870612095274" lon="13.196575687706716"><ele>429.0</ele><time>2026-05-03T08:58:04Z</time></trkpt><trkpt lat="46.43882421733594" lon="13.196445157440516"><ele>431.0</ele><time>2026-05-03T08:58:05Z</time></trkpt><trkpt lat="46.43895048483049" lon="13.196302192294612"><ele>433.0</ele><time>2026-05-03T08:58:06Z</time></trkpt><trkpt lat="46.43908504142541" lon="13.196153125808292"><ele>433.0</ele><time>2026-05-03T08:58:07Z</time></trkpt><trkpt lat="46.43922914098115" lon="13.196019003476021"><ele>433.0</ele><time>2026-05-03T08:58:08Z</time></trkpt><trkpt lat="46.4393731629169" lon="13.195903372061336"><ele>433.0</ele><time>2026-05-03T08:58:09Z</time></trkpt><trkpt lat="46.439515415091165" lon="13.195790140786379"><ele>434.6666666666667</ele><time>2026-05-03T08:58:10Z</time></trkpt><trkpt lat="46.43966073774473" lon="13.19567222179489"><ele>436.33333333333337</ele><time>2026-05-03T08:58:11Z</time></trkpt><trkpt lat="46.43979674512449" lon="13.19556840057282"><ele>438.0</ele><time>2026-05-03T08:58:12Z</time></trkpt><trkpt lat="46.43992421607807" lon="13.195473925453154"><ele>438.0</ele><time>2026-05-03T08:58:13Z</time></trkpt><trkpt lat="46.44004768313323" lon="13.195378905582167"><ele>438.0</ele><time>2026-05-03T08:58:14Z</time></trkpt><trkpt lat="46.44017402777802" lon="13.195277689798695"><ele>438.0</ele><time>2026-05-03T08:58:15Z</time></trkpt><trkpt lat="46.44030775465373" lon="13.19517597322053"><ele>438.0</ele><time>2026-05-03T08:58:16Z</time></trkpt><trkpt lat="46.440435650444776" lon="13.19507684335696"><ele>435.66666666666663</ele><time>2026-05-03T08:58:17Z</time></trkpt><trkpt lat="46.44057147597805" lon="13.194975683650059"><ele>433.3333333333333</ele><time>2026-05-03T08:58:18Z</time></trkpt><trkpt lat="46.44071820878816" lon="13.194883449760148"><ele>431.0</ele><time>2026-05-03T08:58:19Z</time></trkpt><trkpt lat="46.44087129817152" lon="13.194829503309972"><ele>439.3333333333333</ele><time>2026-05-03T08:58:20Z</time></trkpt><trkpt lat="46.4410313677453" lon="13.194791539050112"><ele>447.66666666666663</ele><time>2026-05-03T08:58:21Z</time></trkpt><trkpt lat="46.441191094772876" lon="13.194745655443105"><ele>456.0</ele><time>2026-05-03T08:58:22Z</time></trkpt><trkpt lat="46.441333514330715" lon="13.194703955430429"><ele>456.25</ele><time>2026-05-03T08:58:23Z</time></trkpt><trkpt lat="46.4414668293007" lon="13.194667872320458"><ele>456.5</ele><time>2026-05-03T08:58:24Z</time></trkpt><trkpt lat="46.441597352216924" lon="13.194630724023703"><ele>456.75</ele><time>2026-05-03T08:58:25Z</time></trkpt><trkpt lat="46.441737986760515" lon="13.194589513464875"><ele>457.0</ele><time>2026-05-03T08:58:26Z</time></trkpt><trkpt lat="46.441884688154104" lon="13.194547745165057"><ele>457.0</ele><time>2026-05-03T08:58:27Z</time></trkpt><trkpt lat="46.442030204929516" lon="13.194504319421467"><ele>457.0</ele><time>2026-05-03T08:58:28Z</time></trkpt><trkpt lat="46.44216786906546" lon="13.194447782207265"><ele>457.0</ele><time>2026-05-03T08:58:29Z</time></trkpt><trkpt lat="46.44229238829265" lon="13.194370355711378"><ele>457.0</ele><time>2026-05-03T08:58:30Z</time></trkpt><trkpt lat="46.44240961988294" lon="13.194271335209022"><ele>453.5</ele><time>2026-05-03T08:58:31Z</time></trkpt><trkpt lat="46.44253401468217" lon="13.194152928993086"><ele>450.0</ele><time>2026-05-03T08:58:32Z</time></trkpt><trkpt lat="46.44265204810179" lon="13.194013102634452"><ele>446.5</ele><time>2026-05-03T08:58:33Z</time></trkpt><trkpt lat="46.442758618678965" lon="13.193881874873146"><ele>443.0</ele><time>2026-05-03T08:58:34Z</time></trkpt><trkpt lat="46.44286022691436" lon="13.19376400412629"><ele>444.5</ele><time>2026-05-03T08:58:35Z</time></trkpt><trkpt lat="46.442966781350094" lon="13.193635741511404"><ele>446.0</ele><time>2026-05-03T08:58:36Z</time></trkpt><trkpt lat="46.44307491693297" lon="13.193511384938631"><ele>447.5</ele><time>2026-05-03T08:58:37Z</time></trkpt><trkpt lat="46.44317189876941" lon="13.19339698086329"><ele>449.0</ele><time>2026-05-03T08:58:38Z</time></trkpt><trkpt lat="46.44326512381355" lon="13.193279942436668"><ele>454.0</ele><time>2026-05-03T08:58:39Z</time></trkpt><trkpt lat="46.44336233653453" lon="13.193149068450877"><ele>459.0</ele><time>2026-05-03T08:58:40Z</time></trkpt><trkpt lat="46.44345793491017" lon="13.192994561936098"><ele>464.0</ele><time>2026-05-03T08:58:41Z</time></trkpt><trkpt lat="46.4435524520194" lon="13.192820188445614"><ele>469.0</ele><time>2026-05-03T08:58:42Z</time></trkpt><trkpt lat="46.44364262156805" lon="13.192626921887195"><ele>469.0</ele><time>2026-05-03T08:58:43Z</time></trkpt><trkpt lat="46.443723014028926" lon="13.19244299240878"><ele>469.0</ele><time>2026-05-03T08:58:44Z</time></trkpt><trkpt lat="46.44379498066124" lon="13.192271766070597"><ele>469.0</ele><time>2026-05-03T08:58:45Z</time></trkpt><trkpt lat="46.44386021411633" lon="13.192116005110684"><ele>469.0</ele><time>2026-05-03T08:58:46Z</time></trkpt><trkpt lat="46.443922938346695" lon="13.191967360722932"><ele>471.75</ele><time>2026-05-03T08:58:47Z</time></trkpt><trkpt lat="46.44398606465168" lon="13.191809665742372"><ele>474.5</ele><time>2026-05-03T08:58:48Z</time></trkpt><trkpt lat="46.44406117881931" lon="13.191632856352589"><ele>477.25</ele><time>2026-05-03T08:58:49Z</time></trkpt><trkpt lat="46.44414686351927" lon="13.191447875120152"><ele>480.0</ele><time>2026-05-03T08:58:50Z</time></trkpt><trkpt lat="46.44424168003206" lon="13.19127188070804"><ele>480.0</ele><time>2026-05-03T08:58:51Z</time></trkpt><trkpt lat="46.44434688182057" lon="13.19110958312619"><ele>480.0</ele><time>2026-05-03T08:58:52Z</time></trkpt><trkpt lat="46.44446488104106" lon="13.190978587918693"><ele>480.0</ele><time>2026-05-03T08:58:53Z</time></trkpt><trkpt lat="46.44460038826117" lon="13.190854316864744"><ele>473.0</ele><time>2026-05-03T08:58:54Z</time></trkpt><trkpt lat="46.44473612375304" lon="13.190738772994703"><ele>466.0</ele><time>2026-05-03T08:58:55Z</time></trkpt><trkpt lat="46.4448608941274" lon="13.190624674311286"><ele>459.0</ele><time>2026-05-03T08:58:56Z</time></trkpt><trkpt lat="46.44498813538483" lon="13.190507214401094"><ele>459.0</ele><time>2026-05-03T08:58:57Z</time></trkpt><trkpt lat="46.44511523522749" lon="13.190391806201998"><ele>459.0</ele><time>2026-05-03T08:58:58Z</time></trkpt><trkpt lat="46.44523438952321" lon="13.190278311954218"><ele>459.0</ele><time>2026-05-03T08:58:59Z</time></trkpt><trkpt lat="46.44533886764837" lon="13.190173268665832"><ele>459.0</ele><time>2026-05-03T08:59:00Z</time></trkpt><trkpt lat="46.445443187783134" lon="13.19007167689642"><ele>461.0</ele><time>2026-05-03T08:59:01Z</time></trkpt><trkpt lat="46.445561710689674" lon="13.189951257437597"><ele>463.0</ele><time>2026-05-03T08:59:02Z</time></trkpt><trkpt lat="46.44568584454618" lon="13.189812849951133"><ele>465.0</ele><time>2026-05-03T08:59:03Z</time></trkpt><trkpt lat="46.44581842768675" lon="13.18966099072132"><ele>465.0</ele><time>2026-05-03T08:59:04Z</time></trkpt><trkpt lat="46.44594853990471" lon="13.189500134034793"><ele>465.0</ele><time>2026-05-03T08:59:05Z</time></trkpt><trkpt lat="46.44607150447762" lon="13.189349333727911"><ele>465.0</ele><time>2026-05-03T08:59:06Z</time></trkpt><trkpt lat="46.44621119593647" lon="13.189166911240095"><ele>465.0</ele><time>2026-05-03T08:59:07Z</time></trkpt><trkpt lat="46.446376048601024" lon="13.188949847912832"><ele>465.0</ele><time>2026-05-03T08:59:08Z</time></trkpt><trkpt lat="46.44656086673276" lon="13.18872007788496"><ele>465.0</ele><time>2026-05-03T08:59:09Z</time></trkpt><trkpt lat="46.44672962849832" lon="13.188510708279214"><ele>465.0</ele><time>2026-05-03T08:59:10Z</time></trkpt><trkpt lat="46.44688379818414" lon="13.18832221404531"><ele>465.0</ele><time>2026-05-03T08:59:11Z</time></trkpt><trkpt lat="46.44703301111372" lon="13.1881423219671"><ele>468.0</ele><time>2026-05-03T08:59:12Z</time></trkpt><trkpt lat="46.44717742299701" lon="13.187969421531761"><ele>471.0</ele><time>2026-05-03T08:59:13Z</time></trkpt><trkpt lat="46.447309740331725" lon="13.187812041832421"><ele>474.0</ele><time>2026-05-03T08:59:14Z</time></trkpt><trkpt lat="46.44743876870226" lon="13.187665122135638"><ele>474.0</ele><time>2026-05-03T08:59:15Z</time></trkpt><trkpt lat="46.44757944792957" lon="13.187534186453084"><ele>474.0</ele><time>2026-05-03T08:59:16Z</time></trkpt><trkpt lat="46.447728196034376" lon="13.187434432434104"><ele>474.0</ele><time>2026-05-03T08:59:17Z</time></trkpt><trkpt lat="46.44786754168619" lon="13.18735640355756"><ele>484.0</ele><time>2026-05-03T08:59:18Z</time></trkpt><trkpt lat="46.44801207634556" lon="13.187300525952699"><ele>494.0</ele><time>2026-05-03T08:59:19Z</time></trkpt><trkpt lat="46.44816324007467" lon="13.187292663889828"><ele>504.0</ele><time>2026-05-03T08:59:20Z</time></trkpt><trkpt lat="46.448318878642624" lon="13.187315639937777"><ele>495.66666666666663</ele><time>2026-05-03T08:59:21Z</time></trkpt><trkpt lat="46.44847411057759" lon="13.187368976100078"><ele>487.3333333333333</ele><time>2026-05-03T08:59:22Z</time></trkpt><trkpt lat="46.448646911507616" lon="13.187447317292108"><ele>479.0</ele><time>2026-05-03T08:59:23Z</time></trkpt><trkpt lat="46.44881355457609" lon="13.18756036955323"><ele>479.0</ele><time>2026-05-03T08:59:24Z</time></trkpt><trkpt lat="46.44896558352843" lon="13.187667782376277"><ele>479.0</ele><time>2026-05-03T08:59:25Z</time></trkpt><trkpt lat="46.44910341973193" lon="13.187749948351174"><ele>479.0</ele><time>2026-05-03T08:59:26Z</time></trkpt><trkpt lat="46.44924071963017" lon="13.187807778297232"><ele>479.0</ele><time>2026-05-03T08:59:27Z</time></trkpt><trkpt lat="46.44938448842623" lon="13.187834725354627"><ele>479.0</ele><time>2026-05-03T08:59:28Z</time></trkpt><trkpt lat="46.44954989556324" lon="13.187819476310818"><ele>479.0</ele><time>2026-05-03T08:59:29Z</time></trkpt><trkpt lat="46.449745869615455" lon="13.187782002340818"><ele>477.3333333333333</ele><time>2026-05-03T08:59:30Z</time></trkpt><trkpt lat="46.4499627039022" lon="13.187737057355907"><ele>475.66666666666663</ele><time>2026-05-03T08:59:31Z</time></trkpt><trkpt lat="46.45018519075867" lon="13.187680810528486"><ele>474.0</ele><time>2026-05-03T08:59:32Z</time></trkpt><trkpt lat="46.450378638742386" lon="13.187627241446751"><ele>473.33333333333337</ele><time>2026-05-03T08:59:33Z</time></trkpt><trkpt lat="46.450555281334466" lon="13.18757117342827"><ele>472.6666666666667</ele><time>2026-05-03T08:59:34Z</time></trkpt><trkpt lat="46.450715607010196" lon="13.187506695598993"><ele>472.0</ele><time>2026-05-03T08:59:35Z</time></trkpt><trkpt lat="46.45087586500699" lon="13.187446142602317"><ele>472.0</ele><time>2026-05-03T08:59:36Z</time></trkpt><trkpt lat="46.451044648379884" lon="13.187397122918942"><ele>472.0</ele><time>2026-05-03T08:59:37Z</time></trkpt><trkpt lat="46.45122585910608" lon="13.187362232197342"><ele>472.0</ele><time>2026-05-03T08:59:38Z</time></trkpt><trkpt lat="46.45141974585349" lon="13.18734405266329"><ele>473.6666666666667</ele><time>2026-05-03T08:59:39Z</time></trkpt><trkpt lat="46.45161404333735" lon="13.187340800076216"><ele>475.33333333333337</ele><time>2026-05-03T08:59:40Z</time></trkpt><trkpt lat="46.45178806204298" lon="13.187351263839533"><ele>477.0</ele><time>2026-05-03T08:59:41Z</time></trkpt><trkpt lat="46.45195677529315" lon="13.187375488734165"><ele>480.0</ele><time>2026-05-03T08:59:42Z</time></trkpt><trkpt lat="46.45213212566164" lon="13.187408661155867"><ele>483.0</ele><time>2026-05-03T08:59:43Z</time></trkpt><trkpt lat="46.45230208730644" lon="13.187443305383091"><ele>486.0</ele><time>2026-05-03T08:59:44Z</time></trkpt><trkpt lat="46.452500284720216" lon="13.187513851781413"><ele>486.0</ele><time>2026-05-03T08:59:45Z</time></trkpt><trkpt lat="46.45269724515377" lon="13.187620560038443"><ele>486.0</ele><time>2026-05-03T08:59:46Z</time></trkpt><trkpt lat="46.45287763970012" lon="13.187719405390055"><ele>486.0</ele><time>2026-05-03T08:59:47Z</time></trkpt><trkpt lat="46.45304965477017" lon="13.187810696834871"><ele>489.0</ele><time>2026-05-03T08:59:48Z</time></trkpt><trkpt lat="46.45321305216579" lon="13.187889933264326"><ele>492.0</ele><time>2026-05-03T08:59:49Z</time></trkpt><trkpt lat="46.45338164510391" lon="13.187950633305693"><ele>495.0</ele><time>2026-05-03T08:59:50Z</time></trkpt><trkpt lat="46.453554888720575" lon="13.187994383204403"><ele>495.0</ele><time>2026-05-03T08:59:51Z</time></trkpt><trkpt lat="46.45371250744522" lon="13.188031890964142"><ele>495.0</ele><time>2026-05-03T08:59:52Z</time></trkpt><trkpt lat="46.453852807159286" lon="13.188067477982791"><ele>495.0</ele><time>2026-05-03T08:59:53Z</time></trkpt><trkpt lat="46.453979078272795" lon="13.188112726340899"><ele>495.0</ele><time>2026-05-03T08:59:54Z</time></trkpt><trkpt lat="46.45409476299919" lon="13.18818304488228"><ele>494.33333333333337</ele><time>2026-05-03T08:59:55Z</time></trkpt><trkpt lat="46.454216062714856" lon="13.188289457280845"><ele>493.6666666666667</ele><time>2026-05-03T08:59:56Z</time></trkpt><trkpt lat="46.45433500202042" lon="13.188442592878367"><ele>493.0</ele><time>2026-05-03T08:59:57Z</time></trkpt><trkpt lat="46.454460536562564" lon="13.188634718633068"><ele>493.0</ele><time>2026-05-03T08:59:58Z</time></trkpt><trkpt lat="46.4545980607852" lon="13.188851765659823"><ele>493.0</ele><time>2026-05-03T08:59:59Z</time></trkpt><trkpt lat="46.454743245097234" lon="13.189074552192189"><ele>493.0</ele><time>2026-05-03T09:00:00Z</time></trkpt><trkpt lat="46.454870128997044" lon="13.189271795019211"><ele>494.33333333333337</ele><time>2026-05-03T09:00:01Z</time></trkpt><trkpt lat="46.454986933608836" lon="13.1894509620759"><ele>495.66666666666663</ele><time>2026-05-03T09:00:02Z</time></trkpt><trkpt lat="46.45509656231603" lon="13.18961460019253"><ele>497.0</ele><time>2026-05-03T09:00:03Z</time></trkpt><trkpt lat="46.455207306911774" lon="13.189781192162712"><ele>494.0</ele><time>2026-05-03T09:00:04Z</time></trkpt><trkpt lat="46.45532174240398" lon="13.189956915459568"><ele>491.0</ele><time>2026-05-03T09:00:05Z</time></trkpt><trkpt lat="46.455436252372046" lon="13.190135864618757"><ele>488.0</ele><time>2026-05-03T09:00:06Z</time></trkpt><trkpt lat="46.45554333324521" lon="13.190287757864809"><ele>493.0</ele><time>2026-05-03T09:00:07Z</time></trkpt><trkpt lat="46.45564706574703" lon="13.190417993882193"><ele>498.0</ele><time>2026-05-03T09:00:08Z</time></trkpt><trkpt lat="46.45575688789685" lon="13.19052510698593"><ele>503.0</ele><time>2026-05-03T09:00:09Z</time></trkpt><trkpt lat="46.455882518435835" lon="13.190614503869153"><ele>508.0</ele><time>2026-05-03T09:00:10Z</time></trkpt><trkpt lat="46.456021912221516" lon="13.190672797503105"><ele>505.5</ele><time>2026-05-03T09:00:11Z</time></trkpt><trkpt lat="46.456168278115236" lon="13.190701363316295"><ele>503.0</ele><time>2026-05-03T09:00:12Z</time></trkpt><trkpt lat="46.45630591703353" lon="13.190704563023624"><ele>500.5</ele><time>2026-05-03T09:00:13Z</time></trkpt><trkpt lat="46.456446565847436" lon="13.190686478606954"><ele>498.0</ele><time>2026-05-03T09:00:14Z</time></trkpt><trkpt lat="46.45659487195686" lon="13.190634106061992"><ele>506.66666666666663</ele><time>2026-05-03T09:00:15Z</time></trkpt><trkpt lat="46.456750682991306" lon="13.190534453531216"><ele>515.3333333333333</ele><time>2026-05-03T09:00:16Z</time></trkpt><trkpt lat="46.456922848546654" lon="13.190410465736868"><ele>524.0</ele><time>2026-05-03T09:00:17Z</time></trkpt><trkpt lat="46.45708863255963" lon="13.19029322233951"><ele>521.3333333333333</ele><time>2026-05-03T09:00:18Z</time></trkpt><trkpt lat="46.45723539339249" lon="13.190191058403022"><ele>518.6666666666666</ele><time>2026-05-03T09:00:19Z</time></trkpt><trkpt lat="46.45736954265708" lon="13.19009024359886"><ele>516.0</ele><time>2026-05-03T09:00:20Z</time></trkpt><trkpt lat="46.4574959312094" lon="13.18999421948481"><ele>516.0</ele><time>2026-05-03T09:00:21Z</time></trkpt><trkpt lat="46.4576230340279" lon="13.189894490033598"><ele>516.0</ele><time>2026-05-03T09:00:22Z</time></trkpt><trkpt lat="46.45775789586626" lon="13.189795042556938"><ele>516.0</ele><time>2026-05-03T09:00:23Z</time></trkpt><trkpt lat="46.457885219636275" lon="13.189719604528475"><ele>516.0</ele><time>2026-05-03T09:00:24Z</time></trkpt><trkpt lat="46.45800981551177" lon="13.189691705043206"><ele>524.0</ele><time>2026-05-03T09:00:25Z</time></trkpt><trkpt lat="46.45815967001147" lon="13.189714715579141"><ele>532.0</ele><time>2026-05-03T09:00:26Z</time></trkpt><trkpt lat="46.458338282230244" lon="13.189761024732308"><ele>540.0</ele><time>2026-05-03T09:00:27Z</time></trkpt><trkpt lat="46.45852925457369" lon="13.189821474353016"><ele>536.0</ele><time>2026-05-03T09:00:28Z</time></trkpt><trkpt lat="46.4587379253532" lon="13.189885394815233"><ele>532.0</ele><time>2026-05-03T09:00:29Z</time></trkpt><trkpt lat="46.45896948328431" lon="13.18995433451109"><ele>532.0</ele><time>2026-05-03T09:00:30Z</time></trkpt><trkpt lat="46.45921262098637" lon="13.19002845528668"><ele>532.0</ele><time>2026-05-03T09:00:31Z</time></trkpt><trkpt lat="46.4594271910048" lon="13.190093180645128"><ele>533.6666666666667</ele><time>2026-05-03T09:00:32Z</time></trkpt><trkpt lat="46.45962510622489" lon="13.190149148999842"><ele>535.3333333333334</ele><time>2026-05-03T09:00:33Z</time></trkpt><trkpt lat="46.45979773677238" lon="13.19019314812133"><ele>537.0</ele><time>2026-05-03T09:00:34Z</time></trkpt><trkpt lat="46.45995572530171" lon="13.190230085286226"><ele>537.0</ele><time>2026-05-03T09:00:35Z</time></trkpt><trkpt lat="46.46011803970866" lon="13.190275691423915"><ele>537.0</ele><time>2026-05-03T09:00:36Z</time></trkpt><trkpt lat="46.46030223968242" lon="13.190350265743463"><ele>537.0</ele><time>2026-05-03T09:00:37Z</time></trkpt><trkpt lat="46.4604557844469" lon="13.190432675419636"><ele>537.6666666666666</ele><time>2026-05-03T09:00:38Z</time></trkpt><trkpt lat="46.46064457181705" lon="13.190506279675082"><ele>538.3333333333333</ele><time>2026-05-03T09:00:39Z</time></trkpt><trkpt lat="46.46078269640236" lon="13.190574330623543"><ele>539.0</ele><time>2026-05-03T09:00:40Z</time></trkpt><trkpt lat="46.46091964156062" lon="13.190642853093149"><ele>536.0</ele><time>2026-05-03T09:00:41Z</time></trkpt><trkpt lat="46.461042419441014" lon="13.19070498011149"><ele>533.0</ele><time>2026-05-03T09:00:42Z</time></trkpt><trkpt lat="46.46114806431351" lon="13.190762740143008"><ele>530.0</ele><time>2026-05-03T09:00:43Z</time></trkpt><trkpt lat="46.461261258249415" lon="13.190829532965404"><ele>527.0</ele><time>2026-05-03T09:00:44Z</time></trkpt><trkpt lat="46.46136399000137" lon="13.190886384320908"><ele>527.0</ele><time>2026-05-03T09:00:45Z</time></trkpt><trkpt lat="46.46147176724923" lon="13.190916145364568"><ele>527.0</ele><time>2026-05-03T09:00:46Z</time></trkpt><trkpt lat="46.461598544174464" lon="13.190900967949982"><ele>527.0</ele><time>2026-05-03T09:00:47Z</time></trkpt><trkpt lat="46.46175340503134" lon="13.190845691626746"><ele>527.0</ele><time>2026-05-03T09:00:48Z</time></trkpt><trkpt lat="46.461931188966346" lon="13.190767026172782"><ele>528.0</ele><time>2026-05-03T09:00:49Z</time></trkpt><trkpt lat="46.46211575160984" lon="13.1906864408197"><ele>529.0</ele><time>2026-05-03T09:00:50Z</time></trkpt><trkpt lat="46.46227327834848" lon="13.19062360546428"><ele>530.0</ele><time>2026-05-03T09:00:51Z</time></trkpt><trkpt lat="46.462417101199904" lon="13.190561177528748"><ele>537.6666666666666</ele><time>2026-05-03T09:00:52Z</time></trkpt><trkpt lat="46.46256831311525" lon="13.190486597639028"><ele>545.3333333333334</ele><time>2026-05-03T09:00:53Z</time></trkpt><trkpt lat="46.46274144894863" lon="13.190412665971232"><ele>553.0</ele><time>2026-05-03T09:00:54Z</time></trkpt><trkpt lat="46.462930010629655" lon="13.19034785061166"><ele>552.5</ele><time>2026-05-03T09:00:55Z</time></trkpt><trkpt lat="46.46308785319773" lon="13.190304424082772"><ele>552.0</ele><time>2026-05-03T09:00:56Z</time></trkpt><trkpt lat="46.463228511914224" lon="13.19027638342688"><ele>551.5</ele><time>2026-05-03T09:00:57Z</time></trkpt><trkpt lat="46.46336013059123" lon="13.190263252335251"><ele>551.0</ele><time>2026-05-03T09:00:58Z</time></trkpt><trkpt lat="46.46348720751091" lon="13.190259088176528"><ele>551.0</ele><time>2026-05-03T09:00:59Z</time></trkpt><trkpt lat="46.463617763796705" lon="13.190272058167652"><ele>551.0</ele><time>2026-05-03T09:01:00Z</time></trkpt><trkpt lat="46.46376556352949" lon="13.190304894683274"><ele>551.0</ele><time>2026-05-03T09:01:01Z</time></trkpt><trkpt lat="46.463926709571346" lon="13.190344196064686"><ele>551.0</ele><time>2026-05-03T09:01:02Z</time></trkpt><trkpt lat="46.46408344208384" lon="13.190371016400324"><ele>554.0</ele><time>2026-05-03T09:01:03Z</time></trkpt><trkpt lat="46.46427373935854" lon="13.190370694088745"><ele>557.0</ele><time>2026-05-03T09:01:04Z</time></trkpt><trkpt lat="46.464503526306196" lon="13.190351302575415"><ele>560.0</ele><time>2026-05-03T09:01:05Z</time></trkpt><trkpt lat="46.46475659432634" lon="13.190321876980493"><ele>562.5</ele><time>2026-05-03T09:01:06Z</time></trkpt><trkpt lat="46.464991077197396" lon="13.190292438749262"><ele>565.0</ele><time>2026-05-03T09:01:07Z</time></trkpt><trkpt lat="46.4652373405718" lon="13.190257082207735"><ele>563.0</ele><time>2026-05-03T09:01:08Z</time></trkpt><trkpt lat="46.46545544619562" lon="13.190226980228426"><ele>561.0</ele><time>2026-05-03T09:01:09Z</time></trkpt><trkpt lat="46.4656576566533" lon="13.19020638018205"><ele>559.0</ele><time>2026-05-03T09:01:10Z</time></trkpt><trkpt lat="46.46585371550231" lon="13.190191100881156"><ele>559.0</ele><time>2026-05-03T09:01:11Z</time></trkpt><trkpt lat="46.466043394827075" lon="13.190192011939542"><ele>559.0</ele><time>2026-05-03T09:01:12Z</time></trkpt><trkpt lat="46.466214147048994" lon="13.190207865898968"><ele>559.0</ele><time>2026-05-03T09:01:13Z</time></trkpt><trkpt lat="46.46636681081419" lon="13.190237837310821"><ele>560.5</ele><time>2026-05-03T09:01:14Z</time></trkpt><trkpt lat="46.466505811119625" lon="13.19026998121303"><ele>562.0</ele><time>2026-05-03T09:01:15Z</time></trkpt><trkpt lat="46.46664398545923" lon="13.190304032183434"><ele>563.5</ele><time>2026-05-03T09:01:16Z</time></trkpt><trkpt lat="46.46679628626976" lon="13.190334993862324"><ele>565.0</ele><time>2026-05-03T09:01:17Z</time></trkpt><trkpt lat="46.46695282237735" lon="13.190378658585132"><ele>568.6666666666667</ele><time>2026-05-03T09:01:18Z</time></trkpt><trkpt lat="46.467117564530625" lon="13.190419797421885"><ele>572.3333333333334</ele><time>2026-05-03T09:01:19Z</time></trkpt><trkpt lat="46.46727393092345" lon="13.190451258492986"><ele>576.0</ele><time>2026-05-03T09:01:20Z</time></trkpt><trkpt lat="46.467410922492796" lon="13.190487179083142"><ele>576.0</ele><time>2026-05-03T09:01:21Z</time></trkpt><trkpt lat="46.46755058522076" lon="13.190541090989647"><ele>576.0</ele><time>2026-05-03T09:01:22Z</time></trkpt><trkpt lat="46.46769167997191" lon="13.190626057137901"><ele>576.0</ele><time>2026-05-03T09:01:23Z</time></trkpt><trkpt lat="46.4678231757361" lon="13.190708524659277"><ele>576.0</ele><time>2026-05-03T09:01:24Z</time></trkpt><trkpt lat="46.4679457152179" lon="13.190753752045527"><ele>575.25</ele><time>2026-05-03T09:01:25Z</time></trkpt><trkpt lat="46.46807348872958" lon="13.19078258611949"><ele>574.5</ele><time>2026-05-03T09:01:26Z</time></trkpt><trkpt lat="46.46821731305961" lon="13.190776020885188"><ele>573.75</ele><time>2026-05-03T09:01:27Z</time></trkpt><trkpt lat="46.46837943247248" lon="13.190741548449878"><ele>573.0</ele><time>2026-05-03T09:01:28Z</time></trkpt><trkpt lat="46.46855247171589" lon="13.190697797531072"><ele>578.0</ele><time>2026-05-03T09:01:29Z</time></trkpt><trkpt lat="46.46872398695959" lon="13.190651065856901"><ele>583.0</ele><time>2026-05-03T09:01:30Z</time></trkpt><trkpt lat="46.468877670683" lon="13.190608455149928"><ele>588.0</ele><time>2026-05-03T09:01:31Z</time></trkpt><trkpt lat="46.469021727319415" lon="13.190582871436147"><ele>589.0</ele><time>2026-05-03T09:01:32Z</time></trkpt><trkpt lat="46.469170834015614" lon="13.190576014724986"><ele>590.0</ele><time>2026-05-03T09:01:33Z</time></trkpt><trkpt lat="46.46933271302392" lon="13.190592217974558"><ele>591.0</ele><time>2026-05-03T09:01:34Z</time></trkpt><trkpt lat="46.469516585510995" lon="13.19063668557022"><ele>588.3333333333334</ele><time>2026-05-03T09:01:35Z</time></trkpt><trkpt lat="46.46971723306278" lon="13.19069192715455"><ele>585.6666666666667</ele><time>2026-05-03T09:01:36Z</time></trkpt><trkpt lat="46.46990309174501" lon="13.190732220000749"><ele>583.0</ele><time>2026-05-03T09:01:37Z</time></trkpt><trkpt lat="46.470068034864994" lon="13.19076978927932"><ele>583.0</ele><time>2026-05-03T09:01:38Z</time></trkpt><trkpt lat="46.470220157909395" lon="13.190806397601856"><ele>583.0</ele><time>2026-05-03T09:01:39Z</time></trkpt><trkpt lat="46.47036689890855" lon="13.190837536713651"><ele>583.0</ele><time>2026-05-03T09:01:40Z</time></trkpt><trkpt lat="46.4705287758501" lon="13.19087472883035"><ele>582.0</ele><time>2026-05-03T09:01:41Z</time></trkpt><trkpt lat="46.470683447652064" lon="13.190909224139455"><ele>581.0</ele><time>2026-05-03T09:01:42Z</time></trkpt><trkpt lat="46.470820431387224" lon="13.190939234623013"><ele>580.0</ele><time>2026-05-03T09:01:43Z</time></trkpt><trkpt lat="46.47094661904878" lon="13.190969437598437"><ele>579.0</ele><time>2026-05-03T09:01:44Z</time></trkpt><trkpt lat="46.47106545598407" lon="13.191002470598217"><ele>579.0</ele><time>2026-05-03T09:01:45Z</time></trkpt><trkpt lat="46.471180608061985" lon="13.191027371768435"><ele>579.0</ele><time>2026-05-03T09:01:46Z</time></trkpt><trkpt lat="46.47130714753517" lon="13.19102890089274"><ele>579.0</ele><time>2026-05-03T09:01:47Z</time></trkpt><trkpt lat="46.47144534708295" lon="13.191007840640754"><ele>579.0</ele><time>2026-05-03T09:01:48Z</time></trkpt><trkpt lat="46.47159660960043" lon="13.190976167924779"><ele>581.0</ele><time>2026-05-03T09:01:49Z</time></trkpt><trkpt lat="46.4717563802977" lon="13.190933019982534"><ele>583.0</ele><time>2026-05-03T09:01:50Z</time></trkpt><trkpt lat="46.47192457624271" lon="13.190890594242662"><ele>585.0</ele><time>2026-05-03T09:01:51Z</time></trkpt><trkpt lat="46.47208965385554" lon="13.19084578077304"><ele>583.6666666666666</ele><time>2026-05-03T09:01:52Z</time></trkpt><trkpt lat="46.47223756176368" lon="13.190797452886775"><ele>582.3333333333333</ele><time>2026-05-03T09:01:53Z</time></trkpt><trkpt lat="46.47238532590367" lon="13.190750093812245"><ele>581.0</ele><time>2026-05-03T09:01:54Z</time></trkpt><trkpt lat="46.47254210084832" lon="13.190699949923006"><ele>590.3333333333333</ele><time>2026-05-03T09:01:55Z</time></trkpt><trkpt lat="46.4727007193332" lon="13.19064622424435"><ele>599.6666666666666</ele><time>2026-05-03T09:01:56Z</time></trkpt><trkpt lat="46.472853771817995" lon="13.19059111204042"><ele>609.0</ele><time>2026-05-03T09:01:57Z</time></trkpt><trkpt lat="46.47299553003768" lon="13.190544081129689"><ele>609.75</ele><time>2026-05-03T09:01:58Z</time></trkpt><trkpt lat="46.473126133732556" lon="13.190504713626806"><ele>610.5</ele><time>2026-05-03T09:01:59Z</time></trkpt><trkpt lat="46.4732538169302" lon="13.190480282099612"><ele>611.25</ele><time>2026-05-03T09:02:00Z</time></trkpt><trkpt lat="46.47338214815729" lon="13.190473926513619"><ele>612.0</ele><time>2026-05-03T09:02:01Z</time></trkpt><trkpt lat="46.47350919445744" lon="13.190479084933132"><ele>612.0</ele><time>2026-05-03T09:02:02Z</time></trkpt><trkpt lat="46.47364185905783" lon="13.190496147745376"><ele>612.0</ele><time>2026-05-03T09:02:03Z</time></trkpt><trkpt lat="46.473783303294084" lon="13.190521858657933"><ele>612.0</ele><time>2026-05-03T09:02:04Z</time></trkpt><trkpt lat="46.47392153644686" lon="13.19056170975479"><ele>612.0</ele><time>2026-05-03T09:02:05Z</time></trkpt><trkpt lat="46.47404460575353" lon="13.19060611284018"><ele>609.25</ele><time>2026-05-03T09:02:06Z</time></trkpt><trkpt lat="46.474170015837466" lon="13.190625740691434"><ele>606.5</ele><time>2026-05-03T09:02:07Z</time></trkpt><trkpt lat="46.47429886167086" lon="13.19062119572826"><ele>603.75</ele><time>2026-05-03T09:02:08Z</time></trkpt><trkpt lat="46.4744333275552" lon="13.190575484937993"><ele>601.0</ele><time>2026-05-03T09:02:09Z</time></trkpt><trkpt lat="46.474575908165185" lon="13.190500360827109"><ele>597.3333333333334</ele><time>2026-05-03T09:02:10Z</time></trkpt><trkpt lat="46.47470566406741" lon="13.190397504094866"><ele>593.6666666666666</ele><time>2026-05-03T09:02:11Z</time></trkpt><trkpt lat="46.4748512258073" lon="13.190244920589455"><ele>590.0</ele><time>2026-05-03T09:02:12Z</time></trkpt><trkpt lat="46.47499880228584" lon="13.190091413587052"><ele>590.0</ele><time>2026-05-03T09:02:13Z</time></trkpt><trkpt lat="46.47513423058482" lon="13.189951983651705"><ele>590.0</ele><time>2026-05-03T09:02:14Z</time></trkpt><trkpt lat="46.47526002819601" lon="13.189824261026175"><ele>590.0</ele><time>2026-05-03T09:02:15Z</time></trkpt><trkpt lat="46.47537257401841" lon="13.189703566201748"><ele>594.5</ele><time>2026-05-03T09:02:16Z</time></trkpt><trkpt lat="46.475481268484444" lon="13.189592297534087"><ele>599.0</ele><time>2026-05-03T09:02:17Z</time></trkpt><trkpt lat="46.475586594076894" lon="13.18948314686703"><ele>603.5</ele><time>2026-05-03T09:02:18Z</time></trkpt><trkpt lat="46.475690164712425" lon="13.189377859505104"><ele>608.0</ele><time>2026-05-03T09:02:19Z</time></trkpt><trkpt lat="46.475786085790055" lon="13.189283658155125"><ele>608.0</ele><time>2026-05-03T09:02:20Z</time></trkpt><trkpt lat="46.475894728665125" lon="13.189225338440234"><ele>608.0</ele><time>2026-05-03T09:02:21Z</time></trkpt><trkpt lat="46.47601206244971" lon="13.189216125362654"><ele>608.0</ele><time>2026-05-03T09:02:22Z</time></trkpt><trkpt lat="46.47614224658157" lon="13.189223514787205"><ele>608.0</ele><time>2026-05-03T09:02:23Z</time></trkpt><trkpt lat="46.476229774594216" lon="13.189251679256383"><ele>608.6</ele><time>2026-05-03T09:02:24Z</time></trkpt><trkpt lat="46.47630341404808" lon="13.189379259939363"><ele>609.1999999999999</ele><time>2026-05-03T09:02:25Z</time></trkpt><trkpt lat="46.47636273763158" lon="13.18950850990464"><ele>609.8</ele><time>2026-05-03T09:02:26Z</time></trkpt><trkpt lat="46.47644442978787" lon="13.189573600922952"><ele>610.4</ele><time>2026-05-03T09:02:27Z</time></trkpt><trkpt lat="46.47652299150031" lon="13.189599243706011"><ele>611.0</ele><time>2026-05-03T09:02:28Z</time></trkpt><trkpt lat="46.476584524506045" lon="13.189629342603281"><ele>611.0</ele><time>2026-05-03T09:02:29Z</time></trkpt><trkpt lat="46.47666833942352" lon="13.18964623141523"><ele>611.0</ele><time>2026-05-03T09:02:30Z</time></trkpt><trkpt lat="46.47675688951067" lon="13.189680282394688"><ele>611.0</ele><time>2026-05-03T09:02:31Z</time></trkpt><trkpt lat="46.47685715363874" lon="13.189704200623856"><ele>611.0</ele><time>2026-05-03T09:02:32Z</time></trkpt><trkpt lat="46.47697125046728" lon="13.189729225397745"><ele>611.0</ele><time>2026-05-03T09:02:33Z</time></trkpt><trkpt lat="46.47710005001853" lon="13.18970961878314"><ele>612.25</ele><time>2026-05-03T09:02:34Z</time></trkpt><trkpt lat="46.47723126392151" lon="13.189648705496722"><ele>613.5</ele><time>2026-05-03T09:02:35Z</time></trkpt><trkpt lat="46.47737173384097" lon="13.189539926129946"><ele>614.75</ele><time>2026-05-03T09:02:36Z</time></trkpt><trkpt lat="46.47749186354295" lon="13.189424995378332"><ele>616.0</ele><time>2026-05-03T09:02:37Z</time></trkpt><trkpt lat="46.47759743994791" lon="13.18935495177543"><ele>616.0</ele><time>2026-05-03T09:02:38Z</time></trkpt><trkpt lat="46.4777058908965" lon="13.189324620761395"><ele>616.0</ele><time>2026-05-03T09:02:39Z</time></trkpt><trkpt lat="46.47783167545225" lon="13.189331848607573"><ele>616.0</ele><time>2026-05-03T09:02:40Z</time></trkpt><trkpt lat="46.477975633663405" lon="13.189369729806339"><ele>616.0</ele><time>2026-05-03T09:02:41Z</time></trkpt><trkpt lat="46.47812681711256" lon="13.189398410320198"><ele>615.4</ele><time>2026-05-03T09:02:42Z</time></trkpt><trkpt lat="46.47826719143548" lon="13.1893934371271"><ele>614.8</ele><time>2026-05-03T09:02:43Z</time></trkpt><trkpt lat="46.47837921230007" lon="13.189381113547336"><ele>614.1999999999999</ele><time>2026-05-03T09:02:44Z</time></trkpt><trkpt lat="46.47847870222571" lon="13.18937829106062"><ele>613.6</ele><time>2026-05-03T09:02:45Z</time></trkpt><trkpt lat="46.4785633562784" lon="13.189376032280974"><ele>613.0</ele><time>2026-05-03T09:02:46Z</time></trkpt><trkpt lat="46.47863640599122" lon="13.189380926223203"><ele>613.0</ele><time>2026-05-03T09:02:47Z</time></trkpt><trkpt lat="46.47873916979413" lon="13.189424866087569"><ele>613.0</ele><time>2026-05-03T09:02:48Z</time></trkpt><trkpt lat="46.47886072739876" lon="13.189497617651407"><ele>613.0</ele><time>2026-05-03T09:02:49Z</time></trkpt><trkpt lat="46.47900225416609" lon="13.189559483342691"><ele>613.0</ele><time>2026-05-03T09:02:50Z</time></trkpt><trkpt lat="46.47914136334605" lon="13.189607036993111"><ele>613.75</ele><time>2026-05-03T09:02:51Z</time></trkpt><trkpt lat="46.479257947338986" lon="13.189647823004657"><ele>614.5</ele><time>2026-05-03T09:02:51.999Z</time></trkpt><trkpt lat="46.47936859822155" lon="13.189681615476406"><ele>615.25</ele><time>2026-05-03T09:02:52.999Z</time></trkpt><trkpt lat="46.47948067516363" lon="13.189694099157782"><ele>616.0</ele><time>2026-05-03T09:02:54Z</time></trkpt><trkpt lat="46.47960346020402" lon="13.189668904836772"><ele>617.3333333333334</ele><time>2026-05-03T09:02:55Z</time></trkpt><trkpt lat="46.4797399132518" lon="13.189604244646869"><ele>618.6666666666666</ele><time>2026-05-03T09:02:56Z</time></trkpt><trkpt lat="46.4798820448159" lon="13.189499414996556"><ele>620.0</ele><time>2026-05-03T09:02:57Z</time></trkpt><trkpt lat="46.480022867271984" lon="13.189377318817327"><ele>620.0</ele><time>2026-05-03T09:02:58Z</time></trkpt><trkpt lat="46.480157173410156" lon="13.189255877688996"><ele>620.0</ele><time>2026-05-03T09:02:59Z</time></trkpt><trkpt lat="46.48029747269796" lon="13.189139314320805"><ele>620.0</ele><time>2026-05-03T09:03:00Z</time></trkpt><trkpt lat="46.480423961307274" lon="13.189047906125804"><ele>620.75</ele><time>2026-05-03T09:03:01Z</time></trkpt><trkpt lat="46.4805443405618" lon="13.188986612065557"><ele>621.5</ele><time>2026-05-03T09:03:02Z</time></trkpt><trkpt lat="46.48067150323277" lon="13.188972775623867"><ele>622.25</ele><time>2026-05-03T09:03:03Z</time></trkpt><trkpt lat="46.48081956690595" lon="13.188999319047818"><ele>623.0</ele><time>2026-05-03T09:03:04Z</time></trkpt><trkpt lat="46.48097698677542" lon="13.189016706376902"><ele>623.0</ele><time>2026-05-03T09:03:05Z</time></trkpt><trkpt lat="46.481126230630395" lon="13.189035543931716"><ele>623.0</ele><time>2026-05-03T09:03:06Z</time></trkpt><trkpt lat="46.48125741322574" lon="13.189061238609638"><ele>623.0</ele><time>2026-05-03T09:03:07Z</time></trkpt><trkpt lat="46.48138584176858" lon="13.189097870955107"><ele>623.0</ele><time>2026-05-03T09:03:08Z</time></trkpt><trkpt lat="46.48151851846755" lon="13.189155187526758"><ele>624.0</ele><time>2026-05-03T09:03:09Z</time></trkpt><trkpt lat="46.48164805501814" lon="13.189229497376681"><ele>625.0</ele><time>2026-05-03T09:03:10Z</time></trkpt><trkpt lat="46.481778455585626" lon="13.189315528488212"><ele>626.0</ele><time>2026-05-03T09:03:11Z</time></trkpt><trkpt lat="46.48189675242081" lon="13.189406410097405"><ele>627.0</ele><time>2026-05-03T09:03:12Z</time></trkpt><trkpt lat="46.48199947559078" lon="13.189513124952844"><ele>627.5</ele><time>2026-05-03T09:03:13Z</time></trkpt><trkpt lat="46.48210521069542" lon="13.189618896656565"><ele>628.0</ele><time>2026-05-03T09:03:14Z</time></trkpt><trkpt lat="46.48221201004481" lon="13.189742470789868"><ele>628.5</ele><time>2026-05-03T09:03:15Z</time></trkpt><trkpt lat="46.482308883178966" lon="13.189885672861164"><ele>629.0</ele><time>2026-05-03T09:03:16Z</time></trkpt><trkpt lat="46.482393867485605" lon="13.190042156429742"><ele>629.0</ele><time>2026-05-03T09:03:17Z</time></trkpt><trkpt lat="46.48246003702468" lon="13.190210272594259"><ele>629.0</ele><time>2026-05-03T09:03:18Z</time></trkpt><trkpt lat="46.48252269279572" lon="13.190385280827318"><ele>629.0</ele><time>2026-05-03T09:03:19Z</time></trkpt><trkpt lat="46.482582817044744" lon="13.190543509713557"><ele>629.0</ele><time>2026-05-03T09:03:20Z</time></trkpt><trkpt lat="46.48264269770219" lon="13.190682260469142"><ele>627.75</ele><time>2026-05-03T09:03:21Z</time></trkpt><trkpt lat="46.482703733444644" lon="13.190812347275285"><ele>626.5</ele><time>2026-05-03T09:03:22Z</time></trkpt><trkpt lat="46.48279494654803" lon="13.190920650111885"><ele>625.25</ele><time>2026-05-03T09:03:23Z</time></trkpt><trkpt lat="46.482905833737235" lon="13.191006467412729"><ele>624.0</ele><time>2026-05-03T09:03:24Z</time></trkpt><trkpt lat="46.483028723241425" lon="13.191098366270793"><ele>626.0</ele><time>2026-05-03T09:03:25Z</time></trkpt><trkpt lat="46.483151560984446" lon="13.191216250944272"><ele>628.0</ele><time>2026-05-03T09:03:26Z</time></trkpt><trkpt lat="46.48326484516446" lon="13.191348094755638"><ele>630.0</ele><time>2026-05-03T09:03:27Z</time></trkpt><trkpt lat="46.48335523444732" lon="13.191482664338682"><ele>632.0</ele><time>2026-05-03T09:03:28Z</time></trkpt><trkpt lat="46.48344074449311" lon="13.191606301312975"><ele>632.0</ele><time>2026-05-03T09:03:29Z</time></trkpt><trkpt lat="46.48353581683339" lon="13.191738413816362"><ele>632.0</ele><time>2026-05-03T09:03:30Z</time></trkpt><trkpt lat="46.4836362853055" lon="13.191883599273641"><ele>632.0</ele><time>2026-05-03T09:03:31Z</time></trkpt><trkpt lat="46.48373255555454" lon="13.192033776018501"><ele>632.0</ele><time>2026-05-03T09:03:32.001Z</time></trkpt><trkpt lat="46.48382086837054" lon="13.192166392602191"><ele>632.25</ele><time>2026-05-03T09:03:33.001Z</time></trkpt><trkpt lat="46.483901619573906" lon="13.192309424781866"><ele>632.5</ele><time>2026-05-03T09:03:34.001Z</time></trkpt><trkpt lat="46.48398237036491" lon="13.192475695741148"><ele>632.75</ele><time>2026-05-03T09:03:35.001Z</time></trkpt><trkpt lat="46.48406121555222" lon="13.192645096397952"><ele>633.0</ele><time>2026-05-03T09:03:36.001Z</time></trkpt><trkpt lat="46.48414630422979" lon="13.192778200476587"><ele>633.0</ele><time>2026-05-03T09:03:37.001Z</time></trkpt><trkpt lat="46.48424242670336" lon="13.192876217680837"><ele>633.0</ele><time>2026-05-03T09:03:38.001Z</time></trkpt><trkpt lat="46.484346733868115" lon="13.19295651203367"><ele>633.0</ele><time>2026-05-03T09:03:39.001Z</time></trkpt><trkpt lat="46.48445843330419" lon="13.19301139509393"><ele>633.0</ele><time>2026-05-03T09:03:40.001Z</time></trkpt><trkpt lat="46.48457300244022" lon="13.193036086090748"><ele>637.5</ele><time>2026-05-03T09:03:41.001Z</time></trkpt><trkpt lat="46.4846947528789" lon="13.193040832850146"><ele>642.0</ele><time>2026-05-03T09:03:42.001Z</time></trkpt><trkpt lat="46.48482504286628" lon="13.193029421830653"><ele>646.5</ele><time>2026-05-03T09:03:43.001Z</time></trkpt><trkpt lat="46.484952985312546" lon="13.192993186920834"><ele>651.0</ele><time>2026-05-03T09:03:44.001Z</time></trkpt><trkpt lat="46.48507288710192" lon="13.19295475877723"><ele>651.0</ele><time>2026-05-03T09:03:45.001Z</time></trkpt><trkpt lat="46.485179179975155" lon="13.192934304190214"><ele>651.0</ele><time>2026-05-03T09:03:46.001Z</time></trkpt><trkpt lat="46.48528752541665" lon="13.192928174703898"><ele>651.0</ele><time>2026-05-03T09:03:47.001Z</time></trkpt><trkpt lat="46.48540891182818" lon="13.192944703809763"><ele>651.0</ele><time>2026-05-03T09:03:48.001Z</time></trkpt><trkpt lat="46.48553261443119" lon="13.19298511022655"><ele>651.75</ele><time>2026-05-03T09:03:49.001Z</time></trkpt><trkpt lat="46.48565164544823" lon="13.193064967085453"><ele>652.5</ele><time>2026-05-03T09:03:50.001Z</time></trkpt><trkpt lat="46.48575963391975" lon="13.193175010565236"><ele>653.25</ele><time>2026-05-03T09:03:51.001Z</time></trkpt><trkpt lat="46.48586631930577" lon="13.19329227722687"><ele>654.0</ele><time>2026-05-03T09:03:52.001Z</time></trkpt><trkpt lat="46.48597314419836" lon="13.193406505286593"><ele>654.0</ele><time>2026-05-03T09:03:53.001Z</time></trkpt><trkpt lat="46.48608966629144" lon="13.19351365807586"><ele>654.0</ele><time>2026-05-03T09:03:54.001Z</time></trkpt><trkpt lat="46.48620634126101" lon="13.19361900719259"><ele>654.0</ele><time>2026-05-03T09:03:55.001Z</time></trkpt><trkpt lat="46.48631018337216" lon="13.193715224166242"><ele>654.0</ele><time>2026-05-03T09:03:56.001Z</time></trkpt><trkpt lat="46.48640565046348" lon="13.193805986513715"><ele>654.0</ele><time>2026-05-03T09:03:57.001Z</time></trkpt><trkpt lat="46.48651308510494" lon="13.193912486943391"><ele>654.0</ele><time>2026-05-03T09:03:58.001Z</time></trkpt><trkpt lat="46.48662664434713" lon="13.194026668481582"><ele>654.0</ele><time>2026-05-03T09:03:59.001Z</time></trkpt><trkpt lat="46.486735905104204" lon="13.194131602461903"><ele>654.0</ele><time>2026-05-03T09:04:00.001Z</time></trkpt><trkpt lat="46.48683463956381" lon="13.194215426596726"><ele>652.25</ele><time>2026-05-03T09:04:01.001Z</time></trkpt><trkpt lat="46.48694282342621" lon="13.194269415833356"><ele>650.5</ele><time>2026-05-03T09:04:02.001Z</time></trkpt><trkpt lat="46.48707151271384" lon="13.194289145840406"><ele>648.75</ele><time>2026-05-03T09:04:03.001Z</time></trkpt><trkpt lat="46.48720863070124" lon="13.194309731424703"><ele>647.0</ele><time>2026-05-03T09:04:04.001Z</time></trkpt><trkpt lat="46.48733273890442" lon="13.19433606753425"><ele>647.0</ele><time>2026-05-03T09:04:05.001Z</time></trkpt><trkpt lat="46.48744747861869" lon="13.194359879037803"><ele>647.0</ele><time>2026-05-03T09:04:06.001Z</time></trkpt><trkpt lat="46.4875665506104" lon="13.194391389557278"><ele>647.0</ele><time>2026-05-03T09:04:07.001Z</time></trkpt><trkpt lat="46.48769093574922" lon="13.194430937610877"><ele>647.0</ele><time>2026-05-03T09:04:08.001Z</time></trkpt><trkpt lat="46.48781639567968" lon="13.194480133676887"><ele>649.5</ele><time>2026-05-03T09:04:09.001Z</time></trkpt><trkpt lat="46.48794565200817" lon="13.19453208269869"><ele>652.0</ele><time>2026-05-03T09:04:10.001Z</time></trkpt><trkpt lat="46.48806738433539" lon="13.194586420427786"><ele>654.5</ele><time>2026-05-03T09:04:11.001Z</time></trkpt><trkpt lat="46.48818456000521" lon="13.194632457053164"><ele>657.0</ele><time>2026-05-03T09:04:12.001Z</time></trkpt><trkpt lat="46.488304644923026" lon="13.194677944183349"><ele>657.0</ele><time>2026-05-03T09:04:13.001Z</time></trkpt><trkpt lat="46.48842866042757" lon="13.194755937472262"><ele>657.0</ele><time>2026-05-03T09:04:14.001Z</time></trkpt><trkpt lat="46.48854925043276" lon="13.194866619750789"><ele>657.0</ele><time>2026-05-03T09:04:15.001Z</time></trkpt><trkpt lat="46.4886660678558" lon="13.194982683144511"><ele>657.0</ele><time>2026-05-03T09:04:16.001Z</time></trkpt><trkpt lat="46.488769093187436" lon="13.195090188534788"><ele>657.25</ele><time>2026-05-03T09:04:17.001Z</time></trkpt><trkpt lat="46.48885420272811" lon="13.195205304667551"><ele>657.5</ele><time>2026-05-03T09:04:18.001Z</time></trkpt><trkpt lat="46.488926072787756" lon="13.195344804293024"><ele>657.75</ele><time>2026-05-03T09:04:19.001Z</time></trkpt><trkpt lat="46.488994887860756" lon="13.195506385780375"><ele>658.0</ele><time>2026-05-03T09:04:20.001Z</time></trkpt><trkpt lat="46.48906076973454" lon="13.195675007594273"><ele>655.0</ele><time>2026-05-03T09:04:21.001Z</time></trkpt><trkpt lat="46.48913224454282" lon="13.195842146671184"><ele>652.0</ele><time>2026-05-03T09:04:22.001Z</time></trkpt><trkpt lat="46.489205786220616" lon="13.195997501690574"><ele>649.0</ele><time>2026-05-03T09:04:23Z</time></trkpt><trkpt lat="46.489277833623085" lon="13.19615724911885"><ele>646.0</ele><time>2026-05-03T09:04:24Z</time></trkpt><trkpt lat="46.489355840857776" lon="13.19633003900354"><ele>646.0</ele><time>2026-05-03T09:04:25Z</time></trkpt><trkpt lat="46.48943550443364" lon="13.196499169055826"><ele>646.0</ele><time>2026-05-03T09:04:26Z</time></trkpt><trkpt lat="46.48952402338802" lon="13.196682997890937"><ele>646.0</ele><time>2026-05-03T09:04:27Z</time></trkpt><trkpt lat="46.48960662909981" lon="13.196872621198905"><ele>648.75</ele><time>2026-05-03T09:04:28Z</time></trkpt><trkpt lat="46.489679661921336" lon="13.197045237950748"><ele>651.5</ele><time>2026-05-03T09:04:29Z</time></trkpt><trkpt lat="46.489746463990016" lon="13.19719519135111"><ele>654.25</ele><time>2026-05-03T09:04:30Z</time></trkpt><trkpt lat="46.48980853159413" lon="13.197336377181909"><ele>657.0</ele><time>2026-05-03T09:04:31Z</time></trkpt><trkpt lat="46.48987715028979" lon="13.197495984430352"><ele>657.0</ele><time>2026-05-03T09:04:32Z</time></trkpt><trkpt lat="46.48995587734649" lon="13.197670852056282"><ele>657.0</ele><time>2026-05-03T09:04:33Z</time></trkpt><trkpt lat="46.490046724341425" lon="13.197857657905939"><ele>657.0</ele><time>2026-05-03T09:04:34Z</time></trkpt><trkpt lat="46.49013356994826" lon="13.19804897411643"><ele>656.5</ele><time>2026-05-03T09:04:35Z</time></trkpt><trkpt lat="46.49020884571698" lon="13.198259092898647"><ele>656.0</ele><time>2026-05-03T09:04:36Z</time></trkpt><trkpt lat="46.490269138156684" lon="13.198442730123782"><ele>655.5</ele><time>2026-05-03T09:04:37Z</time></trkpt><trkpt lat="46.49032096057483" lon="13.19861417161131"><ele>655.0</ele><time>2026-05-03T09:04:38Z</time></trkpt><trkpt lat="46.49037627982973" lon="13.198762656230201"><ele>660.0</ele><time>2026-05-03T09:04:39Z</time></trkpt><trkpt lat="46.49042899921958" lon="13.19890396843379"><ele>665.0</ele><time>2026-05-03T09:04:40Z</time></trkpt><trkpt lat="46.490479818060564" lon="13.199041079469936"><ele>670.0</ele><time>2026-05-03T09:04:41Z</time></trkpt><trkpt lat="46.490529455883404" lon="13.199191010635046"><ele>675.0</ele><time>2026-05-03T09:04:42Z</time></trkpt><trkpt lat="46.490559800545924" lon="13.199363058239049"><ele>675.0</ele><time>2026-05-03T09:04:43Z</time></trkpt><trkpt lat="46.49058325908182" lon="13.19953387594628"><ele>675.0</ele><time>2026-05-03T09:04:44Z</time></trkpt><trkpt lat="46.490621908362215" lon="13.199683026587646"><ele>675.0</ele><time>2026-05-03T09:04:45Z</time></trkpt><trkpt lat="46.4906790126994" lon="13.199819578333639"><ele>675.0</ele><time>2026-05-03T09:04:46Z</time></trkpt><trkpt lat="46.490736228828354" lon="13.199947364679717"><ele>675.0</ele><time>2026-05-03T09:04:47Z</time></trkpt><trkpt lat="46.490787794988584" lon="13.200050853596931"><ele>672.8</ele><time>2026-05-03T09:04:48Z</time></trkpt><trkpt lat="46.490838467393786" lon="13.200170721254528"><ele>670.6</ele><time>2026-05-03T09:04:49Z</time></trkpt><trkpt lat="46.49089469052061" lon="13.200292337623983"><ele>668.4000000000001</ele><time>2026-05-03T09:04:50Z</time></trkpt><trkpt lat="46.490946965330636" lon="13.200407323973645"><ele>666.2</ele><time>2026-05-03T09:04:51Z</time></trkpt><trkpt lat="46.49100360997493" lon="13.200491993402004"><ele>664.0</ele><time>2026-05-03T09:04:52Z</time></trkpt><trkpt lat="46.4910868525191" lon="13.200550615363262"><ele>664.0</ele><time>2026-05-03T09:04:53Z</time></trkpt><trkpt lat="46.49118843307566" lon="13.200585066878881"><ele>664.0</ele><time>2026-05-03T09:04:54Z</time></trkpt><trkpt lat="46.49129863817696" lon="13.200604167063984"><ele>664.0</ele><time>2026-05-03T09:04:55Z</time></trkpt><trkpt lat="46.49141977820476" lon="13.20060728395333"><ele>664.0</ele><time>2026-05-03T09:04:56Z</time></trkpt><trkpt lat="46.49155064990134" lon="13.20060096822247"><ele>670.0</ele><time>2026-05-03T09:04:57Z</time></trkpt><trkpt lat="46.49167867967915" lon="13.200587387764275"><ele>676.0</ele><time>2026-05-03T09:04:58Z</time></trkpt><trkpt lat="46.49178882742032" lon="13.200582352372233"><ele>682.0</ele><time>2026-05-03T09:04:59Z</time></trkpt><trkpt lat="46.49189442019717" lon="13.200575774480424"><ele>688.0</ele><time>2026-05-03T09:05:00Z</time></trkpt><trkpt lat="46.4919934670693" lon="13.200569076136379"><ele>694.0</ele><time>2026-05-03T09:05:01Z</time></trkpt><trkpt lat="46.492090112620154" lon="13.200570628952812"><ele>696.8000000000001</ele><time>2026-05-03T09:05:02Z</time></trkpt><trkpt lat="46.49218223038953" lon="13.200584160495385"><ele>699.6</ele><time>2026-05-03T09:05:03Z</time></trkpt><trkpt lat="46.492268770521" lon="13.200620575986926"><ele>702.4</ele><time>2026-05-03T09:05:04Z</time></trkpt><trkpt lat="46.492349035559776" lon="13.200686984623976"><ele>705.2</ele><time>2026-05-03T09:05:05Z</time></trkpt><trkpt lat="46.49242774490609" lon="13.200770601924603"><ele>708.0</ele><time>2026-05-03T09:05:06Z</time></trkpt><trkpt lat="46.492501966649236" lon="13.200872627133917"><ele>701.2</ele><time>2026-05-03T09:05:07Z</time></trkpt><trkpt lat="46.492567761551754" lon="13.20098338017132"><ele>694.4</ele><time>2026-05-03T09:05:08Z</time></trkpt><trkpt lat="46.49261098288046" lon="13.201113970736003"><ele>687.6</ele><time>2026-05-03T09:05:09Z</time></trkpt><trkpt lat="46.49261698063576" lon="13.201283383292584"><ele>680.8000000000001</ele><time>2026-05-03T09:05:10Z</time></trkpt><trkpt lat="46.49261300731101" lon="13.201460612458959"><ele>674.0</ele><time>2026-05-03T09:05:11Z</time></trkpt><trkpt lat="46.49262630163747" lon="13.201639133663937"><ele>674.0</ele><time>2026-05-03T09:05:12Z</time></trkpt><trkpt lat="46.492637040777176" lon="13.201812248727599"><ele>674.0</ele><time>2026-05-03T09:05:13Z</time></trkpt><trkpt lat="46.492653670575045" lon="13.201963998245953"><ele>674.0</ele><time>2026-05-03T09:05:14Z</time></trkpt><trkpt lat="46.492665105913076" lon="13.202115816589746"><ele>674.0</ele><time>2026-05-03T09:05:15Z</time></trkpt><trkpt lat="46.49268390830708" lon="13.202279331065657"><ele>674.0</ele><time>2026-05-03T09:05:16Z</time></trkpt><trkpt lat="46.492703869304414" lon="13.20243507699376"><ele>675.2</ele><time>2026-05-03T09:05:17Z</time></trkpt><trkpt lat="46.492728995527685" lon="13.202585855426083"><ele>676.4000000000001</ele><time>2026-05-03T09:05:18Z</time></trkpt><trkpt lat="46.49276867660696" lon="13.20270303861174"><ele>677.6</ele><time>2026-05-03T09:05:19Z</time></trkpt><trkpt lat="46.49283418036362" lon="13.202796861222375"><ele>678.8</ele><time>2026-05-03T09:05:20Z</time></trkpt><trkpt lat="46.49292316916412" lon="13.202872460046578"><ele>680.0</ele><time>2026-05-03T09:05:21Z</time></trkpt><trkpt lat="46.49302455621002" lon="13.202925431679489"><ele>681.6</ele><time>2026-05-03T09:05:22Z</time></trkpt><trkpt lat="46.493126687107306" lon="13.202974278730839"><ele>683.2</ele><time>2026-05-03T09:05:23Z</time></trkpt><trkpt lat="46.49323136580582" lon="13.203023098473812"><ele>684.8</ele><time>2026-05-03T09:05:24Z</time></trkpt><trkpt lat="46.493310741109056" lon="13.203104457894538"><ele>686.4</ele><time>2026-05-03T09:05:25Z</time></trkpt><trkpt lat="46.493381344723105" lon="13.203213921911468"><ele>688.0</ele><time>2026-05-03T09:05:26Z</time></trkpt><trkpt lat="46.493429791041876" lon="13.20335186623191"><ele>688.0</ele><time>2026-05-03T09:05:27Z</time></trkpt><trkpt lat="46.49346262235993" lon="13.203528434492487"><ele>688.0</ele><time>2026-05-03T09:05:28Z</time></trkpt><trkpt lat="46.493490290121315" lon="13.203707686557443"><ele>688.0</ele><time>2026-05-03T09:05:29Z</time></trkpt><trkpt lat="46.493509402271016" lon="13.203860335953053"><ele>688.0</ele><time>2026-05-03T09:05:30Z</time></trkpt><trkpt lat="46.493546787658595" lon="13.204015793600853"><ele>687.4</ele><time>2026-05-03T09:05:31Z</time></trkpt><trkpt lat="46.49356662682407" lon="13.204171627779518"><ele>686.8</ele><time>2026-05-03T09:05:32Z</time></trkpt><trkpt lat="46.493596505660676" lon="13.204302224463593"><ele>686.2</ele><time>2026-05-03T09:05:33Z</time></trkpt><trkpt lat="46.49361631102028" lon="13.204424819245727"><ele>685.6</ele><time>2026-05-03T09:05:34Z</time></trkpt><trkpt lat="46.493643484000955" lon="13.20455965607895"><ele>685.0</ele><time>2026-05-03T09:05:35Z</time></trkpt><trkpt lat="46.49369117807749" lon="13.204714833825962"><ele>691.2</ele><time>2026-05-03T09:05:36Z</time></trkpt><trkpt lat="46.49376420380666" lon="13.204866344466103"><ele>697.4</ele><time>2026-05-03T09:05:37Z</time></trkpt><trkpt lat="46.49383631282185" lon="13.204998121117887"><ele>703.5999999999999</ele><time>2026-05-03T09:05:38.001Z</time></trkpt><trkpt lat="46.493899487072255" lon="13.205115213993471"><ele>709.8</ele><time>2026-05-03T09:05:39.001Z</time></trkpt><trkpt lat="46.493948473737596" lon="13.205238746577386"><ele>716.0</ele><time>2026-05-03T09:05:40.001Z</time></trkpt><trkpt lat="46.493989524226386" lon="13.205375242517265"><ele>716.0</ele><time>2026-05-03T09:05:41.001Z</time></trkpt><trkpt lat="46.49402131940316" lon="13.205497834435253"><ele>716.0</ele><time>2026-05-03T09:05:42.001Z</time></trkpt><trkpt lat="46.49404476719115" lon="13.205592016951892"><ele>716.0</ele><time>2026-05-03T09:05:43.001Z</time></trkpt><trkpt lat="46.49408023481323" lon="13.205730679311792"><ele>716.0</ele><time>2026-05-03T09:05:45.001Z</time></trkpt><trkpt lat="46.49409805005511" lon="13.205823936559806"><ele>716.0</ele><time>2026-05-03T09:05:47.001Z</time></trkpt><trkpt lat="46.49411637019565" lon="13.205942642318897"><ele>716.0</ele><time>2026-05-03T09:05:51.001Z</time></trkpt><trkpt lat="46.49413877613735" lon="13.206034238690403"><ele>716.0</ele><time>2026-05-03T09:09:56Z</time></trkpt><trkpt lat="46.494158166368486" lon="13.205913631336243"><ele>716.0</ele><time>2026-05-03T09:10:24Z</time></trkpt><trkpt lat="46.4941294138397" lon="13.205821117361506"><ele>716.0</ele><time>2026-05-03T09:10:26Z</time></trkpt><trkpt lat="46.49409060812591" lon="13.205664531114778"><ele>716.0</ele><time>2026-05-03T09:10:28Z</time></trkpt><trkpt lat="46.4940679524839" lon="13.205575392369532"><ele>716.0</ele><time>2026-05-03T09:10:29Z</time></trkpt><trkpt lat="46.49403925425282" lon="13.20548368338625"><ele>716.0</ele><time>2026-05-03T09:10:30Z</time></trkpt><trkpt lat="46.49400751935584" lon="13.205393846796305"><ele>716.0000000000001</ele><time>2026-05-03T09:10:31Z</time></trkpt><trkpt lat="46.49397683308213" lon="13.20530434280518"><ele>716.0</ele><time>2026-05-03T09:10:32Z</time></trkpt><trkpt lat="46.49394726198624" lon="13.205216951737269"><ele>716.0</ele><time>2026-05-03T09:10:33Z</time></trkpt><trkpt lat="46.49391450494995" lon="13.205129052607905"><ele>716.0</ele><time>2026-05-03T09:10:34Z</time></trkpt><trkpt lat="46.49387540287805" lon="13.205042302162246"><ele>716.0</ele><time>2026-05-03T09:10:35Z</time></trkpt><trkpt lat="46.493833501328275" lon="13.204956382821257"><ele>716.0000000000001</ele><time>2026-05-03T09:10:36Z</time></trkpt><trkpt lat="46.49379124582092" lon="13.204866820358834"><ele>716.0</ele><time>2026-05-03T09:10:37Z</time></trkpt><trkpt lat="46.4937508803525" lon="13.204779111654386"><ele>709.8</ele><time>2026-05-03T09:10:38Z</time></trkpt><trkpt lat="46.493710640391406" lon="13.204686954865139"><ele>703.5999999999999</ele><time>2026-05-03T09:10:39Z</time></trkpt><trkpt lat="46.49367557094655" lon="13.204582976560747"><ele>697.4</ele><time>2026-05-03T09:10:40Z</time></trkpt><trkpt lat="46.493629221208586" lon="13.204369314282761"><ele>691.2</ele><time>2026-05-03T09:10:41Z</time></trkpt><trkpt lat="46.493609585340714" lon="13.204215820938591"><ele>685.0</ele><time>2026-05-03T09:10:42Z</time></trkpt><trkpt lat="46.493584416127774" lon="13.20408322215956"><ele>685.5</ele><time>2026-05-03T09:10:43Z</time></trkpt><trkpt lat="46.49355761488315" lon="13.203955812106784"><ele>686.0</ele><time>2026-05-03T09:10:44Z</time></trkpt><trkpt lat="46.49353173653368" lon="13.203836301921536"><ele>686.5</ele><time>2026-05-03T09:10:45Z</time></trkpt><trkpt lat="46.49350528301409" lon="13.203721857740778"><ele>687.0</ele><time>2026-05-03T09:10:46Z</time></trkpt><trkpt lat="46.49347737861877" lon="13.20360680371979"><ele>687.5</ele><time>2026-05-03T09:10:47Z</time></trkpt><trkpt lat="46.49344859902452" lon="13.203485835648568"><ele>688.0</ele><time>2026-05-03T09:10:48Z</time></trkpt><trkpt lat="46.493413685824535" lon="13.203348913486213"><ele>688.0</ele><time>2026-05-03T09:10:49Z</time></trkpt><trkpt lat="46.49337021982359" lon="13.20320539588529"><ele>688.0</ele><time>2026-05-03T09:10:50Z</time></trkpt><trkpt lat="46.49331410414127" lon="13.203087093915503"><ele>688.0</ele><time>2026-05-03T09:10:51Z</time></trkpt><trkpt lat="46.49324338026026" lon="13.202995638815022"><ele>688.0</ele><time>2026-05-03T09:10:52Z</time></trkpt><trkpt lat="46.49316333677003" lon="13.202928060418719"><ele>688.0</ele><time>2026-05-03T09:10:53Z</time></trkpt><trkpt lat="46.493078599872334" lon="13.20288773950626"><ele>686.4</ele><time>2026-05-03T09:10:54Z</time></trkpt><trkpt lat="46.49299503738967" lon="13.202853294811009"><ele>684.8</ele><time>2026-05-03T09:10:55Z</time></trkpt><trkpt lat="46.49291394311827" lon="13.202809658081417"><ele>683.2</ele><time>2026-05-03T09:10:56Z</time></trkpt><trkpt lat="46.49283901145489" lon="13.202749196951373"><ele>681.6</ele><time>2026-05-03T09:10:57Z</time></trkpt><trkpt lat="46.4927759523383" lon="13.202658959714354"><ele>680.0</ele><time>2026-05-03T09:10:58Z</time></trkpt><trkpt lat="46.49272537096331" lon="13.202530264973605"><ele>680.0</ele><time>2026-05-03T09:10:59Z</time></trkpt><trkpt lat="46.4927029604419" lon="13.20238534872237"><ele>680.0</ele><time>2026-05-03T09:11:00Z</time></trkpt><trkpt lat="46.492696552695186" lon="13.202230050501383"><ele>680.0</ele><time>2026-05-03T09:11:01Z</time></trkpt><trkpt lat="46.49269015154928" lon="13.202084294020565"><ele>680.0</ele><time>2026-05-03T09:11:02Z</time></trkpt><trkpt lat="46.492679835169575" lon="13.201943452555179"><ele>680.0</ele><time>2026-05-03T09:11:03Z</time></trkpt><trkpt lat="46.49266378906078" lon="13.201812332964082"><ele>678.8</ele><time>2026-05-03T09:11:04Z</time></trkpt><trkpt lat="46.492650394494866" lon="13.2016803938047"><ele>677.6</ele><time>2026-05-03T09:11:05Z</time></trkpt><trkpt lat="46.49263824888422" lon="13.20154655255734"><ele>676.4000000000001</ele><time>2026-05-03T09:11:06Z</time></trkpt><trkpt lat="46.49262811392785" lon="13.201416341241234"><ele>675.2</ele><time>2026-05-03T09:11:07Z</time></trkpt><trkpt lat="46.49261725563826" lon="13.201293097197171"><ele>674.0</ele><time>2026-05-03T09:11:08Z</time></trkpt><trkpt lat="46.49260201978958" lon="13.201159918871053"><ele>674.0</ele><time>2026-05-03T09:11:09Z</time></trkpt><trkpt lat="46.49258266745715" lon="13.201013757711262"><ele>674.0</ele><time>2026-05-03T09:11:10Z</time></trkpt><trkpt lat="46.492549815638434" lon="13.200876180772632"><ele>674.0</ele><time>2026-05-03T09:11:11Z</time></trkpt><trkpt lat="46.4924942350081" lon="13.200764473209468"><ele>674.0</ele><time>2026-05-03T09:11:12Z</time></trkpt><trkpt lat="46.49241974869348" lon="13.200664332819358"><ele>674.0</ele><time>2026-05-03T09:11:13Z</time></trkpt><trkpt lat="46.49231782000802" lon="13.200599068774133"><ele>678.0</ele><time>2026-05-03T09:11:14Z</time></trkpt><trkpt lat="46.49221312327265" lon="13.200567460090273"><ele>682.0</ele><time>2026-05-03T09:11:15Z</time></trkpt><trkpt lat="46.49211449585581" lon="13.200557673321281"><ele>686.0</ele><time>2026-05-03T09:11:16Z</time></trkpt><trkpt lat="46.49201661648953" lon="13.200552060785515"><ele>690.0</ele><time>2026-05-03T09:11:17Z</time></trkpt><trkpt lat="46.49190978662609" lon="13.20055319669519"><ele>694.0</ele><time>2026-05-03T09:11:18Z</time></trkpt><trkpt lat="46.49180102358009" lon="13.200554160567254"><ele>694.0</ele><time>2026-05-03T09:11:19Z</time></trkpt><trkpt lat="46.49169956990896" lon="13.20055972125289"><ele>694.0</ele><time>2026-05-03T09:11:20Z</time></trkpt><trkpt lat="46.49160388029843" lon="13.200560898400882"><ele>694.0</ele><time>2026-05-03T09:11:21Z</time></trkpt><trkpt lat="46.49150898455387" lon="13.200568400952546"><ele>694.0</ele><time>2026-05-03T09:11:22Z</time></trkpt><trkpt lat="46.491421446975046" lon="13.200574936376281"><ele>694.0</ele><time>2026-05-03T09:11:23Z</time></trkpt><trkpt lat="46.49132706740435" lon="13.200576769901941"><ele>688.0</ele><time>2026-05-03T09:11:24Z</time></trkpt><trkpt lat="46.49123552285151" lon="13.200562790925757"><ele>682.0</ele><time>2026-05-03T09:11:25Z</time></trkpt><trkpt lat="46.49114042624115" lon="13.200531646559908"><ele>676.0</ele><time>2026-05-03T09:11:26Z</time></trkpt><trkpt lat="46.49104359981549" lon="13.200468373956127"><ele>670.0</ele><time>2026-05-03T09:11:27Z</time></trkpt><trkpt lat="46.490961710539416" lon="13.200391394528037"><ele>664.0</ele><time>2026-05-03T09:11:28Z</time></trkpt><trkpt lat="46.49089313995803" lon="13.200279008936587"><ele>664.0</ele><time>2026-05-03T09:11:29Z</time></trkpt><trkpt lat="46.4908321453814" lon="13.200139549377079"><ele>664.0</ele><time>2026-05-03T09:11:30Z</time></trkpt><trkpt lat="46.49076983698413" lon="13.199997914954974"><ele>664.0</ele><time>2026-05-03T09:11:31Z</time></trkpt><trkpt lat="46.49071220457062" lon="13.199865153105339"><ele>664.0</ele><time>2026-05-03T09:11:32Z</time></trkpt><trkpt lat="46.49066212904479" lon="13.199734284499787"><ele>664.0</ele><time>2026-05-03T09:11:33Z</time></trkpt><trkpt lat="46.49061788016563" lon="13.19960246484962"><ele>666.75</ele><time>2026-05-03T09:11:34Z</time></trkpt><trkpt lat="46.49058213280697" lon="13.199459608480035"><ele>669.5</ele><time>2026-05-03T09:11:35Z</time></trkpt><trkpt lat="46.49055108025425" lon="13.199299669826907"><ele>672.25</ele><time>2026-05-03T09:11:36Z</time></trkpt><trkpt lat="46.49051218880448" lon="13.199128632603882"><ele>675.0</ele><time>2026-05-03T09:11:37Z</time></trkpt><trkpt lat="46.490462518784156" lon="13.198972425501626"><ele>671.0</ele><time>2026-05-03T09:11:38Z</time></trkpt><trkpt lat="46.49041348457937" lon="13.198830847520085"><ele>667.0</ele><time>2026-05-03T09:11:39Z</time></trkpt><trkpt lat="46.490364804625784" lon="13.198693480439003"><ele>663.0</ele><time>2026-05-03T09:11:40Z</time></trkpt><trkpt lat="46.49031226730676" lon="13.19855155479896"><ele>659.0</ele><time>2026-05-03T09:11:41Z</time></trkpt><trkpt lat="46.49025676787667" lon="13.198399671139338"><ele>655.0</ele><time>2026-05-03T09:11:42Z</time></trkpt><trkpt lat="46.49020431302384" lon="13.198239278038466"><ele>655.5</ele><time>2026-05-03T09:11:43Z</time></trkpt><trkpt lat="46.490148040067446" lon="13.198084525176315"><ele>656.0</ele><time>2026-05-03T09:11:44Z</time></trkpt><trkpt lat="46.49009076885157" lon="13.197944835096495"><ele>656.5</ele><time>2026-05-03T09:11:45Z</time></trkpt><trkpt lat="46.490034814729256" lon="13.197805163937874"><ele>657.0</ele><time>2026-05-03T09:11:46Z</time></trkpt><trkpt lat="46.48997520131677" lon="13.1976734807985"><ele>657.0</ele><time>2026-05-03T09:11:47Z</time></trkpt><trkpt lat="46.489919271819055" lon="13.19754800197733"><ele>657.0</ele><time>2026-05-03T09:11:48Z</time></trkpt><trkpt lat="46.48985959656963" lon="13.197414216250145"><ele>657.0</ele><time>2026-05-03T09:11:49Z</time></trkpt><trkpt lat="46.48979710270752" lon="13.197265323991894"><ele>657.0</ele><time>2026-05-03T09:11:50Z</time></trkpt><trkpt lat="46.48973082895282" lon="13.197108211844121"><ele>656.0</ele><time>2026-05-03T09:11:51Z</time></trkpt><trkpt lat="46.48966747905926" lon="13.196968172061446"><ele>655.0</ele><time>2026-05-03T09:11:52Z</time></trkpt><trkpt lat="46.48960891102778" lon="13.196832705636874"><ele>654.0</ele><time>2026-05-03T09:11:53Z</time></trkpt><trkpt lat="46.48954901233193" lon="13.196699487484542"><ele>653.0</ele><time>2026-05-03T09:11:54Z</time></trkpt><trkpt lat="46.48948728257279" lon="13.19656074719406"><ele>652.0</ele><time>2026-05-03T09:11:55Z</time></trkpt><trkpt lat="46.489425513637165" lon="13.196419687886886"><ele>650.5</ele><time>2026-05-03T09:11:56Z</time></trkpt><trkpt lat="46.48935661510029" lon="13.196265671123786"><ele>649.0</ele><time>2026-05-03T09:11:57Z</time></trkpt><trkpt lat="46.489284102687975" lon="13.1961068813846"><ele>647.5</ele><time>2026-05-03T09:11:58Z</time></trkpt><trkpt lat="46.489219410654464" lon="13.195957668509251"><ele>646.0</ele><time>2026-05-03T09:11:59Z</time></trkpt><trkpt lat="46.4891566666303" lon="13.195816412474002"><ele>646.0</ele><time>2026-05-03T09:12:00Z</time></trkpt><trkpt lat="46.489093449762684" lon="13.195674027714743"><ele>646.0</ele><time>2026-05-03T09:12:01Z</time></trkpt><trkpt lat="46.48902575943811" lon="13.195526174989512"><ele>646.0</ele><time>2026-05-03T09:12:02Z</time></trkpt><trkpt lat="46.488959947912676" lon="13.195383013340292"><ele>646.0</ele><time>2026-05-03T09:12:03Z</time></trkpt><trkpt lat="46.48889005686457" lon="13.195243168355598"><ele>646.75</ele><time>2026-05-03T09:12:04Z</time></trkpt><trkpt lat="46.48880999930738" lon="13.195115852577688"><ele>647.5</ele><time>2026-05-03T09:12:05Z</time></trkpt><trkpt lat="46.488709854191356" lon="13.195010159339535"><ele>648.25</ele><time>2026-05-03T09:12:06Z</time></trkpt><trkpt lat="46.48860146337691" lon="13.19491088056086"><ele>649.0</ele><time>2026-05-03T09:12:07Z</time></trkpt><trkpt lat="46.488499486891065" lon="13.194820644287631"><ele>651.0</ele><time>2026-05-03T09:12:08Z</time></trkpt><trkpt lat="46.48839972491859" lon="13.194739654935306"><ele>653.0</ele><time>2026-05-03T09:12:09Z</time></trkpt><trkpt lat="46.48828942397623" lon="13.194665351766991"><ele>655.0</ele><time>2026-05-03T09:12:10Z</time></trkpt><trkpt lat="46.488165098878845" lon="13.194609314352139"><ele>657.0</ele><time>2026-05-03T09:12:11Z</time></trkpt><trkpt lat="46.48803627967848" lon="13.194558864402532"><ele>654.5</ele><time>2026-05-03T09:12:12Z</time></trkpt><trkpt lat="46.4879166427177" lon="13.194502859043547"><ele>652.0</ele><time>2026-05-03T09:12:13Z</time></trkpt><trkpt lat="46.487802335209004" lon="13.194456430843395"><ele>649.5</ele><time>2026-05-03T09:12:14Z</time></trkpt><trkpt lat="46.4876893041149" lon="13.194412834545462"><ele>647.0</ele><time>2026-05-03T09:12:15Z</time></trkpt><trkpt lat="46.48757210765658" lon="13.194374346641702"><ele>647.0</ele><time>2026-05-03T09:12:16Z</time></trkpt><trkpt lat="46.48745017711069" lon="13.194343956959006"><ele>647.0</ele><time>2026-05-03T09:12:17Z</time></trkpt><trkpt lat="46.487327827644435" lon="13.194309953198381"><ele>647.0</ele><time>2026-05-03T09:12:18Z</time></trkpt><trkpt lat="46.487210565455825" lon="13.194285856437277"><ele>647.0</ele><time>2026-05-03T09:12:19Z</time></trkpt><trkpt lat="46.48709540803536" lon="13.194265583770415"><ele>645.75</ele><time>2026-05-03T09:12:20Z</time></trkpt><trkpt lat="46.48698484916065" lon="13.194240743976163"><ele>644.5</ele><time>2026-05-03T09:12:21Z</time></trkpt><trkpt lat="46.48687337167203" lon="13.194195840834224"><ele>643.25</ele><time>2026-05-03T09:12:22Z</time></trkpt><trkpt lat="46.486763702170485" lon="13.194129005034336"><ele>642.0</ele><time>2026-05-03T09:12:23Z</time></trkpt><trkpt lat="46.48665781671519" lon="13.194031988312569"><ele>641.0</ele><time>2026-05-03T09:12:24Z</time></trkpt><trkpt lat="46.48655647930519" lon="13.193927976711135"><ele>640.0</ele><time>2026-05-03T09:12:25Z</time></trkpt><trkpt lat="46.486458693770025" lon="13.193833461861626"><ele>639.0</ele><time>2026-05-03T09:12:26Z</time></trkpt><trkpt lat="46.4863645098879" lon="13.193742151280832"><ele>638.0</ele><time>2026-05-03T09:12:27Z</time></trkpt><trkpt lat="46.486260003413776" lon="13.193645657744792"><ele>638.0</ele><time>2026-05-03T09:12:28Z</time></trkpt><trkpt lat="46.4861472942985" lon="13.193541999960166"><ele>638.0</ele><time>2026-05-03T09:12:29Z</time></trkpt><trkpt lat="46.48603458882171" lon="13.193428261999012"><ele>638.0</ele><time>2026-05-03T09:12:30Z</time></trkpt><trkpt lat="46.48592114919964" lon="13.193328490586127"><ele>638.0</ele><time>2026-05-03T09:12:31Z</time></trkpt><trkpt lat="46.485826799861044" lon="13.193228557209189"><ele>641.25</ele><time>2026-05-03T09:12:32Z</time></trkpt><trkpt lat="46.48573202092349" lon="13.193129679239263"><ele>644.5</ele><time>2026-05-03T09:12:33Z</time></trkpt><trkpt lat="46.485631990082666" lon="13.193040353836714"><ele>647.75</ele><time>2026-05-03T09:12:34Z</time></trkpt><trkpt lat="46.48552717839375" lon="13.192959001359139"><ele>651.0</ele><time>2026-05-03T09:12:35Z</time></trkpt><trkpt lat="46.48540784472363" lon="13.192903295264967"><ele>651.0</ele><time>2026-05-03T09:12:36Z</time></trkpt><trkpt lat="46.48527507876153" lon="13.192877013881484"><ele>651.0</ele><time>2026-05-03T09:12:37Z</time></trkpt><trkpt lat="46.485139734894275" lon="13.192880773555839"><ele>651.0</ele><time>2026-05-03T09:12:38Z</time></trkpt><trkpt lat="46.485009756557574" lon="13.192903508054952"><ele>651.0</ele><time>2026-05-03T09:12:39Z</time></trkpt><trkpt lat="46.484893878840126" lon="13.192948064192308"><ele>651.0</ele><time>2026-05-03T09:12:40Z</time></trkpt><trkpt lat="46.484782385661894" lon="13.192981615571375"><ele>651.0</ele><time>2026-05-03T09:12:41Z</time></trkpt><trkpt lat="46.48467524750931" lon="13.192996237206787"><ele>651.0</ele><time>2026-05-03T09:12:42Z</time></trkpt><trkpt lat="46.4845678084574" lon="13.192991738515396"><ele>651.0</ele><time>2026-05-03T09:12:43Z</time></trkpt><trkpt lat="46.48446352397796" lon="13.192970421613996"><ele>651.0</ele><time>2026-05-03T09:12:44Z</time></trkpt><trkpt lat="46.484365936448405" lon="13.19293607874671"><ele>646.5</ele><time>2026-05-03T09:12:45Z</time></trkpt><trkpt lat="46.484267915987274" lon="13.192870676953286"><ele>642.0</ele><time>2026-05-03T09:12:46Z</time></trkpt><trkpt lat="46.484172995001714" lon="13.192764101533077"><ele>637.5</ele><time>2026-05-03T09:12:47Z</time></trkpt><trkpt lat="46.48408310045333" lon="13.192634465251292"><ele>633.0</ele><time>2026-05-03T09:12:48Z</time></trkpt><trkpt lat="46.48400720704316" lon="13.192493962643937"><ele>633.0</ele><time>2026-05-03T09:12:49Z</time></trkpt><trkpt lat="46.483935121706956" lon="13.192352506207774"><ele>633.0</ele><time>2026-05-03T09:12:50Z</time></trkpt><trkpt lat="46.48387258166288" lon="13.19220932046975"><ele>633.0</ele><time>2026-05-03T09:12:51Z</time></trkpt><trkpt lat="46.483802335485535" lon="13.192069294302593"><ele>633.0</ele><time>2026-05-03T09:12:52Z</time></trkpt><trkpt lat="46.48371268397993" lon="13.191941410345892"><ele>632.75</ele><time>2026-05-03T09:12:53Z</time></trkpt><trkpt lat="46.48362281309178" lon="13.191813799451493"><ele>632.5</ele><time>2026-05-03T09:12:54Z</time></trkpt><trkpt lat="46.48353237130086" lon="13.191685235329642"><ele>632.25</ele><time>2026-05-03T09:12:55Z</time></trkpt><trkpt lat="46.48344519770103" lon="13.19156350671411"><ele>632.0</ele><time>2026-05-03T09:12:56Z</time></trkpt><trkpt lat="46.483363998194115" lon="13.191448456653884"><ele>635.5</ele><time>2026-05-03T09:12:57Z</time></trkpt><trkpt lat="46.483276479591275" lon="13.191326631741502"><ele>639.0</ele><time>2026-05-03T09:12:58Z</time></trkpt><trkpt lat="46.48318535352609" lon="13.19120259587616"><ele>642.5</ele><time>2026-05-03T09:12:59Z</time></trkpt><trkpt lat="46.483102082196645" lon="13.191103308184525"><ele>646.0</ele><time>2026-05-03T09:13:00Z</time></trkpt><trkpt lat="46.483010869923994" lon="13.19103739030638"><ele>642.5999999999999</ele><time>2026-05-03T09:13:01Z</time></trkpt><trkpt lat="46.482920282524496" lon="13.19097054929927"><ele>639.1999999999999</ele><time>2026-05-03T09:13:02Z</time></trkpt><trkpt lat="46.48283418979348" lon="13.190910757831867"><ele>635.8</ele><time>2026-05-03T09:13:03Z</time></trkpt><trkpt lat="46.48275192291779" lon="13.190831379321033"><ele>632.4</ele><time>2026-05-03T09:13:04Z</time></trkpt><trkpt lat="46.4826847723465" lon="13.190740664075875"><ele>629.0</ele><time>2026-05-03T09:13:05Z</time></trkpt><trkpt lat="46.482638664149384" lon="13.19062336067025"><ele>629.0</ele><time>2026-05-03T09:13:06Z</time></trkpt><trkpt lat="46.48259602408972" lon="13.190491431158987"><ele>629.0</ele><time>2026-05-03T09:13:07Z</time></trkpt><trkpt lat="46.482542781780616" lon="13.19035386633518"><ele>629.0</ele><time>2026-05-03T09:13:08Z</time></trkpt><trkpt lat="46.48248359437279" lon="13.190208810915786"><ele>629.0</ele><time>2026-05-03T09:13:09Z</time></trkpt><trkpt lat="46.48241597966505" lon="13.190059238254673"><ele>629.0</ele><time>2026-05-03T09:13:10Z</time></trkpt><trkpt lat="46.48234444979186" lon="13.189921465705359"><ele>628.6</ele><time>2026-05-03T09:13:11Z</time></trkpt><trkpt lat="46.482274651818756" lon="13.189798079440363"><ele>628.2</ele><time>2026-05-03T09:13:12Z</time></trkpt><trkpt lat="46.4821963812803" lon="13.189683773426127"><ele>627.8000000000001</ele><time>2026-05-03T09:13:13Z</time></trkpt><trkpt lat="46.48210799791805" lon="13.189582071725555"><ele>627.4</ele><time>2026-05-03T09:13:14Z</time></trkpt><trkpt lat="46.48201643172052" lon="13.189488527961428"><ele>627.0</ele><time>2026-05-03T09:13:15Z</time></trkpt><trkpt lat="46.48192159684017" lon="13.189407157965777"><ele>627.0</ele><time>2026-05-03T09:13:16Z</time></trkpt><trkpt lat="46.48182664049289" lon="13.189324811772256"><ele>627.0</ele><time>2026-05-03T09:13:17Z</time></trkpt><trkpt lat="46.48172429808512" lon="13.189244501122062"><ele>627.0</ele><time>2026-05-03T09:13:18Z</time></trkpt><trkpt lat="46.48161484133469" lon="13.189183687371978"><ele>627.0</ele><time>2026-05-03T09:13:19Z</time></trkpt><trkpt lat="46.481500698627194" lon="13.18912081498071"><ele>627.0</ele><time>2026-05-03T09:13:20Z</time></trkpt><trkpt lat="46.481382657563934" lon="13.189071591638681"><ele>627.0</ele><time>2026-05-03T09:13:21Z</time></trkpt><trkpt lat="46.481261952125244" lon="13.18903666061892"><ele>627.0</ele><time>2026-05-03T09:13:22Z</time></trkpt><trkpt lat="46.481135393558255" lon="13.189015656632398"><ele>627.0</ele><time>2026-05-03T09:13:23Z</time></trkpt><trkpt lat="46.481004315289816" lon="13.188995846453102"><ele>629.5</ele><time>2026-05-03T09:13:24Z</time></trkpt><trkpt lat="46.480879521285345" lon="13.188983185318712"><ele>632.0</ele><time>2026-05-03T09:13:25Z</time></trkpt><trkpt lat="46.480758366498854" lon="13.188980731995928"><ele>634.5</ele><time>2026-05-03T09:13:26Z</time></trkpt><trkpt lat="46.48063686959442" lon="13.188979223216952"><ele>637.0</ele><time>2026-05-03T09:13:27Z</time></trkpt><trkpt lat="46.48051495422202" lon="13.188998187865229"><ele>632.75</ele><time>2026-05-03T09:13:28Z</time></trkpt><trkpt lat="46.48039970976447" lon="13.189041545454543"><ele>628.5</ele><time>2026-05-03T09:13:29Z</time></trkpt><trkpt lat="46.4802876187454" lon="13.189130170452666"><ele>624.25</ele><time>2026-05-03T09:13:30Z</time></trkpt><trkpt lat="46.48017504627605" lon="13.189230088150646"><ele>620.0</ele><time>2026-05-03T09:13:31Z</time></trkpt><trkpt lat="46.48006626172253" lon="13.1893195268988"><ele>620.0</ele><time>2026-05-03T09:13:32Z</time></trkpt><trkpt lat="46.47996228848012" lon="13.189401199301429"><ele>620.0</ele><time>2026-05-03T09:13:33Z</time></trkpt><trkpt lat="46.479863680391304" lon="13.189472540184198"><ele>620.0</ele><time>2026-05-03T09:13:34Z</time></trkpt><trkpt lat="46.47976608294167" lon="13.189544361859236"><ele>620.0</ele><time>2026-05-03T09:13:35Z</time></trkpt><trkpt lat="46.479671387250576" lon="13.18960803330133"><ele>620.0</ele><time>2026-05-03T09:13:36Z</time></trkpt><trkpt lat="46.479574419168976" lon="13.18964894253691"><ele>619.2</ele><time>2026-05-03T09:13:37Z</time></trkpt><trkpt lat="46.47947389736828" lon="13.189662679074285"><ele>618.4</ele><time>2026-05-03T09:13:38Z</time></trkpt><trkpt lat="46.47937236527739" lon="13.189650926050094"><ele>617.6</ele><time>2026-05-03T09:13:39Z</time></trkpt><trkpt lat="46.479266429914176" lon="13.18961780388058"><ele>616.8</ele><time>2026-05-03T09:13:40Z</time></trkpt><trkpt lat="46.47915054032687" lon="13.189575598151249"><ele>616.0</ele><time>2026-05-03T09:13:41Z</time></trkpt><trkpt lat="46.47902472435667" lon="13.18952868595618"><ele>616.0</ele><time>2026-05-03T09:13:42Z</time></trkpt><trkpt lat="46.47890548060843" lon="13.1894781743283"><ele>616.0</ele><time>2026-05-03T09:13:43Z</time></trkpt><trkpt lat="46.47879708168467" lon="13.189431339505203"><ele>616.0</ele><time>2026-05-03T09:13:44Z</time></trkpt><trkpt lat="46.47869752221198" lon="13.189389082645032"><ele>616.0</ele><time>2026-05-03T09:13:45Z</time></trkpt><trkpt lat="46.47860096369357" lon="13.189355592970346"><ele>616.0</ele><time>2026-05-03T09:13:46Z</time></trkpt><trkpt lat="46.47849957812428" lon="13.189342683842408"><ele>615.25</ele><time>2026-05-03T09:13:47Z</time></trkpt><trkpt lat="46.478386399841284" lon="13.189355420367972"><ele>614.5</ele><time>2026-05-03T09:13:48Z</time></trkpt><trkpt lat="46.47826080811916" lon="13.189375885287491"><ele>613.75</ele><time>2026-05-03T09:13:49Z</time></trkpt><trkpt lat="46.47812059982875" lon="13.189380676663239"><ele>613.0</ele><time>2026-05-03T09:13:50Z</time></trkpt><trkpt lat="46.4779791380768" lon="13.189369684540722"><ele>613.75</ele><time>2026-05-03T09:13:51Z</time></trkpt><trkpt lat="46.47784810953948" lon="13.189348182898588"><ele>614.5</ele><time>2026-05-03T09:13:52Z</time></trkpt><trkpt lat="46.477721616778936" lon="13.189327138538646"><ele>615.25</ele><time>2026-05-03T09:13:53Z</time></trkpt><trkpt lat="46.47759796314238" lon="13.189333400720816"><ele>616.0</ele><time>2026-05-03T09:13:54Z</time></trkpt><trkpt lat="46.47747751242875" lon="13.18938259969839"><ele>616.0</ele><time>2026-05-03T09:13:55Z</time></trkpt><trkpt lat="46.47736587383578" lon="13.189466403379457"><ele>616.0</ele><time>2026-05-03T09:13:56Z</time></trkpt><trkpt lat="46.47726244854019" lon="13.18956530484876"><ele>616.0</ele><time>2026-05-03T09:13:57Z</time></trkpt><trkpt lat="46.477167937534695" lon="13.189640871387411"><ele>616.0</ele><time>2026-05-03T09:13:58Z</time></trkpt><trkpt lat="46.477069654199425" lon="13.189678440346434"><ele>615.0</ele><time>2026-05-03T09:13:59Z</time></trkpt><trkpt lat="46.476966669431356" lon="13.189693905960912"><ele>614.0</ele><time>2026-05-03T09:14:00Z</time></trkpt><trkpt lat="46.47686359531048" lon="13.18968987438529"><ele>613.0</ele><time>2026-05-03T09:14:01Z</time></trkpt><trkpt lat="46.47676170306837" lon="13.18967109276832"><ele>612.0</ele><time>2026-05-03T09:14:02Z</time></trkpt><trkpt lat="46.476655649978696" lon="13.189638180059948"><ele>611.0</ele><time>2026-05-03T09:14:03Z</time></trkpt><trkpt lat="46.476549912955626" lon="13.18958913328737"><ele>611.0</ele><time>2026-05-03T09:14:04Z</time></trkpt><trkpt lat="46.476450227053625" lon="13.189538816453075"><ele>611.0</ele><time>2026-05-03T09:14:05Z</time></trkpt><trkpt lat="46.476357379401705" lon="13.189479776231114"><ele>611.0</ele><time>2026-05-03T09:14:06Z</time></trkpt><trkpt lat="46.476275696481046" lon="13.189393028689993"><ele>611.0</ele><time>2026-05-03T09:14:07Z</time></trkpt><trkpt lat="46.476202632261035" lon="13.189293848076026"><ele>611.0</ele><time>2026-05-03T09:14:08Z</time></trkpt><trkpt lat="46.476125258179366" lon="13.189208146253401"><ele>610.4</ele><time>2026-05-03T09:14:09Z</time></trkpt><trkpt lat="46.47603048490964" lon="13.18917370767681"><ele>609.8</ele><time>2026-05-03T09:14:10Z</time></trkpt><trkpt lat="46.47592903686606" lon="13.189187253234184"><ele>609.1999999999999</ele><time>2026-05-03T09:14:11Z</time></trkpt><trkpt lat="46.475830580426106" lon="13.189232577157531"><ele>608.6</ele><time>2026-05-03T09:14:12Z</time></trkpt><trkpt lat="46.47574471515182" lon="13.189298376739751"><ele>608.0</ele><time>2026-05-03T09:14:13Z</time></trkpt><trkpt lat="46.47565762605737" lon="13.189393642855228"><ele>608.0</ele><time>2026-05-03T09:14:14Z</time></trkpt><trkpt lat="46.47556995773835" lon="13.189493240814963"><ele>608.0</ele><time>2026-05-03T09:14:15Z</time></trkpt><trkpt lat="46.47548266093587" lon="13.189582523806006"><ele>608.0</ele><time>2026-05-03T09:14:16Z</time></trkpt><trkpt lat="46.47539692063715" lon="13.189670318712562"><ele>608.0</ele><time>2026-05-03T09:14:17Z</time></trkpt><trkpt lat="46.475313289939095" lon="13.189752025265435"><ele>608.0</ele><time>2026-05-03T09:14:18Z</time></trkpt><trkpt lat="46.47522257259828" lon="13.189842398571296"><ele>604.4</ele><time>2026-05-03T09:14:19Z</time></trkpt><trkpt lat="46.47513005124189" lon="13.189946119104087"><ele>600.8</ele><time>2026-05-03T09:14:20Z</time></trkpt><trkpt lat="46.47503788612221" lon="13.19004452221023"><ele>597.2</ele><time>2026-05-03T09:14:21Z</time></trkpt><trkpt lat="46.47495016520756" lon="13.19012934103482"><ele>593.6</ele><time>2026-05-03T09:14:22Z</time></trkpt><trkpt lat="46.47486565308628" lon="13.190212566114031"><ele>590.0</ele><time>2026-05-03T09:14:23Z</time></trkpt><trkpt lat="46.47478495793919" lon="13.190290142733826"><ele>590.0</ele><time>2026-05-03T09:14:24Z</time></trkpt><trkpt lat="46.474704115572756" lon="13.190364925745302"><ele>590.0</ele><time>2026-05-03T09:14:25Z</time></trkpt><trkpt lat="46.474622307822195" lon="13.190437591528422"><ele>590.0</ele><time>2026-05-03T09:14:26Z</time></trkpt><trkpt lat="46.47453194448623" lon="13.190498616189856"><ele>590.0</ele><time>2026-05-03T09:14:27Z</time></trkpt><trkpt lat="46.47443410885899" lon="13.190549778192967"><ele>590.0</ele><time>2026-05-03T09:14:28Z</time></trkpt><trkpt lat="46.47432682170157" lon="13.19058216901913"><ele>592.75</ele><time>2026-05-03T09:14:29Z</time></trkpt><trkpt lat="46.47421373547985" lon="13.190596004138454"><ele>595.5</ele><time>2026-05-03T09:14:30Z</time></trkpt><trkpt lat="46.47409655424592" lon="13.190586751070985"><ele>598.25</ele><time>2026-05-03T09:14:31Z</time></trkpt><trkpt lat="46.47397554508364" lon="13.190558177095113"><ele>601.0</ele><time>2026-05-03T09:14:32Z</time></trkpt><trkpt lat="46.47385101800392" lon="13.190519734862546"><ele>603.75</ele><time>2026-05-03T09:14:33Z</time></trkpt><trkpt lat="46.473727467321" lon="13.19047581924946"><ele>606.5</ele><time>2026-05-03T09:14:34Z</time></trkpt><trkpt lat="46.47360235391435" lon="13.19044860702803"><ele>609.25</ele><time>2026-05-03T09:14:35Z</time></trkpt><trkpt lat="46.47348323773326" lon="13.19043920451257"><ele>612.0</ele><time>2026-05-03T09:14:36Z</time></trkpt><trkpt lat="46.47336867220522" lon="13.190434640527586"><ele>612.0</ele><time>2026-05-03T09:14:37Z</time></trkpt><trkpt lat="46.473254969152116" lon="13.190442330133278"><ele>612.0</ele><time>2026-05-03T09:14:38Z</time></trkpt><trkpt lat="46.473140273865795" lon="13.19046522659965"><ele>612.0</ele><time>2026-05-03T09:14:39Z</time></trkpt><trkpt lat="46.47302313098653" lon="13.190494440765464"><ele>612.0</ele><time>2026-05-03T09:14:40Z</time></trkpt><trkpt lat="46.4729033331459" lon="13.190535470352279"><ele>611.25</ele><time>2026-05-03T09:14:41Z</time></trkpt><trkpt lat="46.47278200902792" lon="13.190580465805764"><ele>610.5</ele><time>2026-05-03T09:14:42Z</time></trkpt><trkpt lat="46.47266567107805" lon="13.190624028981313"><ele>609.75</ele><time>2026-05-03T09:14:43Z</time></trkpt><trkpt lat="46.47255529276727" lon="13.190662611783281"><ele>609.0</ele><time>2026-05-03T09:14:44Z</time></trkpt><trkpt lat="46.4724456586773" lon="13.190699565144579"><ele>603.0</ele><time>2026-05-03T09:14:45Z</time></trkpt><trkpt lat="46.47233954733265" lon="13.190735746469155"><ele>597.0</ele><time>2026-05-03T09:14:46Z</time></trkpt><trkpt lat="46.47222904542618" lon="13.190769856509489"><ele>591.0</ele><time>2026-05-03T09:14:47Z</time></trkpt><trkpt lat="46.47211598217593" lon="13.190810851717576"><ele>585.0</ele><time>2026-05-03T09:14:48Z</time></trkpt><trkpt lat="46.47200535633585" lon="13.190839536639551"><ele>585.0</ele><time>2026-05-03T09:14:49Z</time></trkpt><trkpt lat="46.471899867671965" lon="13.190862096082364"><ele>585.0</ele><time>2026-05-03T09:14:50Z</time></trkpt><trkpt lat="46.47180061328866" lon="13.190881495014263"><ele>585.0</ele><time>2026-05-03T09:14:51Z</time></trkpt><trkpt lat="46.47169905036351" lon="13.190913898325787"><ele>585.0</ele><time>2026-05-03T09:14:52Z</time></trkpt><trkpt lat="46.471598722475036" lon="13.190936611550228"><ele>585.0</ele><time>2026-05-03T09:14:53Z</time></trkpt><trkpt lat="46.471501700906636" lon="13.190961617366632"><ele>585.0</ele><time>2026-05-03T09:14:54Z</time></trkpt><trkpt lat="46.47140670797938" lon="13.190981242030258"><ele>585.0</ele><time>2026-05-03T09:14:55Z</time></trkpt><trkpt lat="46.471313882275865" lon="13.190994743693032"><ele>585.0</ele><time>2026-05-03T09:14:56Z</time></trkpt><trkpt lat="46.47122428205233" lon="13.190995081466529"><ele>585.0</ele><time>2026-05-03T09:14:57Z</time></trkpt><trkpt lat="46.4711296456317" lon="13.190962910229626"><ele>585.0</ele><time>2026-05-03T09:14:58Z</time></trkpt><trkpt lat="46.47102353024578" lon="13.190947220829713"><ele>583.5</ele><time>2026-05-03T09:14:59Z</time></trkpt><trkpt lat="46.47090265994385" lon="13.190925323949259"><ele>582.0</ele><time>2026-05-03T09:15:00Z</time></trkpt><trkpt lat="46.47077608484259" lon="13.190892562341471"><ele>580.5</ele><time>2026-05-03T09:15:01Z</time></trkpt><trkpt lat="46.47065744439475" lon="13.190865751389524"><ele>579.0</ele><time>2026-05-03T09:15:02Z</time></trkpt><trkpt lat="46.47054178417888" lon="13.190842769608523"><ele>580.0</ele><time>2026-05-03T09:15:03Z</time></trkpt><trkpt lat="46.470424114742144" lon="13.190814572049304"><ele>581.0</ele><time>2026-05-03T09:15:04Z</time></trkpt><trkpt lat="46.470305219854964" lon="13.190783346123771"><ele>582.0</ele><time>2026-05-03T09:15:05Z</time></trkpt><trkpt lat="46.470184039282614" lon="13.190755081684173"><ele>583.0</ele><time>2026-05-03T09:15:06Z</time></trkpt><trkpt lat="46.47005806108494" lon="13.190730582399873"><ele>583.0</ele><time>2026-05-03T09:15:07Z</time></trkpt><trkpt lat="46.46993649315841" lon="13.190702997593274"><ele>583.0</ele><time>2026-05-03T09:15:08Z</time></trkpt><trkpt lat="46.4698205919083" lon="13.190678198877036"><ele>583.0</ele><time>2026-05-03T09:15:09Z</time></trkpt><trkpt lat="46.46970770603428" lon="13.19065140481705"><ele>583.0</ele><time>2026-05-03T09:15:10Z</time></trkpt><trkpt lat="46.46959849346057" lon="13.190627792261758"><ele>584.6</ele><time>2026-05-03T09:15:11Z</time></trkpt><trkpt lat="46.469492760178866" lon="13.190604160412411"><ele>586.1999999999999</ele><time>2026-05-03T09:15:12Z</time></trkpt><trkpt lat="46.469391138715736" lon="13.190581229320314"><ele>587.8</ele><time>2026-05-03T09:15:13Z</time></trkpt><trkpt lat="46.46927449711768" lon="13.190561643211014"><ele>589.4</ele><time>2026-05-03T09:15:14Z</time></trkpt><trkpt lat="46.46916610828673" lon="13.190550699164334"><ele>591.0</ele><time>2026-05-03T09:15:15Z</time></trkpt><trkpt lat="46.46905687275796" lon="13.190550817400746"><ele>591.0</ele><time>2026-05-03T09:15:16Z</time></trkpt><trkpt lat="46.46894684069286" lon="13.190561461753576"><ele>591.0</ele><time>2026-05-03T09:15:17Z</time></trkpt><trkpt lat="46.468831500492584" lon="13.190579337918821"><ele>591.0</ele><time>2026-05-03T09:15:18Z</time></trkpt><trkpt lat="46.468712927679775" lon="13.190609139493183"><ele>591.0</ele><time>2026-05-03T09:15:19Z</time></trkpt><trkpt lat="46.468590527820524" lon="13.19064142568692"><ele>590.25</ele><time>2026-05-03T09:15:20Z</time></trkpt><trkpt lat="46.46847461118529" lon="13.190667846974916"><ele>589.5</ele><time>2026-05-03T09:15:21Z</time></trkpt><trkpt lat="46.46835678913183" lon="13.190698856359703"><ele>588.75</ele><time>2026-05-03T09:15:22Z</time></trkpt><trkpt lat="46.46824159435665" lon="13.190725844645696"><ele>588.0</ele><time>2026-05-03T09:15:23Z</time></trkpt><trkpt lat="46.46813338179026" lon="13.190736525903445"><ele>585.6</ele><time>2026-05-03T09:15:24Z</time></trkpt><trkpt lat="46.46802957726518" lon="13.190729214910908"><ele>583.1999999999999</ele><time>2026-05-03T09:15:25Z</time></trkpt><trkpt lat="46.46793064031822" lon="13.190704337604693"><ele>580.8</ele><time>2026-05-03T09:15:26Z</time></trkpt><trkpt lat="46.467830654745214" lon="13.190661359084197"><ele>578.4</ele><time>2026-05-03T09:15:27Z</time></trkpt><trkpt lat="46.46772413212105" lon="13.19060400316099"><ele>576.0</ele><time>2026-05-03T09:15:28Z</time></trkpt><trkpt lat="46.46760765857323" lon="13.190542606430183"><ele>576.0</ele><time>2026-05-03T09:15:29Z</time></trkpt><trkpt lat="46.46748231091552" lon="13.190487811498581"><ele>576.0</ele><time>2026-05-03T09:15:30Z</time></trkpt><trkpt lat="46.46735736319457" lon="13.190454212749277"><ele>576.0</ele><time>2026-05-03T09:15:31Z</time></trkpt><trkpt lat="46.46723442560475" lon="13.190423814068517"><ele>576.0</ele><time>2026-05-03T09:15:32Z</time></trkpt><trkpt lat="46.467114573316" lon="13.190391095540797"><ele>573.25</ele><time>2026-05-03T09:15:33Z</time></trkpt><trkpt lat="46.46699828105132" lon="13.19035976341458"><ele>570.5</ele><time>2026-05-03T09:15:34Z</time></trkpt><trkpt lat="46.46688338418006" lon="13.19033537137382"><ele>567.75</ele><time>2026-05-03T09:15:35Z</time></trkpt><trkpt lat="46.46676904196505" lon="13.190308362446928"><ele>565.0</ele><time>2026-05-03T09:15:36Z</time></trkpt><trkpt lat="46.46665839032827" lon="13.190282265723383"><ele>565.0</ele><time>2026-05-03T09:15:37Z</time></trkpt><trkpt lat="46.466543279913076" lon="13.190253688674545"><ele>565.0</ele><time>2026-05-03T09:15:38Z</time></trkpt><trkpt lat="46.46642065768745" lon="13.19022848838772"><ele>565.0</ele><time>2026-05-03T09:15:39Z</time></trkpt><trkpt lat="46.46629596960194" lon="13.190210708616656"><ele>565.0</ele><time>2026-05-03T09:15:40Z</time></trkpt><trkpt lat="46.46616939238166" lon="13.190192325301616"><ele>563.5</ele><time>2026-05-03T09:15:41Z</time></trkpt><trkpt lat="46.466043286664494" lon="13.19017726801742"><ele>562.0</ele><time>2026-05-03T09:15:42Z</time></trkpt><trkpt lat="46.46591495258748" lon="13.190170563436546"><ele>560.5</ele><time>2026-05-03T09:15:43Z</time></trkpt><trkpt lat="46.465790363804594" lon="13.19017267581575"><ele>559.0</ele><time>2026-05-03T09:15:44Z</time></trkpt><trkpt lat="46.46567281750467" lon="13.190174114529706"><ele>559.0</ele><time>2026-05-03T09:15:45Z</time></trkpt><trkpt lat="46.46556184709097" lon="13.190182026879777"><ele>559.0</ele><time>2026-05-03T09:15:46Z</time></trkpt><trkpt lat="46.46544181591606" lon="13.190191000162699"><ele>559.0</ele><time>2026-05-03T09:15:47Z</time></trkpt><trkpt lat="46.465319139815946" lon="13.190202763514659"><ele>559.0</ele><time>2026-05-03T09:15:48Z</time></trkpt><trkpt lat="46.46520026299986" lon="13.190219280296388"><ele>560.2</ele><time>2026-05-03T09:15:49Z</time></trkpt><trkpt lat="46.46508876655467" lon="13.190235553252696"><ele>561.4</ele><time>2026-05-03T09:15:50Z</time></trkpt><trkpt lat="46.464982687451275" lon="13.190245072578444"><ele>562.6</ele><time>2026-05-03T09:15:51Z</time></trkpt><trkpt lat="46.46487939078586" lon="13.190257639339867"><ele>563.8</ele><time>2026-05-03T09:15:52Z</time></trkpt><trkpt lat="46.464780615150595" lon="13.190269964221654"><ele>565.0</ele><time>2026-05-03T09:15:53Z</time></trkpt><trkpt lat="46.46468272954319" lon="13.190282073934496"><ele>564.0</ele><time>2026-05-03T09:15:54Z</time></trkpt><trkpt lat="46.46458273571668" lon="13.190291533311342"><ele>563.0</ele><time>2026-05-03T09:15:55Z</time></trkpt><trkpt lat="46.46448178097727" lon="13.19030331222416"><ele>562.0</ele><time>2026-05-03T09:15:56Z</time></trkpt><trkpt lat="46.46437773575773" lon="13.190318161731131"><ele>561.0</ele><time>2026-05-03T09:15:57Z</time></trkpt><trkpt lat="46.46427192372215" lon="13.190326219156757"><ele>560.0</ele><time>2026-05-03T09:15:58Z</time></trkpt><trkpt lat="46.46416232707238" lon="13.19031842270499"><ele>560.0</ele><time>2026-05-03T09:15:59Z</time></trkpt><trkpt lat="46.46404879558239" lon="13.19030526089568"><ele>560.0</ele><time>2026-05-03T09:16:00Z</time></trkpt><trkpt lat="46.46394043346247" lon="13.190279215311401"><ele>560.0</ele><time>2026-05-03T09:16:01Z</time></trkpt><trkpt lat="46.46383065179064" lon="13.190257341342578"><ele>560.0</ele><time>2026-05-03T09:16:02Z</time></trkpt><trkpt lat="46.46371286945437" lon="13.190241609116445"><ele>557.75</ele><time>2026-05-03T09:16:03Z</time></trkpt><trkpt lat="46.46359448736298" lon="13.19023078570841"><ele>555.5</ele><time>2026-05-03T09:16:04Z</time></trkpt><trkpt lat="46.46347952558283" lon="13.190230551210709"><ele>553.25</ele><time>2026-05-03T09:16:05Z</time></trkpt><trkpt lat="46.463365951808534" lon="13.190233509256936"><ele>551.0</ele><time>2026-05-03T09:16:06Z</time></trkpt><trkpt lat="46.46325605308391" lon="13.190246005965752"><ele>551.0</ele><time>2026-05-03T09:16:07Z</time></trkpt><trkpt lat="46.46314979577407" lon="13.190264978137302"><ele>551.0</ele><time>2026-05-03T09:16:08Z</time></trkpt><trkpt lat="46.46304379465653" lon="13.190286760414358"><ele>551.0</ele><time>2026-05-03T09:16:09Z</time></trkpt><trkpt lat="46.46293926446741" lon="13.190309997107093"><ele>551.0</ele><time>2026-05-03T09:16:10Z</time></trkpt><trkpt lat="46.46283827624723" lon="13.190340213767191"><ele>551.0</ele><time>2026-05-03T09:16:11Z</time></trkpt><trkpt lat="46.46273906317103" lon="13.190380090600362"><ele>551.5</ele><time>2026-05-03T09:16:12Z</time></trkpt><trkpt lat="46.46263685008573" lon="13.190424049077068"><ele>552.0</ele><time>2026-05-03T09:16:13Z</time></trkpt><trkpt lat="46.462520471336276" lon="13.190477906287425"><ele>552.5</ele><time>2026-05-03T09:16:14Z</time></trkpt><trkpt lat="46.46240734419347" lon="13.190530532357558"><ele>553.0</ele><time>2026-05-03T09:16:15Z</time></trkpt><trkpt lat="46.46229760343143" lon="13.1905745573866"><ele>553.0</ele><time>2026-05-03T09:16:16Z</time></trkpt><trkpt lat="46.462187875541225" lon="13.19062449120907"><ele>553.0</ele><time>2026-05-03T09:16:17Z</time></trkpt><trkpt lat="46.46208047905331" lon="13.190671162767373"><ele>553.0</ele><time>2026-05-03T09:16:18Z</time></trkpt><trkpt lat="46.46197508044158" lon="13.190713066523971"><ele>553.0</ele><time>2026-05-03T09:16:19Z</time></trkpt><trkpt lat="46.46187266649158" lon="13.190757297278482"><ele>553.0</ele><time>2026-05-03T09:16:20Z</time></trkpt><trkpt lat="46.46177102130991" lon="13.190797519440412"><ele>547.8</ele><time>2026-05-03T09:16:21Z</time></trkpt><trkpt lat="46.461671677830786" lon="13.190839509921464"><ele>542.5999999999999</ele><time>2026-05-03T09:16:22Z</time></trkpt><trkpt lat="46.461573205831314" lon="13.190868494477565"><ele>537.4000000000001</ele><time>2026-05-03T09:16:23Z</time></trkpt><trkpt lat="46.46147340105881" lon="13.190874723086441"><ele>532.2</ele><time>2026-05-03T09:16:24Z</time></trkpt><trkpt lat="46.46137464826032" lon="13.19085575250288"><ele>527.0</ele><time>2026-05-03T09:16:25Z</time></trkpt><trkpt lat="46.46127287875061" lon="13.190800750084883"><ele>526.75</ele><time>2026-05-03T09:16:26Z</time></trkpt><trkpt lat="46.46116384718736" lon="13.190735479135977"><ele>526.5</ele><time>2026-05-03T09:16:27Z</time></trkpt><trkpt lat="46.461047196031366" lon="13.190670314129092"><ele>526.25</ele><time>2026-05-03T09:16:28Z</time></trkpt><trkpt lat="46.46093124154725" lon="13.190604002786024"><ele>526.0</ele><time>2026-05-03T09:16:29Z</time></trkpt><trkpt lat="46.46081966025454" lon="13.190554280263948"><ele>528.75</ele><time>2026-05-03T09:16:30Z</time></trkpt><trkpt lat="46.460713158141324" lon="13.190505367977988"><ele>531.5</ele><time>2026-05-03T09:16:31Z</time></trkpt><trkpt lat="46.46061011880873" lon="13.190453194609217"><ele>534.25</ele><time>2026-05-03T09:16:32Z</time></trkpt><trkpt lat="46.46050500980207" lon="13.190400128721016"><ele>537.0</ele><time>2026-05-03T09:16:33Z</time></trkpt><trkpt lat="46.46039157854898" lon="13.190342576365255"><ele>537.0</ele><time>2026-05-03T09:16:34Z</time></trkpt><trkpt lat="46.460267550244765" lon="13.190289554820467"><ele>537.0</ele><time>2026-05-03T09:16:35Z</time></trkpt><trkpt lat="46.460148401399756" lon="13.190249077277556"><ele>537.0</ele><time>2026-05-03T09:16:36Z</time></trkpt><trkpt lat="46.46003170676703" lon="13.190217277132424"><ele>537.0</ele><time>2026-05-03T09:16:37Z</time></trkpt><trkpt lat="46.45991988981772" lon="13.190183878577022"><ele>537.0</ele><time>2026-05-03T09:16:38Z</time></trkpt><trkpt lat="46.45980968909802" lon="13.19014940175446"><ele>537.0</ele><time>2026-05-03T09:16:39Z</time></trkpt><trkpt lat="46.459700116569536" lon="13.19012395979176"><ele>537.0</ele><time>2026-05-03T09:16:40Z</time></trkpt><trkpt lat="46.45959218249996" lon="13.190098923872863"><ele>537.0</ele><time>2026-05-03T09:16:41Z</time></trkpt><trkpt lat="46.4594843890087" lon="13.190067087216036"><ele>537.0</ele><time>2026-05-03T09:16:42Z</time></trkpt><trkpt lat="46.45937462655278" lon="13.190037917700783"><ele>536.0</ele><time>2026-05-03T09:16:43Z</time></trkpt><trkpt lat="46.459265090754926" lon="13.190007328407141"><ele>535.0</ele><time>2026-05-03T09:16:44Z</time></trkpt><trkpt lat="46.45915527542626" lon="13.189976444862687"><ele>534.0</ele><time>2026-05-03T09:16:45Z</time></trkpt><trkpt lat="46.45904563678946" lon="13.189942264431814"><ele>533.0</ele><time>2026-05-03T09:16:46Z</time></trkpt><trkpt lat="46.45893587137279" lon="13.189908618547394"><ele>532.0</ele><time>2026-05-03T09:16:47Z</time></trkpt><trkpt lat="46.45882605792464" lon="13.189876759023907"><ele>533.6</ele><time>2026-05-03T09:16:48Z</time></trkpt><trkpt lat="46.458719824713086" lon="13.189846408170478"><ele>535.2</ele><time>2026-05-03T09:16:49Z</time></trkpt><trkpt lat="46.45861902548303" lon="13.18981443853518"><ele>536.8</ele><time>2026-05-03T09:16:50Z</time></trkpt><trkpt lat="46.45851979072661" lon="13.189782603706218"><ele>538.4</ele><time>2026-05-03T09:16:51Z</time></trkpt><trkpt lat="46.45841521975994" lon="13.18975176902468"><ele>540.0</ele><time>2026-05-03T09:16:52Z</time></trkpt><trkpt lat="46.45830751771204" lon="13.189721233796837"><ele>540.0</ele><time>2026-05-03T09:16:53Z</time></trkpt><trkpt lat="46.45819946776442" lon="13.189693498122134"><ele>540.0</ele><time>2026-05-03T09:16:54Z</time></trkpt><trkpt lat="46.45808537705075" lon="13.189672444324701"><ele>540.0</ele><time>2026-05-03T09:16:55Z</time></trkpt><trkpt lat="46.45796934420429" lon="13.189667217580107"><ele>540.0</ele><time>2026-05-03T09:16:56Z</time></trkpt><trkpt lat="46.45784797007436" lon="13.189703876394619"><ele>541.5</ele><time>2026-05-03T09:16:57Z</time></trkpt><trkpt lat="46.45772658998163" lon="13.189779351622485"><ele>543.0</ele><time>2026-05-03T09:16:58Z</time></trkpt><trkpt lat="46.45760953621121" lon="13.189877011423839"><ele>544.5</ele><time>2026-05-03T09:16:59Z</time></trkpt><trkpt lat="46.457503941836904" lon="13.189956911052981"><ele>546.0</ele><time>2026-05-03T09:17:00Z</time></trkpt><trkpt lat="46.45740730495625" lon="13.19003116789338"><ele>541.6</ele><time>2026-05-03T09:17:01Z</time></trkpt><trkpt lat="46.45731399254078" lon="13.190094526042744"><ele>537.2</ele><time>2026-05-03T09:17:02Z</time></trkpt><trkpt lat="46.45722996628386" lon="13.19015489793976"><ele>532.8</ele><time>2026-05-03T09:17:03Z</time></trkpt><trkpt lat="46.45713860991216" lon="13.190214721848657"><ele>528.4</ele><time>2026-05-03T09:17:04Z</time></trkpt><trkpt lat="46.45704476659223" lon="13.190284002929147"><ele>524.0</ele><time>2026-05-03T09:17:05Z</time></trkpt><trkpt lat="46.45693944305481" lon="13.19037258832768"><ele>524.0</ele><time>2026-05-03T09:17:06Z</time></trkpt><trkpt lat="46.45684005685239" lon="13.190451085591928"><ele>524.0</ele><time>2026-05-03T09:17:07Z</time></trkpt><trkpt lat="46.45673360186053" lon="13.190519031086268"><ele>524.0</ele><time>2026-05-03T09:17:08Z</time></trkpt><trkpt lat="46.45661748066364" lon="13.190581927372689"><ele>524.0</ele><time>2026-05-03T09:17:09Z</time></trkpt><trkpt lat="46.4564876886311" lon="13.190624572589995"><ele>524.0</ele><time>2026-05-03T09:17:10Z</time></trkpt><trkpt lat="46.45636409392265" lon="13.190648931211369"><ele>524.0</ele><time>2026-05-03T09:17:11Z</time></trkpt><trkpt lat="46.45624440749442" lon="13.190656092812787"><ele>524.0</ele><time>2026-05-03T09:17:12Z</time></trkpt><trkpt lat="46.45612373670678" lon="13.190647644202945"><ele>524.0</ele><time>2026-05-03T09:17:13Z</time></trkpt><trkpt lat="46.456006098679445" lon="13.190618824192516"><ele>520.0</ele><time>2026-05-03T09:17:14Z</time></trkpt><trkpt lat="46.4558970006888" lon="13.190568508868086"><ele>516.0</ele><time>2026-05-03T09:17:15Z</time></trkpt><trkpt lat="46.45579882538167" lon="13.190496283195818"><ele>512.0</ele><time>2026-05-03T09:17:16Z</time></trkpt><trkpt lat="46.455700540411534" lon="13.19041122040979"><ele>508.0</ele><time>2026-05-03T09:17:17Z</time></trkpt><trkpt lat="46.45560798749003" lon="13.19030518006202"><ele>508.0</ele><time>2026-05-03T09:17:18Z</time></trkpt><trkpt lat="46.455518964158586" lon="13.19019846551165"><ele>507.99999999999994</ele><time>2026-05-03T09:17:19Z</time></trkpt><trkpt lat="46.455444723867004" lon="13.190084836905303"><ele>507.99999999999994</ele><time>2026-05-03T09:17:20Z</time></trkpt><trkpt lat="46.45537274715191" lon="13.189974642944911"><ele>508.0</ele><time>2026-05-03T09:17:21Z</time></trkpt><trkpt lat="46.455304503036295" lon="13.189871312305682"><ele>508.0</ele><time>2026-05-03T09:17:22Z</time></trkpt><trkpt lat="46.45523842876844" lon="13.189771204908398"><ele>505.79999999999995</ele><time>2026-05-03T09:17:23Z</time></trkpt><trkpt lat="46.4551742894314" lon="13.189673770632586"><ele>503.59999999999997</ele><time>2026-05-03T09:17:24Z</time></trkpt><trkpt lat="46.45511077841344" lon="13.189577500093804"><ele>501.40000000000003</ele><time>2026-05-03T09:17:25Z</time></trkpt><trkpt lat="46.45504556006622" lon="13.189479445626821"><ele>499.20000000000005</ele><time>2026-05-03T09:17:26Z</time></trkpt><trkpt lat="46.45497727765808" lon="13.189376633769921"><ele>497.0</ele><time>2026-05-03T09:17:27Z</time></trkpt><trkpt lat="46.45490824749486" lon="13.18927537234519"><ele>497.0</ele><time>2026-05-03T09:17:28Z</time></trkpt><trkpt lat="46.454838237704216" lon="13.189171182728197"><ele>497.00000000000006</ele><time>2026-05-03T09:17:29Z</time></trkpt><trkpt lat="46.45476354182234" lon="13.189054969758391"><ele>497.00000000000006</ele><time>2026-05-03T09:17:30Z</time></trkpt><trkpt lat="46.45468306767738" lon="13.188928665898665"><ele>497.0</ele><time>2026-05-03T09:17:31Z</time></trkpt><trkpt lat="46.45459995162805" lon="13.188805652497543"><ele>497.0</ele><time>2026-05-03T09:17:32Z</time></trkpt><trkpt lat="46.454523325572076" lon="13.188690147259326"><ele>496.20000000000005</ele><time>2026-05-03T09:17:33Z</time></trkpt><trkpt lat="46.45445092348585" lon="13.188578683288064"><ele>495.40000000000003</ele><time>2026-05-03T09:17:34Z</time></trkpt><trkpt lat="46.45438027153611" lon="13.18847309635212"><ele>494.59999999999997</ele><time>2026-05-03T09:17:35Z</time></trkpt><trkpt lat="46.454308390358904" lon="13.188374078017814"><ele>493.79999999999995</ele><time>2026-05-03T09:17:36Z</time></trkpt><trkpt lat="46.45423163918051" lon="13.1882846254867"><ele>493.0</ele><time>2026-05-03T09:17:37Z</time></trkpt><trkpt lat="46.454143197348124" lon="13.188203716175765"><ele>493.5</ele><time>2026-05-03T09:17:38Z</time></trkpt><trkpt lat="46.4540449757695" lon="13.18813625435246"><ele>494.0</ele><time>2026-05-03T09:17:39Z</time></trkpt><trkpt lat="46.453936024970396" lon="13.188089894817322"><ele>494.5</ele><time>2026-05-03T09:17:40Z</time></trkpt><trkpt lat="46.453822657093276" lon="13.188050632878568"><ele>495.0</ele><time>2026-05-03T09:17:41Z</time></trkpt><trkpt lat="46.45370194120266" lon="13.188018914051083"><ele>495.0</ele><time>2026-05-03T09:17:42Z</time></trkpt><trkpt lat="46.4535786263327" lon="13.187982048093385"><ele>495.0</ele><time>2026-05-03T09:17:43Z</time></trkpt><trkpt lat="46.45345787288038" lon="13.187943365319867"><ele>495.0</ele><time>2026-05-03T09:17:44Z</time></trkpt><trkpt lat="46.4533375602818" lon="13.187905684127099"><ele>495.0</ele><time>2026-05-03T09:17:45Z</time></trkpt><trkpt lat="46.45322184064577" lon="13.18786086237773"><ele>495.0</ele><time>2026-05-03T09:17:46Z</time></trkpt><trkpt lat="46.4531112734809" lon="13.187813510390185"><ele>495.0</ele><time>2026-05-03T09:17:47Z</time></trkpt><trkpt lat="46.453000580890325" lon="13.187753906368341"><ele>495.0</ele><time>2026-05-03T09:17:48Z</time></trkpt><trkpt lat="46.452896785523684" lon="13.18769382103935"><ele>495.0</ele><time>2026-05-03T09:17:49Z</time></trkpt><trkpt lat="46.45279352009717" lon="13.18764016723424"><ele>492.75</ele><time>2026-05-03T09:17:50Z</time></trkpt><trkpt lat="46.45269100299549" lon="13.187589749384923"><ele>490.5</ele><time>2026-05-03T09:17:51Z</time></trkpt><trkpt lat="46.4525798849884" lon="13.18753551342401"><ele>488.25</ele><time>2026-05-03T09:17:52Z</time></trkpt><trkpt lat="46.452466191424655" lon="13.187487161219016"><ele>486.0</ele><time>2026-05-03T09:17:53Z</time></trkpt><trkpt lat="46.452355402092884" lon="13.18745224572092"><ele>486.0</ele><time>2026-05-03T09:17:54Z</time></trkpt><trkpt lat="46.45224568240073" lon="13.187423758290473"><ele>486.0</ele><time>2026-05-03T09:17:55Z</time></trkpt><trkpt lat="46.45213314804414" lon="13.187394090968494"><ele>486.0</ele><time>2026-05-03T09:17:56Z</time></trkpt><trkpt lat="46.45201826928062" lon="13.187365814303313"><ele>486.0</ele><time>2026-05-03T09:17:57Z</time></trkpt><trkpt lat="46.45190156913103" lon="13.187340955750637"><ele>487.75</ele><time>2026-05-03T09:17:58Z</time></trkpt><trkpt lat="46.45178442421799" lon="13.187325826893067"><ele>489.5</ele><time>2026-05-03T09:17:59Z</time></trkpt><trkpt lat="46.45166460486329" lon="13.187315809235598"><ele>491.25</ele><time>2026-05-03T09:18:00Z</time></trkpt><trkpt lat="46.45154230983199" lon="13.187316946340365"><ele>493.0</ele><time>2026-05-03T09:18:01Z</time></trkpt><trkpt lat="46.45142432778533" lon="13.187325843375785"><ele>493.0</ele><time>2026-05-03T09:18:02Z</time></trkpt><trkpt lat="46.45131404954947" lon="13.187340308351944"><ele>492.99999999999994</ele><time>2026-05-03T09:18:03Z</time></trkpt><trkpt lat="46.45121039047928" lon="13.187357617878673"><ele>492.99999999999994</ele><time>2026-05-03T09:18:04Z</time></trkpt><trkpt lat="46.45110482721201" lon="13.18737841219478"><ele>493.0</ele><time>2026-05-03T09:18:05Z</time></trkpt><trkpt lat="46.450995126215616" lon="13.18740330926559"><ele>493.0</ele><time>2026-05-03T09:18:06Z</time></trkpt><trkpt lat="46.450872108644475" lon="13.18743688899449"><ele>488.25</ele><time>2026-05-03T09:18:07Z</time></trkpt><trkpt lat="46.45075199838962" lon="13.187477657328222"><ele>483.5</ele><time>2026-05-03T09:18:08Z</time></trkpt><trkpt lat="46.45063823117856" lon="13.187514234927455"><ele>478.75</ele><time>2026-05-03T09:18:09Z</time></trkpt><trkpt lat="46.450528163755926" lon="13.187548352111783"><ele>474.0</ele><time>2026-05-03T09:18:10Z</time></trkpt><trkpt lat="46.45042171985242" lon="13.187575627663778"><ele>474.0</ele><time>2026-05-03T09:18:11Z</time></trkpt><trkpt lat="46.45031331664644" lon="13.187601762152708"><ele>474.0</ele><time>2026-05-03T09:18:12Z</time></trkpt><trkpt lat="46.45020269905152" lon="13.187627059008245"><ele>474.0</ele><time>2026-05-03T09:18:13Z</time></trkpt><trkpt lat="46.450090592611204" lon="13.187655878806407"><ele>474.0</ele><time>2026-05-03T09:18:14Z</time></trkpt><trkpt lat="46.44997835354681" lon="13.187683141643854"><ele>474.0</ele><time>2026-05-03T09:18:15Z</time></trkpt><trkpt lat="46.449868198611654" lon="13.187712704928877"><ele>474.0</ele><time>2026-05-03T09:18:16Z</time></trkpt><trkpt lat="46.44975897561915" lon="13.18774137937925"><ele>474.0</ele><time>2026-05-03T09:18:17Z</time></trkpt><trkpt lat="46.44965050151544" lon="13.187768293316285"><ele>474.0</ele><time>2026-05-03T09:18:18Z</time></trkpt><trkpt lat="46.449543960059046" lon="13.187790893112929"><ele>474.0</ele><time>2026-05-03T09:18:19Z</time></trkpt><trkpt lat="46.44943940700344" lon="13.187800046491724"><ele>475.0</ele><time>2026-05-03T09:18:20Z</time></trkpt><trkpt lat="46.44933607448577" lon="13.187792359155514"><ele>476.0</ele><time>2026-05-03T09:18:21Z</time></trkpt><trkpt lat="46.44923262128353" lon="13.18776554046719"><ele>477.0</ele><time>2026-05-03T09:18:22Z</time></trkpt><trkpt lat="46.449130225295065" lon="13.187727358083087"><ele>478.0</ele><time>2026-05-03T09:18:23Z</time></trkpt><trkpt lat="46.44902867863025" lon="13.187672318685664"><ele>479.0</ele><time>2026-05-03T09:18:24Z</time></trkpt><trkpt lat="46.44892310248869" lon="13.187600390687338"><ele>479.0</ele><time>2026-05-03T09:18:25Z</time></trkpt><trkpt lat="46.44881554531455" lon="13.187526580835614"><ele>479.0</ele><time>2026-05-03T09:18:26Z</time></trkpt><trkpt lat="46.44870795175724" lon="13.187454329627629"><ele>479.0</ele><time>2026-05-03T09:18:27Z</time></trkpt><trkpt lat="46.448596702856065" lon="13.18739211526593"><ele>479.0</ele><time>2026-05-03T09:18:28Z</time></trkpt><trkpt lat="46.44848335531184" lon="13.187340366160333"><ele>484.0</ele><time>2026-05-03T09:18:29Z</time></trkpt><trkpt lat="46.448372279074384" lon="13.187303901918753"><ele>489.0</ele><time>2026-05-03T09:18:30Z</time></trkpt><trkpt lat="46.448261205142465" lon="13.18727588619268"><ele>494.0</ele><time>2026-05-03T09:18:31Z</time></trkpt><trkpt lat="46.44814910347109" lon="13.187264181732049"><ele>499.0</ele><time>2026-05-03T09:18:32Z</time></trkpt><trkpt lat="46.44803983953996" lon="13.187271408196846"><ele>504.0</ele><time>2026-05-03T09:18:33Z</time></trkpt><trkpt lat="46.447937530944415" lon="13.187293142890768"><ele>504.2</ele><time>2026-05-03T09:18:34Z</time></trkpt><trkpt lat="46.447842231116475" lon="13.18732648798809"><ele>504.4</ele><time>2026-05-03T09:18:35Z</time></trkpt><trkpt lat="46.44775444754553" lon="13.187359349201587"><ele>504.6</ele><time>2026-05-03T09:18:36Z</time></trkpt><trkpt lat="46.4476724163251" lon="13.187408378315457"><ele>504.8</ele><time>2026-05-03T09:18:37Z</time></trkpt><trkpt lat="46.44758945906956" lon="13.18747497240692"><ele>505.0</ele><time>2026-05-03T09:18:38Z</time></trkpt><trkpt lat="46.44750298890623" lon="13.187556121848125"><ele>497.25</ele><time>2026-05-03T09:18:39Z</time></trkpt><trkpt lat="46.447422166671934" lon="13.187661287610545"><ele>489.5</ele><time>2026-05-03T09:18:40Z</time></trkpt><trkpt lat="46.44733928247" lon="13.187768489699438"><ele>481.75</ele><time>2026-05-03T09:18:41Z</time></trkpt><trkpt lat="46.44725261213564" lon="13.18787868101105"><ele>474.0</ele><time>2026-05-03T09:18:42Z</time></trkpt><trkpt lat="46.447163670601064" lon="13.187985891148752"><ele>471.75</ele><time>2026-05-03T09:18:43Z</time></trkpt><trkpt lat="46.4470729212785" lon="13.188089159217553"><ele>469.5</ele><time>2026-05-03T09:18:44Z</time></trkpt><trkpt lat="46.446981743575535" lon="13.188194813663996"><ele>467.25</ele><time>2026-05-03T09:18:45Z</time></trkpt><trkpt lat="46.4468964937053" lon="13.188297170374556"><ele>465.0</ele><time>2026-05-03T09:18:46Z</time></trkpt><trkpt lat="46.44681316498181" lon="13.188401285969277"><ele>465.0</ele><time>2026-05-03T09:18:47Z</time></trkpt><trkpt lat="46.44672813722336" lon="13.188504888483234"><ele>465.0</ele><time>2026-05-03T09:18:48Z</time></trkpt><trkpt lat="46.44664199421182" lon="13.18861090900333"><ele>465.0</ele><time>2026-05-03T09:18:49Z</time></trkpt><trkpt lat="46.446554165629145" lon="13.188718214292493"><ele>465.0</ele><time>2026-05-03T09:18:50Z</time></trkpt><trkpt lat="46.44646720086002" lon="13.188827074917088"><ele>465.0</ele><time>2026-05-03T09:18:51Z</time></trkpt><trkpt lat="46.44638146002034" lon="13.188933836985013"><ele>465.0</ele><time>2026-05-03T09:18:52Z</time></trkpt><trkpt lat="46.44629655418705" lon="13.189041129065801"><ele>465.0</ele><time>2026-05-03T09:18:53Z</time></trkpt><trkpt lat="46.44621126105197" lon="13.189146612750204"><ele>465.0</ele><time>2026-05-03T09:18:54Z</time></trkpt><trkpt lat="46.446130502841235" lon="13.189248316533902"><ele>465.0</ele><time>2026-05-03T09:18:55Z</time></trkpt><trkpt lat="46.446053574289486" lon="13.18934907700171"><ele>465.0</ele><time>2026-05-03T09:18:56Z</time></trkpt><trkpt lat="46.445973682450045" lon="13.18944834148876"><ele>465.0</ele><time>2026-05-03T09:18:57Z</time></trkpt><trkpt lat="46.445886380390476" lon="13.189553084155085"><ele>465.0</ele><time>2026-05-03T09:18:58Z</time></trkpt><trkpt lat="46.44579173864813" lon="13.189666356134008"><ele>465.0</ele><time>2026-05-03T09:18:59Z</time></trkpt><trkpt lat="46.44569153874896" lon="13.189781783378093"><ele>463.5</ele><time>2026-05-03T09:19:00Z</time></trkpt><trkpt lat="46.44559542631485" lon="13.18988753610751"><ele>462.0</ele><time>2026-05-03T09:19:01Z</time></trkpt><trkpt lat="46.445498346760814" lon="13.1899810760229"><ele>460.5</ele><time>2026-05-03T09:19:02Z</time></trkpt><trkpt lat="46.44539888941064" lon="13.190076196769551"><ele>459.0</ele><time>2026-05-03T09:19:03Z</time></trkpt><trkpt lat="46.44529506565269" lon="13.190175090613373"><ele>459.0</ele><time>2026-05-03T09:19:04Z</time></trkpt><trkpt lat="46.445191021488306" lon="13.190272740646765"><ele>459.0</ele><time>2026-05-03T09:19:05Z</time></trkpt><trkpt lat="46.44508460951042" lon="13.190372139912245"><ele>459.0</ele><time>2026-05-03T09:19:06Z</time></trkpt><trkpt lat="46.444975869202985" lon="13.190471867979394"><ele>459.0</ele><time>2026-05-03T09:19:07Z</time></trkpt><trkpt lat="46.44486986553494" lon="13.190567807024976"><ele>459.0</ele><time>2026-05-03T09:19:08Z</time></trkpt><trkpt lat="46.4447702835214" lon="13.19065687393021"><ele>459.0</ele><time>2026-05-03T09:19:09Z</time></trkpt><trkpt lat="46.44467564386414" lon="13.190745511297703"><ele>459.0</ele><time>2026-05-03T09:19:10Z</time></trkpt><trkpt lat="46.4445838288707" lon="13.190828533425671"><ele>459.0</ele><time>2026-05-03T09:19:11Z</time></trkpt><trkpt lat="46.44449408759657" lon="13.190906579258854"><ele>459.0</ele><time>2026-05-03T09:19:12Z</time></trkpt><trkpt lat="46.444411767112236" lon="13.19098499465676"><ele>457.0</ele><time>2026-05-03T09:19:13Z</time></trkpt><trkpt lat="46.4443372299802" lon="13.19106968733075"><ele>455.0</ele><time>2026-05-03T09:19:14Z</time></trkpt><trkpt lat="46.44426846419748" lon="13.191160482185266"><ele>453.0</ele><time>2026-05-03T09:19:15Z</time></trkpt><trkpt lat="46.44420278310289" lon="13.191277926578719"><ele>451.0</ele><time>2026-05-03T09:19:16Z</time></trkpt><trkpt lat="46.44413706292981" lon="13.191408273478457"><ele>449.0</ele><time>2026-05-03T09:19:17Z</time></trkpt><trkpt lat="46.444070695888335" lon="13.191553541325744"><ele>449.0</ele><time>2026-05-03T09:19:18Z</time></trkpt><trkpt lat="46.44400545433816" lon="13.191699475686748"><ele>449.0</ele><time>2026-05-03T09:19:19Z</time></trkpt><trkpt lat="46.44394790036028" lon="13.191838859238405"><ele>449.0</ele><time>2026-05-03T09:19:20Z</time></trkpt><trkpt lat="46.44389444310936" lon="13.191975327137914"><ele>449.0</ele><time>2026-05-03T09:19:21Z</time></trkpt><trkpt lat="46.44384235973719" lon="13.192107578760718"><ele>449.0</ele><time>2026-05-03T09:19:22Z</time></trkpt><trkpt lat="46.443795224855485" lon="13.192233557590535"><ele>453.0</ele><time>2026-05-03T09:19:23Z</time></trkpt><trkpt lat="46.44374711608545" lon="13.192350335072389"><ele>457.0</ele><time>2026-05-03T09:19:24Z</time></trkpt><trkpt lat="46.44369712546612" lon="13.192469609976008"><ele>461.0</ele><time>2026-05-03T09:19:25Z</time></trkpt><trkpt lat="46.443639974569706" lon="13.192594838774413"><ele>465.0</ele><time>2026-05-03T09:19:26Z</time></trkpt><trkpt lat="46.443577873883605" lon="13.192724674585259"><ele>469.0</ele><time>2026-05-03T09:19:27Z</time></trkpt><trkpt lat="46.443512047931655" lon="13.19285465801193"><ele>469.0</ele><time>2026-05-03T09:19:28Z</time></trkpt><trkpt lat="46.443438797955615" lon="13.192978799283077"><ele>469.0</ele><time>2026-05-03T09:19:29Z</time></trkpt><trkpt lat="46.44336071958054" lon="13.193100051704135"><ele>469.0</ele><time>2026-05-03T09:19:30Z</time></trkpt><trkpt lat="46.443274506772205" lon="13.193214024626851"><ele>469.0</ele><time>2026-05-03T09:19:31Z</time></trkpt><trkpt lat="46.44318825806029" lon="13.193317877107223"><ele>471.0</ele><time>2026-05-03T09:19:32Z</time></trkpt><trkpt lat="46.44310584376895" lon="13.193419614166048"><ele>473.0</ele><time>2026-05-03T09:19:33Z</time></trkpt><trkpt lat="46.4430270092439" lon="13.193517050691083"><ele>475.0</ele><time>2026-05-03T09:19:34Z</time></trkpt><trkpt lat="46.44294401771444" lon="13.193613488109529"><ele>477.0</ele><time>2026-05-03T09:19:35Z</time></trkpt><trkpt lat="46.44285723769093" lon="13.193721968953998"><ele>479.0</ele><time>2026-05-03T09:19:36Z</time></trkpt><trkpt lat="46.44276783714154" lon="13.193828177713991"><ele>479.0</ele><time>2026-05-03T09:19:37Z</time></trkpt><trkpt lat="46.44268050872675" lon="13.193934714598036"><ele>479.0</ele><time>2026-05-03T09:19:38Z</time></trkpt><trkpt lat="46.44258634799597" lon="13.194046911640008"><ele>479.0</ele><time>2026-05-03T09:19:39Z</time></trkpt><trkpt lat="46.44248923480939" lon="13.194148436346003"><ele>479.0</ele><time>2026-05-03T09:19:40Z</time></trkpt><trkpt lat="46.44239373286246" lon="13.194235669278928"><ele>473.5</ele><time>2026-05-03T09:19:41Z</time></trkpt><trkpt lat="46.44229520222623" lon="13.194308981907097"><ele>468.0</ele><time>2026-05-03T09:19:42Z</time></trkpt><trkpt lat="46.442195687558396" lon="13.194367364013358"><ele>462.5</ele><time>2026-05-03T09:19:43Z</time></trkpt><trkpt lat="46.44209153800184" lon="13.194415892733371"><ele>457.0</ele><time>2026-05-03T09:19:44Z</time></trkpt><trkpt lat="46.44197010419344" lon="13.194467202991103"><ele>457.0</ele><time>2026-05-03T09:19:45Z</time></trkpt><trkpt lat="46.44182978354586" lon="13.194509541061604"><ele>457.0</ele><time>2026-05-03T09:19:46Z</time></trkpt><trkpt lat="46.441695260746116" lon="13.19454911132691"><ele>457.0</ele><time>2026-05-03T09:19:47Z</time></trkpt><trkpt lat="46.44157191089279" lon="13.194586000928455"><ele>457.0</ele><time>2026-05-03T09:19:48Z</time></trkpt><trkpt lat="46.441453042547344" lon="13.194624334259828"><ele>457.0</ele><time>2026-05-03T09:19:49Z</time></trkpt><trkpt lat="46.44133546888691" lon="13.194654129703707"><ele>457.0</ele><time>2026-05-03T09:19:50Z</time></trkpt><trkpt lat="46.44120972443826" lon="13.194686854624996"><ele>457.0</ele><time>2026-05-03T09:19:51Z</time></trkpt><trkpt lat="46.441083238370815" lon="13.194721200967821"><ele>457.0</ele><time>2026-05-03T09:19:52Z</time></trkpt><trkpt lat="46.440956794802254" lon="13.194758949649597"><ele>456.75</ele><time>2026-05-03T09:19:53Z</time></trkpt><trkpt lat="46.440826868950516" lon="13.194795532843326"><ele>456.5</ele><time>2026-05-03T09:19:54Z</time></trkpt><trkpt lat="46.440714110075675" lon="13.19485594139067"><ele>456.25</ele><time>2026-05-03T09:19:55Z</time></trkpt><trkpt lat="46.44060367138592" lon="13.194926265389622"><ele>456.0</ele><time>2026-05-03T09:19:56Z</time></trkpt><trkpt lat="46.44048173332502" lon="13.195011441290722"><ele>450.0</ele><time>2026-05-03T09:19:57Z</time></trkpt><trkpt lat="46.44034559364755" lon="13.195122698858764"><ele>444.0</ele><time>2026-05-03T09:19:58Z</time></trkpt><trkpt lat="46.44020142466459" lon="13.195239715517994"><ele>438.0</ele><time>2026-05-03T09:19:59Z</time></trkpt><trkpt lat="46.4400593037384" lon="13.195348302737294"><ele>438.0</ele><time>2026-05-03T09:20:00Z</time></trkpt><trkpt lat="46.43999617849536" lon="13.195368199923779"><ele>437.99999999999994</ele><time>2026-05-03T09:20:01Z</time></trkpt><trkpt lat="46.43988576675094" lon="13.195453540940536"><ele>437.99999999999994</ele><time>2026-05-03T09:20:02Z</time></trkpt><trkpt lat="46.43978658105269" lon="13.195532655410515"><ele>438.0</ele><time>2026-05-03T09:20:03Z</time></trkpt><trkpt lat="46.43968391748995" lon="13.19560536641706"><ele>438.0</ele><time>2026-05-03T09:20:04Z</time></trkpt><trkpt lat="46.43956370434806" lon="13.195689900549032"><ele>436.75</ele><time>2026-05-03T09:20:05Z</time></trkpt><trkpt lat="46.43944039641887" lon="13.195784345080321"><ele>435.5</ele><time>2026-05-03T09:20:06Z</time></trkpt><trkpt lat="46.43932095542268" lon="13.19588689623639"><ele>434.25</ele><time>2026-05-03T09:20:07Z</time></trkpt><trkpt lat="46.43921188667298" lon="13.195983377092169"><ele>433.0</ele><time>2026-05-03T09:20:08Z</time></trkpt><trkpt lat="46.439106200745655" lon="13.196073735273401"><ele>433.0</ele><time>2026-05-03T09:20:09Z</time></trkpt><trkpt lat="46.43900756306427" lon="13.196167013477544"><ele>433.0</ele><time>2026-05-03T09:20:10Z</time></trkpt><trkpt lat="46.43890803237094" lon="13.196275381341003"><ele>433.0</ele><time>2026-05-03T09:20:11Z</time></trkpt><trkpt lat="46.438803071732515" lon="13.196406012188612"><ele>433.0</ele><time>2026-05-03T09:20:12Z</time></trkpt><trkpt lat="46.43869579007724" lon="13.196537361157814"><ele>431.5</ele><time>2026-05-03T09:20:13Z</time></trkpt><trkpt lat="46.438593342579416" lon="13.196653882382789"><ele>430.0</ele><time>2026-05-03T09:20:14Z</time></trkpt><trkpt lat="46.438500135534454" lon="13.196771358345913"><ele>428.5</ele><time>2026-05-03T09:20:15Z</time></trkpt><trkpt lat="46.438413845286895" lon="13.196876837821534"><ele>427.0</ele><time>2026-05-03T09:20:16Z</time></trkpt><trkpt lat="46.43832633928467" lon="13.196975699823357"><ele>427.0</ele><time>2026-05-03T09:20:17Z</time></trkpt><trkpt lat="46.43824238674494" lon="13.197073959279813"><ele>427.0</ele><time>2026-05-03T09:20:18Z</time></trkpt><trkpt lat="46.438151032551595" lon="13.197184946802949"><ele>427.0</ele><time>2026-05-03T09:20:19Z</time></trkpt><trkpt lat="46.43805468862419" lon="13.197297262554425"><ele>427.0</ele><time>2026-05-03T09:20:20Z</time></trkpt><trkpt lat="46.437953914288556" lon="13.197407493610745"><ele>425.0</ele><time>2026-05-03T09:20:21Z</time></trkpt><trkpt lat="46.43785472041265" lon="13.197526306755353"><ele>423.0</ele><time>2026-05-03T09:20:22Z</time></trkpt><trkpt lat="46.43775951000188" lon="13.197648212450448"><ele>421.0</ele><time>2026-05-03T09:20:23Z</time></trkpt><trkpt lat="46.437656454347064" lon="13.19775459814486"><ele>419.0</ele><time>2026-05-03T09:20:24Z</time></trkpt><trkpt lat="46.4375404318811" lon="13.197881231559418"><ele>419.0</ele><time>2026-05-03T09:20:25Z</time></trkpt><trkpt lat="46.437391329193844" lon="13.197995120317701"><ele>419.0</ele><time>2026-05-03T09:20:26Z</time></trkpt><trkpt lat="46.43730291357004" lon="13.198010374644106"><ele>419.0</ele><time>2026-05-03T09:20:27Z</time></trkpt><trkpt lat="46.43717478266696" lon="13.198049131193956"><ele>419.0</ele><time>2026-05-03T09:20:28Z</time></trkpt><trkpt lat="46.437053039752094" lon="13.198088049570535"><ele>419.75</ele><time>2026-05-03T09:20:29Z</time></trkpt><trkpt lat="46.43691944431782" lon="13.198136268948339"><ele>420.5</ele><time>2026-05-03T09:20:30Z</time></trkpt><trkpt lat="46.43678428891747" lon="13.198185938404064"><ele>421.25</ele><time>2026-05-03T09:20:31Z</time></trkpt><trkpt lat="46.436655490420634" lon="13.198233336933118"><ele>422.0</ele><time>2026-05-03T09:20:32Z</time></trkpt><trkpt lat="46.43652979582171" lon="13.198274071537885"><ele>420.25</ele><time>2026-05-03T09:20:33Z</time></trkpt><trkpt lat="46.436399759384535" lon="13.198300708624089"><ele>418.5</ele><time>2026-05-03T09:20:34Z</time></trkpt><trkpt lat="46.4362654265571" lon="13.1983175317873"><ele>416.75</ele><time>2026-05-03T09:20:35Z</time></trkpt><trkpt lat="46.436124665351464" lon="13.198326820737982"><ele>415.0</ele><time>2026-05-03T09:20:36Z</time></trkpt><trkpt lat="46.43598762348718" lon="13.198333365012473"><ele>413.0</ele><time>2026-05-03T09:20:37Z</time></trkpt><trkpt lat="46.43585694570732" lon="13.198337084875174"><ele>411.0</ele><time>2026-05-03T09:20:38Z</time></trkpt><trkpt lat="46.43573544048187" lon="13.198357308644834"><ele>409.0</ele><time>2026-05-03T09:20:39Z</time></trkpt><trkpt lat="46.43562053343734" lon="13.198386706719058"><ele>407.0</ele><time>2026-05-03T09:20:40Z</time></trkpt><trkpt lat="46.43550784871879" lon="13.198415137445165"><ele>406.5</ele><time>2026-05-03T09:20:41Z</time></trkpt><trkpt lat="46.43539657846439" lon="13.198450757357334"><ele>406.0</ele><time>2026-05-03T09:20:42Z</time></trkpt><trkpt lat="46.43528609097456" lon="13.198488873317567"><ele>405.5</ele><time>2026-05-03T09:20:43Z</time></trkpt><trkpt lat="46.43517380848132" lon="13.198529873649939"><ele>405.0</ele><time>2026-05-03T09:20:44Z</time></trkpt><trkpt lat="46.43505961469296" lon="13.19857462658429"><ele>405.0</ele><time>2026-05-03T09:20:45Z</time></trkpt><trkpt lat="46.43494529852157" lon="13.198618874176143"><ele>405.0</ele><time>2026-05-03T09:20:46Z</time></trkpt><trkpt lat="46.43482936685874" lon="13.198659239664346"><ele>405.0</ele><time>2026-05-03T09:20:47Z</time></trkpt><trkpt lat="46.43471544122493" lon="13.198692098733204"><ele>405.0</ele><time>2026-05-03T09:20:48Z</time></trkpt><trkpt lat="46.43459768883785" lon="13.198717256490532"><ele>404.0</ele><time>2026-05-03T09:20:49Z</time></trkpt><trkpt lat="46.43447677480112" lon="13.198726868319993"><ele>403.0</ele><time>2026-05-03T09:20:50Z</time></trkpt><trkpt lat="46.43436897871925" lon="13.198745815569518"><ele>402.0</ele><time>2026-05-03T09:20:51Z</time></trkpt><trkpt lat="46.43426541676055" lon="13.198763845392138"><ele>401.0</ele><time>2026-05-03T09:20:52Z</time></trkpt><trkpt lat="46.434159677443645" lon="13.198779124802677"><ele>400.0</ele><time>2026-05-03T09:20:53Z</time></trkpt><trkpt lat="46.43404481697757" lon="13.198802038532737"><ele>400.0</ele><time>2026-05-03T09:20:54Z</time></trkpt><trkpt lat="46.433925060435996" lon="13.198837505779249"><ele>400.0</ele><time>2026-05-03T09:20:55Z</time></trkpt><trkpt lat="46.43380755675023" lon="13.198872018001909"><ele>400.0</ele><time>2026-05-03T09:20:56Z</time></trkpt><trkpt lat="46.433696347288304" lon="13.198904965552465"><ele>400.0</ele><time>2026-05-03T09:20:57Z</time></trkpt><trkpt lat="46.433587919760434" lon="13.198942666656125"><ele>399.8</ele><time>2026-05-03T09:20:58Z</time></trkpt><trkpt lat="46.43348006200364" lon="13.198976746148492"><ele>399.6</ele><time>2026-05-03T09:20:59Z</time></trkpt><trkpt lat="46.43337258773583" lon="13.199005044752965"><ele>399.4</ele><time>2026-05-03T09:21:00Z</time></trkpt><trkpt lat="46.43326617795889" lon="13.199036802797943"><ele>399.2</ele><time>2026-05-03T09:21:01Z</time></trkpt><trkpt lat="46.43316289750355" lon="13.199072539271736"><ele>399.0</ele><time>2026-05-03T09:21:02Z</time></trkpt><trkpt lat="46.43305847888905" lon="13.199102590215238"><ele>399.0</ele><time>2026-05-03T09:21:03Z</time></trkpt><trkpt lat="46.43295778118742" lon="13.19913472546368"><ele>399.0</ele><time>2026-05-03T09:21:04Z</time></trkpt><trkpt lat="46.4328626474884" lon="13.199167612260922"><ele>399.0</ele><time>2026-05-03T09:21:05Z</time></trkpt><trkpt lat="46.43277247999447" lon="13.199199738188135"><ele>399.0</ele><time>2026-05-03T09:21:06Z</time></trkpt><trkpt lat="46.43268677252475" lon="13.19923287642847"><ele>399.0</ele><time>2026-05-03T09:21:07Z</time></trkpt><trkpt lat="46.43260869111786" lon="13.199273058363268"><ele>399.0</ele><time>2026-05-03T09:21:08Z</time></trkpt><trkpt lat="46.4325298528528" lon="13.199310511505466"><ele>399.0</ele><time>2026-05-03T09:21:09Z</time></trkpt><trkpt lat="46.43244353107493" lon="13.199352609046056"><ele>399.0</ele><time>2026-05-03T09:21:10Z</time></trkpt><trkpt lat="46.43235355018419" lon="13.199400755707844"><ele>399.0</ele><time>2026-05-03T09:21:11Z</time></trkpt><trkpt lat="46.43225613117838" lon="13.199445568830685"><ele>399.0</ele><time>2026-05-03T09:21:12Z</time></trkpt><trkpt lat="46.43215747818531" lon="13.199494709854298"><ele>397.6</ele><time>2026-05-03T09:21:13Z</time></trkpt><trkpt lat="46.432065700057144" lon="13.199554057286269"><ele>396.2</ele><time>2026-05-03T09:21:14Z</time></trkpt><trkpt lat="46.43198525054397" lon="13.199627007454236"><ele>394.8</ele><time>2026-05-03T09:21:15Z</time></trkpt><trkpt lat="46.4319092735585" lon="13.199710293018803"><ele>393.40000000000003</ele><time>2026-05-03T09:21:16Z</time></trkpt><trkpt lat="46.431835646288356" lon="13.199798261338888"><ele>392.0</ele><time>2026-05-03T09:21:17Z</time></trkpt><trkpt lat="46.431762958400725" lon="13.199886844946597"><ele>391.8</ele><time>2026-05-03T09:21:18Z</time></trkpt><trkpt lat="46.43169016209268" lon="13.199973987937785"><ele>391.6</ele><time>2026-05-03T09:21:19Z</time></trkpt><trkpt lat="46.431614886403665" lon="13.200063602200096"><ele>391.40000000000003</ele><time>2026-05-03T09:21:20Z</time></trkpt><trkpt lat="46.43154005359118" lon="13.200148270682195"><ele>391.20000000000005</ele><time>2026-05-03T09:21:21Z</time></trkpt><trkpt lat="46.4314655440422" lon="13.200235919611382"><ele>391.0</ele><time>2026-05-03T09:21:22Z</time></trkpt><trkpt lat="46.43139502831673" lon="13.200326534667765"><ele>391.0</ele><time>2026-05-03T09:21:23Z</time></trkpt><trkpt lat="46.43132250896674" lon="13.200411920269696"><ele>391.0</ele><time>2026-05-03T09:21:24Z</time></trkpt><trkpt lat="46.43124651468751" lon="13.200486504343921"><ele>391.0</ele><time>2026-05-03T09:21:25Z</time></trkpt><trkpt lat="46.43116619383195" lon="13.200547275366167"><ele>391.0</ele><time>2026-05-03T09:21:26Z</time></trkpt><trkpt lat="46.43108040067477" lon="13.200597765295685"><ele>391.0</ele><time>2026-05-03T09:21:27Z</time></trkpt><trkpt lat="46.43099367465209" lon="13.200636331265471"><ele>390.83333333333337</ele><time>2026-05-03T09:21:28Z</time></trkpt><trkpt lat="46.430907599054365" lon="13.200673770226674"><ele>390.6666666666667</ele><time>2026-05-03T09:21:29Z</time></trkpt><trkpt lat="46.430822095111935" lon="13.20070596838132"><ele>390.5</ele><time>2026-05-03T09:21:30Z</time></trkpt><trkpt lat="46.43073989175876" lon="13.20073625157178"><ele>390.33333333333337</ele><time>2026-05-03T09:21:31Z</time></trkpt><trkpt lat="46.43065569621705" lon="13.200767902650716"><ele>390.1666666666667</ele><time>2026-05-03T09:21:32Z</time></trkpt><trkpt lat="46.430560141929725" lon="13.200800897225289"><ele>390.0</ele><time>2026-05-03T09:21:33Z</time></trkpt><trkpt lat="46.43045832849935" lon="13.200839552880213"><ele>389.0</ele><time>2026-05-03T09:21:34Z</time></trkpt><trkpt lat="46.43034634666822" lon="13.200883367520163"><ele>388.0</ele><time>2026-05-03T09:21:35Z</time></trkpt><trkpt lat="46.43022999020455" lon="13.200923101249133"><ele>387.0</ele><time>2026-05-03T09:21:36Z</time></trkpt><trkpt lat="46.43012030579533" lon="13.200959635764022"><ele>386.0</ele><time>2026-05-03T09:21:37Z</time></trkpt><trkpt lat="46.43001561615241" lon="13.20099775791273"><ele>386.0</ele><time>2026-05-03T09:21:38Z</time></trkpt><trkpt lat="46.42991299428867" lon="13.2010400071888"><ele>386.0</ele><time>2026-05-03T09:21:39Z</time></trkpt><trkpt lat="46.42980871739142" lon="13.201084297234521"><ele>386.0</ele><time>2026-05-03T09:21:40Z</time></trkpt><trkpt lat="46.429704668370555" lon="13.201133094286197"><ele>386.0</ele><time>2026-05-03T09:21:41Z</time></trkpt><trkpt lat="46.42959522807819" lon="13.201187233666635"><ele>386.0</ele><time>2026-05-03T09:21:42Z</time></trkpt><trkpt lat="46.42948389945864" lon="13.201238198418935"><ele>385.0</ele><time>2026-05-03T09:21:43Z</time></trkpt><trkpt lat="46.42937149508273" lon="13.20129505817957"><ele>384.0</ele><time>2026-05-03T09:21:44Z</time></trkpt><trkpt lat="46.42926052024788" lon="13.201352309724262"><ele>383.0</ele><time>2026-05-03T09:21:45Z</time></trkpt><trkpt lat="46.42915292205406" lon="13.20141505345528"><ele>382.0</ele><time>2026-05-03T09:21:46Z</time></trkpt><trkpt lat="46.42904553836831" lon="13.201475726264468"><ele>383.0</ele><time>2026-05-03T09:21:47Z</time></trkpt><trkpt lat="46.428936809338985" lon="13.201534087830767"><ele>384.0</ele><time>2026-05-03T09:21:48Z</time></trkpt><trkpt lat="46.428829915027876" lon="13.201591809591344"><ele>385.0</ele><time>2026-05-03T09:21:49Z</time></trkpt><trkpt lat="46.42872093412664" lon="13.201645765254364"><ele>386.0</ele><time>2026-05-03T09:21:50Z</time></trkpt><trkpt lat="46.428616722753766" lon="13.201701965317898"><ele>386.0</ele><time>2026-05-03T09:21:51Z</time></trkpt><trkpt lat="46.42850971250235" lon="13.201757488809674"><ele>386.0</ele><time>2026-05-03T09:21:52Z</time></trkpt><trkpt lat="46.42840448848904" lon="13.20181062246636"><ele>386.0</ele><time>2026-05-03T09:21:53Z</time></trkpt><trkpt lat="46.42829809982137" lon="13.201863017651604"><ele>386.0</ele><time>2026-05-03T09:21:54Z</time></trkpt><trkpt lat="46.428192267261714" lon="13.201908565675371"><ele>386.0</ele><time>2026-05-03T09:21:55Z</time></trkpt><trkpt lat="46.42808443256363" lon="13.201941553794411"><ele>384.8</ele><time>2026-05-03T09:21:56Z</time></trkpt><trkpt lat="46.42797650148166" lon="13.201963015409872"><ele>383.6</ele><time>2026-05-03T09:21:57Z</time></trkpt><trkpt lat="46.4278701968378" lon="13.201981891730547"><ele>382.4</ele><time>2026-05-03T09:21:58Z</time></trkpt><trkpt lat="46.427764279061265" lon="13.201995408297863"><ele>381.2</ele><time>2026-05-03T09:21:59Z</time></trkpt><trkpt lat="46.427659814003" lon="13.202007018640671"><ele>380.0</ele><time>2026-05-03T09:22:00Z</time></trkpt><trkpt lat="46.42755549333124" lon="13.202017251012826"><ele>380.0</ele><time>2026-05-03T09:22:01Z</time></trkpt><trkpt lat="46.427455794123205" lon="13.202025013071356"><ele>380.0</ele><time>2026-05-03T09:22:02Z</time></trkpt><trkpt lat="46.42735498862247" lon="13.20203186046305"><ele>380.0</ele><time>2026-05-03T09:22:03Z</time></trkpt><trkpt lat="46.42725754987433" lon="13.202045637653002"><ele>380.0</ele><time>2026-05-03T09:22:04Z</time></trkpt><trkpt lat="46.427160740936266" lon="13.202068134119596"><ele>380.0</ele><time>2026-05-03T09:22:05Z</time></trkpt><trkpt lat="46.42706595357387" lon="13.202098995640835"><ele>379.0</ele><time>2026-05-03T09:22:06Z</time></trkpt><trkpt lat="46.42697525546871" lon="13.202144381152104"><ele>378.0</ele><time>2026-05-03T09:22:07Z</time></trkpt><trkpt lat="46.426888169790736" lon="13.202194659430575"><ele>377.0</ele><time>2026-05-03T09:22:08Z</time></trkpt><trkpt lat="46.42679928323157" lon="13.202246315823935"><ele>376.0</ele><time>2026-05-03T09:22:09Z</time></trkpt><trkpt lat="46.42671139421638" lon="13.202290567184924"><ele>375.0</ele><time>2026-05-03T09:22:10Z</time></trkpt><trkpt lat="46.42662336763164" lon="13.202330118308495"><ele>375.1666666666667</ele><time>2026-05-03T09:22:11Z</time></trkpt><trkpt lat="46.426533971530745" lon="13.202361156863283"><ele>375.3333333333333</ele><time>2026-05-03T09:22:12Z</time></trkpt><trkpt lat="46.42644547907544" lon="13.202381139976245"><ele>375.5</ele><time>2026-05-03T09:22:13Z</time></trkpt><trkpt lat="46.42635561808702" lon="13.20238678382397"><ele>375.66666666666663</ele><time>2026-05-03T09:22:14Z</time></trkpt><trkpt lat="46.426268083319776" lon="13.202374489275538"><ele>375.8333333333333</ele><time>2026-05-03T09:22:15Z</time></trkpt><trkpt lat="46.42618262837534" lon="13.20234854975794"><ele>376.0</ele><time>2026-05-03T09:22:16Z</time></trkpt><trkpt lat="46.426097584560786" lon="13.202314804428665"><ele>375.3333333333333</ele><time>2026-05-03T09:22:17Z</time></trkpt><trkpt lat="46.42601787988018" lon="13.202279064128497"><ele>374.66666666666663</ele><time>2026-05-03T09:22:18Z</time></trkpt><trkpt lat="46.4259370204436" lon="13.202240468655699"><ele>374.0</ele><time>2026-05-03T09:22:19Z</time></trkpt><trkpt lat="46.42585548979338" lon="13.202203638431802"><ele>373.3333333333333</ele><time>2026-05-03T09:22:20Z</time></trkpt><trkpt lat="46.425775714301786" lon="13.202172818815077"><ele>372.6666666666667</ele><time>2026-05-03T09:22:21Z</time></trkpt><trkpt lat="46.42569787169244" lon="13.202145253938147"><ele>372.0</ele><time>2026-05-03T09:22:22Z</time></trkpt><trkpt lat="46.425617398229285" lon="13.202125161082614"><ele>372.0</ele><time>2026-05-03T09:22:23Z</time></trkpt><trkpt lat="46.42553753089643" lon="13.202108696793118"><ele>372.0</ele><time>2026-05-03T09:22:24Z</time></trkpt><trkpt lat="46.425463029093706" lon="13.20209743635288"><ele>372.0</ele><time>2026-05-03T09:22:25Z</time></trkpt><trkpt lat="46.42538464698589" lon="13.202084674822451"><ele>372.0</ele><time>2026-05-03T09:22:26Z</time></trkpt><trkpt lat="46.425298026341125" lon="13.202067467009455"><ele>372.0</ele><time>2026-05-03T09:22:27Z</time></trkpt><trkpt lat="46.42520035271494" lon="13.202052827342506"><ele>372.0</ele><time>2026-05-03T09:22:28Z</time></trkpt><trkpt lat="46.42509912471179" lon="13.20203804693087"><ele>372.0</ele><time>2026-05-03T09:22:29Z</time></trkpt><trkpt lat="46.42499423562025" lon="13.202020204524056"><ele>372.0</ele><time>2026-05-03T09:22:30Z</time></trkpt><trkpt lat="46.424880595664625" lon="13.202010069132172"><ele>372.0</ele><time>2026-05-03T09:22:31Z</time></trkpt><trkpt lat="46.42475766610342" lon="13.202000875240632"><ele>372.0</ele><time>2026-05-03T09:22:32Z</time></trkpt><trkpt lat="46.424635248945464" lon="13.201991680182857"><ele>371.0</ele><time>2026-05-03T09:22:33Z</time></trkpt><trkpt lat="46.424516184801256" lon="13.20198193744791"><ele>370.0</ele><time>2026-05-03T09:22:34Z</time></trkpt><trkpt lat="46.424398574830406" lon="13.201970299467252"><ele>369.0</ele><time>2026-05-03T09:22:35Z</time></trkpt><trkpt lat="46.42428312567815" lon="13.201958671441407"><ele>368.0</ele><time>2026-05-03T09:22:36Z</time></trkpt><trkpt lat="46.424169318598764" lon="13.201950944765153"><ele>368.0</ele><time>2026-05-03T09:22:37Z</time></trkpt><trkpt lat="46.424056673089936" lon="13.20194479951035"><ele>368.0</ele><time>2026-05-03T09:22:38Z</time></trkpt><trkpt lat="46.42394579470151" lon="13.201941667251521"><ele>368.0</ele><time>2026-05-03T09:22:39Z</time></trkpt><trkpt lat="46.423837087310034" lon="13.201933642783947"><ele>368.0</ele><time>2026-05-03T09:22:40Z</time></trkpt><trkpt lat="46.423730983888746" lon="13.201923763268283"><ele>368.0</ele><time>2026-05-03T09:22:41Z</time></trkpt><trkpt lat="46.423632616991625" lon="13.201908003549828"><ele>367.5</ele><time>2026-05-03T09:22:42Z</time></trkpt><trkpt lat="46.42354104004046" lon="13.201881207139843"><ele>367.0</ele><time>2026-05-03T09:22:43Z</time></trkpt><trkpt lat="46.42345706187616" lon="13.201838277150749"><ele>366.5</ele><time>2026-05-03T09:22:44Z</time></trkpt><trkpt lat="46.4233836513421" lon="13.201780558001575"><ele>366.0</ele><time>2026-05-03T09:22:45Z</time></trkpt><trkpt lat="46.42331845268124" lon="13.201714092745467"><ele>365.5</ele><time>2026-05-03T09:22:46Z</time></trkpt><trkpt lat="46.42326252341105" lon="13.201635446282811"><ele>365.0</ele><time>2026-05-03T09:22:47Z</time></trkpt><trkpt lat="46.42320577086998" lon="13.201531968460417"><ele>367.2</ele><time>2026-05-03T09:22:48Z</time></trkpt><trkpt lat="46.4231518474198" lon="13.201419627536882"><ele>369.4</ele><time>2026-05-03T09:22:49Z</time></trkpt><trkpt lat="46.42309336561444" lon="13.201299452765422"><ele>371.6</ele><time>2026-05-03T09:22:50Z</time></trkpt><trkpt lat="46.42303239117693" lon="13.201177740001482"><ele>373.8</ele><time>2026-05-03T09:22:51Z</time></trkpt><trkpt lat="46.4229745718449" lon="13.201059614988521"><ele>376.0</ele><time>2026-05-03T09:22:52Z</time></trkpt><trkpt lat="46.42291689357984" lon="13.200959244073763"><ele>376.0</ele><time>2026-05-03T09:22:53Z</time></trkpt><trkpt lat="46.42284711309624" lon="13.200883588375504"><ele>376.0</ele><time>2026-05-03T09:22:54Z</time></trkpt><trkpt lat="46.42277685127295" lon="13.200838608051436"><ele>376.0</ele><time>2026-05-03T09:22:55Z</time></trkpt><trkpt lat="46.422698195267884" lon="13.200805824092859"><ele>376.0</ele><time>2026-05-03T09:22:56Z</time></trkpt><trkpt lat="46.42262201986315" lon="13.200772288276848"><ele>376.0</ele><time>2026-05-03T09:22:57Z</time></trkpt><trkpt lat="46.42254624556327" lon="13.200732971620793"><ele>376.0</ele><time>2026-05-03T09:22:58Z</time></trkpt><trkpt lat="46.42247546397861" lon="13.200682716695058"><ele>374.20000000000005</ele><time>2026-05-03T09:22:59Z</time></trkpt><trkpt lat="46.422394379143824" lon="13.200606048167305"><ele>372.40000000000003</ele><time>2026-05-03T09:23:00Z</time></trkpt><trkpt lat="46.422310160802205" lon="13.200523326409574"><ele>370.6</ele><time>2026-05-03T09:23:01Z</time></trkpt><trkpt lat="46.42222356463408" lon="13.200423434205227"><ele>368.8</ele><time>2026-05-03T09:23:02Z</time></trkpt><trkpt lat="46.42213357825885" lon="13.20031843184441"><ele>367.0</ele><time>2026-05-03T09:23:03Z</time></trkpt><trkpt lat="46.42203888729188" lon="13.200200489309188"><ele>367.0</ele><time>2026-05-03T09:23:04Z</time></trkpt><trkpt lat="46.421941491890266" lon="13.20007087588519"><ele>367.0</ele><time>2026-05-03T09:23:05Z</time></trkpt><trkpt lat="46.42185347093501" lon="13.19994038423432"><ele>367.0</ele><time>2026-05-03T09:23:06Z</time></trkpt><trkpt lat="46.4217724020525" lon="13.199807990161478"><ele>367.0</ele><time>2026-05-03T09:23:07Z</time></trkpt><trkpt lat="46.4216887474253" lon="13.19967423862696"><ele>366.0</ele><time>2026-05-03T09:23:08Z</time></trkpt><trkpt lat="46.42161192464894" lon="13.199551580214106"><ele>365.0</ele><time>2026-05-03T09:23:09Z</time></trkpt><trkpt lat="46.42151530706569" lon="13.199439636016645"><ele>364.0</ele><time>2026-05-03T09:23:10Z</time></trkpt><trkpt lat="46.42144033378461" lon="13.199328700062354"><ele>363.0</ele><time>2026-05-03T09:23:11Z</time></trkpt><trkpt lat="46.42137081463506" lon="13.199221990400643"><ele>362.0</ele><time>2026-05-03T09:23:12Z</time></trkpt><trkpt lat="46.42130742088362" lon="13.199114708404887"><ele>362.0</ele><time>2026-05-03T09:23:13Z</time></trkpt><trkpt lat="46.421234584955464" lon="13.19900562050395"><ele>362.0</ele><time>2026-05-03T09:23:14Z</time></trkpt><trkpt lat="46.42115220697321" lon="13.19890732621466"><ele>362.0</ele><time>2026-05-03T09:23:15Z</time></trkpt><trkpt lat="46.42107327290951" lon="13.198818783701807"><ele>362.0</ele><time>2026-05-03T09:23:16Z</time></trkpt><trkpt lat="46.42098931540506" lon="13.198729853404988"><ele>362.0</ele><time>2026-05-03T09:23:17Z</time></trkpt><trkpt lat="46.42089737709412" lon="13.198637513398365"><ele>362.6</ele><time>2026-05-03T09:23:18Z</time></trkpt><trkpt lat="46.4207989055382" lon="13.198542100889599"><ele>363.20000000000005</ele><time>2026-05-03T09:23:19Z</time></trkpt><trkpt lat="46.42070515650852" lon="13.19845068132292"><ele>363.8</ele><time>2026-05-03T09:23:20Z</time></trkpt><trkpt lat="46.420614275812305" lon="13.198365570938856"><ele>364.4</ele><time>2026-05-03T09:23:21Z</time></trkpt><trkpt lat="46.42052653929071" lon="13.19828986679027"><ele>365.0</ele><time>2026-05-03T09:23:22Z</time></trkpt><trkpt lat="46.42044048764272" lon="13.198216708850545"><ele>366.0</ele><time>2026-05-03T09:23:23Z</time></trkpt><trkpt lat="46.42035314532928" lon="13.198144999396787"><ele>367.0</ele><time>2026-05-03T09:23:24Z</time></trkpt><trkpt lat="46.42026444107242" lon="13.19808039917932"><ele>368.0</ele><time>2026-05-03T09:23:25Z</time></trkpt><trkpt lat="46.42017591682826" lon="13.198019970559695"><ele>369.0</ele><time>2026-05-03T09:23:26Z</time></trkpt><trkpt lat="46.420087563699745" lon="13.197971352207057"><ele>370.0</ele><time>2026-05-03T09:23:27Z</time></trkpt><trkpt lat="46.420001735463636" lon="13.197930489685772"><ele>370.0</ele><time>2026-05-03T09:23:28Z</time></trkpt><trkpt lat="46.419909594862176" lon="13.197891263317288"><ele>370.0</ele><time>2026-05-03T09:23:29Z</time></trkpt><trkpt lat="46.41980769366853" lon="13.197845909386631"><ele>370.0</ele><time>2026-05-03T09:23:30Z</time></trkpt><trkpt lat="46.419698998282605" lon="13.197800967533125"><ele>370.0</ele><time>2026-05-03T09:23:31Z</time></trkpt><trkpt lat="46.419580519264564" lon="13.197751845743568"><ele>370.0</ele><time>2026-05-03T09:23:32Z</time></trkpt><trkpt lat="46.41945281666636" lon="13.197710048930979"><ele>368.0</ele><time>2026-05-03T09:23:33Z</time></trkpt><trkpt lat="46.41932129236843" lon="13.19767310390449"><ele>366.0</ele><time>2026-05-03T09:23:34Z</time></trkpt><trkpt lat="46.41919767848231" lon="13.197642179059153"><ele>364.0</ele><time>2026-05-03T09:23:35Z</time></trkpt><trkpt lat="46.419076323345614" lon="13.197613429545044"><ele>362.0</ele><time>2026-05-03T09:23:36Z</time></trkpt><trkpt lat="46.418943689052185" lon="13.19759227355365"><ele>360.75</ele><time>2026-05-03T09:23:37Z</time></trkpt><trkpt lat="46.41881392918555" lon="13.197578105150734"><ele>359.5</ele><time>2026-05-03T09:23:38Z</time></trkpt><trkpt lat="46.418694169177044" lon="13.197573283203845"><ele>358.25</ele><time>2026-05-03T09:23:39Z</time></trkpt><trkpt lat="46.418584962881766" lon="13.197569349384194"><ele>357.0</ele><time>2026-05-03T09:23:40Z</time></trkpt><trkpt lat="46.41849124435421" lon="13.197564022618273"><ele>357.0</ele><time>2026-05-03T09:23:41Z</time></trkpt><trkpt lat="46.418416648568254" lon="13.197562931953748"><ele>357.0</ele><time>2026-05-03T09:23:42Z</time></trkpt><trkpt lat="46.4183163077688" lon="13.197572799188437"><ele>357.0</ele><time>2026-05-03T09:23:44Z</time></trkpt><trkpt lat="46.41822072834039" lon="13.197573933631316"><ele>357.0</ele><time>2026-05-03T09:23:46Z</time></trkpt><trkpt lat="46.41753371038622" lon="13.197689477265369"><ele>358.5</ele><time>2026-05-03T09:23:48Z</time></trkpt><trkpt lat="46.4174038117099" lon="13.197744857905336"><ele>360.0</ele><time>2026-05-03T09:23:49Z</time></trkpt><trkpt lat="46.41728451011996" lon="13.197795226794709"><ele>361.5</ele><time>2026-05-03T09:23:50Z</time></trkpt><trkpt lat="46.41716594393082" lon="13.197845479595617"><ele>363.0</ele><time>2026-05-03T09:23:51Z</time></trkpt><trkpt lat="46.417046158948224" lon="13.197899840943602"><ele>362.5</ele><time>2026-05-03T09:23:52Z</time></trkpt><trkpt lat="46.416922198277724" lon="13.197967346611742"><ele>362.0</ele><time>2026-05-03T09:23:53Z</time></trkpt><trkpt lat="46.41679779224271" lon="13.198062402667183"><ele>361.5</ele><time>2026-05-03T09:23:54Z</time></trkpt><trkpt lat="46.41667192300225" lon="13.198175605138802"><ele>361.0</ele><time>2026-05-03T09:23:55Z</time></trkpt><trkpt lat="46.416582662831004" lon="13.198278168751793"><ele>361.0</ele><time>2026-05-03T09:23:56Z</time></trkpt><trkpt lat="46.416463991508536" lon="13.198398220401923"><ele>361.0</ele><time>2026-05-03T09:23:57Z</time></trkpt><trkpt lat="46.41637931841112" lon="13.19852680252257"><ele>361.0</ele><time>2026-05-03T09:23:58Z</time></trkpt><trkpt lat="46.41629473030045" lon="13.19866493222333"><ele>361.0</ele><time>2026-05-03T09:23:59Z</time></trkpt><trkpt lat="46.416211897864834" lon="13.198815365153395"><ele>360.5</ele><time>2026-05-03T09:24:00Z</time></trkpt><trkpt lat="46.416126708289525" lon="13.1989818465684"><ele>360.0</ele><time>2026-05-03T09:24:01Z</time></trkpt><trkpt lat="46.41603078911517" lon="13.19915107819779"><ele>359.5</ele><time>2026-05-03T09:24:02Z</time></trkpt><trkpt lat="46.41593814764176" lon="13.19931068605892"><ele>359.0</ele><time>2026-05-03T09:24:03Z</time></trkpt><trkpt lat="46.41585073209401" lon="13.199456238333632"><ele>359.0</ele><time>2026-05-03T09:24:04Z</time></trkpt><trkpt lat="46.41577005355327" lon="13.199592717352811"><ele>359.0</ele><time>2026-05-03T09:24:05Z</time></trkpt><trkpt lat="46.415692685048796" lon="13.199731587660393"><ele>359.0</ele><time>2026-05-03T09:24:06Z</time></trkpt><trkpt lat="46.41561296250739" lon="13.199860080510877"><ele>359.0</ele><time>2026-05-03T09:24:07Z</time></trkpt><trkpt lat="46.4155061542321" lon="13.199970105464423"><ele>356.25</ele><time>2026-05-03T09:24:08Z</time></trkpt><trkpt lat="46.41538749550965" lon="13.200084123178383"><ele>353.5</ele><time>2026-05-03T09:24:09Z</time></trkpt><trkpt lat="46.41527913056405" lon="13.20020264529798"><ele>350.75</ele><time>2026-05-03T09:24:10Z</time></trkpt><trkpt lat="46.415170409994246" lon="13.200298314341744"><ele>348.0</ele><time>2026-05-03T09:24:11Z</time></trkpt><trkpt lat="46.41507255322815" lon="13.200377659496015"><ele>348.0</ele><time>2026-05-03T09:24:12Z</time></trkpt><trkpt lat="46.41497563483567" lon="13.200453991210182"><ele>348.0</ele><time>2026-05-03T09:24:13Z</time></trkpt><trkpt lat="46.414873043321386" lon="13.200537456425115"><ele>348.0</ele><time>2026-05-03T09:24:14Z</time></trkpt><trkpt lat="46.414768547128226" lon="13.200621019963297"><ele>348.0</ele><time>2026-05-03T09:24:15Z</time></trkpt><trkpt lat="46.41467219877037" lon="13.200692001288894"><ele>347.2</ele><time>2026-05-03T09:24:16Z</time></trkpt><trkpt lat="46.41458008379138" lon="13.20074550628595"><ele>346.4</ele><time>2026-05-03T09:24:17Z</time></trkpt><trkpt lat="46.41448422420493" lon="13.200781559444152"><ele>345.59999999999997</ele><time>2026-05-03T09:24:18Z</time></trkpt><trkpt lat="46.41438191625079" lon="13.20080256033309"><ele>344.79999999999995</ele><time>2026-05-03T09:24:19Z</time></trkpt><trkpt lat="46.41427872537719" lon="13.200793729754176"><ele>344.0</ele><time>2026-05-03T09:24:20Z</time></trkpt><trkpt lat="46.414192203993146" lon="13.200726320749974"><ele>344.0</ele><time>2026-05-03T09:24:21Z</time></trkpt><trkpt lat="46.414111568341745" lon="13.200677976550782"><ele>344.0</ele><time>2026-05-03T09:24:22Z</time></trkpt><trkpt lat="46.41404806275651" lon="13.200589663086088"><ele>344.0</ele><time>2026-05-03T09:24:23Z</time></trkpt><trkpt lat="46.41399632062515" lon="13.200493183380994"><ele>344.0</ele><time>2026-05-03T09:24:24Z</time></trkpt><trkpt lat="46.413946893214" lon="13.20038246980877"><ele>344.0</ele><time>2026-05-03T09:24:25Z</time></trkpt><trkpt lat="46.41389265470985" lon="13.200266464914508"><ele>344.0</ele><time>2026-05-03T09:24:26Z</time></trkpt><trkpt lat="46.41383102906857" lon="13.200145652532035"><ele>344.0</ele><time>2026-05-03T09:24:27Z</time></trkpt><trkpt lat="46.41376356752829" lon="13.20001730224511"><ele>344.0</ele><time>2026-05-03T09:24:28Z</time></trkpt><trkpt lat="46.41369221249525" lon="13.199890628989468"><ele>344.0</ele><time>2026-05-03T09:24:29Z</time></trkpt><trkpt lat="46.41362111215117" lon="13.19978122416088"><ele>344.0</ele><time>2026-05-03T09:24:30Z</time></trkpt><trkpt lat="46.413552548786726" lon="13.199686539379888"><ele>344.0</ele><time>2026-05-03T09:24:31Z</time></trkpt><trkpt lat="46.41348621873378" lon="13.199595981193248"><ele>344.0</ele><time>2026-05-03T09:24:32Z</time></trkpt><trkpt lat="46.41342126575248" lon="13.199512938866919"><ele>344.0</ele><time>2026-05-03T09:24:33Z</time></trkpt><trkpt lat="46.413353367891666" lon="13.199433842771986"><ele>344.0</ele><time>2026-05-03T09:24:34Z</time></trkpt><trkpt lat="46.4132778054067" lon="13.199342115306239"><ele>344.0</ele><time>2026-05-03T09:24:35Z</time></trkpt><trkpt lat="46.413193310374034" lon="13.199242039244288"><ele>344.0</ele><time>2026-05-03T09:24:36Z</time></trkpt><trkpt lat="46.41309702462252" lon="13.19914077105833"><ele>344.0</ele><time>2026-05-03T09:24:37Z</time></trkpt><trkpt lat="46.413000750975684" lon="13.199044792780983"><ele>344.0</ele><time>2026-05-03T09:24:38Z</time></trkpt><trkpt lat="46.41291506823913" lon="13.198957827054038"><ele>344.0</ele><time>2026-05-03T09:24:39Z</time></trkpt><trkpt lat="46.41283253912615" lon="13.198869935851809"><ele>344.0</ele><time>2026-05-03T09:24:40Z</time></trkpt><trkpt lat="46.41275095831472" lon="13.198784804580626"><ele>344.0</ele><time>2026-05-03T09:24:41Z</time></trkpt><trkpt lat="46.41266490656042" lon="13.198701478884008"><ele>343.79999999999995</ele><time>2026-05-03T09:24:42Z</time></trkpt><trkpt lat="46.41257817313708" lon="13.198617140076195"><ele>343.59999999999997</ele><time>2026-05-03T09:24:43Z</time></trkpt><trkpt lat="46.41249118963043" lon="13.19852984289268"><ele>343.4</ele><time>2026-05-03T09:24:44Z</time></trkpt><trkpt lat="46.41240388376019" lon="13.198444133251375"><ele>343.2</ele><time>2026-05-03T09:24:45Z</time></trkpt><trkpt lat="46.412321479391906" lon="13.198365426638878"><ele>343.0</ele><time>2026-05-03T09:24:46Z</time></trkpt><trkpt lat="46.41224418317481" lon="13.198292197131984"><ele>343.0</ele><time>2026-05-03T09:24:47Z</time></trkpt><trkpt lat="46.41216950219102" lon="13.198227148013478"><ele>343.0</ele><time>2026-05-03T09:24:48Z</time></trkpt><trkpt lat="46.412098149826654" lon="13.198166885200447"><ele>343.0</ele><time>2026-05-03T09:24:49Z</time></trkpt><trkpt lat="46.41202693975732" lon="13.19811331950907"><ele>343.0</ele><time>2026-05-03T09:24:50Z</time></trkpt><trkpt lat="46.41195094091014" lon="13.198064477290362"><ele>343.0</ele><time>2026-05-03T09:24:51Z</time></trkpt><trkpt lat="46.411867020195" lon="13.198017600367834"><ele>343.0</ele><time>2026-05-03T09:24:52Z</time></trkpt><trkpt lat="46.41177529178038" lon="13.197964907139792"><ele>342.4</ele><time>2026-05-03T09:24:53Z</time></trkpt><trkpt lat="46.41168090852128" lon="13.197916933994895"><ele>341.79999999999995</ele><time>2026-05-03T09:24:54Z</time></trkpt><trkpt lat="46.411580226518964" lon="13.19787015710219"><ele>341.2</ele><time>2026-05-03T09:24:55Z</time></trkpt><trkpt lat="46.41147689365802" lon="13.197824085184985"><ele>340.6</ele><time>2026-05-03T09:24:56Z</time></trkpt><trkpt lat="46.41137088498344" lon="13.19778408673496"><ele>340.0</ele><time>2026-05-03T09:24:57Z</time></trkpt><trkpt lat="46.41127404728286" lon="13.197749009997096"><ele>339.0</ele><time>2026-05-03T09:24:58Z</time></trkpt><trkpt lat="46.41117652600957" lon="13.19771140292776"><ele>338.0</ele><time>2026-05-03T09:24:59Z</time></trkpt><trkpt lat="46.41107002810288" lon="13.197671848840534"><ele>337.0</ele><time>2026-05-03T09:25:00Z</time></trkpt><trkpt lat="46.41096560540951" lon="13.197629279386927"><ele>336.0</ele><time>2026-05-03T09:25:01Z</time></trkpt><trkpt lat="46.410864281740025" lon="13.197593339022532"><ele>335.0</ele><time>2026-05-03T09:25:02Z</time></trkpt><trkpt lat="46.41075707401539" lon="13.19755439940774"><ele>335.0</ele><time>2026-05-03T09:25:03Z</time></trkpt><trkpt lat="46.41065454464156" lon="13.197511218578754"><ele>335.0</ele><time>2026-05-03T09:25:04Z</time></trkpt><trkpt lat="46.41055741178145" lon="13.197473966397068"><ele>335.0</ele><time>2026-05-03T09:25:05Z</time></trkpt><trkpt lat="46.410467448710506" lon="13.19743829045213"><ele>335.0</ele><time>2026-05-03T09:25:06Z</time></trkpt><trkpt lat="46.410382345977084" lon="13.197404758568648"><ele>335.0</ele><time>2026-05-03T09:25:07Z</time></trkpt><trkpt lat="46.41030230099705" lon="13.1973751600687"><ele>334.83333333333337</ele><time>2026-05-03T09:25:08Z</time></trkpt><trkpt lat="46.410234774362706" lon="13.197350734862418"><ele>334.6666666666667</ele><time>2026-05-03T09:25:09Z</time></trkpt><trkpt lat="46.41014022955863" lon="13.19731175149648"><ele>334.5</ele><time>2026-05-03T09:25:11Z</time></trkpt><trkpt lat="46.41007817628406" lon="13.197266308890155"><ele>334.3333333333333</ele><time>2026-05-03T09:25:13Z</time></trkpt><trkpt lat="46.410009420833156" lon="13.19723155867003"><ele>334.16666666666663</ele><time>2026-05-03T09:25:16Z</time></trkpt><trkpt lat="46.40993179056579" lon="13.197247239392777"><ele>334.0</ele><time>2026-05-03T09:28:25Z</time></trkpt><trkpt lat="46.40985762257384" lon="13.197221409470533"><ele>334.2</ele><time>2026-05-03T09:28:27Z</time></trkpt><trkpt lat="46.40979426332166" lon="13.197200334147329"><ele>334.4</ele><time>2026-05-03T09:28:28Z</time></trkpt><trkpt lat="46.409689377842184" lon="13.197161114197778"><ele>334.6</ele><time>2026-05-03T09:28:30Z</time></trkpt><trkpt lat="46.40960521384138" lon="13.197127174989935"><ele>334.8</ele><time>2026-05-03T09:28:32Z</time></trkpt><trkpt lat="46.409520390639486" lon="13.197052934481107"><ele>335.0</ele><time>2026-05-03T09:28:35Z</time></trkpt><trkpt lat="46.409439844393745" lon="13.197247501120174"><ele>334.6666666666667</ele><time>2026-05-03T09:28:36Z</time></trkpt><trkpt lat="46.40936361013559" lon="13.197411732348467"><ele>334.33333333333337</ele><time>2026-05-03T09:28:38Z</time></trkpt><trkpt lat="46.409318793769714" lon="13.19750949586336"><ele>334.0</ele><time>2026-05-03T09:28:39Z</time></trkpt><trkpt lat="46.40927351407861" lon="13.197598715806325"><ele>333.6666666666667</ele><time>2026-05-03T09:28:40Z</time></trkpt><trkpt lat="46.40923109134699" lon="13.197687458571437"><ele>333.3333333333333</ele><time>2026-05-03T09:28:41Z</time></trkpt><trkpt lat="46.409182339836995" lon="13.197778424796809"><ele>333.0</ele><time>2026-05-03T09:28:42Z</time></trkpt><trkpt lat="46.409132021642364" lon="13.197873467308312"><ele>333.0</ele><time>2026-05-03T09:28:43Z</time></trkpt><trkpt lat="46.409082362023554" lon="13.197971374881147"><ele>333.0</ele><time>2026-05-03T09:28:44Z</time></trkpt><trkpt lat="46.409028706985715" lon="13.198068561167448"><ele>333.0</ele><time>2026-05-03T09:28:45Z</time></trkpt><trkpt lat="46.40895962724094" lon="13.198149587570601"><ele>333.0</ele><time>2026-05-03T09:28:46Z</time></trkpt><trkpt lat="46.408880155018025" lon="13.198210443871043"><ele>333.0</ele><time>2026-05-03T09:28:47Z</time></trkpt><trkpt lat="46.4087933889" lon="13.198248419045967"><ele>333.0</ele><time>2026-05-03T09:28:48Z</time></trkpt><trkpt lat="46.408702272549725" lon="13.198271445604732"><ele>331.79999999999995</ele><time>2026-05-03T09:28:49Z</time></trkpt><trkpt lat="46.40860785870438" lon="13.198270949796523"><ele>330.6</ele><time>2026-05-03T09:28:50Z</time></trkpt><trkpt lat="46.40851512623245" lon="13.198246231824216"><ele>329.4</ele><time>2026-05-03T09:28:51Z</time></trkpt><trkpt lat="46.40843068563789" lon="13.198199468410644"><ele>328.20000000000005</ele><time>2026-05-03T09:28:52Z</time></trkpt><trkpt lat="46.408352464600064" lon="13.198131841467157"><ele>327.0</ele><time>2026-05-03T09:28:53Z</time></trkpt><trkpt lat="46.40828004352987" lon="13.1980562469092"><ele>327.0</ele><time>2026-05-03T09:28:54Z</time></trkpt><trkpt lat="46.40821438900411" lon="13.19797952602451"><ele>327.0</ele><time>2026-05-03T09:28:55Z</time></trkpt><trkpt lat="46.40814894954195" lon="13.19790922923958"><ele>327.0</ele><time>2026-05-03T09:28:56Z</time></trkpt><trkpt lat="46.40808451340386" lon="13.197842650991129"><ele>327.0</ele><time>2026-05-03T09:28:57Z</time></trkpt><trkpt lat="46.408021113693664" lon="13.19777833046306"><ele>327.0</ele><time>2026-05-03T09:28:58Z</time></trkpt><trkpt lat="46.407958823999515" lon="13.19771541834677"><ele>327.0</ele><time>2026-05-03T09:28:59Z</time></trkpt><trkpt lat="46.40789829276771" lon="13.197654765133974"><ele>326.42857142857144</ele><time>2026-05-03T09:29:00Z</time></trkpt><trkpt lat="46.40783553277564" lon="13.197606803959731"><ele>325.8571428571429</ele><time>2026-05-03T09:29:01Z</time></trkpt><trkpt lat="46.40776825423658" lon="13.197584483920975"><ele>325.28571428571433</ele><time>2026-05-03T09:29:02Z</time></trkpt><trkpt lat="46.40770011446384" lon="13.197577626118608"><ele>324.7142857142857</ele><time>2026-05-03T09:29:03Z</time></trkpt><trkpt lat="46.40763075015435" lon="13.197575800554283"><ele>324.14285714285717</ele><time>2026-05-03T09:29:04Z</time></trkpt><trkpt lat="46.407563333194" lon="13.197578605077286"><ele>323.5714285714286</ele><time>2026-05-03T09:29:05Z</time></trkpt><trkpt lat="46.4074959496743" lon="13.197582596146017"><ele>323.0</ele><time>2026-05-03T09:29:06Z</time></trkpt><trkpt lat="46.407429166289326" lon="13.19758889349505"><ele>323.0</ele><time>2026-05-03T09:29:07Z</time></trkpt><trkpt lat="46.40729860109067" lon="13.197594646016459"><ele>323.0</ele><time>2026-05-03T09:29:09Z</time></trkpt><trkpt lat="46.40721890208015" lon="13.197597047835313"><ele>323.0</ele><time>2026-05-03T09:29:10Z</time></trkpt><trkpt lat="46.40713384598174" lon="13.197601632269865"><ele>323.0</ele><time>2026-05-03T09:29:11Z</time></trkpt><trkpt lat="46.40703960095529" lon="13.197600775972806"><ele>323.0</ele><time>2026-05-03T09:29:12Z</time></trkpt><trkpt lat="46.406942036299746" lon="13.197567718811538"><ele>322.25</ele><time>2026-05-03T09:29:13Z</time></trkpt><trkpt lat="46.40683578644492" lon="13.197501106880365"><ele>321.5</ele><time>2026-05-03T09:29:14Z</time></trkpt><trkpt lat="46.40673257756884" lon="13.197409176449455"><ele>320.75</ele><time>2026-05-03T09:29:15Z</time></trkpt><trkpt lat="46.40662213016743" lon="13.197312327826925"><ele>320.0</ele><time>2026-05-03T09:29:16Z</time></trkpt><trkpt lat="46.4065158960887" lon="13.197234545425205"><ele>319.75</ele><time>2026-05-03T09:29:17Z</time></trkpt><trkpt lat="46.40641230124307" lon="13.197153723867716"><ele>319.5</ele><time>2026-05-03T09:29:18Z</time></trkpt><trkpt lat="46.406308660688566" lon="13.197071052733243"><ele>319.25</ele><time>2026-05-03T09:29:19Z</time></trkpt><trkpt lat="46.406208450443366" lon="13.19698848993935"><ele>319.0</ele><time>2026-05-03T09:29:20Z</time></trkpt><trkpt lat="46.40611003771363" lon="13.196908000854114"><ele>318.0</ele><time>2026-05-03T09:29:21Z</time></trkpt><trkpt lat="46.40601853588924" lon="13.196816607874219"><ele>317.0</ele><time>2026-05-03T09:29:22Z</time></trkpt><trkpt lat="46.40593734653016" lon="13.19671137123426"><ele>316.0</ele><time>2026-05-03T09:29:23Z</time></trkpt><trkpt lat="46.40585633513307" lon="13.196602075050723"><ele>315.0</ele><time>2026-05-03T09:29:24Z</time></trkpt><trkpt lat="46.40577862668431" lon="13.196494072930745"><ele>314.0</ele><time>2026-05-03T09:29:25Z</time></trkpt><trkpt lat="46.40570243316363" lon="13.19638643028686"><ele>314.0</ele><time>2026-05-03T09:29:26Z</time></trkpt><trkpt lat="46.40562905609397" lon="13.196277442625195"><ele>314.0</ele><time>2026-05-03T09:29:27Z</time></trkpt><trkpt lat="46.40555509068314" lon="13.196171224367578"><ele>314.0</ele><time>2026-05-03T09:29:28Z</time></trkpt><trkpt lat="46.40548163522761" lon="13.196066324764244"><ele>314.0</ele><time>2026-05-03T09:29:29Z</time></trkpt><trkpt lat="46.40540909961091" lon="13.19596142021414"><ele>314.0</ele><time>2026-05-03T09:29:30Z</time></trkpt><trkpt lat="46.40533997336925" lon="13.195854768189289"><ele>313.4</ele><time>2026-05-03T09:29:31Z</time></trkpt><trkpt lat="46.40527202919514" lon="13.195746592301044"><ele>312.79999999999995</ele><time>2026-05-03T09:29:32Z</time></trkpt><trkpt lat="46.40520149856838" lon="13.195642431530699"><ele>312.20000000000005</ele><time>2026-05-03T09:29:33Z</time></trkpt><trkpt lat="46.405133354564434" lon="13.195541552592735"><ele>311.6</ele><time>2026-05-03T09:29:34Z</time></trkpt><trkpt lat="46.40506822146527" lon="13.195444515761709"><ele>311.0</ele><time>2026-05-03T09:29:35Z</time></trkpt><trkpt lat="46.405001030141165" lon="13.195350870190476"><ele>311.0</ele><time>2026-05-03T09:29:36Z</time></trkpt><trkpt lat="46.40493250180587" lon="13.195247391053988"><ele>311.0</ele><time>2026-05-03T09:29:37Z</time></trkpt><trkpt lat="46.40486457372186" lon="13.195145261329182"><ele>311.0</ele><time>2026-05-03T09:29:38Z</time></trkpt><trkpt lat="46.404783543560804" lon="13.195023847204073"><ele>311.0</ele><time>2026-05-03T09:29:39Z</time></trkpt><trkpt lat="46.40469310923562" lon="13.194884487238962"><ele>311.0</ele><time>2026-05-03T09:29:40Z</time></trkpt><trkpt lat="46.4045880589002" lon="13.19472843945629"><ele>310.0</ele><time>2026-05-03T09:29:41Z</time></trkpt><trkpt lat="46.40447866506285" lon="13.194574562717314"><ele>309.0</ele><time>2026-05-03T09:29:42Z</time></trkpt><trkpt lat="46.40436254839099" lon="13.194409202794072"><ele>308.0</ele><time>2026-05-03T09:29:43Z</time></trkpt><trkpt lat="46.40424751377405" lon="13.194239239122803"><ele>308.0</ele><time>2026-05-03T09:29:44Z</time></trkpt><trkpt lat="46.404122208400324" lon="13.194056410063208"><ele>308.0</ele><time>2026-05-03T09:29:45Z</time></trkpt><trkpt lat="46.40404678003384" lon="13.193927251112843"><ele>308.0</ele><time>2026-05-03T09:29:47Z</time></trkpt><trkpt lat="46.40396204362166" lon="13.193799159164472"><ele>308.0</ele><time>2026-05-03T09:29:48Z</time></trkpt><trkpt lat="46.403880300591695" lon="13.193688072952755"><ele>307.0</ele><time>2026-05-03T09:29:49Z</time></trkpt><trkpt lat="46.40379192467416" lon="13.193573382158064"><ele>306.0</ele><time>2026-05-03T09:29:50Z</time></trkpt><trkpt lat="46.40370699973603" lon="13.193457385827427"><ele>305.0</ele><time>2026-05-03T09:29:51Z</time></trkpt><trkpt lat="46.40362681512584" lon="13.193343291878042"><ele>304.0</ele><time>2026-05-03T09:29:52Z</time></trkpt><trkpt lat="46.40355098343531" lon="13.19323340995996"><ele>303.8</ele><time>2026-05-03T09:29:53Z</time></trkpt><trkpt lat="46.4034771927383" lon="13.193115631352455"><ele>303.59999999999997</ele><time>2026-05-03T09:29:54Z</time></trkpt><trkpt lat="46.40340376487789" lon="13.193002270092714"><ele>303.4</ele><time>2026-05-03T09:29:55Z</time></trkpt><trkpt lat="46.40333505322591" lon="13.19289343942258"><ele>303.2</ele><time>2026-05-03T09:29:56Z</time></trkpt><trkpt lat="46.403269850464355" lon="13.19277373097673"><ele>303.0</ele><time>2026-05-03T09:29:57Z</time></trkpt><trkpt lat="46.40320075392676" lon="13.192643851428205"><ele>303.0</ele><time>2026-05-03T09:29:58Z</time></trkpt><trkpt lat="46.40312672640808" lon="13.192509029796929"><ele>303.0</ele><time>2026-05-03T09:29:59Z</time></trkpt><trkpt lat="46.40304746488244" lon="13.192366088835698"><ele>303.0</ele><time>2026-05-03T09:30:00Z</time></trkpt><trkpt lat="46.40296338743806" lon="13.19220787148205"><ele>303.0</ele><time>2026-05-03T09:30:01Z</time></trkpt><trkpt lat="46.40287799610137" lon="13.192053054052593"><ele>303.6</ele><time>2026-05-03T09:30:02Z</time></trkpt><trkpt lat="46.40279641017757" lon="13.191913137263544"><ele>304.20000000000005</ele><time>2026-05-03T09:30:03Z</time></trkpt><trkpt lat="46.40271410422203" lon="13.19177443035922"><ele>304.8</ele><time>2026-05-03T09:30:04Z</time></trkpt><trkpt lat="46.402647423521785" lon="13.19165682096236"><ele>305.40000000000003</ele><time>2026-05-03T09:30:05Z</time></trkpt><trkpt lat="46.402588685166364" lon="13.191567601765994"><ele>306.0</ele><time>2026-05-03T09:30:06Z</time></trkpt><trkpt lat="46.402543806404" lon="13.191468894276067"><ele>306.1666666666667</ele><time>2026-05-03T09:30:07Z</time></trkpt><trkpt lat="46.402518482101996" lon="13.191367895923259"><ele>306.3333333333333</ele><time>2026-05-03T09:30:08Z</time></trkpt><trkpt lat="46.40249074619304" lon="13.191263912612694"><ele>306.5</ele><time>2026-05-03T09:30:09Z</time></trkpt><trkpt lat="46.40243797656634" lon="13.191186871956301"><ele>306.66666666666663</ele><time>2026-05-03T09:30:10Z</time></trkpt><trkpt lat="46.40239829843657" lon="13.191099185050474"><ele>306.8333333333333</ele><time>2026-05-03T09:30:11Z</time></trkpt><trkpt lat="46.4023623922641" lon="13.191019834205685"><ele>307.0</ele><time>2026-05-03T09:30:12Z</time></trkpt><trkpt lat="46.40247170976648" lon="13.190819992199414"><ele>307.0</ele><time>2026-05-03T09:30:13Z</time></trkpt><trkpt lat="46.402467507076814" lon="13.190719630580341"><ele>307.0</ele><time>2026-05-03T09:30:14Z</time></trkpt><trkpt lat="46.402426292482524" lon="13.190638818508274"><ele>307.0</ele><time>2026-05-03T09:30:15Z</time></trkpt><trkpt lat="46.40235191591665" lon="13.190580737894349"><ele>307.0</ele><time>2026-05-03T09:30:16Z</time></trkpt><trkpt lat="46.40231571015436" lon="13.190315889140606"><ele>307.0</ele><time>2026-05-03T09:30:17Z</time></trkpt><trkpt lat="46.40222498405446" lon="13.190271142058547"><ele>305.0</ele><time>2026-05-03T09:30:18Z</time></trkpt><trkpt lat="46.40207410315335" lon="13.190459174010876"><ele>303.0</ele><time>2026-05-03T09:30:19Z</time></trkpt><trkpt lat="46.40200471717354" lon="13.190312933017818"><ele>301.0</ele><time>2026-05-03T09:30:20Z</time></trkpt><trkpt lat="46.40194003966904" lon="13.190143391357973"><ele>301.0</ele><time>2026-05-03T09:30:21Z</time></trkpt><trkpt lat="46.40188168783979" lon="13.189988343543122"><ele>301.0</ele><time>2026-05-03T09:30:22Z</time></trkpt><trkpt lat="46.40181918431682" lon="13.189846436359923"><ele>301.0</ele><time>2026-05-03T09:30:23Z</time></trkpt><trkpt lat="46.401757200791636" lon="13.189708922771924"><ele>301.0</ele><time>2026-05-03T09:30:24Z</time></trkpt><trkpt lat="46.4016981149719" lon="13.189573676236092"><ele>301.0</ele><time>2026-05-03T09:30:25Z</time></trkpt><trkpt lat="46.40163869217772" lon="13.189444806117661"><ele>301.0</ele><time>2026-05-03T09:30:26Z</time></trkpt><trkpt lat="46.401580065747794" lon="13.18931637142648"><ele>301.0</ele><time>2026-05-03T09:30:27Z</time></trkpt><trkpt lat="46.40152490771127" lon="13.189189993705154"><ele>301.0</ele><time>2026-05-03T09:30:28Z</time></trkpt><trkpt lat="46.40147224442425" lon="13.189066850306038"><ele>301.0</ele><time>2026-05-03T09:30:29Z</time></trkpt><trkpt lat="46.401419866462525" lon="13.188949252763582"><ele>301.5</ele><time>2026-05-03T09:30:30Z</time></trkpt><trkpt lat="46.401364794450394" lon="13.188826342309993"><ele>302.0</ele><time>2026-05-03T09:30:31Z</time></trkpt><trkpt lat="46.401303784611585" lon="13.188689610978317"><ele>302.5</ele><time>2026-05-03T09:30:32Z</time></trkpt><trkpt lat="46.401240120004054" lon="13.188538067293292"><ele>303.0</ele><time>2026-05-03T09:30:33Z</time></trkpt><trkpt lat="46.40117236798104" lon="13.188384058057974"><ele>303.0</ele><time>2026-05-03T09:30:34Z</time></trkpt><trkpt lat="46.40109635093652" lon="13.188227152248501"><ele>303.0</ele><time>2026-05-03T09:30:35Z</time></trkpt><trkpt lat="46.40102567243608" lon="13.18808247121817"><ele>303.0</ele><time>2026-05-03T09:30:36Z</time></trkpt><trkpt lat="46.40096683156737" lon="13.187957679815257"><ele>303.0</ele><time>2026-05-03T09:30:37Z</time></trkpt><trkpt lat="46.40090186869029" lon="13.187827606642612"><ele>303.0</ele><time>2026-05-03T09:30:38Z</time></trkpt><trkpt lat="46.40083005751294" lon="13.187681881747853"><ele>303.0</ele><time>2026-05-03T09:30:39Z</time></trkpt><trkpt lat="46.40075618820241" lon="13.187532798142776"><ele>303.0</ele><time>2026-05-03T09:30:40Z</time></trkpt><trkpt lat="46.40068470425575" lon="13.187388304228284"><ele>303.0</ele><time>2026-05-03T09:30:41Z</time></trkpt><trkpt lat="46.400618423284776" lon="13.187249773269803"><ele>301.6</ele><time>2026-05-03T09:30:42Z</time></trkpt><trkpt lat="46.400557302640856" lon="13.187119872943214"><ele>300.20000000000005</ele><time>2026-05-03T09:30:43Z</time></trkpt><trkpt lat="46.40049848461811" lon="13.186992130762668"><ele>298.8</ele><time>2026-05-03T09:30:44Z</time></trkpt><trkpt lat="46.40043384436095" lon="13.18686040943567"><ele>297.40000000000003</ele><time>2026-05-03T09:30:45Z</time></trkpt><trkpt lat="46.4003651461556" lon="13.186722632035044"><ele>296.0</ele><time>2026-05-03T09:30:46Z</time></trkpt><trkpt lat="46.40029765887585" lon="13.186585827927034"><ele>296.8</ele><time>2026-05-03T09:30:47Z</time></trkpt><trkpt lat="46.40024041348175" lon="13.186465498174316"><ele>297.6</ele><time>2026-05-03T09:30:48Z</time></trkpt><trkpt lat="46.4001862127787" lon="13.186351287509938"><ele>298.4</ele><time>2026-05-03T09:30:49Z</time></trkpt><trkpt lat="46.40013273158467" lon="13.186252631635092"><ele>299.2</ele><time>2026-05-03T09:30:50Z</time></trkpt><trkpt lat="46.40008376033769" lon="13.18615528217977"><ele>300.0</ele><time>2026-05-03T09:30:51Z</time></trkpt><trkpt lat="46.400035669412866" lon="13.186049512903134"><ele>300.0</ele><time>2026-05-03T09:30:52Z</time></trkpt><trkpt lat="46.39999440971684" lon="13.185917863354486"><ele>300.0</ele><time>2026-05-03T09:30:53Z</time></trkpt><trkpt lat="46.399966690942286" lon="13.185762906048772"><ele>300.0</ele><time>2026-05-03T09:30:54Z</time></trkpt><trkpt lat="46.39993964995147" lon="13.185581895126193"><ele>300.0</ele><time>2026-05-03T09:30:55Z</time></trkpt><trkpt lat="46.39991894536697" lon="13.185393345112766"><ele>300.5</ele><time>2026-05-03T09:30:56Z</time></trkpt><trkpt lat="46.39990696582832" lon="13.185224215539225"><ele>301.0</ele><time>2026-05-03T09:30:57Z</time></trkpt><trkpt lat="46.39990246022394" lon="13.185065439821205"><ele>301.5</ele><time>2026-05-03T09:30:58Z</time></trkpt><trkpt lat="46.39991175167593" lon="13.184911340352244"><ele>302.0</ele><time>2026-05-03T09:30:59Z</time></trkpt><trkpt lat="46.3999275658412" lon="13.184741171601614"><ele>302.0</ele><time>2026-05-03T09:31:00Z</time></trkpt><trkpt lat="46.39993908878585" lon="13.18456518202663"><ele>302.0</ele><time>2026-05-03T09:31:01Z</time></trkpt><trkpt lat="46.39994881665655" lon="13.184415302121952"><ele>302.0</ele><time>2026-05-03T09:31:02Z</time></trkpt><trkpt lat="46.399961091156705" lon="13.184280899402268"><ele>302.0</ele><time>2026-05-03T09:31:03Z</time></trkpt><trkpt lat="46.39997556740338" lon="13.184147319207673"><ele>302.0</ele><time>2026-05-03T09:31:04Z</time></trkpt><trkpt lat="46.39998648969325" lon="13.183985679856503"><ele>301.6</ele><time>2026-05-03T09:31:05Z</time></trkpt><trkpt lat="46.399990294575176" lon="13.183814187965025"><ele>301.2</ele><time>2026-05-03T09:31:06Z</time></trkpt><trkpt lat="46.39998946070373" lon="13.183648835456967"><ele>300.8</ele><time>2026-05-03T09:31:07Z</time></trkpt><trkpt lat="46.39998815447731" lon="13.183500387286974"><ele>300.4</ele><time>2026-05-03T09:31:08Z</time></trkpt><trkpt lat="46.39997519814769" lon="13.183349716389175"><ele>300.0</ele><time>2026-05-03T09:31:09Z</time></trkpt><trkpt lat="46.39995132767626" lon="13.183177549979792"><ele>299.75</ele><time>2026-05-03T09:31:10Z</time></trkpt><trkpt lat="46.399911657567976" lon="13.182996778012914"><ele>299.5</ele><time>2026-05-03T09:31:11Z</time></trkpt><trkpt lat="46.399861044403785" lon="13.1828309999786"><ele>299.25</ele><time>2026-05-03T09:31:12Z</time></trkpt><trkpt lat="46.39981165504103" lon="13.182678036942574"><ele>299.0</ele><time>2026-05-03T09:31:13Z</time></trkpt><trkpt lat="46.399763723167965" lon="13.182538335278327"><ele>299.0</ele><time>2026-05-03T09:31:14Z</time></trkpt><trkpt lat="46.3997185561728" lon="13.182410984455073"><ele>299.0</ele><time>2026-05-03T09:31:15Z</time></trkpt><trkpt lat="46.39967470431475" lon="13.182284329365796"><ele>299.0</ele><time>2026-05-03T09:31:16Z</time></trkpt><trkpt lat="46.39962298983192" lon="13.182151601807787"><ele>299.0</ele><time>2026-05-03T09:31:17Z</time></trkpt><trkpt lat="46.39955931966182" lon="13.182020287295451"><ele>299.0</ele><time>2026-05-03T09:31:18Z</time></trkpt><trkpt lat="46.39948508948437" lon="13.1819029492274"><ele>298.5</ele><time>2026-05-03T09:31:19Z</time></trkpt><trkpt lat="46.399404069797306" lon="13.181804668220096"><ele>298.0</ele><time>2026-05-03T09:31:20Z</time></trkpt><trkpt lat="46.39933257631062" lon="13.18171887324067"><ele>297.5</ele><time>2026-05-03T09:31:21Z</time></trkpt><trkpt lat="46.399270581288874" lon="13.181648774943834"><ele>297.0</ele><time>2026-05-03T09:31:22Z</time></trkpt><trkpt lat="46.39921763784672" lon="13.181592916958337"><ele>296.5</ele><time>2026-05-03T09:31:23Z</time></trkpt><trkpt lat="46.399137550743795" lon="13.181516744835927"><ele>296.0</ele><time>2026-05-03T09:31:25Z</time></trkpt><trkpt lat="46.3990699120336" lon="13.18155756210256"><ele>296.0</ele><time>2026-05-03T09:31:26Z</time></trkpt><trkpt lat="46.39900047838307" lon="13.181633165378637"><ele>296.0</ele><time>2026-05-03T09:31:28Z</time></trkpt><trkpt lat="46.39894642433381" lon="13.181740624026213"><ele>296.0</ele><time>2026-05-03T09:31:30Z</time></trkpt><trkpt lat="46.39897566637872" lon="13.182012908973558"><ele>296.0</ele><time>2026-05-03T09:31:32Z</time></trkpt><trkpt lat="46.39901224462616" lon="13.182131621777499"><ele>296.0</ele><time>2026-05-03T09:31:33Z</time></trkpt><trkpt lat="46.39906251027687" lon="13.182270093220671"><ele>296.0</ele><time>2026-05-03T09:31:34Z</time></trkpt><trkpt lat="46.39912225518569" lon="13.182441600361647"><ele>296.0</ele><time>2026-05-03T09:31:35Z</time></trkpt><trkpt lat="46.39917270642834" lon="13.182607270255692"><ele>296.0</ele><time>2026-05-03T09:31:36Z</time></trkpt><trkpt lat="46.3992193983701" lon="13.182755549573798"><ele>296.0</ele><time>2026-05-03T09:31:37Z</time></trkpt><trkpt lat="46.39927623636447" lon="13.18291686238986"><ele>296.0</ele><time>2026-05-03T09:31:38Z</time></trkpt><trkpt lat="46.39933664248822" lon="13.18309260372958"><ele>296.0</ele><time>2026-05-03T09:31:39Z</time></trkpt><trkpt lat="46.39939640563645" lon="13.183283806013561"><ele>296.0</ele><time>2026-05-03T09:31:40Z</time></trkpt><trkpt lat="46.39945568220223" lon="13.18345794395394"><ele>297.5</ele><time>2026-05-03T09:31:41Z</time></trkpt><trkpt lat="46.39951221908276" lon="13.183626375668618"><ele>299.0</ele><time>2026-05-03T09:31:42Z</time></trkpt><trkpt lat="46.399573166350095" lon="13.183804365949573"><ele>300.5</ele><time>2026-05-03T09:31:43Z</time></trkpt><trkpt lat="46.399628806239434" lon="13.183993364180347"><ele>302.0</ele><time>2026-05-03T09:31:44Z</time></trkpt><trkpt lat="46.39968032567749" lon="13.184196826716246"><ele>302.0</ele><time>2026-05-03T09:31:45Z</time></trkpt><trkpt lat="46.39972456534723" lon="13.184414436730215"><ele>302.0</ele><time>2026-05-03T09:31:46Z</time></trkpt><trkpt lat="46.3997535998605" lon="13.184632361340396"><ele>302.0</ele><time>2026-05-03T09:31:47Z</time></trkpt><trkpt lat="46.39976763473674" lon="13.184843589389308"><ele>302.6666666666667</ele><time>2026-05-03T09:31:48Z</time></trkpt><trkpt lat="46.39976790037438" lon="13.185056996470783"><ele>303.3333333333333</ele><time>2026-05-03T09:31:49Z</time></trkpt><trkpt lat="46.39974826294596" lon="13.185277284409953"><ele>304.0</ele><time>2026-05-03T09:31:50Z</time></trkpt><trkpt lat="46.39971889161807" lon="13.185505736991516"><ele>303.0</ele><time>2026-05-03T09:31:51Z</time></trkpt><trkpt lat="46.39968356385383" lon="13.185734817487702"><ele>302.0</ele><time>2026-05-03T09:31:52Z</time></trkpt><trkpt lat="46.399636472920115" lon="13.18593186608443"><ele>301.0</ele><time>2026-05-03T09:31:53Z</time></trkpt><trkpt lat="46.39957614549097" lon="13.18611878093523"><ele>300.0</ele><time>2026-05-03T09:31:54Z</time></trkpt><trkpt lat="46.399504361231166" lon="13.186302949967848"><ele>307.0</ele><time>2026-05-03T09:31:55Z</time></trkpt><trkpt lat="46.399414427660275" lon="13.186494485384403"><ele>314.0</ele><time>2026-05-03T09:31:56Z</time></trkpt><trkpt lat="46.399312142508236" lon="13.186688114054277"><ele>321.0</ele><time>2026-05-03T09:31:57Z</time></trkpt><trkpt lat="46.3992135893301" lon="13.186899244354342"><ele>321.0</ele><time>2026-05-03T09:31:58Z</time></trkpt><trkpt lat="46.399128921187405" lon="13.187117976610237"><ele>321.0</ele><time>2026-05-03T09:31:59Z</time></trkpt><trkpt lat="46.39905990230396" lon="13.187323585577149"><ele>321.0</ele><time>2026-05-03T09:32:00Z</time></trkpt><trkpt lat="46.39900658587362" lon="13.187531165071222"><ele>313.0</ele><time>2026-05-03T09:32:01Z</time></trkpt><trkpt lat="46.398976895411465" lon="13.187752531404973"><ele>305.0</ele><time>2026-05-03T09:32:02Z</time></trkpt><trkpt lat="46.398954335508265" lon="13.18798429576944"><ele>297.0</ele><time>2026-05-03T09:32:03Z</time></trkpt><trkpt lat="46.39893209736537" lon="13.188235082128061"><ele>296.6666666666667</ele><time>2026-05-03T09:32:04Z</time></trkpt><trkpt lat="46.398915362084104" lon="13.18849689786775"><ele>296.33333333333337</ele><time>2026-05-03T09:32:05Z</time></trkpt><trkpt lat="46.39890657288143" lon="13.188766340133775"><ele>296.0</ele><time>2026-05-03T09:32:06Z</time></trkpt><trkpt lat="46.398892840344786" lon="13.18902325218185"><ele>296.0</ele><time>2026-05-03T09:32:07Z</time></trkpt><trkpt lat="46.3988657114158" lon="13.189267860756537"><ele>296.0</ele><time>2026-05-03T09:32:08Z</time></trkpt><trkpt lat="46.398828853541325" lon="13.18951272404854"><ele>296.0</ele><time>2026-05-03T09:32:09Z</time></trkpt><trkpt lat="46.39877634933202" lon="13.189758850262498"><ele>312.6666666666667</ele><time>2026-05-03T09:32:10Z</time></trkpt><trkpt lat="46.39872052267161" lon="13.190003669014388"><ele>329.3333333333333</ele><time>2026-05-03T09:32:11Z</time></trkpt><trkpt lat="46.39866990312387" lon="13.190224921149353"><ele>346.0</ele><time>2026-05-03T09:32:12Z</time></trkpt><trkpt lat="46.39861398284793" lon="13.190430259840396"><ele>346.0</ele><time>2026-05-03T09:32:13Z</time></trkpt><trkpt lat="46.39854864360479" lon="13.190616368361372"><ele>346.0</ele><time>2026-05-03T09:32:14Z</time></trkpt><trkpt lat="46.39846799183598" lon="13.19078811518752"><ele>346.0</ele><time>2026-05-03T09:32:15Z</time></trkpt><trkpt lat="46.39836581151485" lon="13.190966646513305"><ele>346.0</ele><time>2026-05-03T09:32:16Z</time></trkpt><trkpt lat="46.3982471647198" lon="13.191148235819547"><ele>351.66666666666663</ele><time>2026-05-03T09:32:17Z</time></trkpt><trkpt lat="46.398113005486834" lon="13.191311723074332"><ele>357.3333333333333</ele><time>2026-05-03T09:32:18Z</time></trkpt><trkpt lat="46.39796917790917" lon="13.191462813318095"><ele>363.0</ele><time>2026-05-03T09:32:19Z</time></trkpt><trkpt lat="46.39783429864902" lon="13.191605238430652"><ele>351.6666666666667</ele><time>2026-05-03T09:32:20Z</time></trkpt><trkpt lat="46.3977133728027" lon="13.191744711038844"><ele>340.33333333333337</ele><time>2026-05-03T09:32:21Z</time></trkpt><trkpt lat="46.39761577266454" lon="13.191893503039076"><ele>329.0</ele><time>2026-05-03T09:32:22Z</time></trkpt><trkpt lat="46.39751107629101" lon="13.192059677530063"><ele>329.0</ele><time>2026-05-03T09:32:23Z</time></trkpt><trkpt lat="46.39741457784589" lon="13.192239268264439"><ele>329.0</ele><time>2026-05-03T09:32:24Z</time></trkpt><trkpt lat="46.397330800041566" lon="13.192439293637472"><ele>329.0</ele><time>2026-05-03T09:32:25Z</time></trkpt><trkpt lat="46.397253838121905" lon="13.19264351824102"><ele>334.6666666666667</ele><time>2026-05-03T09:32:26Z</time></trkpt><trkpt lat="46.397182373125" lon="13.192842073947547"><ele>340.3333333333333</ele><time>2026-05-03T09:32:27Z</time></trkpt><trkpt lat="46.39711770053177" lon="13.193035987290736"><ele>346.0</ele><time>2026-05-03T09:32:28Z</time></trkpt><trkpt lat="46.39705248845491" lon="13.193243576840773"><ele>346.0</ele><time>2026-05-03T09:32:29Z</time></trkpt><trkpt lat="46.396977936272" lon="13.193463857865702"><ele>346.0</ele><time>2026-05-03T09:32:30Z</time></trkpt><trkpt lat="46.39691335540711" lon="13.193678968630861"><ele>346.0</ele><time>2026-05-03T09:32:31Z</time></trkpt><trkpt lat="46.39685310767341" lon="13.193900691296857"><ele>339.0</ele><time>2026-05-03T09:32:32Z</time></trkpt><trkpt lat="46.39681676622495" lon="13.194112293906867"><ele>332.0</ele><time>2026-05-03T09:32:33Z</time></trkpt><trkpt lat="46.39679525148638" lon="13.194356821054262"><ele>325.0</ele><time>2026-05-03T09:32:34Z</time></trkpt><trkpt lat="46.396791961970834" lon="13.194605379220489"><ele>324.66666666666663</ele><time>2026-05-03T09:32:35Z</time></trkpt><trkpt lat="46.39679157088244" lon="13.194860712911842"><ele>324.3333333333333</ele><time>2026-05-03T09:32:36Z</time></trkpt><trkpt lat="46.39679728984794" lon="13.195115182950339"><ele>324.0</ele><time>2026-05-03T09:32:37Z</time></trkpt><trkpt lat="46.396808836172156" lon="13.19536146710155"><ele>324.0</ele><time>2026-05-03T09:32:38Z</time></trkpt><trkpt lat="46.39680899251305" lon="13.195588123680587"><ele>324.0</ele><time>2026-05-03T09:32:39Z</time></trkpt><trkpt lat="46.396811280793194" lon="13.195794729388394"><ele>324.0</ele><time>2026-05-03T09:32:40Z</time></trkpt><trkpt lat="46.39680790613401" lon="13.196008391600078"><ele>324.0</ele><time>2026-05-03T09:32:41Z</time></trkpt><trkpt lat="46.39680903129735" lon="13.196234209454172"><ele>325.3333333333333</ele><time>2026-05-03T09:32:42Z</time></trkpt><trkpt lat="46.39681278550802" lon="13.196472943120801"><ele>326.66666666666663</ele><time>2026-05-03T09:32:43Z</time></trkpt><trkpt lat="46.396817483445815" lon="13.196715334448214"><ele>328.0</ele><time>2026-05-03T09:32:44Z</time></trkpt><trkpt lat="46.39681821491946" lon="13.196951245456557"><ele>330.3333333333333</ele><time>2026-05-03T09:32:45Z</time></trkpt><trkpt lat="46.39681311561551" lon="13.197192914289355"><ele>332.6666666666667</ele><time>2026-05-03T09:32:46Z</time></trkpt><trkpt lat="46.39679920983459" lon="13.197432185150959"><ele>335.0</ele><time>2026-05-03T09:32:47Z</time></trkpt><trkpt lat="46.396780206088756" lon="13.197658861268343"><ele>335.0</ele><time>2026-05-03T09:32:48Z</time></trkpt><trkpt lat="46.39676097686097" lon="13.19789021054559"><ele>335.0</ele><time>2026-05-03T09:32:49Z</time></trkpt><trkpt lat="46.39674366253767" lon="13.198133484545318"><ele>335.0</ele><time>2026-05-03T09:32:50Z</time></trkpt><trkpt lat="46.396728111500195" lon="13.19838502077635"><ele>335.6666666666667</ele><time>2026-05-03T09:32:51Z</time></trkpt><trkpt lat="46.396704700516615" lon="13.198633522490892"><ele>336.3333333333333</ele><time>2026-05-03T09:32:52Z</time></trkpt><trkpt lat="46.396677096377495" lon="13.198874966279853"><ele>337.0</ele><time>2026-05-03T09:32:53Z</time></trkpt><trkpt lat="46.39665196934527" lon="13.199123386910262"><ele>333.66666666666663</ele><time>2026-05-03T09:32:54Z</time></trkpt><trkpt lat="46.39663349885361" lon="13.199351515369589"><ele>330.3333333333333</ele><time>2026-05-03T09:32:55Z</time></trkpt><trkpt lat="46.396607021959284" lon="13.199586376681914"><ele>327.0</ele><time>2026-05-03T09:32:56Z</time></trkpt><trkpt lat="46.396580374329666" lon="13.199818979772086"><ele>324.6666666666667</ele><time>2026-05-03T09:32:57Z</time></trkpt><trkpt lat="46.39655278506242" lon="13.200056325742462"><ele>322.33333333333337</ele><time>2026-05-03T09:32:58Z</time></trkpt><trkpt lat="46.39652318987994" lon="13.200297540746766"><ele>320.0</ele><time>2026-05-03T09:32:59Z</time></trkpt><trkpt lat="46.39648511069767" lon="13.20054035439039"><ele>317.33333333333337</ele><time>2026-05-03T09:33:00Z</time></trkpt><trkpt lat="46.39642638053032" lon="13.200782134405957"><ele>314.6666666666667</ele><time>2026-05-03T09:33:01Z</time></trkpt><trkpt lat="46.39635419816137" lon="13.201019501403822"><ele>312.0</ele><time>2026-05-03T09:33:02Z</time></trkpt><trkpt lat="46.39628657388869" lon="13.201244710599966"><ele>320.3333333333333</ele><time>2026-05-03T09:33:03Z</time></trkpt><trkpt lat="46.39621792426183" lon="13.201468907952124"><ele>328.66666666666663</ele><time>2026-05-03T09:33:04Z</time></trkpt><trkpt lat="46.39616438454957" lon="13.201685088180122"><ele>337.0</ele><time>2026-05-03T09:33:05Z</time></trkpt><trkpt lat="46.39611817925324" lon="13.201917216794815"><ele>337.0</ele><time>2026-05-03T09:33:06Z</time></trkpt><trkpt lat="46.396068374902555" lon="13.20214261720321"><ele>337.0</ele><time>2026-05-03T09:33:07Z</time></trkpt><trkpt lat="46.396022221452185" lon="13.202385836509901"><ele>337.0</ele><time>2026-05-03T09:33:08Z</time></trkpt><trkpt lat="46.3959786144092" lon="13.20263310411347"><ele>336.3333333333333</ele><time>2026-05-03T09:33:09Z</time></trkpt><trkpt lat="46.395934306531494" lon="13.202882030104874"><ele>335.6666666666667</ele><time>2026-05-03T09:33:10Z</time></trkpt><trkpt lat="46.39589494454419" lon="13.203119860938115"><ele>335.0</ele><time>2026-05-03T09:33:11Z</time></trkpt><trkpt lat="46.395855197110606" lon="13.203361118557954"><ele>331.33333333333337</ele><time>2026-05-03T09:33:12Z</time></trkpt><trkpt lat="46.39581327690717" lon="13.203614701715278"><ele>327.6666666666667</ele><time>2026-05-03T09:33:13Z</time></trkpt><trkpt lat="46.39577384991082" lon="13.203874088356546"><ele>324.0</ele><time>2026-05-03T09:33:14Z</time></trkpt><trkpt lat="46.39573897536554" lon="13.204130879543916"><ele>322.6666666666667</ele><time>2026-05-03T09:33:15Z</time></trkpt><trkpt lat="46.39571290705346" lon="13.204387841496933"><ele>321.33333333333337</ele><time>2026-05-03T09:33:16Z</time></trkpt><trkpt lat="46.3956974145875" lon="13.204647226462047"><ele>320.0</ele><time>2026-05-03T09:33:17Z</time></trkpt><trkpt lat="46.39568877955011" lon="13.204913726126392"><ele>317.33333333333337</ele><time>2026-05-03T09:33:18Z</time></trkpt><trkpt lat="46.39568149434537" lon="13.20517596480266"><ele>314.6666666666667</ele><time>2026-05-03T09:33:19Z</time></trkpt><trkpt lat="46.39567022274887" lon="13.205439068552138"><ele>312.0</ele><time>2026-05-03T09:33:20Z</time></trkpt><trkpt lat="46.39565680693066" lon="13.205701077238611"><ele>310.3333333333333</ele><time>2026-05-03T09:33:21Z</time></trkpt><trkpt lat="46.39564226678329" lon="13.205959941189946"><ele>308.66666666666663</ele><time>2026-05-03T09:33:22Z</time></trkpt><trkpt lat="46.39562768471152" lon="13.206215436170524"><ele>307.0</ele><time>2026-05-03T09:33:23Z</time></trkpt><trkpt lat="46.3956165803726" lon="13.20647221918979"><ele>306.0</ele><time>2026-05-03T09:33:24Z</time></trkpt><trkpt lat="46.39560471202819" lon="13.206724575782772"><ele>305.0</ele><time>2026-05-03T09:33:25Z</time></trkpt><trkpt lat="46.39559167056481" lon="13.20697324381279"><ele>304.0</ele><time>2026-05-03T09:33:26Z</time></trkpt><trkpt lat="46.39557915535409" lon="13.207225093658584"><ele>304.0</ele><time>2026-05-03T09:33:27Z</time></trkpt><trkpt lat="46.39557245069967" lon="13.207483484641791"><ele>304.0</ele><time>2026-05-03T09:33:28Z</time></trkpt><trkpt lat="46.39556237032551" lon="13.207752942108872"><ele>304.0</ele><time>2026-05-03T09:33:29Z</time></trkpt><trkpt lat="46.39555179907139" lon="13.20803094941661"><ele>304.0</ele><time>2026-05-03T09:33:30Z</time></trkpt><trkpt lat="46.395538936304156" lon="13.208300193464154"><ele>304.0</ele><time>2026-05-03T09:33:31Z</time></trkpt><trkpt lat="46.395525479669075" lon="13.208551372529639"><ele>304.0</ele><time>2026-05-03T09:33:32Z</time></trkpt><trkpt lat="46.39551246898435" lon="13.208811163666114"><ele>316.0</ele><time>2026-05-03T09:33:33Z</time></trkpt><trkpt lat="46.395500891386014" lon="13.209076451910851"><ele>328.0</ele><time>2026-05-03T09:33:34Z</time></trkpt><trkpt lat="46.395487738908955" lon="13.20934437655244"><ele>340.0</ele><time>2026-05-03T09:33:35Z</time></trkpt><trkpt lat="46.3954738246575" lon="13.20960430886782"><ele>333.66666666666663</ele><time>2026-05-03T09:33:36Z</time></trkpt><trkpt lat="46.3954598657813" lon="13.209867380785825"><ele>327.3333333333333</ele><time>2026-05-03T09:33:37Z</time></trkpt><trkpt lat="46.39544414242422" lon="13.210125006185827"><ele>321.0</ele><time>2026-05-03T09:33:38Z</time></trkpt><trkpt lat="46.39542352425536" lon="13.210378934365055"><ele>321.0</ele><time>2026-05-03T09:33:39Z</time></trkpt><trkpt lat="46.395396397891055" lon="13.210624673437154"><ele>321.0</ele><time>2026-05-03T09:33:40Z</time></trkpt><trkpt lat="46.39536483784489" lon="13.210872339078595"><ele>321.0</ele><time>2026-05-03T09:33:41Z</time></trkpt><trkpt lat="46.39532968702524" lon="13.21111253922135"><ele>319.6666666666667</ele><time>2026-05-03T09:33:42Z</time></trkpt><trkpt lat="46.39529527494653" lon="13.211346076110358"><ele>318.33333333333337</ele><time>2026-05-03T09:33:43Z</time></trkpt><trkpt lat="46.39526208756196" lon="13.211569658379226"><ele>317.0</ele><time>2026-05-03T09:33:44Z</time></trkpt><trkpt lat="46.39522817543113" lon="13.211793498648277"><ele>316.33333333333337</ele><time>2026-05-03T09:33:45Z</time></trkpt><trkpt lat="46.39519456052821" lon="13.212024050482157"><ele>315.6666666666667</ele><time>2026-05-03T09:33:46Z</time></trkpt><trkpt lat="46.3951625628405" lon="13.21224785175422"><ele>315.0</ele><time>2026-05-03T09:33:47Z</time></trkpt><trkpt lat="46.395130512406816" lon="13.212445864106162"><ele>314.5</ele><time>2026-05-03T09:33:48Z</time></trkpt><trkpt lat="46.3951004331008" lon="13.212659493578274"><ele>314.0</ele><time>2026-05-03T09:33:49Z</time></trkpt><trkpt lat="46.39506824180274" lon="13.212874731854527"><ele>313.5</ele><time>2026-05-03T09:33:50Z</time></trkpt><trkpt lat="46.395039318007456" lon="13.213071615254787"><ele>313.0</ele><time>2026-05-03T09:33:51Z</time></trkpt><trkpt lat="46.395010168345024" lon="13.213262398603415"><ele>312.75</ele><time>2026-05-03T09:33:52Z</time></trkpt><trkpt lat="46.39498316098763" lon="13.213447770789438"><ele>312.5</ele><time>2026-05-03T09:33:53Z</time></trkpt><trkpt lat="46.394955204299336" lon="13.213624282337719"><ele>312.25</ele><time>2026-05-03T09:33:54Z</time></trkpt><trkpt lat="46.39493086105836" lon="13.213785095989754"><ele>312.0</ele><time>2026-05-03T09:33:55Z</time></trkpt><trkpt lat="46.394909479894714" lon="13.213941403800145"><ele>312.3333333333333</ele><time>2026-05-03T09:33:56Z</time></trkpt><trkpt lat="46.39488809449008" lon="13.21407878633651"><ele>312.6666666666667</ele><time>2026-05-03T09:33:57Z</time></trkpt><trkpt lat="46.394867975189705" lon="13.214200485589416"><ele>313.0</ele><time>2026-05-03T09:33:58Z</time></trkpt><trkpt lat="46.39484070520262" lon="13.21431717158601"><ele>313.33333333333337</ele><time>2026-05-03T09:33:59Z</time></trkpt><trkpt lat="46.39482476708719" lon="13.214423580386766"><ele>313.6666666666667</ele><time>2026-05-03T09:34:00Z</time></trkpt><trkpt lat="46.394802734060846" lon="13.214570688509857"><ele>314.0</ele><time>2026-05-03T09:34:02Z</time></trkpt><trkpt lat="46.39492567317367" lon="13.214691699160287"><ele>314.1666666666667</ele><time>2026-05-03T09:34:03Z</time></trkpt><trkpt lat="46.39493485032936" lon="13.214843162097296"><ele>314.33333333333337</ele><time>2026-05-03T09:34:05Z</time></trkpt><trkpt lat="46.394920908685044" lon="13.214958306615816"><ele>314.5</ele><time>2026-05-03T09:34:07Z</time></trkpt><trkpt lat="46.39488864820886" lon="13.215102464737363"><ele>314.6666666666667</ele><time>2026-05-03T09:34:09Z</time></trkpt><trkpt lat="46.3948555805033" lon="13.215227995027778"><ele>314.8333333333333</ele><time>2026-05-03T09:34:11Z</time></trkpt><trkpt lat="46.39483820385295" lon="13.215317781763163"><ele>315.0</ele><time>2026-05-03T09:34:13Z</time></trkpt><trkpt lat="46.39487192680164" lon="13.2154094894963"><ele>315.0</ele><time>2026-05-03T09:34:15Z</time></trkpt><trkpt lat="46.394902869046675" lon="13.215713512925584"><ele>315.0</ele><time>2026-05-03T09:34:18Z</time></trkpt><trkpt lat="46.39494368100279" lon="13.215367881651796"><ele>315.0</ele><time>2026-05-03T09:34:20Z</time></trkpt><trkpt lat="46.39500613130519" lon="13.215402955545944"><ele>315.0</ele><time>2026-05-03T09:34:50Z</time></trkpt></trkseg><trkseg><trkpt lat="46.3939194020245" lon="13.221077718759183"><ele>318.0</ele><time>2026-05-03T09:48:28Z</time></trkpt><trkpt lat="46.393930322219504" lon="13.220982505097425"><ele>318.0</ele><time>2026-05-03T09:49:52Z</time></trkpt><trkpt lat="46.393890210829255" lon="13.22081547183211"><ele>318.0</ele><time>2026-05-03T09:49:58Z</time></trkpt><trkpt lat="46.39391157648873" lon="13.220665868095693"><ele>318.0</ele><time>2026-05-03T09:49:59Z</time></trkpt><trkpt lat="46.393949163369065" lon="13.220494620269278"><ele>318.0</ele><time>2026-05-03T09:50:00Z</time></trkpt><trkpt lat="46.39398677842695" lon="13.220267905467528"><ele>318.0</ele><time>2026-05-03T09:50:01Z</time></trkpt><trkpt lat="46.39401837131836" lon="13.220036331383382"><ele>318.0</ele><time>2026-05-03T09:50:02Z</time></trkpt><trkpt lat="46.394050932632545" lon="13.21979706012707"><ele>318.0</ele><time>2026-05-03T09:50:03Z</time></trkpt><trkpt lat="46.39408407653342" lon="13.219545305287815"><ele>318.0</ele><time>2026-05-03T09:50:04Z</time></trkpt><trkpt lat="46.39411094490066" lon="13.219334857867649"><ele>318.0</ele><time>2026-05-03T09:50:05Z</time></trkpt><trkpt lat="46.3941446010118" lon="13.219137484108211"><ele>318.0</ele><time>2026-05-03T09:50:06Z</time></trkpt><trkpt lat="46.3941739066616" lon="13.218953336645532"><ele>318.0</ele><time>2026-05-03T09:50:07Z</time></trkpt><trkpt lat="46.394199460878085" lon="13.218784259537099"><ele>317.6666666666667</ele><time>2026-05-03T09:50:08Z</time></trkpt><trkpt lat="46.394226669672186" lon="13.218613594642083"><ele>317.33333333333337</ele><time>2026-05-03T09:50:09Z</time></trkpt><trkpt lat="46.39426037312228" lon="13.218393159891265"><ele>317.0</ele><time>2026-05-03T09:50:10Z</time></trkpt><trkpt lat="46.396654734192694" lon="13.19934244602725"><ele>320.33333333333337</ele><time>2026-05-03T09:51:11Z</time></trkpt><trkpt lat="46.39668351122312" lon="13.199069279748404"><ele>323.6666666666667</ele><time>2026-05-03T09:51:12Z</time></trkpt><trkpt lat="46.39671804606371" lon="13.19879206146069"><ele>327.0</ele><time>2026-05-03T09:51:13Z</time></trkpt><trkpt lat="46.396749284426505" lon="13.198501988834119"><ele>329.6666666666667</ele><time>2026-05-03T09:51:14Z</time></trkpt><trkpt lat="46.396775911100086" lon="13.198227533258008"><ele>332.33333333333337</ele><time>2026-05-03T09:51:15Z</time></trkpt><trkpt lat="46.39679314485921" lon="13.19796850115944"><ele>335.0</ele><time>2026-05-03T09:51:16Z</time></trkpt><trkpt lat="46.39680804449405" lon="13.197717610453624"><ele>335.0</ele><time>2026-05-03T09:51:17Z</time></trkpt><trkpt lat="46.396820877801936" lon="13.197475666629243"><ele>335.0</ele><time>2026-05-03T09:51:18Z</time></trkpt><trkpt lat="46.39683463417046" lon="13.197241444093073"><ele>335.0</ele><time>2026-05-03T09:51:19Z</time></trkpt><trkpt lat="46.396841832177586" lon="13.197003324134736"><ele>335.0</ele><time>2026-05-03T09:51:20Z</time></trkpt><trkpt lat="46.3968476887412" lon="13.196738303438039"><ele>335.0</ele><time>2026-05-03T09:51:21Z</time></trkpt><trkpt lat="46.39684908062164" lon="13.196454083070858"><ele>335.0</ele><time>2026-05-03T09:51:22Z</time></trkpt><trkpt lat="46.396849686960394" lon="13.196161868064072"><ele>332.6666666666667</ele><time>2026-05-03T09:51:23Z</time></trkpt><trkpt lat="46.39684727393794" lon="13.195873279066683"><ele>330.3333333333333</ele><time>2026-05-03T09:51:23.999Z</time></trkpt><trkpt lat="46.39684437434739" lon="13.195600450477595"><ele>328.0</ele><time>2026-05-03T09:51:24.999Z</time></trkpt><trkpt lat="46.396841280089994" lon="13.195339672753176"><ele>327.0</ele><time>2026-05-03T09:51:25.999Z</time></trkpt><trkpt lat="46.39683940814893" lon="13.19508514412898"><ele>326.0</ele><time>2026-05-03T09:51:26.999Z</time></trkpt><trkpt lat="46.39684004831628" lon="13.194822823917558"><ele>325.0</ele><time>2026-05-03T09:51:27.999Z</time></trkpt><trkpt lat="46.39684447062136" lon="13.194545493303982"><ele>325.0</ele><time>2026-05-03T09:51:28.999Z</time></trkpt><trkpt lat="46.39685589030271" lon="13.19426190002826"><ele>325.0</ele><time>2026-05-03T09:51:29.999Z</time></trkpt><trkpt lat="46.396885439577495" lon="13.193996004333613"><ele>325.0</ele><time>2026-05-03T09:51:30.999Z</time></trkpt><trkpt lat="46.396937979740066" lon="13.193743079974844"><ele>319.0</ele><time>2026-05-03T09:51:31.999Z</time></trkpt><trkpt lat="46.397011963684385" lon="13.193474893750333"><ele>313.0</ele><time>2026-05-03T09:51:32.999Z</time></trkpt><trkpt lat="46.39710201961356" lon="13.19320594042547"><ele>307.0</ele><time>2026-05-03T09:51:33.999Z</time></trkpt><trkpt lat="46.39719273518659" lon="13.192954417048329"><ele>307.0</ele><time>2026-05-03T09:51:34.999Z</time></trkpt><trkpt lat="46.39727149632363" lon="13.192717142306712"><ele>307.0</ele><time>2026-05-03T09:51:35.999Z</time></trkpt><trkpt lat="46.39735140709958" lon="13.192492008213323"><ele>307.0</ele><time>2026-05-03T09:51:36.999Z</time></trkpt><trkpt lat="46.39744668873618" lon="13.192263197700045"><ele>314.3333333333333</ele><time>2026-05-03T09:51:37.999Z</time></trkpt><trkpt lat="46.397566677260656" lon="13.19204094538517"><ele>321.6666666666667</ele><time>2026-05-03T09:51:38.999Z</time></trkpt><trkpt lat="46.39770909954144" lon="13.19183093344736"><ele>329.0</ele><time>2026-05-03T09:51:39.999Z</time></trkpt><trkpt lat="46.397865252568415" lon="13.19164025989804"><ele>326.0</ele><time>2026-05-03T09:51:40.999Z</time></trkpt><trkpt lat="46.39802166602368" lon="13.191472583168968"><ele>323.0</ele><time>2026-05-03T09:51:41.999Z</time></trkpt><trkpt lat="46.39817058341132" lon="13.191311156168906"><ele>320.0</ele><time>2026-05-03T09:51:42.999Z</time></trkpt><trkpt lat="46.39830787496292" lon="13.191143681930116"><ele>320.0</ele><time>2026-05-03T09:51:43.999Z</time></trkpt><trkpt lat="46.398426131869094" lon="13.190967896478137"><ele>320.0</ele><time>2026-05-03T09:51:44.999Z</time></trkpt><trkpt lat="46.3985220081383" lon="13.190783222998437"><ele>320.0</ele><time>2026-05-03T09:51:45.999Z</time></trkpt><trkpt lat="46.398601860913246" lon="13.190581745272002"><ele>328.6666666666667</ele><time>2026-05-03T09:51:46.999Z</time></trkpt><trkpt lat="46.3986670395567" lon="13.19036844803214"><ele>337.3333333333333</ele><time>2026-05-03T09:51:47.999Z</time></trkpt><trkpt lat="46.39873195013713" lon="13.190140516301206"><ele>346.0</ele><time>2026-05-03T09:51:48.999Z</time></trkpt><trkpt lat="46.39878011120501" lon="13.189887371379784"><ele>352.3333333333333</ele><time>2026-05-03T09:51:49.999Z</time></trkpt><trkpt lat="46.39882725351718" lon="13.189611977914783"><ele>358.6666666666667</ele><time>2026-05-03T09:51:50.999Z</time></trkpt><trkpt lat="46.398877151164264" lon="13.189333309147806"><ele>365.0</ele><time>2026-05-03T09:51:51.999Z</time></trkpt><trkpt lat="46.39891606187434" lon="13.189037969932174"><ele>342.33333333333337</ele><time>2026-05-03T09:51:52.999Z</time></trkpt><trkpt lat="46.39894003356685" lon="13.188734983011777"><ele>319.6666666666667</ele><time>2026-05-03T09:51:53.999Z</time></trkpt><trkpt lat="46.39894973002294" lon="13.188445428485984"><ele>297.0</ele><time>2026-05-03T09:51:54.999Z</time></trkpt><trkpt lat="46.39896688141588" lon="13.188165532549458"><ele>297.0</ele><time>2026-05-03T09:51:55.999Z</time></trkpt><trkpt lat="46.39899515276405" lon="13.187879912287011"><ele>297.0</ele><time>2026-05-03T09:51:56.999Z</time></trkpt><trkpt lat="46.39903395927301" lon="13.187593480837997"><ele>297.0</ele><time>2026-05-03T09:51:57.999Z</time></trkpt><trkpt lat="46.39909512937683" lon="13.187341097142241"><ele>305.0</ele><time>2026-05-03T09:51:58.999Z</time></trkpt><trkpt lat="46.39917585942323" lon="13.18710598529064"><ele>313.0</ele><time>2026-05-03T09:51:59.999Z</time></trkpt><trkpt lat="46.39926416661234" lon="13.18688786637135"><ele>321.0</ele><time>2026-05-03T09:52:00.999Z</time></trkpt><trkpt lat="46.39935378004034" lon="13.186690845494864"><ele>325.0</ele><time>2026-05-03T09:52:01.999Z</time></trkpt><trkpt lat="46.39943986780489" lon="13.18650542607961"><ele>329.0</ele><time>2026-05-03T09:52:02.999Z</time></trkpt><trkpt lat="46.39951999979455" lon="13.186332726215635"><ele>333.0</ele><time>2026-05-03T09:52:03.999Z</time></trkpt><trkpt lat="46.39958911994327" lon="13.186167609501286"><ele>337.0</ele><time>2026-05-03T09:52:04.999Z</time></trkpt><trkpt lat="46.39965037522075" lon="13.186002024030833"><ele>326.0</ele><time>2026-05-03T09:52:05.999Z</time></trkpt><trkpt lat="46.399704100308085" lon="13.185813941300268"><ele>315.0</ele><time>2026-05-03T09:52:06.999Z</time></trkpt><trkpt lat="46.399743292881354" lon="13.185583772489933"><ele>304.0</ele><time>2026-05-03T09:52:07.999Z</time></trkpt><trkpt lat="46.39977039647927" lon="13.185328354962504"><ele>304.0</ele><time>2026-05-03T09:52:08.999Z</time></trkpt><trkpt lat="46.3997886842984" lon="13.185055228607405"><ele>304.0</ele><time>2026-05-03T09:52:09.999Z</time></trkpt><trkpt lat="46.39352441390841" lon="13.166218209421132"><ele>294.5</ele><time>2026-05-03T09:53:11Z</time></trkpt><trkpt lat="46.393360644309794" lon="13.16599226580329"><ele>285.0</ele><time>2026-05-03T09:53:12Z</time></trkpt><trkpt lat="46.39318946902012" lon="13.165774146632966"><ele>287.0</ele><time>2026-05-03T09:53:13Z</time></trkpt><trkpt lat="46.39300388196019" lon="13.165543734288077"><ele>289.0</ele><time>2026-05-03T09:53:14Z</time></trkpt><trkpt lat="46.39281927237146" lon="13.165315690482181"><ele>289.0</ele><time>2026-05-03T09:53:15Z</time></trkpt><trkpt lat="46.39263729262284" lon="13.165093955474607"><ele>289.0</ele><time>2026-05-03T09:53:16Z</time></trkpt><trkpt lat="46.39245508141691" lon="13.164873319656119"><ele>287.0</ele><time>2026-05-03T09:53:17Z</time></trkpt><trkpt lat="46.39226783459806" lon="13.16464586944291"><ele>285.0</ele><time>2026-05-03T09:53:18Z</time></trkpt><trkpt lat="46.3920714018731" lon="13.164429493221022"><ele>285.0</ele><time>2026-05-03T09:53:19Z</time></trkpt><trkpt lat="46.39184297184302" lon="13.164215518765534"><ele>285.0</ele><time>2026-05-03T09:53:20Z</time></trkpt><trkpt lat="46.391589325477625" lon="13.16400211722788"><ele>285.0</ele><time>2026-05-03T09:53:21Z</time></trkpt><trkpt lat="46.39132468140318" lon="13.163785600619427"><ele>285.0</ele><time>2026-05-03T09:53:22Z</time></trkpt><trkpt lat="46.391058876176025" lon="13.163561804513956"><ele>285.0</ele><time>2026-05-03T09:53:23Z</time></trkpt><trkpt lat="46.390798151296245" lon="13.163345019338118"><ele>285.0</ele><time>2026-05-03T09:53:24Z</time></trkpt><trkpt lat="46.390543271697695" lon="13.163135755892693"><ele>285.0</ele><time>2026-05-03T09:53:25Z</time></trkpt><trkpt lat="46.39030044111107" lon="13.1629311725563"><ele>285.0</ele><time>2026-05-03T09:53:26Z</time></trkpt><trkpt lat="46.39007453489225" lon="13.162747452865778"><ele>285.0</ele><time>2026-05-03T09:53:27Z</time></trkpt><trkpt lat="46.38986419397586" lon="13.162572001938832"><ele>285.0</ele><time>2026-05-03T09:53:28Z</time></trkpt><trkpt lat="46.38966664787517" lon="13.162399005887316"><ele>283.5</ele><time>2026-05-03T09:53:29Z</time></trkpt><trkpt lat="46.389470875521525" lon="13.162228103147442"><ele>282.0</ele><time>2026-05-03T09:53:30Z</time></trkpt><trkpt lat="46.389267109514606" lon="13.162050828837918"><ele>282.0</ele><time>2026-05-03T09:53:31Z</time></trkpt><trkpt lat="46.38905733194152" lon="13.161866392141496"><ele>282.0</ele><time>2026-05-03T09:53:32Z</time></trkpt><trkpt lat="46.38884494116429" lon="13.161667759793914"><ele>281.5</ele><time>2026-05-03T09:53:33Z</time></trkpt><trkpt lat="46.388635689557425" lon="13.161453187019283"><ele>281.0</ele><time>2026-05-03T09:53:34Z</time></trkpt><trkpt lat="46.38844278594179" lon="13.161227022829365"><ele>281.0</ele><time>2026-05-03T09:53:35Z</time></trkpt><trkpt lat="46.388269639637166" lon="13.160996265782861"><ele>281.0</ele><time>2026-05-03T09:53:36Z</time></trkpt><trkpt lat="46.388100989491335" lon="13.160743072599157"><ele>282.5</ele><time>2026-05-03T09:53:37Z</time></trkpt><trkpt lat="46.38793888933893" lon="13.160469274456707"><ele>284.0</ele><time>2026-05-03T09:53:38Z</time></trkpt><trkpt lat="46.38778750280725" lon="13.160180911987009"><ele>284.0</ele><time>2026-05-03T09:53:39Z</time></trkpt><trkpt lat="46.38765191795383" lon="13.159889660044032"><ele>284.0</ele><time>2026-05-03T09:53:40Z</time></trkpt><trkpt lat="46.38752701088226" lon="13.159595442705733"><ele>281.5</ele><time>2026-05-03T09:53:41Z</time></trkpt><trkpt lat="46.38741452915418" lon="13.159291622271784"><ele>279.0</ele><time>2026-05-03T09:53:42Z</time></trkpt><trkpt lat="46.38731690302478" lon="13.158972966117368"><ele>279.0</ele><time>2026-05-03T09:53:43Z</time></trkpt><trkpt lat="46.387230723167534" lon="13.158646177114987"><ele>279.0</ele><time>2026-05-03T09:53:44Z</time></trkpt><trkpt lat="46.38715424286975" lon="13.158313357155762"><ele>297.0</ele><time>2026-05-03T09:53:45Z</time></trkpt><trkpt lat="46.387088381327494" lon="13.15797490423045"><ele>315.0</ele><time>2026-05-03T09:53:46Z</time></trkpt><trkpt lat="46.38703739920809" lon="13.157640857340809"><ele>313.0</ele><time>2026-05-03T09:53:47Z</time></trkpt><trkpt lat="46.38700528023543" lon="13.15731008134023"><ele>311.0</ele><time>2026-05-03T09:53:48Z</time></trkpt><trkpt lat="46.38699136842597" lon="13.156976915730409"><ele>311.0</ele><time>2026-05-03T09:53:49Z</time></trkpt><trkpt lat="46.38697879151754" lon="13.156652200654076"><ele>311.0</ele><time>2026-05-03T09:53:50Z</time></trkpt><trkpt lat="46.386970858658316" lon="13.156338804482978"><ele>311.0</ele><time>2026-05-03T09:53:51Z</time></trkpt><trkpt lat="46.386964995696424" lon="13.156041618159707"><ele>310.33333333333337</ele><time>2026-05-03T09:53:52Z</time></trkpt><trkpt lat="46.3869639502958" lon="13.15575633893734"><ele>309.6666666666667</ele><time>2026-05-03T09:53:53Z</time></trkpt><trkpt lat="46.386973816127195" lon="13.155460011490023"><ele>309.0</ele><time>2026-05-03T09:53:54Z</time></trkpt><trkpt lat="46.3869909044202" lon="13.155150698831575"><ele>314.0</ele><time>2026-05-03T09:53:55Z</time></trkpt><trkpt lat="46.38701747771256" lon="13.154858991847332"><ele>319.0</ele><time>2026-05-03T09:53:56Z</time></trkpt><trkpt lat="46.3870452295358" lon="13.154588247859639"><ele>324.0</ele><time>2026-05-03T09:53:57Z</time></trkpt><trkpt lat="46.38707290472051" lon="13.154324418492862"><ele>324.0</ele><time>2026-05-03T09:53:58Z</time></trkpt><trkpt lat="46.387094068036056" lon="13.154053342573395"><ele>324.0</ele><time>2026-05-03T09:53:59Z</time></trkpt><trkpt lat="46.38711418508457" lon="13.153786550116955"><ele>324.0</ele><time>2026-05-03T09:54:00Z</time></trkpt><trkpt lat="46.387136219024036" lon="13.153516053303967"><ele>330.3333333333333</ele><time>2026-05-03T09:54:01Z</time></trkpt><trkpt lat="46.38716088898277" lon="13.153233766762698"><ele>336.66666666666663</ele><time>2026-05-03T09:54:02Z</time></trkpt><trkpt lat="46.38718389387004" lon="13.152951678369725"><ele>343.0</ele><time>2026-05-03T09:54:03Z</time></trkpt><trkpt lat="46.38719374092627" lon="13.152687937913928"><ele>330.0</ele><time>2026-05-03T09:54:04Z</time></trkpt><trkpt lat="46.38718775195193" lon="13.152404156939882"><ele>317.0</ele><time>2026-05-03T09:54:05Z</time></trkpt><trkpt lat="46.38716511384432" lon="13.152100931994394"><ele>304.0</ele><time>2026-05-03T09:54:06Z</time></trkpt><trkpt lat="46.38714253398062" lon="13.151787357875598"><ele>302.66666666666663</ele><time>2026-05-03T09:54:07Z</time></trkpt><trkpt lat="46.387138052242356" lon="13.151457664728222"><ele>301.3333333333333</ele><time>2026-05-03T09:54:08Z</time></trkpt><trkpt lat="46.38708646966749" lon="13.151148905943673"><ele>300.0</ele><time>2026-05-03T09:54:09Z</time></trkpt><trkpt lat="46.38704889833401" lon="13.150851556556693"><ele>264.0</ele><time>2026-05-03T09:54:10Z</time></trkpt><trkpt lat="46.382134953965675" lon="13.134247846433318"><ele>264.0</ele><time>2026-05-03T09:55:11Z</time></trkpt><trkpt lat="46.38200050896565" lon="13.134070393985525"><ele>264.0</ele><time>2026-05-03T09:55:12Z</time></trkpt><trkpt lat="46.38187398514878" lon="13.133903154709401"><ele>264.0</ele><time>2026-05-03T09:55:13Z</time></trkpt><trkpt lat="46.381754279703785" lon="13.133751084656984"><ele>263.3333333333333</ele><time>2026-05-03T09:55:14Z</time></trkpt><trkpt lat="46.3816319886755" lon="13.133596733671727"><ele>262.66666666666663</ele><time>2026-05-03T09:55:15Z</time></trkpt><trkpt lat="46.38150928874623" lon="13.133438114058615"><ele>262.0</ele><time>2026-05-03T09:55:16Z</time></trkpt><trkpt lat="46.381386006824215" lon="13.133294119458528"><ele>263.0</ele><time>2026-05-03T09:55:17Z</time></trkpt><trkpt lat="46.38125583436694" lon="13.133168033901468"><ele>264.0</ele><time>2026-05-03T09:55:18Z</time></trkpt><trkpt lat="46.381114214130086" lon="13.133048819008312"><ele>265.0</ele><time>2026-05-03T09:55:19Z</time></trkpt><trkpt lat="46.380963630374005" lon="13.132946678770539"><ele>265.0</ele><time>2026-05-03T09:55:20Z</time></trkpt><trkpt lat="46.380820760850305" lon="13.13282583742927"><ele>265.0</ele><time>2026-05-03T09:55:21Z</time></trkpt><trkpt lat="46.38063532804343" lon="13.132832306165012"><ele>265.0</ele><time>2026-05-03T09:55:22Z</time></trkpt><trkpt lat="46.38045146800557" lon="13.132827995471187"><ele>264.66666666666663</ele><time>2026-05-03T09:55:23Z</time></trkpt><trkpt lat="46.38027309130597" lon="13.132841170479695"><ele>264.3333333333333</ele><time>2026-05-03T09:55:24Z</time></trkpt><trkpt lat="46.38010318043771" lon="13.13288668684403"><ele>264.0</ele><time>2026-05-03T09:55:25Z</time></trkpt><trkpt lat="46.37993909527382" lon="13.132962382274284"><ele>264.0</ele><time>2026-05-03T09:55:26Z</time></trkpt><trkpt lat="46.37977526322346" lon="13.133057705322404"><ele>264.0</ele><time>2026-05-03T09:55:27Z</time></trkpt><trkpt lat="46.379615169049984" lon="13.133173707442564"><ele>264.0</ele><time>2026-05-03T09:55:28Z</time></trkpt><trkpt lat="46.379458261961986" lon="13.133291232796632"><ele>263.3333333333333</ele><time>2026-05-03T09:55:29Z</time></trkpt><trkpt lat="46.379313325568596" lon="13.133404067534993"><ele>262.66666666666663</ele><time>2026-05-03T09:55:30Z</time></trkpt><trkpt lat="46.379175281303155" lon="13.133507544224202"><ele>262.0</ele><time>2026-05-03T09:55:31Z</time></trkpt><trkpt lat="46.37904927715448" lon="13.13361086905445"><ele>262.0</ele><time>2026-05-03T09:55:32Z</time></trkpt><trkpt lat="46.37892717269713" lon="13.133730232852535"><ele>262.0</ele><time>2026-05-03T09:55:33Z</time></trkpt><trkpt lat="46.3788028645077" lon="13.133887209998912"><ele>262.0</ele><time>2026-05-03T09:55:34Z</time></trkpt><trkpt lat="46.37867328017078" lon="13.134057322629129"><ele>262.0</ele><time>2026-05-03T09:55:35Z</time></trkpt><trkpt lat="46.37855613545453" lon="13.13424354366036"><ele>262.0</ele><time>2026-05-03T09:55:36Z</time></trkpt><trkpt lat="46.37844150026348" lon="13.13445344071776"><ele>262.0</ele><time>2026-05-03T09:55:37Z</time></trkpt><trkpt lat="46.37833275910068" lon="13.134689228251924"><ele>263.3333333333333</ele><time>2026-05-03T09:55:38Z</time></trkpt><trkpt lat="46.37823840564363" lon="13.134918778412203"><ele>264.6666666666667</ele><time>2026-05-03T09:55:39Z</time></trkpt><trkpt lat="46.37815513549494" lon="13.135145655547715"><ele>266.0</ele><time>2026-05-03T09:55:40Z</time></trkpt><trkpt lat="46.37806299187062" lon="13.135336769089953"><ele>265.6666666666667</ele><time>2026-05-03T09:55:41Z</time></trkpt><trkpt lat="46.37798592562631" lon="13.135533716332906"><ele>265.3333333333333</ele><time>2026-05-03T09:55:42Z</time></trkpt><trkpt lat="46.37788916602575" lon="13.13572979055322"><ele>265.0</ele><time>2026-05-03T09:55:43Z</time></trkpt><trkpt lat="46.37779681170922" lon="13.13590179544506"><ele>265.0</ele><time>2026-05-03T09:55:44Z</time></trkpt><trkpt lat="46.37769035564962" lon="13.136085800651754"><ele>265.0</ele><time>2026-05-03T09:55:45Z</time></trkpt><trkpt lat="46.377551010781495" lon="13.136252824750505"><ele>265.0</ele><time>2026-05-03T09:55:46Z</time></trkpt><trkpt lat="46.37741780551392" lon="13.136440632016377"><ele>265.0</ele><time>2026-05-03T09:55:47Z</time></trkpt><trkpt lat="46.37727251231722" lon="13.136578261836418"><ele>265.0</ele><time>2026-05-03T09:55:48Z</time></trkpt><trkpt lat="46.37713335173991" lon="13.136696513175773"><ele>265.0</ele><time>2026-05-03T09:55:49Z</time></trkpt><trkpt lat="46.37698270349283" lon="13.136775704998756"><ele>265.0</ele><time>2026-05-03T09:55:50Z</time></trkpt><trkpt lat="46.37683464657599" lon="13.136860443435534"><ele>265.0</ele><time>2026-05-03T09:55:51Z</time></trkpt><trkpt lat="46.376672831627474" lon="13.136938486778472"><ele>265.0</ele><time>2026-05-03T09:55:52Z</time></trkpt><trkpt lat="46.37650516819448" lon="13.136982191709267"><ele>264.0</ele><time>2026-05-03T09:55:53Z</time></trkpt><trkpt lat="46.37633571994283" lon="13.137021720456051"><ele>263.0</ele><time>2026-05-03T09:55:54Z</time></trkpt><trkpt lat="46.37614522657939" lon="13.136997246173264"><ele>262.0</ele><time>2026-05-03T09:55:55Z</time></trkpt><trkpt lat="46.37594678908772" lon="13.136942169608357"><ele>262.0</ele><time>2026-05-03T09:55:56Z</time></trkpt><trkpt lat="46.37574529057289" lon="13.1368544874743"><ele>262.0</ele><time>2026-05-03T09:55:57Z</time></trkpt><trkpt lat="46.375543622347784" lon="13.136767915982592"><ele>262.0</ele><time>2026-05-03T09:55:58Z</time></trkpt><trkpt lat="46.37533989366381" lon="13.136696003748465"><ele>261.0</ele><time>2026-05-03T09:55:59Z</time></trkpt><trkpt lat="46.37513753614401" lon="13.136598522430441"><ele>260.0</ele><time>2026-05-03T09:56:00Z</time></trkpt><trkpt lat="46.374886954955365" lon="13.136490424065414"><ele>259.0</ele><time>2026-05-03T09:56:01Z</time></trkpt><trkpt lat="46.3746009570471" lon="13.136363398530193"><ele>258.0</ele><time>2026-05-03T09:56:02Z</time></trkpt><trkpt lat="46.374298670466764" lon="13.13623553735754"><ele>258.0</ele><time>2026-05-03T09:56:03Z</time></trkpt><trkpt lat="46.37400726365875" lon="13.13612027800895"><ele>258.0</ele><time>2026-05-03T09:56:04Z</time></trkpt><trkpt lat="46.37374257912658" lon="13.136028384622664"><ele>259.0</ele><time>2026-05-03T09:56:05Z</time></trkpt><trkpt lat="46.37346302605072" lon="13.135937112791131"><ele>260.0</ele><time>2026-05-03T09:56:06Z</time></trkpt><trkpt lat="46.37317838043266" lon="13.135855341706806"><ele>264.5</ele><time>2026-05-03T09:56:07Z</time></trkpt><trkpt lat="46.37290052760604" lon="13.135801702801217"><ele>269.0</ele><time>2026-05-03T09:56:08Z</time></trkpt><trkpt lat="46.37262434317576" lon="13.135752953371282"><ele>262.0</ele><time>2026-05-03T09:56:09Z</time></trkpt><trkpt lat="46.37237066556619" lon="13.135706406991757"><ele>255.0</ele><time>2026-05-03T09:56:10Z</time></trkpt><trkpt lat="46.358150032979886" lon="13.13748244559147"><ele>247.0</ele><time>2026-05-03T09:57:11Z</time></trkpt><trkpt lat="46.35786340432454" lon="13.137615184866258"><ele>239.0</ele><time>2026-05-03T09:57:12Z</time></trkpt><trkpt lat="46.357552328295945" lon="13.137761178716579"><ele>239.0</ele><time>2026-05-03T09:57:13Z</time></trkpt><trkpt lat="46.35724363396273" lon="13.137907071832393"><ele>239.0</ele><time>2026-05-03T09:57:14Z</time></trkpt><trkpt lat="46.35695830974752" lon="13.138044873229989"><ele>239.0</ele><time>2026-05-03T09:57:15Z</time></trkpt><trkpt lat="46.356693151210735" lon="13.13816796357951"><ele>239.0</ele><time>2026-05-03T09:57:16Z</time></trkpt><trkpt lat="46.35644436690656" lon="13.138282386784596"><ele>240.5</ele><time>2026-05-03T09:57:17Z</time></trkpt><trkpt lat="46.356191659171074" lon="13.138404852414457"><ele>242.0</ele><time>2026-05-03T09:57:18Z</time></trkpt><trkpt lat="46.35594847687907" lon="13.138527009874757"><ele>242.0</ele><time>2026-05-03T09:57:19Z</time></trkpt><trkpt lat="46.3557301226262" lon="13.138634587474101"><ele>242.0</ele><time>2026-05-03T09:57:20Z</time></trkpt><trkpt lat="46.35551488253726" lon="13.138736963564732"><ele>242.5</ele><time>2026-05-03T09:57:21Z</time></trkpt><trkpt lat="46.35529189055316" lon="13.138843976951"><ele>243.0</ele><time>2026-05-03T09:57:22Z</time></trkpt><trkpt lat="46.35506349720198" lon="13.138952571560637"><ele>243.5</ele><time>2026-05-03T09:57:23Z</time></trkpt><trkpt lat="46.354831474289945" lon="13.139078522445274"><ele>244.0</ele><time>2026-05-03T09:57:24Z</time></trkpt><trkpt lat="46.35457284787775" lon="13.139246334354533"><ele>244.0</ele><time>2026-05-03T09:57:25Z</time></trkpt><trkpt lat="46.35430571928086" lon="13.13942416516572"><ele>244.0</ele><time>2026-05-03T09:57:26Z</time></trkpt><trkpt lat="46.35403957276741" lon="13.13959853582895"><ele>244.0</ele><time>2026-05-03T09:57:27Z</time></trkpt><trkpt lat="46.353779128170835" lon="13.139764368251548"><ele>244.0</ele><time>2026-05-03T09:57:28Z</time></trkpt><trkpt lat="46.353512977904224" lon="13.139934284855363"><ele>245.5</ele><time>2026-05-03T09:57:29Z</time></trkpt><trkpt lat="46.35323439796786" lon="13.140115450847375"><ele>247.0</ele><time>2026-05-03T09:57:30Z</time></trkpt><trkpt lat="46.35293990192382" lon="13.140306300534952"><ele>247.0</ele><time>2026-05-03T09:57:31Z</time></trkpt><trkpt lat="46.35266911149273" lon="13.14048466092073"><ele>247.0</ele><time>2026-05-03T09:57:32Z</time></trkpt><trkpt lat="46.352428237032164" lon="13.140641209887278"><ele>248.0</ele><time>2026-05-03T09:57:33Z</time></trkpt><trkpt lat="46.35220153249181" lon="13.140787260976415"><ele>249.0</ele><time>2026-05-03T09:57:34Z</time></trkpt><trkpt lat="46.35198230336147" lon="13.140935699504864"><ele>249.0</ele><time>2026-05-03T09:57:35Z</time></trkpt><trkpt lat="46.35176724241248" lon="13.141080069414919"><ele>249.0</ele><time>2026-05-03T09:57:36Z</time></trkpt><trkpt lat="46.351543446028785" lon="13.14122036151742"><ele>246.0</ele><time>2026-05-03T09:57:37Z</time></trkpt><trkpt lat="46.35131137176877" lon="13.141369719665382"><ele>243.0</ele><time>2026-05-03T09:57:38Z</time></trkpt><trkpt lat="46.351079149653515" lon="13.141516684304605"><ele>247.0</ele><time>2026-05-03T09:57:39Z</time></trkpt><trkpt lat="46.3508519236484" lon="13.141649085976749"><ele>251.0</ele><time>2026-05-03T09:57:40Z</time></trkpt><trkpt lat="46.350627131981646" lon="13.14176842869607"><ele>249.33333333333334</ele><time>2026-05-03T09:57:41Z</time></trkpt><trkpt lat="46.35041431257483" lon="13.1418733649297"><ele>247.66666666666669</ele><time>2026-05-03T09:57:42Z</time></trkpt><trkpt lat="46.35021774326189" lon="13.141955013574965"><ele>246.0</ele><time>2026-05-03T09:57:43Z</time></trkpt><trkpt lat="46.350028688696014" lon="13.14203016146017"><ele>246.0</ele><time>2026-05-03T09:57:44Z</time></trkpt><trkpt lat="46.3498295038383" lon="13.142121182316568"><ele>246.0</ele><time>2026-05-03T09:57:45Z</time></trkpt><trkpt lat="46.349641989575126" lon="13.142213794792871"><ele>246.0</ele><time>2026-05-03T09:57:46Z</time></trkpt><trkpt lat="46.34947036923005" lon="13.142290650391258"><ele>245.66666666666669</ele><time>2026-05-03T09:57:47Z</time></trkpt><trkpt lat="46.349303061233044" lon="13.142348670717427"><ele>245.33333333333334</ele><time>2026-05-03T09:57:48Z</time></trkpt><trkpt lat="46.349133139577944" lon="13.142373465391477"><ele>245.0</ele><time>2026-05-03T09:57:49Z</time></trkpt><trkpt lat="46.34894185714461" lon="13.14237022215995"><ele>242.33333333333334</ele><time>2026-05-03T09:57:50Z</time></trkpt><trkpt lat="46.34874099773097" lon="13.142340854451778"><ele>239.66666666666669</ele><time>2026-05-03T09:57:51Z</time></trkpt><trkpt lat="46.34853760845915" lon="13.14227911114072"><ele>237.0</ele><time>2026-05-03T09:57:52Z</time></trkpt><trkpt lat="46.34832616115683" lon="13.142175151905898"><ele>237.0</ele><time>2026-05-03T09:57:53Z</time></trkpt><trkpt lat="46.348085053221084" lon="13.142033309330037"><ele>237.0</ele><time>2026-05-03T09:57:54Z</time></trkpt><trkpt lat="46.34781799032205" lon="13.141870940162883"><ele>236.5</ele><time>2026-05-03T09:57:55Z</time></trkpt><trkpt lat="46.34753192857603" lon="13.141703059215878"><ele>236.0</ele><time>2026-05-03T09:57:56Z</time></trkpt><trkpt lat="46.34722746482103" lon="13.141533244159783"><ele>235.5</ele><time>2026-05-03T09:57:57Z</time></trkpt><trkpt lat="46.34691248990574" lon="13.141354041477108"><ele>235.0</ele><time>2026-05-03T09:57:58Z</time></trkpt><trkpt lat="46.34660003081719" lon="13.141179029607414"><ele>236.0</ele><time>2026-05-03T09:57:59Z</time></trkpt><trkpt lat="46.34628631392623" lon="13.140998117634462"><ele>237.0</ele><time>2026-05-03T09:58:00Z</time></trkpt><trkpt lat="46.34599502303749" lon="13.140828442414474"><ele>236.5</ele><time>2026-05-03T09:58:01Z</time></trkpt><trkpt lat="46.345724978185594" lon="13.140673831248884"><ele>236.0</ele><time>2026-05-03T09:58:02Z</time></trkpt><trkpt lat="46.345471950618304" lon="13.14052786217164"><ele>235.5</ele><time>2026-05-03T09:58:03Z</time></trkpt><trkpt lat="46.345233717102246" lon="13.140390265262322"><ele>235.0</ele><time>2026-05-03T09:58:04Z</time></trkpt><trkpt lat="46.34500846943279" lon="13.140259192460835"><ele>235.0</ele><time>2026-05-03T09:58:05Z</time></trkpt><trkpt lat="46.34479649073628" lon="13.140137035662873"><ele>235.0</ele><time>2026-05-03T09:58:06Z</time></trkpt><trkpt lat="46.34459651947297" lon="13.140022966138632"><ele>235.0</ele><time>2026-05-03T09:58:07Z</time></trkpt><trkpt lat="46.34440847266336" lon="13.139917349374619"><ele>235.0</ele><time>2026-05-03T09:58:08Z</time></trkpt><trkpt lat="46.34422244790758" lon="13.139819829318567"><ele>235.0</ele><time>2026-05-03T09:58:09Z</time></trkpt><trkpt lat="46.34403118164084" lon="13.139733859808237"><ele>235.0</ele><time>2026-05-03T09:58:10Z</time></trkpt><trkpt lat="46.33423908747928" lon="13.137294149789787"><ele>235.0</ele><time>2026-05-03T09:59:11Z</time></trkpt><trkpt lat="46.33409362142877" lon="13.137233507660158"><ele>235.0</ele><time>2026-05-03T09:59:12Z</time></trkpt><trkpt lat="46.33396225885746" lon="13.137230041504816"><ele>235.0</ele><time>2026-05-03T09:59:13Z</time></trkpt><trkpt lat="46.33381772441127" lon="13.137271358246162"><ele>235.0</ele><time>2026-05-03T09:59:14Z</time></trkpt><trkpt lat="46.33366645875256" lon="13.137341690932441"><ele>233.0</ele><time>2026-05-03T09:59:15Z</time></trkpt><trkpt lat="46.33350407231662" lon="13.137433271895048"><ele>231.0</ele><time>2026-05-03T09:59:16Z</time></trkpt><trkpt lat="46.33334997933561" lon="13.13753170015037"><ele>229.0</ele><time>2026-05-03T09:59:17Z</time></trkpt><trkpt lat="46.33321267822757" lon="13.137621552820159"><ele>229.0</ele><time>2026-05-03T09:59:18Z</time></trkpt><trkpt lat="46.33308329481747" lon="13.137705417836465"><ele>229.0</ele><time>2026-05-03T09:59:19Z</time></trkpt><trkpt lat="46.33294409799096" lon="13.137799323940872"><ele>229.0</ele><time>2026-05-03T09:59:20Z</time></trkpt><trkpt lat="46.33279478632529" lon="13.137900138699694"><ele>229.25</ele><time>2026-05-03T09:59:21Z</time></trkpt><trkpt lat="46.33265508345476" lon="13.137988877195578"><ele>229.5</ele><time>2026-05-03T09:59:22Z</time></trkpt><trkpt lat="46.3325244517775" lon="13.138061692422076"><ele>229.75</ele><time>2026-05-03T09:59:23Z</time></trkpt><trkpt lat="46.33240070420504" lon="13.138122929411448"><ele>230.0</ele><time>2026-05-03T09:59:24Z</time></trkpt><trkpt lat="46.332276487344686" lon="13.138158774266516"><ele>229.75</ele><time>2026-05-03T09:59:25Z</time></trkpt><trkpt lat="46.33215041451089" lon="13.138165338894478"><ele>229.5</ele><time>2026-05-03T09:59:26Z</time></trkpt><trkpt lat="46.33201254146655" lon="13.138150539007025"><ele>229.25</ele><time>2026-05-03T09:59:27Z</time></trkpt><trkpt lat="46.331861434893305" lon="13.138109449604881"><ele>229.0</ele><time>2026-05-03T09:59:28Z</time></trkpt><trkpt lat="46.33170322133495" lon="13.138031765099402"><ele>229.0</ele><time>2026-05-03T09:59:29Z</time></trkpt><trkpt lat="46.33154334683004" lon="13.137924872677047"><ele>229.0</ele><time>2026-05-03T09:59:30Z</time></trkpt><trkpt lat="46.331394022503844" lon="13.137809230182866"><ele>229.0</ele><time>2026-05-03T09:59:31Z</time></trkpt><trkpt lat="46.331260148165654" lon="13.13770556594998"><ele>228.66666666666666</ele><time>2026-05-03T09:59:32Z</time></trkpt><trkpt lat="46.33113077125229" lon="13.137607698602956"><ele>228.33333333333331</ele><time>2026-05-03T09:59:33Z</time></trkpt><trkpt lat="46.3309927439959" lon="13.137505979906532"><ele>228.0</ele><time>2026-05-03T09:59:34Z</time></trkpt><trkpt lat="46.330841414710754" lon="13.137394376621009"><ele>228.0</ele><time>2026-05-03T09:59:35Z</time></trkpt><trkpt lat="46.33068089542339" lon="13.137275384906491"><ele>228.0</ele><time>2026-05-03T09:59:36Z</time></trkpt><trkpt lat="46.330506193158946" lon="13.137148167238268"><ele>228.0</ele><time>2026-05-03T09:59:37Z</time></trkpt><trkpt lat="46.3303223734242" lon="13.137010859885441"><ele>227.33333333333331</ele><time>2026-05-03T09:59:38Z</time></trkpt><trkpt lat="46.33013500214692" lon="13.136868053663944"><ele>226.66666666666666</ele><time>2026-05-03T09:59:39Z</time></trkpt><trkpt lat="46.32995860993684" lon="13.136733729907458"><ele>226.0</ele><time>2026-05-03T09:59:40Z</time></trkpt><trkpt lat="46.32978858026766" lon="13.136604872301266"><ele>226.0</ele><time>2026-05-03T09:59:41Z</time></trkpt><trkpt lat="46.329608352062635" lon="13.136467209765708"><ele>226.0</ele><time>2026-05-03T09:59:42Z</time></trkpt><trkpt lat="46.32943405281608" lon="13.136327804720052"><ele>226.0</ele><time>2026-05-03T09:59:43Z</time></trkpt><trkpt lat="46.32927848538315" lon="13.13618925436015"><ele>226.0</ele><time>2026-05-03T09:59:44Z</time></trkpt><trkpt lat="46.32914093441375" lon="13.136050055372309"><ele>226.0</ele><time>2026-05-03T09:59:45Z</time></trkpt><trkpt lat="46.329004849824805" lon="13.135916664281318"><ele>226.0</ele><time>2026-05-03T09:59:46Z</time></trkpt><trkpt lat="46.32886674545162" lon="13.135785134399587"><ele>225.66666666666666</ele><time>2026-05-03T09:59:47Z</time></trkpt><trkpt lat="46.3287238677023" lon="13.135649335577373"><ele>225.33333333333331</ele><time>2026-05-03T09:59:48Z</time></trkpt><trkpt lat="46.328584507886774" lon="13.135516192878187"><ele>225.0</ele><time>2026-05-03T09:59:49Z</time></trkpt><trkpt lat="46.32843874953788" lon="13.13538152027731"><ele>225.0</ele><time>2026-05-03T09:59:50Z</time></trkpt><trkpt lat="46.32829142077417" lon="13.135245326389265"><ele>225.0</ele><time>2026-05-03T09:59:51Z</time></trkpt><trkpt lat="46.32813117724908" lon="13.135095933652936"><ele>225.0</ele><time>2026-05-03T09:59:52Z</time></trkpt><trkpt lat="46.32796963924056" lon="13.13494995261304"><ele>224.66666666666669</ele><time>2026-05-03T09:59:53Z</time></trkpt><trkpt lat="46.32781568969275" lon="13.134813312606212"><ele>224.33333333333334</ele><time>2026-05-03T09:59:54Z</time></trkpt><trkpt lat="46.32766029938854" lon="13.134673997079043"><ele>224.0</ele><time>2026-05-03T09:59:55Z</time></trkpt><trkpt lat="46.32750469476024" lon="13.134533585981355"><ele>224.0</ele><time>2026-05-03T09:59:56Z</time></trkpt><trkpt lat="46.32734977019671" lon="13.134395101033116"><ele>224.0</ele><time>2026-05-03T09:59:57Z</time></trkpt><trkpt lat="46.32719348532557" lon="13.134247499785221"><ele>224.0</ele><time>2026-05-03T09:59:58Z</time></trkpt><trkpt lat="46.327034554325664" lon="13.134098623174475"><ele>224.0</ele><time>2026-05-03T09:59:59Z</time></trkpt><trkpt lat="46.3268689687831" lon="13.13394696566735"><ele>224.0</ele><time>2026-05-03T10:00:00Z</time></trkpt><trkpt lat="46.32670462216225" lon="13.133796063353989"><ele>224.0</ele><time>2026-05-03T10:00:01Z</time></trkpt><trkpt lat="46.326539355474495" lon="13.133639061367635"><ele>224.33333333333334</ele><time>2026-05-03T10:00:02Z</time></trkpt><trkpt lat="46.3263707539485" lon="13.133477558697331"><ele>224.66666666666669</ele><time>2026-05-03T10:00:03Z</time></trkpt><trkpt lat="46.32620481968313" lon="13.133321596393506"><ele>225.0</ele><time>2026-05-03T10:00:04Z</time></trkpt><trkpt lat="46.326033116163785" lon="13.133162740882634"><ele>225.0</ele><time>2026-05-03T10:00:05Z</time></trkpt><trkpt lat="46.32586340768439" lon="13.133007465078544"><ele>225.0</ele><time>2026-05-03T10:00:06Z</time></trkpt><trkpt lat="46.325699415233956" lon="13.132849692127264"><ele>225.0</ele><time>2026-05-03T10:00:07Z</time></trkpt><trkpt lat="46.325526966556176" lon="13.13268575242384"><ele>224.66666666666669</ele><time>2026-05-03T10:00:08Z</time></trkpt><trkpt lat="46.32535440981431" lon="13.1325248545066"><ele>224.33333333333334</ele><time>2026-05-03T10:00:09Z</time></trkpt><trkpt lat="46.3251752253593" lon="13.132362627166243"><ele>224.0</ele><time>2026-05-03T10:00:10Z</time></trkpt><trkpt lat="46.312408860851114" lon="13.128552732210924"><ele>224.0</ele><time>2026-05-03T10:01:11Z</time></trkpt><trkpt lat="46.312194293706916" lon="13.128548027024731"><ele>224.0</ele><time>2026-05-03T10:01:12Z</time></trkpt><trkpt lat="46.31197494760532" lon="13.128543975598554"><ele>224.0</ele><time>2026-05-03T10:01:13Z</time></trkpt><trkpt lat="46.3117503446037" lon="13.128538802554477"><ele>224.0</ele><time>2026-05-03T10:01:14Z</time></trkpt><trkpt lat="46.31154557211489" lon="13.12853092106246"><ele>224.0</ele><time>2026-05-03T10:01:15Z</time></trkpt><trkpt lat="46.31135243447069" lon="13.128525294444898"><ele>224.0</ele><time>2026-05-03T10:01:16Z</time></trkpt><trkpt lat="46.31114357549619" lon="13.12852003039654"><ele>223.33333333333334</ele><time>2026-05-03T10:01:17Z</time></trkpt><trkpt lat="46.3109337944362" lon="13.128512769922915"><ele>222.66666666666669</ele><time>2026-05-03T10:01:18Z</time></trkpt><trkpt lat="46.31072331784486" lon="13.128504217538575"><ele>222.0</ele><time>2026-05-03T10:01:19Z</time></trkpt><trkpt lat="46.31050607600131" lon="13.128493063878501"><ele>221.33333333333331</ele><time>2026-05-03T10:01:20Z</time></trkpt><trkpt lat="46.31029645667216" lon="13.128481244666636"><ele>220.66666666666666</ele><time>2026-05-03T10:01:21Z</time></trkpt><trkpt lat="46.31009370752072" lon="13.12847720899413"><ele>220.0</ele><time>2026-05-03T10:01:22Z</time></trkpt><trkpt lat="46.309894305999" lon="13.128475357719259"><ele>222.0</ele><time>2026-05-03T10:01:23Z</time></trkpt><trkpt lat="46.30969324515969" lon="13.128470951509911"><ele>224.0</ele><time>2026-05-03T10:01:24Z</time></trkpt><trkpt lat="46.309495597946245" lon="13.128460166356462"><ele>226.0</ele><time>2026-05-03T10:01:25Z</time></trkpt><trkpt lat="46.30930644650428" lon="13.128447693131168"><ele>226.0</ele><time>2026-05-03T10:01:26Z</time></trkpt><trkpt lat="46.309125617397825" lon="13.12843165635722"><ele>226.0</ele><time>2026-05-03T10:01:27Z</time></trkpt><trkpt lat="46.308954478571195" lon="13.128401917307507"><ele>226.0</ele><time>2026-05-03T10:01:28Z</time></trkpt><trkpt lat="46.30879564483427" lon="13.128352693452937"><ele>225.0</ele><time>2026-05-03T10:01:29Z</time></trkpt><trkpt lat="46.30864403618526" lon="13.128292850654379"><ele>224.0</ele><time>2026-05-03T10:01:30Z</time></trkpt><trkpt lat="46.308500061307704" lon="13.128219665397566"><ele>223.0</ele><time>2026-05-03T10:01:31Z</time></trkpt><trkpt lat="46.30836508705144" lon="13.128135007938656"><ele>223.0</ele><time>2026-05-03T10:01:32Z</time></trkpt><trkpt lat="46.308224764818114" lon="13.12803769731559"><ele>223.0</ele><time>2026-05-03T10:01:33Z</time></trkpt><trkpt lat="46.30808168263926" lon="13.127927002902778"><ele>223.0</ele><time>2026-05-03T10:01:34Z</time></trkpt><trkpt lat="46.30794243907343" lon="13.12780109284394"><ele>224.0</ele><time>2026-05-03T10:01:35Z</time></trkpt><trkpt lat="46.30780583931325" lon="13.127668353010119"><ele>225.0</ele><time>2026-05-03T10:01:36Z</time></trkpt><trkpt lat="46.30766695206886" lon="13.127517265859982"><ele>226.0</ele><time>2026-05-03T10:01:37Z</time></trkpt><trkpt lat="46.307523511679044" lon="13.127320246514971"><ele>226.0</ele><time>2026-05-03T10:01:38Z</time></trkpt><trkpt lat="46.30737501778342" lon="13.127094210705218"><ele>226.0</ele><time>2026-05-03T10:01:39Z</time></trkpt><trkpt lat="46.30722438406925" lon="13.126845015996686"><ele>226.0</ele><time>2026-05-03T10:01:40Z</time></trkpt><trkpt lat="46.307077292913704" lon="13.126569019302382"><ele>229.33333333333331</ele><time>2026-05-03T10:01:41Z</time></trkpt><trkpt lat="46.306941003673685" lon="13.12630900802964"><ele>232.66666666666669</ele><time>2026-05-03T10:01:42Z</time></trkpt><trkpt lat="46.30681145391244" lon="13.126064644802337"><ele>236.0</ele><time>2026-05-03T10:01:43Z</time></trkpt><trkpt lat="46.306687547386055" lon="13.125837299990271"><ele>239.66666666666669</ele><time>2026-05-03T10:01:44Z</time></trkpt><trkpt lat="46.30657158669554" lon="13.125618138994602"><ele>243.33333333333331</ele><time>2026-05-03T10:01:45Z</time></trkpt><trkpt lat="46.30646071085912" lon="13.125410129903306"><ele>247.0</ele><time>2026-05-03T10:01:46Z</time></trkpt><trkpt lat="46.30634779913545" lon="13.125193592984346"><ele>247.0</ele><time>2026-05-03T10:01:47Z</time></trkpt><trkpt lat="46.30622608608276" lon="13.124950604560519"><ele>247.0</ele><time>2026-05-03T10:01:48Z</time></trkpt><trkpt lat="46.30610259164689" lon="13.124697882680804"><ele>247.0</ele><time>2026-05-03T10:01:49Z</time></trkpt><trkpt lat="46.30598182858772" lon="13.12445749943759"><ele>241.0</ele><time>2026-05-03T10:01:50Z</time></trkpt><trkpt lat="46.305867804979485" lon="13.124231165775702"><ele>235.0</ele><time>2026-05-03T10:01:51Z</time></trkpt><trkpt lat="46.30575216563327" lon="13.124000436469917"><ele>229.0</ele><time>2026-05-03T10:01:52Z</time></trkpt><trkpt lat="46.305627418159496" lon="13.123752777148818"><ele>224.5</ele><time>2026-05-03T10:01:53Z</time></trkpt><trkpt lat="46.305494004050104" lon="13.123493707748478"><ele>220.0</ele><time>2026-05-03T10:01:54Z</time></trkpt><trkpt lat="46.305349740039006" lon="13.123227144836871"><ele>220.0</ele><time>2026-05-03T10:01:55Z</time></trkpt><trkpt lat="46.30520088642614" lon="13.122980723437577"><ele>220.0</ele><time>2026-05-03T10:01:56Z</time></trkpt><trkpt lat="46.30504747139326" lon="13.12276573568505"><ele>220.0</ele><time>2026-05-03T10:01:57Z</time></trkpt><trkpt lat="46.30488928064038" lon="13.12257053209671"><ele>218.33333333333331</ele><time>2026-05-03T10:01:58Z</time></trkpt><trkpt lat="46.30472072359595" lon="13.122378739856053"><ele>216.66666666666669</ele><time>2026-05-03T10:01:59Z</time></trkpt><trkpt lat="46.30455634458754" lon="13.122202989574319"><ele>215.0</ele><time>2026-05-03T10:02:00Z</time></trkpt><trkpt lat="46.304399682586514" lon="13.12204041242596"><ele>215.0</ele><time>2026-05-03T10:02:01Z</time></trkpt><trkpt lat="46.30424845397161" lon="13.121886169710024"><ele>215.0</ele><time>2026-05-03T10:02:02Z</time></trkpt><trkpt lat="46.304097586253995" lon="13.121733895469648"><ele>215.0</ele><time>2026-05-03T10:02:03Z</time></trkpt><trkpt lat="46.303935083309014" lon="13.12156954009359"><ele>214.66666666666669</ele><time>2026-05-03T10:02:04Z</time></trkpt><trkpt lat="46.30377166386297" lon="13.121392262521802"><ele>214.33333333333331</ele><time>2026-05-03T10:02:05Z</time></trkpt><trkpt lat="46.30360390346825" lon="13.121212376482202"><ele>214.0</ele><time>2026-05-03T10:02:06Z</time></trkpt><trkpt lat="46.303440431655325" lon="13.121041754299155"><ele>214.0</ele><time>2026-05-03T10:02:07Z</time></trkpt><trkpt lat="46.303274407586585" lon="13.120872850078305"><ele>214.0</ele><time>2026-05-03T10:02:08Z</time></trkpt><trkpt lat="46.303107077703736" lon="13.120701720908103"><ele>214.0</ele><time>2026-05-03T10:02:09Z</time></trkpt><trkpt lat="46.30294277127113" lon="13.120533304407454"><ele>201.0</ele><time>2026-05-03T10:02:10Z</time></trkpt><trkpt lat="46.291338002948855" lon="13.114815718895263"><ele>201.0</ele><time>2026-05-03T10:03:11Z</time></trkpt><trkpt lat="46.29114754950038" lon="13.114770218544889"><ele>201.0</ele><time>2026-05-03T10:03:12Z</time></trkpt><trkpt lat="46.29096485176581" lon="13.114725453976668"><ele>201.0</ele><time>2026-05-03T10:03:13Z</time></trkpt><trkpt lat="46.29078867645969" lon="13.114681566041689"><ele>201.0</ele><time>2026-05-03T10:03:14Z</time></trkpt><trkpt lat="46.290618700123645" lon="13.1146368786345"><ele>201.0</ele><time>2026-05-03T10:03:15Z</time></trkpt><trkpt lat="46.29044307760229" lon="13.114582206149072"><ele>201.0</ele><time>2026-05-03T10:03:16Z</time></trkpt><trkpt lat="46.29026228000682" lon="13.114508188108214"><ele>200.66666666666669</ele><time>2026-05-03T10:03:17Z</time></trkpt><trkpt lat="46.29007807413211" lon="13.114412455081114"><ele>200.33333333333334</ele><time>2026-05-03T10:03:18Z</time></trkpt><trkpt lat="46.28989189583102" lon="13.11427737349854"><ele>200.0</ele><time>2026-05-03T10:03:19Z</time></trkpt><trkpt lat="46.28967725626907" lon="13.114127269119653"><ele>200.0</ele><time>2026-05-03T10:03:20Z</time></trkpt><trkpt lat="46.28943718071958" lon="13.11397599782532"><ele>200.0</ele><time>2026-05-03T10:03:21Z</time></trkpt><trkpt lat="46.289193622121246" lon="13.113787602509962"><ele>200.0</ele><time>2026-05-03T10:03:22Z</time></trkpt><trkpt lat="46.28897148140472" lon="13.113621045011264"><ele>200.0</ele><time>2026-05-03T10:03:23Z</time></trkpt><trkpt lat="46.28876434544908" lon="13.113470829560413"><ele>200.33333333333334</ele><time>2026-05-03T10:03:24Z</time></trkpt><trkpt lat="46.2885680851677" lon="13.113331411697246"><ele>200.66666666666669</ele><time>2026-05-03T10:03:25Z</time></trkpt><trkpt lat="46.28838361348699" lon="13.113194532132708"><ele>201.0</ele><time>2026-05-03T10:03:26Z</time></trkpt><trkpt lat="46.28820324299129" lon="13.113060389273716"><ele>201.0</ele><time>2026-05-03T10:03:27Z</time></trkpt><trkpt lat="46.28802465305702" lon="13.112919818777995"><ele>201.0</ele><time>2026-05-03T10:03:28Z</time></trkpt><trkpt lat="46.28785036580572" lon="13.112787968215276"><ele>201.0</ele><time>2026-05-03T10:03:29Z</time></trkpt><trkpt lat="46.28768568703047" lon="13.112667254107382"><ele>201.0</ele><time>2026-05-03T10:03:30Z</time></trkpt><trkpt lat="46.28752622716801" lon="13.112552878291158"><ele>201.0</ele><time>2026-05-03T10:03:31Z</time></trkpt><trkpt lat="46.28736773334255" lon="13.112439797617315"><ele>201.0</ele><time>2026-05-03T10:03:32Z</time></trkpt><trkpt lat="46.2872064980853" lon="13.112317245767164"><ele>200.66666666666669</ele><time>2026-05-03T10:03:33Z</time></trkpt><trkpt lat="46.28704271567898" lon="13.112193818661803"><ele>200.33333333333334</ele><time>2026-05-03T10:03:34Z</time></trkpt><trkpt lat="46.286878513609956" lon="13.112075139457938"><ele>200.0</ele><time>2026-05-03T10:03:35Z</time></trkpt><trkpt lat="46.28672753376996" lon="13.111961887124965"><ele>200.0</ele><time>2026-05-03T10:03:36Z</time></trkpt><trkpt lat="46.28657294748887" lon="13.111840696455916"><ele>200.0</ele><time>2026-05-03T10:03:37Z</time></trkpt><trkpt lat="46.286415113265186" lon="13.111722463699284"><ele>200.0</ele><time>2026-05-03T10:03:38Z</time></trkpt><trkpt lat="46.28625948981993" lon="13.111610538834327"><ele>200.0</ele><time>2026-05-03T10:03:39Z</time></trkpt><trkpt lat="46.286102236166705" lon="13.111493334997718"><ele>200.0</ele><time>2026-05-03T10:03:40Z</time></trkpt><trkpt lat="46.285941212302575" lon="13.11136427683142"><ele>200.0</ele><time>2026-05-03T10:03:41Z</time></trkpt><trkpt lat="46.28577220386338" lon="13.111237694919026"><ele>200.0</ele><time>2026-05-03T10:03:42Z</time></trkpt><trkpt lat="46.285596154689834" lon="13.11110926312208"><ele>200.0</ele><time>2026-05-03T10:03:43Z</time></trkpt><trkpt lat="46.285410455303335" lon="13.110974397229633"><ele>200.0</ele><time>2026-05-03T10:03:44Z</time></trkpt><trkpt lat="46.28522698877035" lon="13.110839311925176"><ele>199.66666666666669</ele><time>2026-05-03T10:03:45Z</time></trkpt><trkpt lat="46.28504767992387" lon="13.110711512167368"><ele>199.33333333333331</ele><time>2026-05-03T10:03:46Z</time></trkpt><trkpt lat="46.28487285313959" lon="13.110588725339882"><ele>199.0</ele><time>2026-05-03T10:03:47Z</time></trkpt><trkpt lat="46.284690657897706" lon="13.110462163699816"><ele>199.0</ele><time>2026-05-03T10:03:48Z</time></trkpt><trkpt lat="46.284501926748774" lon="13.11033122620894"><ele>199.0</ele><time>2026-05-03T10:03:49Z</time></trkpt><trkpt lat="46.284313709614494" lon="13.110202789848538"><ele>199.0</ele><time>2026-05-03T10:03:50Z</time></trkpt><trkpt lat="46.28413752525444" lon="13.110098350892336"><ele>199.0</ele><time>2026-05-03T10:03:51Z</time></trkpt><trkpt lat="46.283965487562696" lon="13.110020791018153"><ele>199.0</ele><time>2026-05-03T10:03:52Z</time></trkpt><trkpt lat="46.28379847917114" lon="13.109965478261051"><ele>199.0</ele><time>2026-05-03T10:03:53Z</time></trkpt><trkpt lat="46.28363665928504" lon="13.109923412407477"><ele>198.66666666666666</ele><time>2026-05-03T10:03:54Z</time></trkpt><trkpt lat="46.28347470171488" lon="13.109889764111239"><ele>198.33333333333331</ele><time>2026-05-03T10:03:55Z</time></trkpt><trkpt lat="46.28330423450443" lon="13.109859967192623"><ele>198.0</ele><time>2026-05-03T10:03:56Z</time></trkpt><trkpt lat="46.28312752278783" lon="13.109823424839949"><ele>197.66666666666669</ele><time>2026-05-03T10:03:57Z</time></trkpt><trkpt lat="46.2829480080033" lon="13.109785997260953"><ele>197.33333333333334</ele><time>2026-05-03T10:03:58Z</time></trkpt><trkpt lat="46.282775952268885" lon="13.109754859881404"><ele>197.0</ele><time>2026-05-03T10:03:59Z</time></trkpt><trkpt lat="46.28261687680449" lon="13.10972550594139"><ele>197.0</ele><time>2026-05-03T10:04:00Z</time></trkpt><trkpt lat="46.28246462302779" lon="13.109696767653718"><ele>197.0</ele><time>2026-05-03T10:04:01Z</time></trkpt><trkpt lat="46.28231813836104" lon="13.1096683381571"><ele>197.0</ele><time>2026-05-03T10:04:02Z</time></trkpt><trkpt lat="46.282186542777936" lon="13.109642583251368"><ele>197.0</ele><time>2026-05-03T10:04:03Z</time></trkpt><trkpt lat="46.28206947372281" lon="13.109619208312061"><ele>197.0</ele><time>2026-05-03T10:04:04Z</time></trkpt><trkpt lat="46.28195069911095" lon="13.109599803272827"><ele>197.0</ele><time>2026-05-03T10:04:05Z</time></trkpt><trkpt lat="46.28184228239505" lon="13.109581460462955"><ele>197.0</ele><time>2026-05-03T10:04:06Z</time></trkpt><trkpt lat="46.281753980655104" lon="13.109562662777265"><ele>197.0</ele><time>2026-05-03T10:04:07Z</time></trkpt><trkpt lat="46.281676853395176" lon="13.109543090747518"><ele>197.0</ele><time>2026-05-03T10:04:08Z</time></trkpt><trkpt lat="46.28160570743417" lon="13.10952694616941"><ele>197.0</ele><time>2026-05-03T10:04:09Z</time></trkpt><trkpt lat="46.281536392827284" lon="13.109509479251711"><ele>197.0</ele><time>2026-05-03T10:04:10Z</time></trkpt><trkpt lat="46.28103194312474" lon="13.10941765289235"><ele>197.0</ele><time>2026-05-03T10:05:23Z</time></trkpt><trkpt lat="46.28092478181549" lon="13.109401827822241"><ele>197.0</ele><time>2026-05-03T10:05:24Z</time></trkpt><trkpt lat="46.28079512202776" lon="13.109378751226506"><ele>197.0</ele><time>2026-05-03T10:05:25Z</time></trkpt><trkpt lat="46.28068875677422" lon="13.109363519677096"><ele>197.0</ele><time>2026-05-03T10:05:26Z</time></trkpt><trkpt lat="46.280590804867096" lon="13.109343872452198"><ele>197.0</ele><time>2026-05-03T10:05:27Z</time></trkpt><trkpt lat="46.28050551244058" lon="13.109327968354643"><ele>196.8</ele><time>2026-05-03T10:05:28Z</time></trkpt><trkpt lat="46.28042918135379" lon="13.109315630263271"><ele>196.6</ele><time>2026-05-03T10:05:29Z</time></trkpt><trkpt lat="46.280352272247924" lon="13.10930007914479"><ele>196.4</ele><time>2026-05-03T10:05:30Z</time></trkpt><trkpt lat="46.28027190784448" lon="13.109281787040365"><ele>196.20000000000002</ele><time>2026-05-03T10:05:31Z</time></trkpt><trkpt lat="46.28020176151354" lon="13.109268723915926"><ele>196.0</ele><time>2026-05-03T10:05:32Z</time></trkpt><trkpt lat="46.27996915631944" lon="13.109228580583883"><ele>196.0</ele><time>2026-05-03T10:05:33Z</time></trkpt><trkpt lat="46.279826102943424" lon="13.10920339247269"><ele>196.0</ele><time>2026-05-03T10:05:34Z</time></trkpt><trkpt lat="46.27969120403266" lon="13.109180037244414"><ele>196.0</ele><time>2026-05-03T10:05:35Z</time></trkpt><trkpt lat="46.279545454499456" lon="13.109155037894585"><ele>196.0</ele><time>2026-05-03T10:05:36Z</time></trkpt><trkpt lat="46.27939679063892" lon="13.1091353317786"><ele>196.0</ele><time>2026-05-03T10:05:37Z</time></trkpt><trkpt lat="46.27925673633779" lon="13.109111359061671"><ele>196.0</ele><time>2026-05-03T10:05:38Z</time></trkpt><trkpt lat="46.27911349125645" lon="13.109079591545248"><ele>196.0</ele><time>2026-05-03T10:05:39Z</time></trkpt><trkpt lat="46.2789757870653" lon="13.10906055760752"><ele>196.0</ele><time>2026-05-03T10:05:40Z</time></trkpt><trkpt lat="46.27883156052933" lon="13.10904664904716"><ele>196.0</ele><time>2026-05-03T10:05:41Z</time></trkpt><trkpt lat="46.278667273504745" lon="13.109034529522496"><ele>196.0</ele><time>2026-05-03T10:05:42Z</time></trkpt><trkpt lat="46.27846552999528" lon="13.10901133833943"><ele>196.0</ele><time>2026-05-03T10:05:43Z</time></trkpt><trkpt lat="46.27824331802972" lon="13.10898437546468"><ele>195.33333333333331</ele><time>2026-05-03T10:05:44Z</time></trkpt><trkpt lat="46.27805387389822" lon="13.108957872245178"><ele>194.66666666666669</ele><time>2026-05-03T10:05:45Z</time></trkpt><trkpt lat="46.277873701235876" lon="13.108924202661369"><ele>194.0</ele><time>2026-05-03T10:05:46Z</time></trkpt><trkpt lat="46.27768160428507" lon="13.108889555432006"><ele>194.0</ele><time>2026-05-03T10:05:47Z</time></trkpt><trkpt lat="46.277508569036996" lon="13.10885770665955"><ele>194.0</ele><time>2026-05-03T10:05:48Z</time></trkpt><trkpt lat="46.27734241528622" lon="13.108830264473568"><ele>194.0</ele><time>2026-05-03T10:05:49Z</time></trkpt><trkpt lat="46.277167215795025" lon="13.10880041666935"><ele>194.0</ele><time>2026-05-03T10:05:50Z</time></trkpt><trkpt lat="46.27697974260224" lon="13.108767703090294"><ele>194.0</ele><time>2026-05-03T10:05:51Z</time></trkpt><trkpt lat="46.27680455383409" lon="13.108734320462476"><ele>194.0</ele><time>2026-05-03T10:05:52Z</time></trkpt><trkpt lat="46.27663837548311" lon="13.108702103936313"><ele>194.0</ele><time>2026-05-03T10:05:53Z</time></trkpt><trkpt lat="46.27646210883289" lon="13.10867312286714"><ele>194.0</ele><time>2026-05-03T10:05:54Z</time></trkpt><trkpt lat="46.27625736440312" lon="13.108639111004408"><ele>194.0</ele><time>2026-05-03T10:05:55Z</time></trkpt><trkpt lat="46.27607712051628" lon="13.108607435993006"><ele>194.0</ele><time>2026-05-03T10:05:56Z</time></trkpt><trkpt lat="46.27591025999277" lon="13.108581242056445"><ele>194.0</ele><time>2026-05-03T10:05:57Z</time></trkpt><trkpt lat="46.275751177973525" lon="13.108555214623685"><ele>194.0</ele><time>2026-05-03T10:05:58Z</time></trkpt><trkpt lat="46.27560297499779" lon="13.10852512432845"><ele>194.0</ele><time>2026-05-03T10:05:59Z</time></trkpt><trkpt lat="46.27545953406731" lon="13.108499036873067"><ele>194.0</ele><time>2026-05-03T10:06:00Z</time></trkpt><trkpt lat="46.27532451778976" lon="13.108474247865047"><ele>194.0</ele><time>2026-05-03T10:06:01Z</time></trkpt><trkpt lat="46.275191499129406" lon="13.108454713298558"><ele>194.0</ele><time>2026-05-03T10:06:02Z</time></trkpt><trkpt lat="46.27505836807343" lon="13.108430397294027"><ele>194.0</ele><time>2026-05-03T10:06:03Z</time></trkpt><trkpt lat="46.27493248581766" lon="13.10840745452581"><ele>194.0</ele><time>2026-05-03T10:06:04Z</time></trkpt><trkpt lat="46.27481008957718" lon="13.108386353091296"><ele>194.0</ele><time>2026-05-03T10:06:05Z</time></trkpt><trkpt lat="46.27469640087152" lon="13.108364066728475"><ele>194.0</ele><time>2026-05-03T10:06:06Z</time></trkpt><trkpt lat="46.27457586596909" lon="13.108340256245102"><ele>193.75</ele><time>2026-05-03T10:06:07Z</time></trkpt><trkpt lat="46.27443319449974" lon="13.108312817509855"><ele>193.5</ele><time>2026-05-03T10:06:08Z</time></trkpt><trkpt lat="46.27428924411589" lon="13.108287121488171"><ele>193.25</ele><time>2026-05-03T10:06:09Z</time></trkpt><trkpt lat="46.27416608429181" lon="13.108263277499258"><ele>193.0</ele><time>2026-05-03T10:06:10Z</time></trkpt><trkpt lat="46.264651928911064" lon="13.107867088479951"><ele>191.0</ele><time>2026-05-03T10:07:11Z</time></trkpt><trkpt lat="46.264454842501856" lon="13.107892410343345"><ele>189.0</ele><time>2026-05-03T10:07:12Z</time></trkpt><trkpt lat="46.26423445170495" lon="13.107918847921187"><ele>187.0</ele><time>2026-05-03T10:07:13Z</time></trkpt><trkpt lat="46.26401885922578" lon="13.107943430029724"><ele>186.0</ele><time>2026-05-03T10:07:14Z</time></trkpt><trkpt lat="46.26381117050475" lon="13.107970165578191"><ele>185.0</ele><time>2026-05-03T10:07:15Z</time></trkpt><trkpt lat="46.26360085906434" lon="13.107996479960653"><ele>184.0</ele><time>2026-05-03T10:07:16Z</time></trkpt><trkpt lat="46.26338118106191" lon="13.10802243097971"><ele>184.0</ele><time>2026-05-03T10:07:17Z</time></trkpt><trkpt lat="46.263152953890355" lon="13.108051895536912"><ele>184.0</ele><time>2026-05-03T10:07:18Z</time></trkpt><trkpt lat="46.26292900244169" lon="13.108081643369408"><ele>184.66666666666669</ele><time>2026-05-03T10:07:19Z</time></trkpt><trkpt lat="46.262720484774" lon="13.108108216221051"><ele>185.33333333333334</ele><time>2026-05-03T10:07:20Z</time></trkpt><trkpt lat="46.26251181849057" lon="13.10813362579713"><ele>186.0</ele><time>2026-05-03T10:07:21Z</time></trkpt><trkpt lat="46.26228706170268" lon="13.1081629387269"><ele>186.5</ele><time>2026-05-03T10:07:22Z</time></trkpt><trkpt lat="46.26205545818259" lon="13.108190008869409"><ele>187.0</ele><time>2026-05-03T10:07:23Z</time></trkpt><trkpt lat="46.261819551909014" lon="13.108218735432366"><ele>186.5</ele><time>2026-05-03T10:07:24Z</time></trkpt><trkpt lat="46.26158275050422" lon="13.108249707786596"><ele>186.0</ele><time>2026-05-03T10:07:25Z</time></trkpt><trkpt lat="46.26135423659302" lon="13.108279273681694"><ele>186.66666666666666</ele><time>2026-05-03T10:07:26Z</time></trkpt><trkpt lat="46.26115030646439" lon="13.108301460290052"><ele>187.33333333333331</ele><time>2026-05-03T10:07:27Z</time></trkpt><trkpt lat="46.26095640325753" lon="13.108320102517272"><ele>188.0</ele><time>2026-05-03T10:07:28Z</time></trkpt><trkpt lat="46.26075512694727" lon="13.108340095973917"><ele>188.0</ele><time>2026-05-03T10:07:29Z</time></trkpt><trkpt lat="46.260565839756914" lon="13.10836254277512"><ele>188.0</ele><time>2026-05-03T10:07:30Z</time></trkpt><trkpt lat="46.260396487894546" lon="13.108384918410815"><ele>188.0</ele><time>2026-05-03T10:07:31Z</time></trkpt><trkpt lat="46.2602385563242" lon="13.108411022476126"><ele>188.0</ele><time>2026-05-03T10:07:32Z</time></trkpt><trkpt lat="46.26008863049345" lon="13.108443717287784"><ele>188.0</ele><time>2026-05-03T10:07:33Z</time></trkpt><trkpt lat="46.259951306825265" lon="13.10847626685686"><ele>188.0</ele><time>2026-05-03T10:07:34Z</time></trkpt><trkpt lat="46.259825936327864" lon="13.1085053900894"><ele>188.0</ele><time>2026-05-03T10:07:35Z</time></trkpt><trkpt lat="46.259704093901846" lon="13.10852732529385"><ele>187.5</ele><time>2026-05-03T10:07:36Z</time></trkpt><trkpt lat="46.25959035169689" lon="13.10853898881829"><ele>187.0</ele><time>2026-05-03T10:07:37Z</time></trkpt><trkpt lat="46.25947777676796" lon="13.108539892636337"><ele>186.5</ele><time>2026-05-03T10:07:38Z</time></trkpt><trkpt lat="46.25936255954853" lon="13.108527994644055"><ele>186.0</ele><time>2026-05-03T10:07:39Z</time></trkpt><trkpt lat="46.25924586022635" lon="13.108477190851852"><ele>186.0</ele><time>2026-05-03T10:07:40Z</time></trkpt><trkpt lat="46.25913275875972" lon="13.108397327372478"><ele>186.0</ele><time>2026-05-03T10:07:41Z</time></trkpt><trkpt lat="46.259033850102234" lon="13.10828387011784"><ele>186.0</ele><time>2026-05-03T10:07:42Z</time></trkpt><trkpt lat="46.258963483205086" lon="13.108136062049507"><ele>186.0</ele><time>2026-05-03T10:07:43Z</time></trkpt><trkpt lat="46.258914711657845" lon="13.107953845326497"><ele>186.66666666666666</ele><time>2026-05-03T10:07:44Z</time></trkpt><trkpt lat="46.25888822206422" lon="13.107737061921302"><ele>187.33333333333331</ele><time>2026-05-03T10:07:45Z</time></trkpt><trkpt lat="46.25887951291404" lon="13.107493530950734"><ele>188.0</ele><time>2026-05-03T10:07:46Z</time></trkpt><trkpt lat="46.25887966722462" lon="13.10724160431906"><ele>186.66666666666666</ele><time>2026-05-03T10:07:47Z</time></trkpt><trkpt lat="46.258874986526294" lon="13.106996066860594"><ele>185.33333333333334</ele><time>2026-05-03T10:07:48Z</time></trkpt><trkpt lat="46.25885604141845" lon="13.10675676136408"><ele>184.0</ele><time>2026-05-03T10:07:49Z</time></trkpt><trkpt lat="46.258824867627496" lon="13.10651744589962"><ele>183.66666666666669</ele><time>2026-05-03T10:07:50Z</time></trkpt><trkpt lat="46.25878083288534" lon="13.106292145185165"><ele>183.33333333333334</ele><time>2026-05-03T10:07:51Z</time></trkpt><trkpt lat="46.258727921827564" lon="13.106081906335968"><ele>183.0</ele><time>2026-05-03T10:07:52Z</time></trkpt><trkpt lat="46.25866942053282" lon="13.105876025966547"><ele>183.0</ele><time>2026-05-03T10:07:53Z</time></trkpt><trkpt lat="46.25860029130055" lon="13.105655489465866"><ele>183.0</ele><time>2026-05-03T10:07:54Z</time></trkpt><trkpt lat="46.258526129140755" lon="13.105443328377035"><ele>183.0</ele><time>2026-05-03T10:07:55Z</time></trkpt><trkpt lat="46.25844977757784" lon="13.105232901787913"><ele>183.0</ele><time>2026-05-03T10:07:56Z</time></trkpt><trkpt lat="46.25836505142955" lon="13.104992763881276"><ele>183.0</ele><time>2026-05-03T10:07:57Z</time></trkpt><trkpt lat="46.25825549544428" lon="13.104685411088083"><ele>183.0</ele><time>2026-05-03T10:07:58Z</time></trkpt><trkpt lat="46.2581245109294" lon="13.104326480847995"><ele>184.0</ele><time>2026-05-03T10:07:59Z</time></trkpt><trkpt lat="46.25798744835733" lon="13.103917078917672"><ele>185.0</ele><time>2026-05-03T10:08:00Z</time></trkpt><trkpt lat="46.25785803602397" lon="13.103484867233398"><ele>185.5</ele><time>2026-05-03T10:08:01Z</time></trkpt><trkpt lat="46.25773888794251" lon="13.103083088980823"><ele>186.0</ele><time>2026-05-03T10:08:02Z</time></trkpt><trkpt lat="46.25763010523738" lon="13.102719290381525"><ele>188.0</ele><time>2026-05-03T10:08:03Z</time></trkpt><trkpt lat="46.257525556536294" lon="13.10237216059004"><ele>190.0</ele><time>2026-05-03T10:08:04Z</time></trkpt><trkpt lat="46.2574074371988" lon="13.101995619856925"><ele>188.0</ele><time>2026-05-03T10:08:05Z</time></trkpt><trkpt lat="46.257270127205" lon="13.101582870267931"><ele>186.0</ele><time>2026-05-03T10:08:06Z</time></trkpt><trkpt lat="46.25712907989398" lon="13.101175858270322"><ele>185.0</ele><time>2026-05-03T10:08:07Z</time></trkpt><trkpt lat="46.25698973087489" lon="13.100816825184843"><ele>184.0</ele><time>2026-05-03T10:08:08Z</time></trkpt><trkpt lat="46.25689143403308" lon="13.100493962346698"><ele>184.0</ele><time>2026-05-03T10:08:09Z</time></trkpt><trkpt lat="46.25678487530178" lon="13.100196756287593"><ele>184.0</ele><time>2026-05-03T10:08:10Z</time></trkpt><trkpt lat="46.24594086419441" lon="13.094795959880882"><ele>183.16666666666669</ele><time>2026-05-03T10:09:11Z</time></trkpt><trkpt lat="46.245867490710715" lon="13.094805223092568"><ele>182.33333333333334</ele><time>2026-05-03T10:09:12Z</time></trkpt><trkpt lat="46.245743001412656" lon="13.094816260201732"><ele>181.5</ele><time>2026-05-03T10:09:14Z</time></trkpt><trkpt lat="46.24564715072427" lon="13.09482164932846"><ele>180.66666666666666</ele><time>2026-05-03T10:09:16Z</time></trkpt><trkpt lat="46.24555942956255" lon="13.094834915657561"><ele>179.83333333333331</ele><time>2026-05-03T10:09:23Z</time></trkpt><trkpt lat="46.245493680234354" lon="13.094848331381781"><ele>179.0</ele><time>2026-05-03T10:09:24Z</time></trkpt><trkpt lat="46.24537816110303" lon="13.094866429552292"><ele>178.66666666666666</ele><time>2026-05-03T10:09:25Z</time></trkpt><trkpt lat="46.245217025616704" lon="13.094865697793592"><ele>178.33333333333334</ele><time>2026-05-03T10:09:26Z</time></trkpt><trkpt lat="46.24500828995281" lon="13.094847311213062"><ele>178.0</ele><time>2026-05-03T10:09:27Z</time></trkpt><trkpt lat="46.24474471672279" lon="13.09481864294052"><ele>177.5</ele><time>2026-05-03T10:09:28Z</time></trkpt><trkpt lat="46.244482154192454" lon="13.09476803785751"><ele>177.0</ele><time>2026-05-03T10:09:29Z</time></trkpt><trkpt lat="46.24418664530615" lon="13.094686658450152"><ele>178.0</ele><time>2026-05-03T10:09:30Z</time></trkpt><trkpt lat="46.2439569269997" lon="13.094588394066454"><ele>179.0</ele><time>2026-05-03T10:09:31Z</time></trkpt><trkpt lat="46.24371806130197" lon="13.094498217947223"><ele>179.0</ele><time>2026-05-03T10:09:32Z</time></trkpt><trkpt lat="46.24349144854667" lon="13.094415453606738"><ele>179.0</ele><time>2026-05-03T10:09:33Z</time></trkpt><trkpt lat="46.24325972413132" lon="13.09434143452667"><ele>177.0</ele><time>2026-05-03T10:09:34Z</time></trkpt><trkpt lat="46.24301440133446" lon="13.094280659947389"><ele>175.0</ele><time>2026-05-03T10:09:35Z</time></trkpt><trkpt lat="46.2427425713231" lon="13.094226629849858"><ele>175.0</ele><time>2026-05-03T10:09:36Z</time></trkpt><trkpt lat="46.24244729414288" lon="13.094169038597906"><ele>175.0</ele><time>2026-05-03T10:09:37Z</time></trkpt><trkpt lat="46.24212714469511" lon="13.094106163486952"><ele>176.0</ele><time>2026-05-03T10:09:38Z</time></trkpt><trkpt lat="46.24180276617024" lon="13.094043190765603"><ele>177.0</ele><time>2026-05-03T10:09:39Z</time></trkpt><trkpt lat="46.24150782367969" lon="13.093987051837788"><ele>175.5</ele><time>2026-05-03T10:09:40Z</time></trkpt><trkpt lat="46.241240800330274" lon="13.093939172487131"><ele>174.0</ele><time>2026-05-03T10:09:41Z</time></trkpt><trkpt lat="46.240988176815776" lon="13.09389411114971"><ele>174.0</ele><time>2026-05-03T10:09:42Z</time></trkpt><trkpt lat="46.24072985579399" lon="13.093842812255382"><ele>174.0</ele><time>2026-05-03T10:09:43Z</time></trkpt><trkpt lat="46.24046001645664" lon="13.093782043321946"><ele>172.5</ele><time>2026-05-03T10:09:44Z</time></trkpt><trkpt lat="46.240188374779656" lon="13.093716339849484"><ele>171.0</ele><time>2026-05-03T10:09:45Z</time></trkpt><trkpt lat="46.23991935473597" lon="13.093650546739028"><ele>173.0</ele><time>2026-05-03T10:09:46Z</time></trkpt><trkpt lat="46.23964232345385" lon="13.093579715378905"><ele>175.0</ele><time>2026-05-03T10:09:47Z</time></trkpt><trkpt lat="46.23935434877434" lon="13.09350124828424"><ele>175.0</ele><time>2026-05-03T10:09:48Z</time></trkpt><trkpt lat="46.2390531180344" lon="13.093419952613088"><ele>175.0</ele><time>2026-05-03T10:09:49Z</time></trkpt><trkpt lat="46.23875387749196" lon="13.093344072056999"><ele>173.5</ele><time>2026-05-03T10:09:50Z</time></trkpt><trkpt lat="46.23847118610808" lon="13.093274440945407"><ele>172.0</ele><time>2026-05-03T10:09:51Z</time></trkpt><trkpt lat="46.23818596867595" lon="13.093207038073375"><ele>172.0</ele><time>2026-05-03T10:09:52Z</time></trkpt><trkpt lat="46.23789756939604" lon="13.093132961457874"><ele>172.0</ele><time>2026-05-03T10:09:53Z</time></trkpt><trkpt lat="46.23761420997055" lon="13.093059616090903"><ele>172.0</ele><time>2026-05-03T10:09:54Z</time></trkpt><trkpt lat="46.23733691593495" lon="13.092987140228507"><ele>172.0</ele><time>2026-05-03T10:09:55Z</time></trkpt><trkpt lat="46.23706392369807" lon="13.092915989084961"><ele>171.5</ele><time>2026-05-03T10:09:56Z</time></trkpt><trkpt lat="46.23679402371076" lon="13.092844678451241"><ele>171.0</ele><time>2026-05-03T10:09:57Z</time></trkpt><trkpt lat="46.23652791338975" lon="13.092773507822336"><ele>170.0</ele><time>2026-05-03T10:09:58Z</time></trkpt><trkpt lat="46.23628258647426" lon="13.09271104805849"><ele>169.0</ele><time>2026-05-03T10:09:59Z</time></trkpt><trkpt lat="46.236053355329396" lon="13.092653044130518"><ele>169.0</ele><time>2026-05-03T10:10:00Z</time></trkpt><trkpt lat="46.2358332988201" lon="13.092596766037456"><ele>169.0</ele><time>2026-05-03T10:10:01Z</time></trkpt><trkpt lat="46.235592641639954" lon="13.092537903888685"><ele>169.0</ele><time>2026-05-03T10:10:02Z</time></trkpt><trkpt lat="46.23532989249789" lon="13.092446936027434"><ele>169.0</ele><time>2026-05-03T10:10:03Z</time></trkpt><trkpt lat="46.2350484815999" lon="13.092375414522685"><ele>169.0</ele><time>2026-05-03T10:10:04Z</time></trkpt><trkpt lat="46.234768259114475" lon="13.092304197353624"><ele>169.0</ele><time>2026-05-03T10:10:05Z</time></trkpt><trkpt lat="46.23448506642779" lon="13.0922322230895"><ele>169.0</ele><time>2026-05-03T10:10:06Z</time></trkpt><trkpt lat="46.23417811290623" lon="13.092154209932856"><ele>169.0</ele><time>2026-05-03T10:10:07Z</time></trkpt><trkpt lat="46.23396006902681" lon="13.09211611659466"><ele>171.5</ele><time>2026-05-03T10:10:08Z</time></trkpt><trkpt lat="46.233692567136416" lon="13.092046097616374"><ele>174.0</ele><time>2026-05-03T10:10:09Z</time></trkpt><trkpt lat="46.23343448095916" lon="13.091978795726405"><ele>164.0</ele><time>2026-05-03T10:10:10Z</time></trkpt><trkpt lat="46.21812526891347" lon="13.087412718273065"><ele>164.0</ele><time>2026-05-03T10:11:11Z</time></trkpt><trkpt lat="46.217985867009105" lon="13.087352469459665"><ele>164.0</ele><time>2026-05-03T10:11:12Z</time></trkpt><trkpt lat="46.217853758261654" lon="13.087297210074132"><ele>164.0</ele><time>2026-05-03T10:11:13Z</time></trkpt><trkpt lat="46.217736654137475" lon="13.087252415476767"><ele>164.0</ele><time>2026-05-03T10:11:14Z</time></trkpt><trkpt lat="46.21763092789466" lon="13.087205529804692"><ele>164.0</ele><time>2026-05-03T10:11:15Z</time></trkpt><trkpt lat="46.21753015637916" lon="13.087162386738122"><ele>164.0</ele><time>2026-05-03T10:11:16Z</time></trkpt><trkpt lat="46.217440008778695" lon="13.08711791603175"><ele>164.0</ele><time>2026-05-03T10:11:17Z</time></trkpt><trkpt lat="46.217354011087565" lon="13.087064213703515"><ele>164.0</ele><time>2026-05-03T10:11:18Z</time></trkpt><trkpt lat="46.21727925153571" lon="13.086977287226004"><ele>164.0</ele><time>2026-05-03T10:11:19Z</time></trkpt><trkpt lat="46.21721217865834" lon="13.086852617977476"><ele>164.25</ele><time>2026-05-03T10:11:20Z</time></trkpt><trkpt lat="46.217171860338496" lon="13.08668904102573"><ele>164.5</ele><time>2026-05-03T10:11:21Z</time></trkpt><trkpt lat="46.217156859526035" lon="13.086507359364163"><ele>164.75</ele><time>2026-05-03T10:11:22Z</time></trkpt><trkpt lat="46.217156534774105" lon="13.086330466431217"><ele>165.0</ele><time>2026-05-03T10:11:23Z</time></trkpt><trkpt lat="46.217251625014626" lon="13.086162259932493"><ele>165.0</ele><time>2026-05-03T10:11:24Z</time></trkpt><trkpt lat="46.21734210319605" lon="13.085958481659974"><ele>165.0</ele><time>2026-05-03T10:11:25Z</time></trkpt><trkpt lat="46.217438671089894" lon="13.085706197372307"><ele>165.0</ele><time>2026-05-03T10:11:26Z</time></trkpt><trkpt lat="46.21756438008847" lon="13.08542774149666"><ele>165.0</ele><time>2026-05-03T10:11:27Z</time></trkpt><trkpt lat="46.217681072179076" lon="13.085162773817625"><ele>165.0</ele><time>2026-05-03T10:11:28Z</time></trkpt><trkpt lat="46.21777978301418" lon="13.084937604899586"><ele>165.0</ele><time>2026-05-03T10:11:29Z</time></trkpt><trkpt lat="46.217884492495784" lon="13.084748193277925"><ele>164.75</ele><time>2026-05-03T10:11:30Z</time></trkpt><trkpt lat="46.217968685321246" lon="13.08455898884333"><ele>164.5</ele><time>2026-05-03T10:11:31Z</time></trkpt><trkpt lat="46.218046964532114" lon="13.084381962396202"><ele>164.25</ele><time>2026-05-03T10:11:32Z</time></trkpt><trkpt lat="46.21812270382458" lon="13.084211555950343"><ele>164.0</ele><time>2026-05-03T10:11:33Z</time></trkpt><trkpt lat="46.218204491978625" lon="13.084027766866294"><ele>164.0</ele><time>2026-05-03T10:11:34Z</time></trkpt><trkpt lat="46.21829048802302" lon="13.083834522147502"><ele>164.0</ele><time>2026-05-03T10:11:35Z</time></trkpt><trkpt lat="46.21836919843371" lon="13.083657649276462"><ele>164.0</ele><time>2026-05-03T10:11:36Z</time></trkpt><trkpt lat="46.21843700516966" lon="13.08350530023825"><ele>164.0</ele><time>2026-05-03T10:11:37Z</time></trkpt><trkpt lat="46.2184903717806" lon="13.0833854004988"><ele>164.0</ele><time>2026-05-03T10:11:38Z</time></trkpt><trkpt lat="46.21852857321168" lon="13.083299572664918"><ele>164.0</ele><time>2026-05-03T10:11:39Z</time></trkpt><trkpt lat="46.21858752487722" lon="13.083167124938592"><ele>164.0</ele><time>2026-05-03T10:11:41Z</time></trkpt><trkpt lat="46.21864405808853" lon="13.083040106735897"><ele>164.0</ele><time>2026-05-03T10:11:43Z</time></trkpt><trkpt lat="46.218429848849205" lon="13.082869286269794"><ele>164.0</ele><time>2026-05-03T10:11:45Z</time></trkpt><trkpt lat="46.21834769354712" lon="13.082779338582416"><ele>164.0</ele><time>2026-05-03T10:11:46Z</time></trkpt><trkpt lat="46.21825687208257" lon="13.082737601960355"><ele>164.0</ele><time>2026-05-03T10:11:47Z</time></trkpt><trkpt lat="46.218171082699335" lon="13.082687816385372"><ele>164.0</ele><time>2026-05-03T10:11:48Z</time></trkpt><trkpt lat="46.218078084325064" lon="13.082600757237872"><ele>164.0</ele><time>2026-05-03T10:11:49Z</time></trkpt><trkpt lat="46.217969069969094" lon="13.082528962381764"><ele>164.0</ele><time>2026-05-03T10:11:50Z</time></trkpt><trkpt lat="46.217861706299416" lon="13.08248676542633"><ele>164.0</ele><time>2026-05-03T10:11:51Z</time></trkpt><trkpt lat="46.21776352003526" lon="13.082410995952754"><ele>164.0</ele><time>2026-05-03T10:11:52Z</time></trkpt><trkpt lat="46.21765107043429" lon="13.082345488958655"><ele>164.0</ele><time>2026-05-03T10:11:53Z</time></trkpt><trkpt lat="46.217526119463365" lon="13.082281316296747"><ele>164.0</ele><time>2026-05-03T10:11:54Z</time></trkpt><trkpt lat="46.217407282877964" lon="13.082184410014357"><ele>164.0</ele><time>2026-05-03T10:11:55Z</time></trkpt><trkpt lat="46.217286931719364" lon="13.082121974302355"><ele>164.0</ele><time>2026-05-03T10:11:56Z</time></trkpt><trkpt lat="46.21718514585606" lon="13.082059733545835"><ele>164.0</ele><time>2026-05-03T10:11:57Z</time></trkpt><trkpt lat="46.21708766347677" lon="13.082004435645933"><ele>164.0</ele><time>2026-05-03T10:11:58Z</time></trkpt><trkpt lat="46.21699068708819" lon="13.081944797708088"><ele>164.0</ele><time>2026-05-03T10:11:59Z</time></trkpt><trkpt lat="46.21689222087285" lon="13.081883807525418"><ele>164.0</ele><time>2026-05-03T10:12:00Z</time></trkpt><trkpt lat="46.216792822447836" lon="13.081826623091938"><ele>164.0</ele><time>2026-05-03T10:12:01Z</time></trkpt><trkpt lat="46.216699862888646" lon="13.081776286311106"><ele>164.0</ele><time>2026-05-03T10:12:02Z</time></trkpt><trkpt lat="46.21662318549273" lon="13.081700992356453"><ele>164.0</ele><time>2026-05-03T10:12:03Z</time></trkpt><trkpt lat="46.21655034742085" lon="13.081642222823076"><ele>164.0</ele><time>2026-05-03T10:12:04Z</time></trkpt><trkpt lat="46.2164909964162" lon="13.08157730873797"><ele>164.0</ele><time>2026-05-03T10:12:05Z</time></trkpt><trkpt lat="46.21645109120326" lon="13.081476245738585"><ele>164.0</ele><time>2026-05-03T10:12:06Z</time></trkpt><trkpt lat="46.216449691001806" lon="13.081310023290364"><ele>164.0</ele><time>2026-05-03T10:12:07Z</time></trkpt><trkpt lat="46.21645206318751" lon="13.08115722308867"><ele>164.0</ele><time>2026-05-03T10:12:08Z</time></trkpt><trkpt lat="46.216460461377714" lon="13.081019817693337"><ele>164.0</ele><time>2026-05-03T10:12:09Z</time></trkpt><trkpt lat="46.216456896755545" lon="13.080899429917004"><ele>164.0</ele><time>2026-05-03T10:12:10Z</time></trkpt><trkpt lat="46.212576373561426" lon="13.078264265912939"><ele>162.0</ele><time>2026-05-03T10:13:11Z</time></trkpt><trkpt lat="46.21263887897019" lon="13.078059614887867"><ele>162.0</ele><time>2026-05-03T10:13:39Z</time></trkpt></trkseg></trk></gpx>